<?xml version="1.0" encoding="UTF-8" standalone="no" ?>
<gpx xmlns="http://www.topografix.com/GPX/1/1" xmlns:xsi="http://www.w3.org/2001/XMLSchema-instance" xsi:schemaLocation="http://www.topografix.com/GPX/1/1 http://www.topografix.com/GPX/1/1/gpx.xsd" version="1.1" creator="VisuGPX - https://www.visugpx.com">
  <metadata>
    <name>Pornichet 07/11/2021</name>
    <desc><![CDATA[Sortie dimanche 07 novembre 2021]]></desc>
  </metadata>
  <trk>
    <name><![CDATA[Pornichet Cyclisme]]></name>
    <trkseg>
      <trkpt lat="47.26409" lon="-2.31561">
        <ele>9.7</ele>
        <time>2021-11-07T08:16:52.000Z</time>
      </trkpt>
      <trkpt lat="47.2641" lon="-2.31573">
        <ele>9.7</ele>
        <time>2021-11-07T08:16:55.000Z</time>
      </trkpt>
      <trkpt lat="47.2641" lon="-2.31577">
        <ele>-0.20000000298023</ele>
        <time>2021-11-07T08:16:56.000Z</time>
      </trkpt>
      <trkpt lat="47.26408" lon="-2.31589">
        <ele>-0.20000000298023</ele>
        <time>2021-11-07T08:16:59.000Z</time>
      </trkpt>
      <trkpt lat="47.26406" lon="-2.31622">
        <ele>-0.20000000298023</ele>
        <time>2021-11-07T08:17:07.000Z</time>
      </trkpt>
      <trkpt lat="47.26407" lon="-2.31647">
        <ele>-0.20000000298023</ele>
        <time>2021-11-07T08:17:12.000Z</time>
      </trkpt>
      <trkpt lat="47.26407" lon="-2.31651">
        <ele>-0.20000000298023</ele>
        <time>2021-11-07T08:17:13.000Z</time>
      </trkpt>
      <trkpt lat="47.26402" lon="-2.31658">
        <ele>-0.20000000298023</ele>
        <time>2021-11-07T08:17:15.000Z</time>
      </trkpt>
      <trkpt lat="47.26371" lon="-2.31674">
        <ele>-0.20000000298023</ele>
        <time>2021-11-07T08:17:23.000Z</time>
      </trkpt>
      <trkpt lat="47.26367" lon="-2.31677">
        <ele>-0.60000002384186</ele>
        <time>2021-11-07T08:17:24.000Z</time>
      </trkpt>
      <trkpt lat="47.26363" lon="-2.31679">
        <ele>-1</ele>
        <time>2021-11-07T08:17:25.000Z</time>
      </trkpt>
      <trkpt lat="47.26358" lon="-2.31681">
        <ele>-1.3999999761581</ele>
        <time>2021-11-07T08:17:26.000Z</time>
      </trkpt>
      <trkpt lat="47.26354" lon="-2.31684">
        <ele>-1.7999999523163</ele>
        <time>2021-11-07T08:17:27.000Z</time>
      </trkpt>
      <trkpt lat="47.2635" lon="-2.31686">
        <ele>-2.2000000476837</ele>
        <time>2021-11-07T08:17:28.000Z</time>
      </trkpt>
      <trkpt lat="47.26341" lon="-2.31691">
        <ele>-2.2000000476837</ele>
        <time>2021-11-07T08:17:30.000Z</time>
      </trkpt>
      <trkpt lat="47.26322" lon="-2.31701">
        <ele>-2.2000000476837</ele>
        <time>2021-11-07T08:17:35.000Z</time>
      </trkpt>
      <trkpt lat="47.26317" lon="-2.31703">
        <ele>-2.5999999046326</ele>
        <time>2021-11-07T08:17:36.000Z</time>
      </trkpt>
      <trkpt lat="47.26313" lon="-2.31706">
        <ele>-3</ele>
        <time>2021-11-07T08:17:37.000Z</time>
      </trkpt>
      <trkpt lat="47.26308" lon="-2.31708">
        <ele>-3.4000000953674</ele>
        <time>2021-11-07T08:17:38.000Z</time>
      </trkpt>
      <trkpt lat="47.26305" lon="-2.31711">
        <ele>-3.7999999523163</ele>
        <time>2021-11-07T08:17:39.000Z</time>
      </trkpt>
      <trkpt lat="47.26302" lon="-2.31714">
        <ele>-4.1999998092651</ele>
        <time>2021-11-07T08:17:40.000Z</time>
      </trkpt>
      <trkpt lat="47.26299" lon="-2.31718">
        <ele>-4.1999998092651</ele>
        <time>2021-11-07T08:17:41.000Z</time>
      </trkpt>
      <trkpt lat="47.26298" lon="-2.31723">
        <ele>-4.1999998092651</ele>
        <time>2021-11-07T08:17:42.000Z</time>
      </trkpt>
      <trkpt lat="47.26298" lon="-2.31732">
        <ele>-4.1999998092651</ele>
        <time>2021-11-07T08:17:44.000Z</time>
      </trkpt>
      <trkpt lat="47.26301" lon="-2.31766">
        <ele>-4.1999998092651</ele>
        <time>2021-11-07T08:17:51.000Z</time>
      </trkpt>
      <trkpt lat="47.26302" lon="-2.31802">
        <ele>-4.1999998092651</ele>
        <time>2021-11-07T08:17:58.000Z</time>
      </trkpt>
      <trkpt lat="47.26299" lon="-2.31839">
        <ele>-4.1999998092651</ele>
        <time>2021-11-07T08:18:05.000Z</time>
      </trkpt>
      <trkpt lat="47.26298" lon="-2.31848">
        <ele>-4.5999999046326</ele>
        <time>2021-11-07T08:18:07.000Z</time>
      </trkpt>
      <trkpt lat="47.26299" lon="-2.31853">
        <ele>-5</ele>
        <time>2021-11-07T08:18:08.000Z</time>
      </trkpt>
      <trkpt lat="47.26299" lon="-2.31856">
        <ele>-5.4000000953674</ele>
        <time>2021-11-07T08:18:09.000Z</time>
      </trkpt>
      <trkpt lat="47.26299" lon="-2.31859">
        <ele>-5.8000001907349</ele>
        <time>2021-11-07T08:18:10.000Z</time>
      </trkpt>
      <trkpt lat="47.26299" lon="-2.31862">
        <ele>-6.1999998092651</ele>
        <time>2021-11-07T08:18:11.000Z</time>
      </trkpt>
      <trkpt lat="47.26299" lon="-2.31865">
        <ele>-6.1999998092651</ele>
        <time>2021-11-07T08:18:12.000Z</time>
      </trkpt>
      <trkpt lat="47.26299" lon="-2.31878">
        <ele>-6.1999998092651</ele>
        <time>2021-11-07T08:18:17.000Z</time>
      </trkpt>
      <trkpt lat="47.26298" lon="-2.31898">
        <ele>-6.1999998092651</ele>
        <time>2021-11-07T08:18:24.000Z</time>
      </trkpt>
      <trkpt lat="47.26299" lon="-2.31913">
        <ele>-6.1999998092651</ele>
        <time>2021-11-07T08:18:31.000Z</time>
      </trkpt>
      <trkpt lat="47.26299" lon="-2.31918">
        <ele>-6.1999998092651</ele>
        <time>2021-11-07T08:18:37.000Z</time>
      </trkpt>
      <trkpt lat="47.26299" lon="-2.31914">
        <ele>-6.1999998092651</ele>
        <time>2021-11-07T08:18:46.000Z</time>
      </trkpt>
      <trkpt lat="47.26298" lon="-2.31897">
        <ele>-6.1999998092651</ele>
        <time>2021-11-07T08:18:53.000Z</time>
      </trkpt>
      <trkpt lat="47.26296" lon="-2.31891">
        <ele>-6.1999998092651</ele>
        <time>2021-11-07T08:18:56.000Z</time>
      </trkpt>
      <trkpt lat="47.26294" lon="-2.31891">
        <ele>-6.1999998092651</ele>
        <time>2021-11-07T08:18:58.000Z</time>
      </trkpt>
      <trkpt lat="47.26288" lon="-2.31897">
        <ele>-6.1999998092651</ele>
        <time>2021-11-07T08:19:02.000Z</time>
      </trkpt>
      <trkpt lat="47.26284" lon="-2.31901">
        <ele>-6.1999998092651</ele>
        <time>2021-11-07T08:19:04.000Z</time>
      </trkpt>
      <trkpt lat="47.26273" lon="-2.31919">
        <ele>-6.1999998092651</ele>
        <time>2021-11-07T08:19:10.000Z</time>
      </trkpt>
      <trkpt lat="47.26261" lon="-2.3194">
        <ele>-6.1999998092651</ele>
        <time>2021-11-07T08:19:17.000Z</time>
      </trkpt>
      <trkpt lat="47.26249" lon="-2.31963">
        <ele>-6.1999998092651</ele>
        <time>2021-11-07T08:19:24.000Z</time>
      </trkpt>
      <trkpt lat="47.26244" lon="-2.31967">
        <ele>-6.1999998092651</ele>
        <time>2021-11-07T08:19:27.000Z</time>
      </trkpt>
      <trkpt lat="47.26241" lon="-2.31966">
        <ele>-6.1999998092651</ele>
        <time>2021-11-07T08:19:28.000Z</time>
      </trkpt>
      <trkpt lat="47.26229" lon="-2.31974">
        <ele>-6.1999998092651</ele>
        <time>2021-11-07T08:19:33.000Z</time>
      </trkpt>
      <trkpt lat="47.26228" lon="-2.31977">
        <ele>-6.1999998092651</ele>
        <time>2021-11-07T08:19:34.000Z</time>
      </trkpt>
      <trkpt lat="47.2622" lon="-2.31987">
        <ele>-6.1999998092651</ele>
        <time>2021-11-07T08:19:38.000Z</time>
      </trkpt>
      <trkpt lat="47.26215" lon="-2.31991">
        <ele>-6.1999998092651</ele>
        <time>2021-11-07T08:19:40.000Z</time>
      </trkpt>
      <trkpt lat="47.26206" lon="-2.32005">
        <ele>-6.1999998092651</ele>
        <time>2021-11-07T08:19:45.000Z</time>
      </trkpt>
      <trkpt lat="47.26204" lon="-2.32014">
        <ele>-6.1999998092651</ele>
        <time>2021-11-07T08:19:48.000Z</time>
      </trkpt>
      <trkpt lat="47.26201" lon="-2.32017">
        <ele>-6.1999998092651</ele>
        <time>2021-11-07T08:19:50.000Z</time>
      </trkpt>
      <trkpt lat="47.262" lon="-2.32017">
        <ele>-6.1999998092651</ele>
        <time>2021-11-07T08:19:51.000Z</time>
      </trkpt>
      <trkpt lat="47.2619" lon="-2.32017">
        <ele>-6.1999998092651</ele>
        <time>2021-11-07T08:19:55.000Z</time>
      </trkpt>
      <trkpt lat="47.26187" lon="-2.32018">
        <ele>-6.1999998092651</ele>
        <time>2021-11-07T08:19:56.000Z</time>
      </trkpt>
      <trkpt lat="47.26171" lon="-2.32027">
        <ele>-6.1999998092651</ele>
        <time>2021-11-07T08:20:01.000Z</time>
      </trkpt>
      <trkpt lat="47.26159" lon="-2.32047">
        <ele>-6.1999998092651</ele>
        <time>2021-11-07T08:20:06.000Z</time>
      </trkpt>
      <trkpt lat="47.26144" lon="-2.32093">
        <ele>-6.1999998092651</ele>
        <time>2021-11-07T08:20:15.000Z</time>
      </trkpt>
      <trkpt lat="47.26133" lon="-2.3213">
        <ele>-6.1999998092651</ele>
        <time>2021-11-07T08:20:23.000Z</time>
      </trkpt>
      <trkpt lat="47.26127" lon="-2.32144">
        <ele>-6.5999999046326</ele>
        <time>2021-11-07T08:20:27.000Z</time>
      </trkpt>
      <trkpt lat="47.26126" lon="-2.32147">
        <ele>-7</ele>
        <time>2021-11-07T08:20:28.000Z</time>
      </trkpt>
      <trkpt lat="47.26124" lon="-2.3215">
        <ele>-7.4000000953674</ele>
        <time>2021-11-07T08:20:29.000Z</time>
      </trkpt>
      <trkpt lat="47.26123" lon="-2.32153">
        <ele>-7.8000001907349</ele>
        <time>2021-11-07T08:20:30.000Z</time>
      </trkpt>
      <trkpt lat="47.26122" lon="-2.32156">
        <ele>-8.1999998092651</ele>
        <time>2021-11-07T08:20:31.000Z</time>
      </trkpt>
      <trkpt lat="47.26116" lon="-2.3217">
        <ele>-8.1999998092651</ele>
        <time>2021-11-07T08:20:36.000Z</time>
      </trkpt>
      <trkpt lat="47.26112" lon="-2.32176">
        <ele>-8.1999998092651</ele>
        <time>2021-11-07T08:20:41.000Z</time>
      </trkpt>
      <trkpt lat="47.26111" lon="-2.32179">
        <ele>-8.1999998092651</ele>
        <time>2021-11-07T08:21:20.000Z</time>
      </trkpt>
      <trkpt lat="47.26108" lon="-2.32186">
        <ele>-8.1999998092651</ele>
        <time>2021-11-07T08:21:23.000Z</time>
      </trkpt>
      <trkpt lat="47.261" lon="-2.32205">
        <ele>-8.1999998092651</ele>
        <time>2021-11-07T08:21:28.000Z</time>
      </trkpt>
      <trkpt lat="47.26083" lon="-2.3223">
        <ele>-8.1999998092651</ele>
        <time>2021-11-07T08:21:35.000Z</time>
      </trkpt>
      <trkpt lat="47.26061" lon="-2.32257">
        <ele>-8.1999998092651</ele>
        <time>2021-11-07T08:21:43.000Z</time>
      </trkpt>
      <trkpt lat="47.26041" lon="-2.32281">
        <ele>-8.1999998092651</ele>
        <time>2021-11-07T08:21:50.000Z</time>
      </trkpt>
      <trkpt lat="47.26021" lon="-2.32305">
        <ele>-8.1999998092651</ele>
        <time>2021-11-07T08:21:57.000Z</time>
      </trkpt>
      <trkpt lat="47.26015" lon="-2.32312">
        <ele>-8.1999998092651</ele>
        <time>2021-11-07T08:21:59.000Z</time>
      </trkpt>
      <trkpt lat="47.25995" lon="-2.32338">
        <ele>-8.1999998092651</ele>
        <time>2021-11-07T08:22:06.000Z</time>
      </trkpt>
      <trkpt lat="47.25973" lon="-2.32368">
        <ele>-8.1999998092651</ele>
        <time>2021-11-07T08:22:14.000Z</time>
      </trkpt>
      <trkpt lat="47.25952" lon="-2.32394">
        <ele>-8.1999998092651</ele>
        <time>2021-11-07T08:22:22.000Z</time>
      </trkpt>
      <trkpt lat="47.25929" lon="-2.32424">
        <ele>-8.1999998092651</ele>
        <time>2021-11-07T08:22:31.000Z</time>
      </trkpt>
      <trkpt lat="47.25909" lon="-2.32449">
        <ele>-8.1999998092651</ele>
        <time>2021-11-07T08:22:39.000Z</time>
      </trkpt>
      <trkpt lat="47.25897" lon="-2.32465">
        <ele>-8.1999998092651</ele>
        <time>2021-11-07T08:22:45.000Z</time>
      </trkpt>
      <trkpt lat="47.25882" lon="-2.32473">
        <ele>-8.1999998092651</ele>
        <time>2021-11-07T08:22:50.000Z</time>
      </trkpt>
      <trkpt lat="47.25857" lon="-2.32477">
        <ele>-8.1999998092651</ele>
        <time>2021-11-07T08:22:57.000Z</time>
      </trkpt>
      <trkpt lat="47.25832" lon="-2.32471">
        <ele>-8.1999998092651</ele>
        <time>2021-11-07T08:23:04.000Z</time>
      </trkpt>
      <trkpt lat="47.25807" lon="-2.32459">
        <ele>-8.1999998092651</ele>
        <time>2021-11-07T08:23:11.000Z</time>
      </trkpt>
      <trkpt lat="47.25796" lon="-2.32456">
        <ele>-8.1999998092651</ele>
        <time>2021-11-07T08:23:16.000Z</time>
      </trkpt>
      <trkpt lat="47.25785" lon="-2.32458">
        <ele>-8.1999998092651</ele>
        <time>2021-11-07T08:23:21.000Z</time>
      </trkpt>
      <trkpt lat="47.25777" lon="-2.32448">
        <ele>-8.1999998092651</ele>
        <time>2021-11-07T08:23:25.000Z</time>
      </trkpt>
      <trkpt lat="47.25775" lon="-2.32445">
        <ele>-8.1999998092651</ele>
        <time>2021-11-07T08:23:26.000Z</time>
      </trkpt>
      <trkpt lat="47.2576" lon="-2.32429">
        <ele>-8.1999998092651</ele>
        <time>2021-11-07T08:23:32.000Z</time>
      </trkpt>
      <trkpt lat="47.25734" lon="-2.32428">
        <ele>-8.8000001907349</ele>
        <time>2021-11-07T08:23:38.000Z</time>
      </trkpt>
      <trkpt lat="47.2573" lon="-2.32427">
        <ele>-9.1999998092651</ele>
        <time>2021-11-07T08:23:39.000Z</time>
      </trkpt>
      <trkpt lat="47.25725" lon="-2.32427">
        <ele>-9.6000003814697</ele>
        <time>2021-11-07T08:23:40.000Z</time>
      </trkpt>
      <trkpt lat="47.25721" lon="-2.32427">
        <ele>-10</ele>
        <time>2021-11-07T08:23:41.000Z</time>
      </trkpt>
      <trkpt lat="47.25716" lon="-2.32427">
        <ele>-10.39999961853</ele>
        <time>2021-11-07T08:23:42.000Z</time>
      </trkpt>
      <trkpt lat="47.25698" lon="-2.32425">
        <ele>-10.39999961853</ele>
        <time>2021-11-07T08:23:46.000Z</time>
      </trkpt>
      <trkpt lat="47.25666" lon="-2.32425">
        <ele>-10.39999961853</ele>
        <time>2021-11-07T08:23:54.000Z</time>
      </trkpt>
      <trkpt lat="47.25663" lon="-2.32429">
        <ele>-10.39999961853</ele>
        <time>2021-11-07T08:23:55.000Z</time>
      </trkpt>
      <trkpt lat="47.25663" lon="-2.3244">
        <ele>-10.39999961853</ele>
        <time>2021-11-07T08:23:57.000Z</time>
      </trkpt>
      <trkpt lat="47.25669" lon="-2.32464">
        <ele>-10.39999961853</ele>
        <time>2021-11-07T08:24:01.000Z</time>
      </trkpt>
      <trkpt lat="47.25672" lon="-2.32475">
        <ele>-10.39999961853</ele>
        <time>2021-11-07T08:24:03.000Z</time>
      </trkpt>
      <trkpt lat="47.25673" lon="-2.32481">
        <ele>-10.39999961853</ele>
        <time>2021-11-07T08:24:04.000Z</time>
      </trkpt>
      <trkpt lat="47.25679" lon="-2.32498">
        <ele>-10</ele>
        <time>2021-11-07T08:24:07.000Z</time>
      </trkpt>
      <trkpt lat="47.25681" lon="-2.32504">
        <ele>-9.6000003814697</ele>
        <time>2021-11-07T08:24:08.000Z</time>
      </trkpt>
      <trkpt lat="47.25683" lon="-2.3251">
        <ele>-9.1999998092651</ele>
        <time>2021-11-07T08:24:09.000Z</time>
      </trkpt>
      <trkpt lat="47.25685" lon="-2.32515">
        <ele>-8.8000001907349</ele>
        <time>2021-11-07T08:24:10.000Z</time>
      </trkpt>
      <trkpt lat="47.25687" lon="-2.3252">
        <ele>-8.3999996185303</ele>
        <time>2021-11-07T08:24:11.000Z</time>
      </trkpt>
      <trkpt lat="47.25688" lon="-2.32526">
        <ele>-8.3999996185303</ele>
        <time>2021-11-07T08:24:12.000Z</time>
      </trkpt>
      <trkpt lat="47.25697" lon="-2.32553">
        <ele>-8.3999996185303</ele>
        <time>2021-11-07T08:24:17.000Z</time>
      </trkpt>
      <trkpt lat="47.25711" lon="-2.32602">
        <ele>-8</ele>
        <time>2021-11-07T08:24:26.000Z</time>
      </trkpt>
      <trkpt lat="47.25712" lon="-2.32608">
        <ele>-7.5999999046326</ele>
        <time>2021-11-07T08:24:27.000Z</time>
      </trkpt>
      <trkpt lat="47.25711" lon="-2.32614">
        <ele>-7.1999998092651</ele>
        <time>2021-11-07T08:24:28.000Z</time>
      </trkpt>
      <trkpt lat="47.25708" lon="-2.3262">
        <ele>-6.8000001907349</ele>
        <time>2021-11-07T08:24:29.000Z</time>
      </trkpt>
      <trkpt lat="47.25705" lon="-2.32624">
        <ele>-6.4000000953674</ele>
        <time>2021-11-07T08:24:30.000Z</time>
      </trkpt>
      <trkpt lat="47.25697" lon="-2.32629">
        <ele>-6.4000000953674</ele>
        <time>2021-11-07T08:24:32.000Z</time>
      </trkpt>
      <trkpt lat="47.25689" lon="-2.32633">
        <ele>-6.4000000953674</ele>
        <time>2021-11-07T08:24:34.000Z</time>
      </trkpt>
      <trkpt lat="47.25664" lon="-2.32642">
        <ele>-6.4000000953674</ele>
        <time>2021-11-07T08:24:40.000Z</time>
      </trkpt>
      <trkpt lat="47.25635" lon="-2.32653">
        <ele>-6</ele>
        <time>2021-11-07T08:24:47.000Z</time>
      </trkpt>
      <trkpt lat="47.25631" lon="-2.32654">
        <ele>-5.5999999046326</ele>
        <time>2021-11-07T08:24:48.000Z</time>
      </trkpt>
      <trkpt lat="47.25627" lon="-2.32656">
        <ele>-5</ele>
        <time>2021-11-07T08:24:49.000Z</time>
      </trkpt>
      <trkpt lat="47.25622" lon="-2.32658">
        <ele>-4.5999999046326</ele>
        <time>2021-11-07T08:24:50.000Z</time>
      </trkpt>
      <trkpt lat="47.25618" lon="-2.3266">
        <ele>-4.1999998092651</ele>
        <time>2021-11-07T08:24:51.000Z</time>
      </trkpt>
      <trkpt lat="47.25606" lon="-2.32666">
        <ele>-4.1999998092651</ele>
        <time>2021-11-07T08:24:54.000Z</time>
      </trkpt>
      <trkpt lat="47.25575" lon="-2.3268">
        <ele>-4.1999998092651</ele>
        <time>2021-11-07T08:25:01.000Z</time>
      </trkpt>
      <trkpt lat="47.25547" lon="-2.32693">
        <ele>-4.1999998092651</ele>
        <time>2021-11-07T08:25:08.000Z</time>
      </trkpt>
      <trkpt lat="47.25539" lon="-2.32699">
        <ele>-4.1999998092651</ele>
        <time>2021-11-07T08:25:11.000Z</time>
      </trkpt>
      <trkpt lat="47.25539" lon="-2.32704">
        <ele>-4.1999998092651</ele>
        <time>2021-11-07T08:25:12.000Z</time>
      </trkpt>
      <trkpt lat="47.25545" lon="-2.32718">
        <ele>-4.1999998092651</ele>
        <time>2021-11-07T08:25:16.000Z</time>
      </trkpt>
      <trkpt lat="47.25545" lon="-2.32726">
        <ele>-4.1999998092651</ele>
        <time>2021-11-07T08:25:20.000Z</time>
      </trkpt>
      <trkpt lat="47.25538" lon="-2.32716">
        <ele>-4.1999998092651</ele>
        <time>2021-11-07T08:25:24.000Z</time>
      </trkpt>
      <trkpt lat="47.25516" lon="-2.32704">
        <ele>-4.1999998092651</ele>
        <time>2021-11-07T08:25:30.000Z</time>
      </trkpt>
      <trkpt lat="47.25511" lon="-2.32703">
        <ele>-4.1999998092651</ele>
        <time>2021-11-07T08:25:31.000Z</time>
      </trkpt>
      <trkpt lat="47.25493" lon="-2.32705">
        <ele>-4.1999998092651</ele>
        <time>2021-11-07T08:25:35.000Z</time>
      </trkpt>
      <trkpt lat="47.25476" lon="-2.32718">
        <ele>-4.1999998092651</ele>
        <time>2021-11-07T08:25:39.000Z</time>
      </trkpt>
      <trkpt lat="47.25472" lon="-2.32722">
        <ele>-4.1999998092651</ele>
        <time>2021-11-07T08:25:40.000Z</time>
      </trkpt>
      <trkpt lat="47.25447" lon="-2.32756">
        <ele>-4.1999998092651</ele>
        <time>2021-11-07T08:25:47.000Z</time>
      </trkpt>
      <trkpt lat="47.25437" lon="-2.32772">
        <ele>-4.1999998092651</ele>
        <time>2021-11-07T08:25:50.000Z</time>
      </trkpt>
      <trkpt lat="47.25432" lon="-2.32785">
        <ele>-4.1999998092651</ele>
        <time>2021-11-07T08:25:52.000Z</time>
      </trkpt>
      <trkpt lat="47.25417" lon="-2.32807">
        <ele>-4.5999999046326</ele>
        <time>2021-11-07T08:25:56.000Z</time>
      </trkpt>
      <trkpt lat="47.25413" lon="-2.32813">
        <ele>-5</ele>
        <time>2021-11-07T08:25:57.000Z</time>
      </trkpt>
      <trkpt lat="47.25409" lon="-2.32819">
        <ele>-5.4000000953674</ele>
        <time>2021-11-07T08:25:58.000Z</time>
      </trkpt>
      <trkpt lat="47.25405" lon="-2.32825">
        <ele>-5.8000001907349</ele>
        <time>2021-11-07T08:25:59.000Z</time>
      </trkpt>
      <trkpt lat="47.25401" lon="-2.3283">
        <ele>-6.1999998092651</ele>
        <time>2021-11-07T08:26:00.000Z</time>
      </trkpt>
      <trkpt lat="47.25375" lon="-2.32861">
        <ele>-6.1999998092651</ele>
        <time>2021-11-07T08:26:06.000Z</time>
      </trkpt>
      <trkpt lat="47.25345" lon="-2.3289">
        <ele>-6.1999998092651</ele>
        <time>2021-11-07T08:26:13.000Z</time>
      </trkpt>
      <trkpt lat="47.25316" lon="-2.3292">
        <ele>-6.1999998092651</ele>
        <time>2021-11-07T08:26:20.000Z</time>
      </trkpt>
      <trkpt lat="47.25313" lon="-2.32925">
        <ele>-6.1999998092651</ele>
        <time>2021-11-07T08:26:21.000Z</time>
      </trkpt>
      <trkpt lat="47.2531" lon="-2.32937">
        <ele>-6.1999998092651</ele>
        <time>2021-11-07T08:26:23.000Z</time>
      </trkpt>
      <trkpt lat="47.25314" lon="-2.32957">
        <ele>-6.5999999046326</ele>
        <time>2021-11-07T08:26:26.000Z</time>
      </trkpt>
      <trkpt lat="47.25317" lon="-2.32963">
        <ele>-7</ele>
        <time>2021-11-07T08:26:27.000Z</time>
      </trkpt>
      <trkpt lat="47.25319" lon="-2.32969">
        <ele>-7.4000000953674</ele>
        <time>2021-11-07T08:26:28.000Z</time>
      </trkpt>
      <trkpt lat="47.25322" lon="-2.32975">
        <ele>-7.8000001907349</ele>
        <time>2021-11-07T08:26:29.000Z</time>
      </trkpt>
      <trkpt lat="47.25325" lon="-2.32982">
        <ele>-8.3999996185303</ele>
        <time>2021-11-07T08:26:30.000Z</time>
      </trkpt>
      <trkpt lat="47.25332" lon="-2.33">
        <ele>-8.3999996185303</ele>
        <time>2021-11-07T08:26:33.000Z</time>
      </trkpt>
      <trkpt lat="47.25346" lon="-2.33038">
        <ele>-8.3999996185303</ele>
        <time>2021-11-07T08:26:39.000Z</time>
      </trkpt>
      <trkpt lat="47.25364" lon="-2.33086">
        <ele>-8.3999996185303</ele>
        <time>2021-11-07T08:26:47.000Z</time>
      </trkpt>
      <trkpt lat="47.25375" lon="-2.33118">
        <ele>-8.3999996185303</ele>
        <time>2021-11-07T08:26:54.000Z</time>
      </trkpt>
      <trkpt lat="47.25374" lon="-2.33118">
        <ele>-8.8000001907349</ele>
        <time>2021-11-07T08:26:56.000Z</time>
      </trkpt>
      <trkpt lat="47.25373" lon="-2.33118">
        <ele>-9.1999998092651</ele>
        <time>2021-11-07T08:26:57.000Z</time>
      </trkpt>
      <trkpt lat="47.25376" lon="-2.33126">
        <ele>-22.60000038147</ele>
        <time>2021-11-07T08:41:54.000Z</time>
      </trkpt>
      <trkpt lat="47.25385" lon="-2.33137">
        <ele>-22.60000038147</ele>
        <time>2021-11-07T08:41:59.000Z</time>
      </trkpt>
      <trkpt lat="47.25389" lon="-2.33136">
        <ele>-22.60000038147</ele>
        <time>2021-11-07T08:42:00.000Z</time>
      </trkpt>
      <trkpt lat="47.25395" lon="-2.33131">
        <ele>-22.60000038147</ele>
        <time>2021-11-07T08:42:02.000Z</time>
      </trkpt>
      <trkpt lat="47.25419" lon="-2.3312">
        <ele>-22.60000038147</ele>
        <time>2021-11-07T08:42:09.000Z</time>
      </trkpt>
      <trkpt lat="47.25448" lon="-2.33108">
        <ele>-22.60000038147</ele>
        <time>2021-11-07T08:42:17.000Z</time>
      </trkpt>
      <trkpt lat="47.25476" lon="-2.33096">
        <ele>-22.60000038147</ele>
        <time>2021-11-07T08:42:25.000Z</time>
      </trkpt>
      <trkpt lat="47.25495" lon="-2.33078">
        <ele>-22.60000038147</ele>
        <time>2021-11-07T08:42:31.000Z</time>
      </trkpt>
      <trkpt lat="47.25514" lon="-2.33052">
        <ele>-22.60000038147</ele>
        <time>2021-11-07T08:42:37.000Z</time>
      </trkpt>
      <trkpt lat="47.25522" lon="-2.33046">
        <ele>-22.60000038147</ele>
        <time>2021-11-07T08:42:39.000Z</time>
      </trkpt>
      <trkpt lat="47.25533" lon="-2.33041">
        <ele>-22.60000038147</ele>
        <time>2021-11-07T08:42:42.000Z</time>
      </trkpt>
      <trkpt lat="47.25546" lon="-2.33039">
        <ele>-22.60000038147</ele>
        <time>2021-11-07T08:42:45.000Z</time>
      </trkpt>
      <trkpt lat="47.25557" lon="-2.33038">
        <ele>-22.60000038147</ele>
        <time>2021-11-07T08:42:48.000Z</time>
      </trkpt>
      <trkpt lat="47.25582" lon="-2.33031">
        <ele>-22.60000038147</ele>
        <time>2021-11-07T08:42:55.000Z</time>
      </trkpt>
      <trkpt lat="47.25607" lon="-2.33027">
        <ele>-22.60000038147</ele>
        <time>2021-11-07T08:43:02.000Z</time>
      </trkpt>
      <trkpt lat="47.25617" lon="-2.33014">
        <ele>-22.60000038147</ele>
        <time>2021-11-07T08:43:06.000Z</time>
      </trkpt>
      <trkpt lat="47.25617" lon="-2.33006">
        <ele>-22.60000038147</ele>
        <time>2021-11-07T08:43:07.000Z</time>
      </trkpt>
      <trkpt lat="47.25615" lon="-2.32995">
        <ele>-22.60000038147</ele>
        <time>2021-11-07T08:43:09.000Z</time>
      </trkpt>
      <trkpt lat="47.25608" lon="-2.32954">
        <ele>-22.200000762939</ele>
        <time>2021-11-07T08:43:16.000Z</time>
      </trkpt>
      <trkpt lat="47.25607" lon="-2.32948">
        <ele>-21.799999237061</ele>
        <time>2021-11-07T08:43:17.000Z</time>
      </trkpt>
      <trkpt lat="47.25606" lon="-2.32941">
        <ele>-21.39999961853</ele>
        <time>2021-11-07T08:43:18.000Z</time>
      </trkpt>
      <trkpt lat="47.25605" lon="-2.32935">
        <ele>-20.799999237061</ele>
        <time>2021-11-07T08:43:19.000Z</time>
      </trkpt>
      <trkpt lat="47.25604" lon="-2.32929">
        <ele>-20.39999961853</ele>
        <time>2021-11-07T08:43:20.000Z</time>
      </trkpt>
      <trkpt lat="47.25599" lon="-2.32899">
        <ele>-20.39999961853</ele>
        <time>2021-11-07T08:43:25.000Z</time>
      </trkpt>
      <trkpt lat="47.25592" lon="-2.32841">
        <ele>-20.39999961853</ele>
        <time>2021-11-07T08:43:34.000Z</time>
      </trkpt>
      <trkpt lat="47.25592" lon="-2.32816">
        <ele>-20.39999961853</ele>
        <time>2021-11-07T08:43:38.000Z</time>
      </trkpt>
      <trkpt lat="47.25595" lon="-2.32803">
        <ele>-20.39999961853</ele>
        <time>2021-11-07T08:43:40.000Z</time>
      </trkpt>
      <trkpt lat="47.25601" lon="-2.32753">
        <ele>-20.39999961853</ele>
        <time>2021-11-07T08:43:48.000Z</time>
      </trkpt>
      <trkpt lat="47.25603" lon="-2.3269">
        <ele>-20.39999961853</ele>
        <time>2021-11-07T08:43:58.000Z</time>
      </trkpt>
      <trkpt lat="47.25608" lon="-2.32663">
        <ele>-20.39999961853</ele>
        <time>2021-11-07T08:44:04.000Z</time>
      </trkpt>
      <trkpt lat="47.25626" lon="-2.32654">
        <ele>-20.39999961853</ele>
        <time>2021-11-07T08:44:09.000Z</time>
      </trkpt>
      <trkpt lat="47.2566" lon="-2.3264">
        <ele>-20.39999961853</ele>
        <time>2021-11-07T08:44:16.000Z</time>
      </trkpt>
      <trkpt lat="47.25697" lon="-2.32623">
        <ele>-20.39999961853</ele>
        <time>2021-11-07T08:44:23.000Z</time>
      </trkpt>
      <trkpt lat="47.25705" lon="-2.32618">
        <ele>-20.799999237061</ele>
        <time>2021-11-07T08:44:25.000Z</time>
      </trkpt>
      <trkpt lat="47.25708" lon="-2.32614">
        <ele>-21.200000762939</ele>
        <time>2021-11-07T08:44:26.000Z</time>
      </trkpt>
      <trkpt lat="47.2571" lon="-2.32609">
        <ele>-21.799999237061</ele>
        <time>2021-11-07T08:44:27.000Z</time>
      </trkpt>
      <trkpt lat="47.2571" lon="-2.32602">
        <ele>-22.60000038147</ele>
        <time>2021-11-07T08:44:28.000Z</time>
      </trkpt>
      <trkpt lat="47.25707" lon="-2.32591">
        <ele>-22.60000038147</ele>
        <time>2021-11-07T08:44:30.000Z</time>
      </trkpt>
      <trkpt lat="47.25706" lon="-2.32584">
        <ele>-22.60000038147</ele>
        <time>2021-11-07T08:44:31.000Z</time>
      </trkpt>
      <trkpt lat="47.25695" lon="-2.3255">
        <ele>-22.60000038147</ele>
        <time>2021-11-07T08:44:36.000Z</time>
      </trkpt>
      <trkpt lat="47.2569" lon="-2.32535">
        <ele>-23</ele>
        <time>2021-11-07T08:44:38.000Z</time>
      </trkpt>
      <trkpt lat="47.25688" lon="-2.32528">
        <ele>-23.39999961853</ele>
        <time>2021-11-07T08:44:39.000Z</time>
      </trkpt>
      <trkpt lat="47.25686" lon="-2.32521">
        <ele>-23.799999237061</ele>
        <time>2021-11-07T08:44:40.000Z</time>
      </trkpt>
      <trkpt lat="47.25683" lon="-2.32512">
        <ele>-24.200000762939</ele>
        <time>2021-11-07T08:44:41.000Z</time>
      </trkpt>
      <trkpt lat="47.25681" lon="-2.32505">
        <ele>-24.60000038147</ele>
        <time>2021-11-07T08:44:42.000Z</time>
      </trkpt>
      <trkpt lat="47.25678" lon="-2.32497">
        <ele>-24.60000038147</ele>
        <time>2021-11-07T08:44:43.000Z</time>
      </trkpt>
      <trkpt lat="47.25662" lon="-2.32445">
        <ele>-25</ele>
        <time>2021-11-07T08:44:49.000Z</time>
      </trkpt>
      <trkpt lat="47.2566" lon="-2.32437">
        <ele>-25.60000038147</ele>
        <time>2021-11-07T08:44:50.000Z</time>
      </trkpt>
      <trkpt lat="47.25659" lon="-2.3243">
        <ele>-26</ele>
        <time>2021-11-07T08:44:51.000Z</time>
      </trkpt>
      <trkpt lat="47.25658" lon="-2.32423">
        <ele>-26.799999237061</ele>
        <time>2021-11-07T08:44:52.000Z</time>
      </trkpt>
      <trkpt lat="47.25659" lon="-2.32417">
        <ele>-26.799999237061</ele>
        <time>2021-11-07T08:44:53.000Z</time>
      </trkpt>
      <trkpt lat="47.25664" lon="-2.3241">
        <ele>-26.799999237061</ele>
        <time>2021-11-07T08:44:55.000Z</time>
      </trkpt>
      <trkpt lat="47.25674" lon="-2.32413">
        <ele>-26.799999237061</ele>
        <time>2021-11-07T08:44:57.000Z</time>
      </trkpt>
      <trkpt lat="47.2568" lon="-2.32416">
        <ele>-26.799999237061</ele>
        <time>2021-11-07T08:44:58.000Z</time>
      </trkpt>
      <trkpt lat="47.25704" lon="-2.32419">
        <ele>-26.799999237061</ele>
        <time>2021-11-07T08:45:02.000Z</time>
      </trkpt>
      <trkpt lat="47.25742" lon="-2.32423">
        <ele>-26.799999237061</ele>
        <time>2021-11-07T08:45:09.000Z</time>
      </trkpt>
      <trkpt lat="47.25762" lon="-2.32422">
        <ele>-26.799999237061</ele>
        <time>2021-11-07T08:45:14.000Z</time>
      </trkpt>
      <trkpt lat="47.25776" lon="-2.32414">
        <ele>-26.799999237061</ele>
        <time>2021-11-07T08:45:18.000Z</time>
      </trkpt>
      <trkpt lat="47.2578" lon="-2.32415">
        <ele>-26.799999237061</ele>
        <time>2021-11-07T08:45:19.000Z</time>
      </trkpt>
      <trkpt lat="47.25788" lon="-2.32428">
        <ele>-26.799999237061</ele>
        <time>2021-11-07T08:45:22.000Z</time>
      </trkpt>
      <trkpt lat="47.25791" lon="-2.32434">
        <ele>-26.799999237061</ele>
        <time>2021-11-07T08:45:23.000Z</time>
      </trkpt>
      <trkpt lat="47.25797" lon="-2.32444">
        <ele>-26.799999237061</ele>
        <time>2021-11-07T08:45:25.000Z</time>
      </trkpt>
      <trkpt lat="47.25807" lon="-2.32454">
        <ele>-26.799999237061</ele>
        <time>2021-11-07T08:45:27.000Z</time>
      </trkpt>
      <trkpt lat="47.25845" lon="-2.32474">
        <ele>-26.799999237061</ele>
        <time>2021-11-07T08:45:34.000Z</time>
      </trkpt>
      <trkpt lat="47.25866" lon="-2.32475">
        <ele>-26.799999237061</ele>
        <time>2021-11-07T08:45:38.000Z</time>
      </trkpt>
      <trkpt lat="47.25871" lon="-2.32475">
        <ele>-26.799999237061</ele>
        <time>2021-11-07T08:45:39.000Z</time>
      </trkpt>
      <trkpt lat="47.25892" lon="-2.32468">
        <ele>-26.799999237061</ele>
        <time>2021-11-07T08:45:43.000Z</time>
      </trkpt>
      <trkpt lat="47.25897" lon="-2.32463">
        <ele>-26.799999237061</ele>
        <time>2021-11-07T08:45:44.000Z</time>
      </trkpt>
      <trkpt lat="47.25904" lon="-2.32453">
        <ele>-27.200000762939</ele>
        <time>2021-11-07T08:45:46.000Z</time>
      </trkpt>
      <trkpt lat="47.25908" lon="-2.32448">
        <ele>-27.60000038147</ele>
        <time>2021-11-07T08:45:47.000Z</time>
      </trkpt>
      <trkpt lat="47.25912" lon="-2.32443">
        <ele>-28</ele>
        <time>2021-11-07T08:45:48.000Z</time>
      </trkpt>
      <trkpt lat="47.25916" lon="-2.32438">
        <ele>-28.39999961853</ele>
        <time>2021-11-07T08:45:49.000Z</time>
      </trkpt>
      <trkpt lat="47.2592" lon="-2.32433">
        <ele>-28.799999237061</ele>
        <time>2021-11-07T08:45:50.000Z</time>
      </trkpt>
      <trkpt lat="47.25924" lon="-2.32427">
        <ele>-28.799999237061</ele>
        <time>2021-11-07T08:45:51.000Z</time>
      </trkpt>
      <trkpt lat="47.25952" lon="-2.32391">
        <ele>-28.799999237061</ele>
        <time>2021-11-07T08:45:58.000Z</time>
      </trkpt>
      <trkpt lat="47.25986" lon="-2.32345">
        <ele>-28.799999237061</ele>
        <time>2021-11-07T08:46:07.000Z</time>
      </trkpt>
      <trkpt lat="47.26018" lon="-2.32304">
        <ele>-28.799999237061</ele>
        <time>2021-11-07T08:46:15.000Z</time>
      </trkpt>
      <trkpt lat="47.26044" lon="-2.32275">
        <ele>-28.799999237061</ele>
        <time>2021-11-07T08:46:21.000Z</time>
      </trkpt>
      <trkpt lat="47.26071" lon="-2.32245">
        <ele>-28.799999237061</ele>
        <time>2021-11-07T08:46:28.000Z</time>
      </trkpt>
      <trkpt lat="47.26101" lon="-2.32202">
        <ele>-28.799999237061</ele>
        <time>2021-11-07T08:46:36.000Z</time>
      </trkpt>
      <trkpt lat="47.26118" lon="-2.32163">
        <ele>-28.799999237061</ele>
        <time>2021-11-07T08:46:42.000Z</time>
      </trkpt>
      <trkpt lat="47.26129" lon="-2.32127">
        <ele>-28.799999237061</ele>
        <time>2021-11-07T08:46:47.000Z</time>
      </trkpt>
      <trkpt lat="47.26132" lon="-2.32112">
        <ele>-28.799999237061</ele>
        <time>2021-11-07T08:46:49.000Z</time>
      </trkpt>
      <trkpt lat="47.26149" lon="-2.32059">
        <ele>-28.799999237061</ele>
        <time>2021-11-07T08:46:57.000Z</time>
      </trkpt>
      <trkpt lat="47.26151" lon="-2.32053">
        <ele>-28.799999237061</ele>
        <time>2021-11-07T08:46:58.000Z</time>
      </trkpt>
      <trkpt lat="47.2616" lon="-2.32025">
        <ele>-28.799999237061</ele>
        <time>2021-11-07T08:47:03.000Z</time>
      </trkpt>
      <trkpt lat="47.26169" lon="-2.32018">
        <ele>-28.799999237061</ele>
        <time>2021-11-07T08:47:07.000Z</time>
      </trkpt>
      <trkpt lat="47.2618" lon="-2.32019">
        <ele>-28.799999237061</ele>
        <time>2021-11-07T08:47:15.000Z</time>
      </trkpt>
      <trkpt lat="47.26181" lon="-2.32019">
        <ele>-28.799999237061</ele>
        <time>2021-11-07T08:47:16.000Z</time>
      </trkpt>
      <trkpt lat="47.26188" lon="-2.32021">
        <ele>-28.799999237061</ele>
        <time>2021-11-07T08:47:20.000Z</time>
      </trkpt>
      <trkpt lat="47.26194" lon="-2.32021">
        <ele>-28.799999237061</ele>
        <time>2021-11-07T08:47:24.000Z</time>
      </trkpt>
      <trkpt lat="47.26195" lon="-2.32016">
        <ele>-28.799999237061</ele>
        <time>2021-11-07T08:47:26.000Z</time>
      </trkpt>
      <trkpt lat="47.26196" lon="-2.32006">
        <ele>-28.799999237061</ele>
        <time>2021-11-07T08:47:30.000Z</time>
      </trkpt>
      <trkpt lat="47.26198" lon="-2.32004">
        <ele>-28.799999237061</ele>
        <time>2021-11-07T08:47:31.000Z</time>
      </trkpt>
      <trkpt lat="47.26211" lon="-2.3199">
        <ele>-28.799999237061</ele>
        <time>2021-11-07T08:47:37.000Z</time>
      </trkpt>
      <trkpt lat="47.26226" lon="-2.31973">
        <ele>-28.799999237061</ele>
        <time>2021-11-07T08:47:43.000Z</time>
      </trkpt>
      <trkpt lat="47.26239" lon="-2.31954">
        <ele>-28.799999237061</ele>
        <time>2021-11-07T08:47:49.000Z</time>
      </trkpt>
      <trkpt lat="47.26262" lon="-2.31922">
        <ele>-28.799999237061</ele>
        <time>2021-11-07T08:47:56.000Z</time>
      </trkpt>
      <trkpt lat="47.26282" lon="-2.31904">
        <ele>-28.799999237061</ele>
        <time>2021-11-07T08:48:01.000Z</time>
      </trkpt>
      <trkpt lat="47.26284" lon="-2.31905">
        <ele>-28.799999237061</ele>
        <time>2021-11-07T08:48:02.000Z</time>
      </trkpt>
      <trkpt lat="47.26295" lon="-2.31907">
        <ele>-28.799999237061</ele>
        <time>2021-11-07T08:48:06.000Z</time>
      </trkpt>
      <trkpt lat="47.263" lon="-2.31922">
        <ele>-28.799999237061</ele>
        <time>2021-11-07T08:48:12.000Z</time>
      </trkpt>
      <trkpt lat="47.26304" lon="-2.31927">
        <ele>-28.799999237061</ele>
        <time>2021-11-07T08:48:15.000Z</time>
      </trkpt>
      <trkpt lat="47.26311" lon="-2.3193">
        <ele>-28.799999237061</ele>
        <time>2021-11-07T08:48:18.000Z</time>
      </trkpt>
      <trkpt lat="47.26313" lon="-2.3193">
        <ele>-28.799999237061</ele>
        <time>2021-11-07T08:48:19.000Z</time>
      </trkpt>
      <trkpt lat="47.2633" lon="-2.31929">
        <ele>-28.799999237061</ele>
        <time>2021-11-07T08:48:25.000Z</time>
      </trkpt>
      <trkpt lat="47.26345" lon="-2.31942">
        <ele>-28.799999237061</ele>
        <time>2021-11-07T08:48:30.000Z</time>
      </trkpt>
      <trkpt lat="47.26359" lon="-2.31976">
        <ele>-28.799999237061</ele>
        <time>2021-11-07T08:48:37.000Z</time>
      </trkpt>
      <trkpt lat="47.26362" lon="-2.3198">
        <ele>-28.799999237061</ele>
        <time>2021-11-07T08:48:38.000Z</time>
      </trkpt>
      <trkpt lat="47.2637" lon="-2.31985">
        <ele>-28.799999237061</ele>
        <time>2021-11-07T08:48:40.000Z</time>
      </trkpt>
      <trkpt lat="47.2638" lon="-2.31986">
        <ele>-28.799999237061</ele>
        <time>2021-11-07T08:48:43.000Z</time>
      </trkpt>
      <trkpt lat="47.26383" lon="-2.31987">
        <ele>-28.39999961853</ele>
        <time>2021-11-07T08:48:44.000Z</time>
      </trkpt>
      <trkpt lat="47.26386" lon="-2.31988">
        <ele>-28</ele>
        <time>2021-11-07T08:48:45.000Z</time>
      </trkpt>
      <trkpt lat="47.26388" lon="-2.31989">
        <ele>-27.60000038147</ele>
        <time>2021-11-07T08:48:46.000Z</time>
      </trkpt>
      <trkpt lat="47.2639" lon="-2.3199">
        <ele>-27.200000762939</ele>
        <time>2021-11-07T08:48:47.000Z</time>
      </trkpt>
      <trkpt lat="47.26392" lon="-2.3199">
        <ele>-26.799999237061</ele>
        <time>2021-11-07T08:48:48.000Z</time>
      </trkpt>
      <trkpt lat="47.26399" lon="-2.31992">
        <ele>-26.799999237061</ele>
        <time>2021-11-07T08:48:51.000Z</time>
      </trkpt>
      <trkpt lat="47.26417" lon="-2.31997">
        <ele>-26.39999961853</ele>
        <time>2021-11-07T08:48:56.000Z</time>
      </trkpt>
      <trkpt lat="47.26421" lon="-2.31997">
        <ele>-26</ele>
        <time>2021-11-07T08:48:57.000Z</time>
      </trkpt>
      <trkpt lat="47.26424" lon="-2.31998">
        <ele>-25.60000038147</ele>
        <time>2021-11-07T08:48:58.000Z</time>
      </trkpt>
      <trkpt lat="47.26427" lon="-2.31997">
        <ele>-25.200000762939</ele>
        <time>2021-11-07T08:48:59.000Z</time>
      </trkpt>
      <trkpt lat="47.26431" lon="-2.31997">
        <ele>-24.799999237061</ele>
        <time>2021-11-07T08:49:00.000Z</time>
      </trkpt>
      <trkpt lat="47.26441" lon="-2.31998">
        <ele>-24.799999237061</ele>
        <time>2021-11-07T08:49:03.000Z</time>
      </trkpt>
      <trkpt lat="47.26454" lon="-2.31999">
        <ele>-24.200000762939</ele>
        <time>2021-11-07T08:49:07.000Z</time>
      </trkpt>
      <trkpt lat="47.26457" lon="-2.31999">
        <ele>-23.799999237061</ele>
        <time>2021-11-07T08:49:08.000Z</time>
      </trkpt>
      <trkpt lat="47.26459" lon="-2.31999">
        <ele>-23.39999961853</ele>
        <time>2021-11-07T08:49:09.000Z</time>
      </trkpt>
      <trkpt lat="47.26462" lon="-2.31999">
        <ele>-23</ele>
        <time>2021-11-07T08:49:10.000Z</time>
      </trkpt>
      <trkpt lat="47.26464" lon="-2.31998">
        <ele>-22.60000038147</ele>
        <time>2021-11-07T08:49:11.000Z</time>
      </trkpt>
      <trkpt lat="47.26481" lon="-2.31998">
        <ele>-22.60000038147</ele>
        <time>2021-11-07T08:49:17.000Z</time>
      </trkpt>
      <trkpt lat="47.26496" lon="-2.31999">
        <ele>-22.200000762939</ele>
        <time>2021-11-07T08:49:22.000Z</time>
      </trkpt>
      <trkpt lat="47.26498" lon="-2.31999">
        <ele>-21.799999237061</ele>
        <time>2021-11-07T08:49:23.000Z</time>
      </trkpt>
      <trkpt lat="47.265" lon="-2.31999">
        <ele>-21.39999961853</ele>
        <time>2021-11-07T08:49:24.000Z</time>
      </trkpt>
      <trkpt lat="47.26502" lon="-2.31999">
        <ele>-20.60000038147</ele>
        <time>2021-11-07T08:49:25.000Z</time>
      </trkpt>
      <trkpt lat="47.26511" lon="-2.31998">
        <ele>-20.60000038147</ele>
        <time>2021-11-07T08:49:30.000Z</time>
      </trkpt>
      <trkpt lat="47.26516" lon="-2.31998">
        <ele>-20.200000762939</ele>
        <time>2021-11-07T08:49:33.000Z</time>
      </trkpt>
      <trkpt lat="47.26518" lon="-2.31998">
        <ele>-19.799999237061</ele>
        <time>2021-11-07T08:49:34.000Z</time>
      </trkpt>
      <trkpt lat="47.2652" lon="-2.31998">
        <ele>-19.39999961853</ele>
        <time>2021-11-07T08:49:35.000Z</time>
      </trkpt>
      <trkpt lat="47.26522" lon="-2.31998">
        <ele>-19</ele>
        <time>2021-11-07T08:49:36.000Z</time>
      </trkpt>
      <trkpt lat="47.26524" lon="-2.31999">
        <ele>-18.39999961853</ele>
        <time>2021-11-07T08:49:37.000Z</time>
      </trkpt>
      <trkpt lat="47.26535" lon="-2.32009">
        <ele>-18.39999961853</ele>
        <time>2021-11-07T08:49:44.000Z</time>
      </trkpt>
      <trkpt lat="47.26542" lon="-2.32025">
        <ele>-18</ele>
        <time>2021-11-07T08:49:50.000Z</time>
      </trkpt>
      <trkpt lat="47.26543" lon="-2.32028">
        <ele>-17.60000038147</ele>
        <time>2021-11-07T08:49:51.000Z</time>
      </trkpt>
      <trkpt lat="47.26544" lon="-2.32032">
        <ele>-17.200000762939</ele>
        <time>2021-11-07T08:49:52.000Z</time>
      </trkpt>
      <trkpt lat="47.26545" lon="-2.32034">
        <ele>-16.799999237061</ele>
        <time>2021-11-07T08:49:53.000Z</time>
      </trkpt>
      <trkpt lat="47.26547" lon="-2.32036">
        <ele>-16.39999961853</ele>
        <time>2021-11-07T08:49:54.000Z</time>
      </trkpt>
      <trkpt lat="47.2655" lon="-2.32036">
        <ele>-16.39999961853</ele>
        <time>2021-11-07T08:49:55.000Z</time>
      </trkpt>
      <trkpt lat="47.26556" lon="-2.32035">
        <ele>-16.39999961853</ele>
        <time>2021-11-07T08:49:57.000Z</time>
      </trkpt>
      <trkpt lat="47.26568" lon="-2.3203">
        <ele>-16.39999961853</ele>
        <time>2021-11-07T08:50:01.000Z</time>
      </trkpt>
      <trkpt lat="47.26582" lon="-2.32026">
        <ele>-16</ele>
        <time>2021-11-07T08:50:05.000Z</time>
      </trkpt>
      <trkpt lat="47.26585" lon="-2.32025">
        <ele>-15.60000038147</ele>
        <time>2021-11-07T08:50:06.000Z</time>
      </trkpt>
      <trkpt lat="47.26588" lon="-2.32024">
        <ele>-15.199999809265</ele>
        <time>2021-11-07T08:50:07.000Z</time>
      </trkpt>
      <trkpt lat="47.26592" lon="-2.32023">
        <ele>-14.800000190735</ele>
        <time>2021-11-07T08:50:08.000Z</time>
      </trkpt>
      <trkpt lat="47.26595" lon="-2.32022">
        <ele>-14.39999961853</ele>
        <time>2021-11-07T08:50:09.000Z</time>
      </trkpt>
      <trkpt lat="47.26612" lon="-2.32017">
        <ele>-14.39999961853</ele>
        <time>2021-11-07T08:50:15.000Z</time>
      </trkpt>
      <trkpt lat="47.26632" lon="-2.32011">
        <ele>-14.39999961853</ele>
        <time>2021-11-07T08:50:23.000Z</time>
      </trkpt>
      <trkpt lat="47.2664" lon="-2.32007">
        <ele>-14.39999961853</ele>
        <time>2021-11-07T08:50:29.000Z</time>
      </trkpt>
      <trkpt lat="47.26641" lon="-2.32007">
        <ele>-14.39999961853</ele>
        <time>2021-11-07T08:50:30.000Z</time>
      </trkpt>
      <trkpt lat="47.26643" lon="-2.32008">
        <ele>-14.39999961853</ele>
        <time>2021-11-07T08:51:02.000Z</time>
      </trkpt>
      <trkpt lat="47.26646" lon="-2.32011">
        <ele>-14.39999961853</ele>
        <time>2021-11-07T08:51:04.000Z</time>
      </trkpt>
      <trkpt lat="47.26652" lon="-2.32031">
        <ele>-14.39999961853</ele>
        <time>2021-11-07T08:51:09.000Z</time>
      </trkpt>
      <trkpt lat="47.26653" lon="-2.32034">
        <ele>-14.39999961853</ele>
        <time>2021-11-07T08:51:11.000Z</time>
      </trkpt>
      <trkpt lat="47.26655" lon="-2.32038">
        <ele>-14.39999961853</ele>
        <time>2021-11-07T08:51:31.000Z</time>
      </trkpt>
      <trkpt lat="47.2666" lon="-2.32059">
        <ele>-14.39999961853</ele>
        <time>2021-11-07T08:51:36.000Z</time>
      </trkpt>
      <trkpt lat="47.26668" lon="-2.32091">
        <ele>-14.39999961853</ele>
        <time>2021-11-07T08:51:41.000Z</time>
      </trkpt>
      <trkpt lat="47.26677" lon="-2.32122">
        <ele>-14.39999961853</ele>
        <time>2021-11-07T08:51:46.000Z</time>
      </trkpt>
      <trkpt lat="47.2668" lon="-2.32124">
        <ele>-14.39999961853</ele>
        <time>2021-11-07T08:51:47.000Z</time>
      </trkpt>
      <trkpt lat="47.26684" lon="-2.32117">
        <ele>-14.39999961853</ele>
        <time>2021-11-07T08:51:49.000Z</time>
      </trkpt>
      <trkpt lat="47.26684" lon="-2.32105">
        <ele>-14.39999961853</ele>
        <time>2021-11-07T08:51:51.000Z</time>
      </trkpt>
      <trkpt lat="47.26685" lon="-2.32092">
        <ele>-14.39999961853</ele>
        <time>2021-11-07T08:51:53.000Z</time>
      </trkpt>
      <trkpt lat="47.26686" lon="-2.32042">
        <ele>-14.39999961853</ele>
        <time>2021-11-07T08:52:00.000Z</time>
      </trkpt>
      <trkpt lat="47.26687" lon="-2.32035">
        <ele>-14.39999961853</ele>
        <time>2021-11-07T08:52:01.000Z</time>
      </trkpt>
      <trkpt lat="47.26694" lon="-2.32017">
        <ele>-14.39999961853</ele>
        <time>2021-11-07T08:52:04.000Z</time>
      </trkpt>
      <trkpt lat="47.267" lon="-2.32005">
        <ele>-14.39999961853</ele>
        <time>2021-11-07T08:52:06.000Z</time>
      </trkpt>
      <trkpt lat="47.2671" lon="-2.31996">
        <ele>-14.39999961853</ele>
        <time>2021-11-07T08:52:08.000Z</time>
      </trkpt>
      <trkpt lat="47.26721" lon="-2.31988">
        <ele>-14.39999961853</ele>
        <time>2021-11-07T08:52:10.000Z</time>
      </trkpt>
      <trkpt lat="47.26739" lon="-2.31975">
        <ele>-14.800000190735</ele>
        <time>2021-11-07T08:52:13.000Z</time>
      </trkpt>
      <trkpt lat="47.26744" lon="-2.31971">
        <ele>-15.199999809265</ele>
        <time>2021-11-07T08:52:14.000Z</time>
      </trkpt>
      <trkpt lat="47.26749" lon="-2.31965">
        <ele>-15.800000190735</ele>
        <time>2021-11-07T08:52:15.000Z</time>
      </trkpt>
      <trkpt lat="47.26753" lon="-2.3196">
        <ele>-16.200000762939</ele>
        <time>2021-11-07T08:52:16.000Z</time>
      </trkpt>
      <trkpt lat="47.26756" lon="-2.31953">
        <ele>-16.60000038147</ele>
        <time>2021-11-07T08:52:17.000Z</time>
      </trkpt>
      <trkpt lat="47.2676" lon="-2.31948">
        <ele>-16.60000038147</ele>
        <time>2021-11-07T08:52:18.000Z</time>
      </trkpt>
      <trkpt lat="47.26764" lon="-2.31946">
        <ele>-16.60000038147</ele>
        <time>2021-11-07T08:52:19.000Z</time>
      </trkpt>
      <trkpt lat="47.26768" lon="-2.31947">
        <ele>-16.60000038147</ele>
        <time>2021-11-07T08:52:20.000Z</time>
      </trkpt>
      <trkpt lat="47.26777" lon="-2.31963">
        <ele>-16.60000038147</ele>
        <time>2021-11-07T08:52:23.000Z</time>
      </trkpt>
      <trkpt lat="47.26784" lon="-2.31978">
        <ele>-17</ele>
        <time>2021-11-07T08:52:25.000Z</time>
      </trkpt>
      <trkpt lat="47.26789" lon="-2.31986">
        <ele>-17.60000038147</ele>
        <time>2021-11-07T08:52:26.000Z</time>
      </trkpt>
      <trkpt lat="47.26793" lon="-2.31994">
        <ele>-18</ele>
        <time>2021-11-07T08:52:27.000Z</time>
      </trkpt>
      <trkpt lat="47.26798" lon="-2.32003">
        <ele>-18.39999961853</ele>
        <time>2021-11-07T08:52:28.000Z</time>
      </trkpt>
      <trkpt lat="47.26802" lon="-2.32011">
        <ele>-18.799999237061</ele>
        <time>2021-11-07T08:52:29.000Z</time>
      </trkpt>
      <trkpt lat="47.26813" lon="-2.3204">
        <ele>-18.799999237061</ele>
        <time>2021-11-07T08:52:32.000Z</time>
      </trkpt>
      <trkpt lat="47.26816" lon="-2.3205">
        <ele>-18.799999237061</ele>
        <time>2021-11-07T08:52:33.000Z</time>
      </trkpt>
      <trkpt lat="47.26821" lon="-2.32072">
        <ele>-19.200000762939</ele>
        <time>2021-11-07T08:52:35.000Z</time>
      </trkpt>
      <trkpt lat="47.26824" lon="-2.32082">
        <ele>-19.60000038147</ele>
        <time>2021-11-07T08:52:36.000Z</time>
      </trkpt>
      <trkpt lat="47.26827" lon="-2.32093">
        <ele>-20</ele>
        <time>2021-11-07T08:52:37.000Z</time>
      </trkpt>
      <trkpt lat="47.26829" lon="-2.32103">
        <ele>-20.39999961853</ele>
        <time>2021-11-07T08:52:38.000Z</time>
      </trkpt>
      <trkpt lat="47.26832" lon="-2.32113">
        <ele>-20.799999237061</ele>
        <time>2021-11-07T08:52:39.000Z</time>
      </trkpt>
      <trkpt lat="47.26834" lon="-2.32123">
        <ele>-20.799999237061</ele>
        <time>2021-11-07T08:52:40.000Z</time>
      </trkpt>
      <trkpt lat="47.26852" lon="-2.32181">
        <ele>-21.200000762939</ele>
        <time>2021-11-07T08:52:46.000Z</time>
      </trkpt>
      <trkpt lat="47.26856" lon="-2.3219">
        <ele>-21.60000038147</ele>
        <time>2021-11-07T08:52:47.000Z</time>
      </trkpt>
      <trkpt lat="47.2686" lon="-2.32198">
        <ele>-22.200000762939</ele>
        <time>2021-11-07T08:52:48.000Z</time>
      </trkpt>
      <trkpt lat="47.26864" lon="-2.32207">
        <ele>-22.60000038147</ele>
        <time>2021-11-07T08:52:49.000Z</time>
      </trkpt>
      <trkpt lat="47.26868" lon="-2.32216">
        <ele>-23</ele>
        <time>2021-11-07T08:52:50.000Z</time>
      </trkpt>
      <trkpt lat="47.26881" lon="-2.32241">
        <ele>-23</ele>
        <time>2021-11-07T08:52:53.000Z</time>
      </trkpt>
      <trkpt lat="47.26889" lon="-2.32258">
        <ele>-23.39999961853</ele>
        <time>2021-11-07T08:52:55.000Z</time>
      </trkpt>
      <trkpt lat="47.26894" lon="-2.32266">
        <ele>-23.799999237061</ele>
        <time>2021-11-07T08:52:56.000Z</time>
      </trkpt>
      <trkpt lat="47.26899" lon="-2.32275">
        <ele>-24.200000762939</ele>
        <time>2021-11-07T08:52:57.000Z</time>
      </trkpt>
      <trkpt lat="47.26904" lon="-2.32285">
        <ele>-24.799999237061</ele>
        <time>2021-11-07T08:52:58.000Z</time>
      </trkpt>
      <trkpt lat="47.26908" lon="-2.32294">
        <ele>-25.200000762939</ele>
        <time>2021-11-07T08:52:59.000Z</time>
      </trkpt>
      <trkpt lat="47.26912" lon="-2.32304">
        <ele>-25.60000038147</ele>
        <time>2021-11-07T08:53:00.000Z</time>
      </trkpt>
      <trkpt lat="47.26916" lon="-2.32314">
        <ele>-26</ele>
        <time>2021-11-07T08:53:01.000Z</time>
      </trkpt>
      <trkpt lat="47.26918" lon="-2.32324">
        <ele>-26.39999961853</ele>
        <time>2021-11-07T08:53:02.000Z</time>
      </trkpt>
      <trkpt lat="47.26921" lon="-2.32333">
        <ele>-26.799999237061</ele>
        <time>2021-11-07T08:53:03.000Z</time>
      </trkpt>
      <trkpt lat="47.26924" lon="-2.32341">
        <ele>-27.200000762939</ele>
        <time>2021-11-07T08:53:04.000Z</time>
      </trkpt>
      <trkpt lat="47.26932" lon="-2.32357">
        <ele>-27.200000762939</ele>
        <time>2021-11-07T08:53:06.000Z</time>
      </trkpt>
      <trkpt lat="47.26935" lon="-2.32365">
        <ele>-27.200000762939</ele>
        <time>2021-11-07T08:53:07.000Z</time>
      </trkpt>
      <trkpt lat="47.26943" lon="-2.32392">
        <ele>-27.60000038147</ele>
        <time>2021-11-07T08:53:10.000Z</time>
      </trkpt>
      <trkpt lat="47.26945" lon="-2.32401">
        <ele>-28</ele>
        <time>2021-11-07T08:53:11.000Z</time>
      </trkpt>
      <trkpt lat="47.26948" lon="-2.3241">
        <ele>-28.39999961853</ele>
        <time>2021-11-07T08:53:12.000Z</time>
      </trkpt>
      <trkpt lat="47.26951" lon="-2.32419">
        <ele>-28.799999237061</ele>
        <time>2021-11-07T08:53:13.000Z</time>
      </trkpt>
      <trkpt lat="47.26954" lon="-2.32428">
        <ele>-29.200000762939</ele>
        <time>2021-11-07T08:53:14.000Z</time>
      </trkpt>
      <trkpt lat="47.26959" lon="-2.32436">
        <ele>-29.200000762939</ele>
        <time>2021-11-07T08:53:15.000Z</time>
      </trkpt>
      <trkpt lat="47.26963" lon="-2.32443">
        <ele>-29.200000762939</ele>
        <time>2021-11-07T08:53:16.000Z</time>
      </trkpt>
      <trkpt lat="47.26992" lon="-2.32491">
        <ele>-29.200000762939</ele>
        <time>2021-11-07T08:53:22.000Z</time>
      </trkpt>
      <trkpt lat="47.27001" lon="-2.32505">
        <ele>-29.200000762939</ele>
        <time>2021-11-07T08:53:24.000Z</time>
      </trkpt>
      <trkpt lat="47.27006" lon="-2.32509">
        <ele>-29.60000038147</ele>
        <time>2021-11-07T08:53:25.000Z</time>
      </trkpt>
      <trkpt lat="47.27012" lon="-2.32509">
        <ele>-30.200000762939</ele>
        <time>2021-11-07T08:53:26.000Z</time>
      </trkpt>
      <trkpt lat="47.27018" lon="-2.32508">
        <ele>-30.60000038147</ele>
        <time>2021-11-07T08:53:27.000Z</time>
      </trkpt>
      <trkpt lat="47.27024" lon="-2.32504">
        <ele>-31</ele>
        <time>2021-11-07T08:53:28.000Z</time>
      </trkpt>
      <trkpt lat="47.27029" lon="-2.32499">
        <ele>-31.60000038147</ele>
        <time>2021-11-07T08:53:29.000Z</time>
      </trkpt>
      <trkpt lat="47.27038" lon="-2.32479">
        <ele>-31.60000038147</ele>
        <time>2021-11-07T08:53:32.000Z</time>
      </trkpt>
      <trkpt lat="47.27038" lon="-2.32455">
        <ele>-32</ele>
        <time>2021-11-07T08:53:35.000Z</time>
      </trkpt>
      <trkpt lat="47.27036" lon="-2.32445">
        <ele>-32.400001525879</ele>
        <time>2021-11-07T08:53:36.000Z</time>
      </trkpt>
      <trkpt lat="47.27035" lon="-2.32436">
        <ele>-32.799999237061</ele>
        <time>2021-11-07T08:53:37.000Z</time>
      </trkpt>
      <trkpt lat="47.27034" lon="-2.32427">
        <ele>-33.200000762939</ele>
        <time>2021-11-07T08:53:38.000Z</time>
      </trkpt>
      <trkpt lat="47.27033" lon="-2.32418">
        <ele>-33.599998474121</ele>
        <time>2021-11-07T08:53:39.000Z</time>
      </trkpt>
      <trkpt lat="47.27029" lon="-2.32382">
        <ele>-33.599998474121</ele>
        <time>2021-11-07T08:53:43.000Z</time>
      </trkpt>
      <trkpt lat="47.27023" lon="-2.3233">
        <ele>-33.599998474121</ele>
        <time>2021-11-07T08:53:49.000Z</time>
      </trkpt>
      <trkpt lat="47.2702" lon="-2.32268">
        <ele>-33.599998474121</ele>
        <time>2021-11-07T08:53:56.000Z</time>
      </trkpt>
      <trkpt lat="47.27016" lon="-2.32226">
        <ele>-33.599998474121</ele>
        <time>2021-11-07T08:54:01.000Z</time>
      </trkpt>
      <trkpt lat="47.27014" lon="-2.32218">
        <ele>-33.599998474121</ele>
        <time>2021-11-07T08:54:02.000Z</time>
      </trkpt>
      <trkpt lat="47.27007" lon="-2.32195">
        <ele>-33.599998474121</ele>
        <time>2021-11-07T08:54:05.000Z</time>
      </trkpt>
      <trkpt lat="47.26996" lon="-2.32174">
        <ele>-33.599998474121</ele>
        <time>2021-11-07T08:54:08.000Z</time>
      </trkpt>
      <trkpt lat="47.26989" lon="-2.32161">
        <ele>-33.599998474121</ele>
        <time>2021-11-07T08:54:10.000Z</time>
      </trkpt>
      <trkpt lat="47.26988" lon="-2.3214">
        <ele>-33.599998474121</ele>
        <time>2021-11-07T08:54:13.000Z</time>
      </trkpt>
      <trkpt lat="47.26998" lon="-2.32126">
        <ele>-33.599998474121</ele>
        <time>2021-11-07T08:54:16.000Z</time>
      </trkpt>
      <trkpt lat="47.27001" lon="-2.32122">
        <ele>-33.599998474121</ele>
        <time>2021-11-07T08:54:17.000Z</time>
      </trkpt>
      <trkpt lat="47.27008" lon="-2.32097">
        <ele>-33.599998474121</ele>
        <time>2021-11-07T08:54:22.000Z</time>
      </trkpt>
      <trkpt lat="47.27011" lon="-2.32051">
        <ele>-33.200000762939</ele>
        <time>2021-11-07T08:54:29.000Z</time>
      </trkpt>
      <trkpt lat="47.27011" lon="-2.32044">
        <ele>-32.799999237061</ele>
        <time>2021-11-07T08:54:30.000Z</time>
      </trkpt>
      <trkpt lat="47.27011" lon="-2.32038">
        <ele>-32.400001525879</ele>
        <time>2021-11-07T08:54:31.000Z</time>
      </trkpt>
      <trkpt lat="47.27011" lon="-2.32032">
        <ele>-32</ele>
        <time>2021-11-07T08:54:32.000Z</time>
      </trkpt>
      <trkpt lat="47.2701" lon="-2.32027">
        <ele>-31.60000038147</ele>
        <time>2021-11-07T08:54:33.000Z</time>
      </trkpt>
      <trkpt lat="47.2701" lon="-2.32022">
        <ele>-31.60000038147</ele>
        <time>2021-11-07T08:54:34.000Z</time>
      </trkpt>
      <trkpt lat="47.27006" lon="-2.32002">
        <ele>-31.60000038147</ele>
        <time>2021-11-07T08:54:40.000Z</time>
      </trkpt>
      <trkpt lat="47.27004" lon="-2.31998">
        <ele>-31.60000038147</ele>
        <time>2021-11-07T08:54:42.000Z</time>
      </trkpt>
      <trkpt lat="47.27001" lon="-2.31994">
        <ele>-31.60000038147</ele>
        <time>2021-11-07T08:54:45.000Z</time>
      </trkpt>
      <trkpt lat="47.27001" lon="-2.31992">
        <ele>-31.60000038147</ele>
        <time>2021-11-07T08:54:46.000Z</time>
      </trkpt>
      <trkpt lat="47.26995" lon="-2.31993">
        <ele>-31.60000038147</ele>
        <time>2021-11-07T08:54:57.000Z</time>
      </trkpt>
      <trkpt lat="47.26989" lon="-2.31995">
        <ele>-31.60000038147</ele>
        <time>2021-11-07T08:55:00.000Z</time>
      </trkpt>
      <trkpt lat="47.26986" lon="-2.31996">
        <ele>-31.60000038147</ele>
        <time>2021-11-07T08:55:01.000Z</time>
      </trkpt>
      <trkpt lat="47.26972" lon="-2.32001">
        <ele>-31.60000038147</ele>
        <time>2021-11-07T08:55:06.000Z</time>
      </trkpt>
      <trkpt lat="47.26959" lon="-2.32003">
        <ele>-30.799999237061</ele>
        <time>2021-11-07T08:55:10.000Z</time>
      </trkpt>
      <trkpt lat="47.26957" lon="-2.32002">
        <ele>-30.39999961853</ele>
        <time>2021-11-07T08:55:11.000Z</time>
      </trkpt>
      <trkpt lat="47.26954" lon="-2.32">
        <ele>-29.799999237061</ele>
        <time>2021-11-07T08:55:12.000Z</time>
      </trkpt>
      <trkpt lat="47.26951" lon="-2.31997">
        <ele>-29.39999961853</ele>
        <time>2021-11-07T08:55:13.000Z</time>
      </trkpt>
      <trkpt lat="47.26948" lon="-2.31994">
        <ele>-29.39999961853</ele>
        <time>2021-11-07T08:55:14.000Z</time>
      </trkpt>
      <trkpt lat="47.26936" lon="-2.31982">
        <ele>-29.39999961853</ele>
        <time>2021-11-07T08:55:17.000Z</time>
      </trkpt>
      <trkpt lat="47.2693" lon="-2.31972">
        <ele>-29</ele>
        <time>2021-11-07T08:55:19.000Z</time>
      </trkpt>
      <trkpt lat="47.26927" lon="-2.31967">
        <ele>-28.60000038147</ele>
        <time>2021-11-07T08:55:20.000Z</time>
      </trkpt>
      <trkpt lat="47.26923" lon="-2.31961">
        <ele>-28.200000762939</ele>
        <time>2021-11-07T08:55:21.000Z</time>
      </trkpt>
      <trkpt lat="47.2692" lon="-2.31957">
        <ele>-27.799999237061</ele>
        <time>2021-11-07T08:55:22.000Z</time>
      </trkpt>
      <trkpt lat="47.26917" lon="-2.31953">
        <ele>-27.39999961853</ele>
        <time>2021-11-07T08:55:23.000Z</time>
      </trkpt>
      <trkpt lat="47.26899" lon="-2.3193">
        <ele>-27.39999961853</ele>
        <time>2021-11-07T08:55:29.000Z</time>
      </trkpt>
      <trkpt lat="47.26893" lon="-2.31918">
        <ele>-27</ele>
        <time>2021-11-07T08:55:32.000Z</time>
      </trkpt>
      <trkpt lat="47.2689" lon="-2.31914">
        <ele>-26.60000038147</ele>
        <time>2021-11-07T08:55:33.000Z</time>
      </trkpt>
      <trkpt lat="47.26888" lon="-2.3191">
        <ele>-26.200000762939</ele>
        <time>2021-11-07T08:55:34.000Z</time>
      </trkpt>
      <trkpt lat="47.26885" lon="-2.31907">
        <ele>-25.200000762939</ele>
        <time>2021-11-07T08:55:35.000Z</time>
      </trkpt>
      <trkpt lat="47.26871" lon="-2.31896">
        <ele>-25.200000762939</ele>
        <time>2021-11-07T08:55:39.000Z</time>
      </trkpt>
      <trkpt lat="47.26853" lon="-2.31893">
        <ele>-25.200000762939</ele>
        <time>2021-11-07T08:55:44.000Z</time>
      </trkpt>
      <trkpt lat="47.26849" lon="-2.31892">
        <ele>-24.799999237061</ele>
        <time>2021-11-07T08:55:45.000Z</time>
      </trkpt>
      <trkpt lat="47.26846" lon="-2.31891">
        <ele>-24.39999961853</ele>
        <time>2021-11-07T08:55:46.000Z</time>
      </trkpt>
      <trkpt lat="47.26843" lon="-2.31888">
        <ele>-24</ele>
        <time>2021-11-07T08:55:47.000Z</time>
      </trkpt>
      <trkpt lat="47.2684" lon="-2.31884">
        <ele>-23.39999961853</ele>
        <time>2021-11-07T08:55:48.000Z</time>
      </trkpt>
      <trkpt lat="47.26838" lon="-2.31881">
        <ele>-23</ele>
        <time>2021-11-07T08:55:49.000Z</time>
      </trkpt>
      <trkpt lat="47.26829" lon="-2.31855">
        <ele>-23</ele>
        <time>2021-11-07T08:55:55.000Z</time>
      </trkpt>
      <trkpt lat="47.26827" lon="-2.31851">
        <ele>-22.60000038147</ele>
        <time>2021-11-07T08:55:56.000Z</time>
      </trkpt>
      <trkpt lat="47.26826" lon="-2.31847">
        <ele>-22.200000762939</ele>
        <time>2021-11-07T08:55:57.000Z</time>
      </trkpt>
      <trkpt lat="47.26825" lon="-2.31844">
        <ele>-21.60000038147</ele>
        <time>2021-11-07T08:55:58.000Z</time>
      </trkpt>
      <trkpt lat="47.26824" lon="-2.3184">
        <ele>-21.200000762939</ele>
        <time>2021-11-07T08:55:59.000Z</time>
      </trkpt>
      <trkpt lat="47.26823" lon="-2.31836">
        <ele>-20.799999237061</ele>
        <time>2021-11-07T08:56:00.000Z</time>
      </trkpt>
      <trkpt lat="47.26821" lon="-2.31828">
        <ele>-20.799999237061</ele>
        <time>2021-11-07T08:56:02.000Z</time>
      </trkpt>
      <trkpt lat="47.26819" lon="-2.31815">
        <ele>-20.799999237061</ele>
        <time>2021-11-07T08:56:07.000Z</time>
      </trkpt>
      <trkpt lat="47.26819" lon="-2.31813">
        <ele>-20.799999237061</ele>
        <time>2021-11-07T08:56:08.000Z</time>
      </trkpt>
      <trkpt lat="47.26819" lon="-2.31812">
        <ele>-20.799999237061</ele>
        <time>2021-11-07T08:56:10.000Z</time>
      </trkpt>
      <trkpt lat="47.26816" lon="-2.31811">
        <ele>-20.799999237061</ele>
        <time>2021-11-07T08:56:16.000Z</time>
      </trkpt>
      <trkpt lat="47.26814" lon="-2.31812">
        <ele>-20.799999237061</ele>
        <time>2021-11-07T08:56:17.000Z</time>
      </trkpt>
      <trkpt lat="47.268" lon="-2.31818">
        <ele>-20.39999961853</ele>
        <time>2021-11-07T08:56:21.000Z</time>
      </trkpt>
      <trkpt lat="47.26797" lon="-2.3182">
        <ele>-20</ele>
        <time>2021-11-07T08:56:22.000Z</time>
      </trkpt>
      <trkpt lat="47.26793" lon="-2.31822">
        <ele>-19.60000038147</ele>
        <time>2021-11-07T08:56:23.000Z</time>
      </trkpt>
      <trkpt lat="47.26789" lon="-2.31825">
        <ele>-19.200000762939</ele>
        <time>2021-11-07T08:56:24.000Z</time>
      </trkpt>
      <trkpt lat="47.26785" lon="-2.31827">
        <ele>-18.60000038147</ele>
        <time>2021-11-07T08:56:25.000Z</time>
      </trkpt>
      <trkpt lat="47.26771" lon="-2.31836">
        <ele>-18.60000038147</ele>
        <time>2021-11-07T08:56:28.000Z</time>
      </trkpt>
      <trkpt lat="47.26753" lon="-2.31849">
        <ele>-18.60000038147</ele>
        <time>2021-11-07T08:56:32.000Z</time>
      </trkpt>
      <trkpt lat="47.2674" lon="-2.31858">
        <ele>-18.60000038147</ele>
        <time>2021-11-07T08:56:35.000Z</time>
      </trkpt>
      <trkpt lat="47.2673" lon="-2.31849">
        <ele>-18.60000038147</ele>
        <time>2021-11-07T08:56:38.000Z</time>
      </trkpt>
      <trkpt lat="47.26727" lon="-2.31837">
        <ele>-18.60000038147</ele>
        <time>2021-11-07T08:56:40.000Z</time>
      </trkpt>
      <trkpt lat="47.26723" lon="-2.31824">
        <ele>-18.60000038147</ele>
        <time>2021-11-07T08:56:42.000Z</time>
      </trkpt>
      <trkpt lat="47.26706" lon="-2.31764">
        <ele>-18.200000762939</ele>
        <time>2021-11-07T08:56:50.000Z</time>
      </trkpt>
      <trkpt lat="47.26704" lon="-2.31756">
        <ele>-17.39999961853</ele>
        <time>2021-11-07T08:56:51.000Z</time>
      </trkpt>
      <trkpt lat="47.26702" lon="-2.31748">
        <ele>-17</ele>
        <time>2021-11-07T08:56:52.000Z</time>
      </trkpt>
      <trkpt lat="47.267" lon="-2.31741">
        <ele>-16.60000038147</ele>
        <time>2021-11-07T08:56:53.000Z</time>
      </trkpt>
      <trkpt lat="47.26691" lon="-2.31703">
        <ele>-16.60000038147</ele>
        <time>2021-11-07T08:56:58.000Z</time>
      </trkpt>
      <trkpt lat="47.26674" lon="-2.31652">
        <ele>-16.60000038147</ele>
        <time>2021-11-07T08:57:04.000Z</time>
      </trkpt>
      <trkpt lat="47.26651" lon="-2.31595">
        <ele>-16.60000038147</ele>
        <time>2021-11-07T08:57:11.000Z</time>
      </trkpt>
      <trkpt lat="47.26623" lon="-2.31525">
        <ele>-16.60000038147</ele>
        <time>2021-11-07T08:57:20.000Z</time>
      </trkpt>
      <trkpt lat="47.26611" lon="-2.31497">
        <ele>-16.60000038147</ele>
        <time>2021-11-07T08:57:24.000Z</time>
      </trkpt>
      <trkpt lat="47.2661" lon="-2.31483">
        <ele>-16.60000038147</ele>
        <time>2021-11-07T08:57:26.000Z</time>
      </trkpt>
      <trkpt lat="47.26618" lon="-2.3147">
        <ele>-16.60000038147</ele>
        <time>2021-11-07T08:57:29.000Z</time>
      </trkpt>
      <trkpt lat="47.26621" lon="-2.31465">
        <ele>-16.60000038147</ele>
        <time>2021-11-07T08:57:30.000Z</time>
      </trkpt>
      <trkpt lat="47.2664" lon="-2.31449">
        <ele>-16.60000038147</ele>
        <time>2021-11-07T08:57:35.000Z</time>
      </trkpt>
      <trkpt lat="47.2667" lon="-2.31431">
        <ele>-16.60000038147</ele>
        <time>2021-11-07T08:57:42.000Z</time>
      </trkpt>
      <trkpt lat="47.26675" lon="-2.31429">
        <ele>-16.200000762939</ele>
        <time>2021-11-07T08:57:43.000Z</time>
      </trkpt>
      <trkpt lat="47.26679" lon="-2.31427">
        <ele>-15.800000190735</ele>
        <time>2021-11-07T08:57:44.000Z</time>
      </trkpt>
      <trkpt lat="47.26684" lon="-2.31425">
        <ele>-15.39999961853</ele>
        <time>2021-11-07T08:57:45.000Z</time>
      </trkpt>
      <trkpt lat="47.26688" lon="-2.31423">
        <ele>-15</ele>
        <time>2021-11-07T08:57:46.000Z</time>
      </trkpt>
      <trkpt lat="47.26693" lon="-2.31421">
        <ele>-14.60000038147</ele>
        <time>2021-11-07T08:57:47.000Z</time>
      </trkpt>
      <trkpt lat="47.26705" lon="-2.31414">
        <ele>-14.60000038147</ele>
        <time>2021-11-07T08:57:50.000Z</time>
      </trkpt>
      <trkpt lat="47.26709" lon="-2.31411">
        <ele>-14.60000038147</ele>
        <time>2021-11-07T08:57:51.000Z</time>
      </trkpt>
      <trkpt lat="47.26729" lon="-2.31398">
        <ele>-14.199999809265</ele>
        <time>2021-11-07T08:57:56.000Z</time>
      </trkpt>
      <trkpt lat="47.26733" lon="-2.31396">
        <ele>-13.800000190735</ele>
        <time>2021-11-07T08:57:57.000Z</time>
      </trkpt>
      <trkpt lat="47.26737" lon="-2.31394">
        <ele>-13.199999809265</ele>
        <time>2021-11-07T08:57:58.000Z</time>
      </trkpt>
      <trkpt lat="47.26742" lon="-2.31391">
        <ele>-12.800000190735</ele>
        <time>2021-11-07T08:57:59.000Z</time>
      </trkpt>
      <trkpt lat="47.26746" lon="-2.31389">
        <ele>-12.39999961853</ele>
        <time>2021-11-07T08:58:00.000Z</time>
      </trkpt>
      <trkpt lat="47.2675" lon="-2.31386">
        <ele>-12.39999961853</ele>
        <time>2021-11-07T08:58:01.000Z</time>
      </trkpt>
      <trkpt lat="47.26758" lon="-2.31382">
        <ele>-12.39999961853</ele>
        <time>2021-11-07T08:58:03.000Z</time>
      </trkpt>
      <trkpt lat="47.26799" lon="-2.31359">
        <ele>-12.39999961853</ele>
        <time>2021-11-07T08:58:13.000Z</time>
      </trkpt>
      <trkpt lat="47.26824" lon="-2.3134">
        <ele>-12.39999961853</ele>
        <time>2021-11-07T08:58:20.000Z</time>
      </trkpt>
      <trkpt lat="47.26828" lon="-2.31336">
        <ele>-12.39999961853</ele>
        <time>2021-11-07T08:58:23.000Z</time>
      </trkpt>
      <trkpt lat="47.26836" lon="-2.3132">
        <ele>-12.39999961853</ele>
        <time>2021-11-07T08:58:28.000Z</time>
      </trkpt>
      <trkpt lat="47.26838" lon="-2.31314">
        <ele>-12.39999961853</ele>
        <time>2021-11-07T08:58:29.000Z</time>
      </trkpt>
      <trkpt lat="47.26844" lon="-2.31285">
        <ele>-12.39999961853</ele>
        <time>2021-11-07T08:58:33.000Z</time>
      </trkpt>
      <trkpt lat="47.26847" lon="-2.31268">
        <ele>-12.39999961853</ele>
        <time>2021-11-07T08:58:35.000Z</time>
      </trkpt>
      <trkpt lat="47.26848" lon="-2.31241">
        <ele>-12.39999961853</ele>
        <time>2021-11-07T08:58:38.000Z</time>
      </trkpt>
      <trkpt lat="47.26852" lon="-2.31187">
        <ele>-12.39999961853</ele>
        <time>2021-11-07T08:58:44.000Z</time>
      </trkpt>
      <trkpt lat="47.26854" lon="-2.31128">
        <ele>-12.39999961853</ele>
        <time>2021-11-07T08:58:51.000Z</time>
      </trkpt>
      <trkpt lat="47.26854" lon="-2.31102">
        <ele>-12.39999961853</ele>
        <time>2021-11-07T08:58:55.000Z</time>
      </trkpt>
      <trkpt lat="47.26853" lon="-2.31077">
        <ele>-12.39999961853</ele>
        <time>2021-11-07T08:59:00.000Z</time>
      </trkpt>
      <trkpt lat="47.26852" lon="-2.31038">
        <ele>-12.39999961853</ele>
        <time>2021-11-07T08:59:05.000Z</time>
      </trkpt>
      <trkpt lat="47.26848" lon="-2.30979">
        <ele>-12.39999961853</ele>
        <time>2021-11-07T08:59:12.000Z</time>
      </trkpt>
      <trkpt lat="47.26839" lon="-2.3092">
        <ele>-12.39999961853</ele>
        <time>2021-11-07T08:59:19.000Z</time>
      </trkpt>
      <trkpt lat="47.26831" lon="-2.30844">
        <ele>-12.39999961853</ele>
        <time>2021-11-07T08:59:28.000Z</time>
      </trkpt>
      <trkpt lat="47.2683" lon="-2.30814">
        <ele>-12.39999961853</ele>
        <time>2021-11-07T08:59:32.000Z</time>
      </trkpt>
      <trkpt lat="47.2683" lon="-2.30802">
        <ele>-12.39999961853</ele>
        <time>2021-11-07T08:59:34.000Z</time>
      </trkpt>
      <trkpt lat="47.26828" lon="-2.30793">
        <ele>-12.39999961853</ele>
        <time>2021-11-07T08:59:36.000Z</time>
      </trkpt>
      <trkpt lat="47.26825" lon="-2.30791">
        <ele>-12.39999961853</ele>
        <time>2021-11-07T08:59:37.000Z</time>
      </trkpt>
      <trkpt lat="47.26814" lon="-2.30796">
        <ele>-12.39999961853</ele>
        <time>2021-11-07T08:59:40.000Z</time>
      </trkpt>
      <trkpt lat="47.26804" lon="-2.30804">
        <ele>-12.39999961853</ele>
        <time>2021-11-07T08:59:42.000Z</time>
      </trkpt>
      <trkpt lat="47.26796" lon="-2.30813">
        <ele>-12.39999961853</ele>
        <time>2021-11-07T08:59:44.000Z</time>
      </trkpt>
      <trkpt lat="47.26779" lon="-2.30834">
        <ele>-12.39999961853</ele>
        <time>2021-11-07T08:59:48.000Z</time>
      </trkpt>
      <trkpt lat="47.2677" lon="-2.30844">
        <ele>-12.39999961853</ele>
        <time>2021-11-07T08:59:50.000Z</time>
      </trkpt>
      <trkpt lat="47.26747" lon="-2.30867">
        <ele>-12.39999961853</ele>
        <time>2021-11-07T08:59:55.000Z</time>
      </trkpt>
      <trkpt lat="47.26742" lon="-2.30869">
        <ele>-12.39999961853</ele>
        <time>2021-11-07T08:59:56.000Z</time>
      </trkpt>
      <trkpt lat="47.2673" lon="-2.30861">
        <ele>-12.39999961853</ele>
        <time>2021-11-07T08:59:59.000Z</time>
      </trkpt>
      <trkpt lat="47.26721" lon="-2.30842">
        <ele>-12.39999961853</ele>
        <time>2021-11-07T09:00:02.000Z</time>
      </trkpt>
      <trkpt lat="47.26714" lon="-2.30829">
        <ele>-12.39999961853</ele>
        <time>2021-11-07T09:00:04.000Z</time>
      </trkpt>
      <trkpt lat="47.26695" lon="-2.30781">
        <ele>-12.39999961853</ele>
        <time>2021-11-07T09:00:10.000Z</time>
      </trkpt>
      <trkpt lat="47.26685" lon="-2.30756">
        <ele>-12.800000190735</ele>
        <time>2021-11-07T09:00:13.000Z</time>
      </trkpt>
      <trkpt lat="47.26681" lon="-2.30747">
        <ele>-13.199999809265</ele>
        <time>2021-11-07T09:00:14.000Z</time>
      </trkpt>
      <trkpt lat="47.26677" lon="-2.30738">
        <ele>-13.60000038147</ele>
        <time>2021-11-07T09:00:15.000Z</time>
      </trkpt>
      <trkpt lat="47.26673" lon="-2.3073">
        <ele>-14</ele>
        <time>2021-11-07T09:00:16.000Z</time>
      </trkpt>
      <trkpt lat="47.26669" lon="-2.30722">
        <ele>-14.39999961853</ele>
        <time>2021-11-07T09:00:17.000Z</time>
      </trkpt>
      <trkpt lat="47.26665" lon="-2.30715">
        <ele>-14.800000190735</ele>
        <time>2021-11-07T09:00:18.000Z</time>
      </trkpt>
      <trkpt lat="47.26663" lon="-2.3071">
        <ele>-15.39999961853</ele>
        <time>2021-11-07T09:00:19.000Z</time>
      </trkpt>
      <trkpt lat="47.26661" lon="-2.30706">
        <ele>-15.800000190735</ele>
        <time>2021-11-07T09:00:20.000Z</time>
      </trkpt>
      <trkpt lat="47.2666" lon="-2.30702">
        <ele>-16.200000762939</ele>
        <time>2021-11-07T09:00:21.000Z</time>
      </trkpt>
      <trkpt lat="47.26658" lon="-2.30698">
        <ele>-16.60000038147</ele>
        <time>2021-11-07T09:00:22.000Z</time>
      </trkpt>
      <trkpt lat="47.26654" lon="-2.30695">
        <ele>-16.60000038147</ele>
        <time>2021-11-07T09:00:24.000Z</time>
      </trkpt>
      <trkpt lat="47.26653" lon="-2.30695">
        <ele>-16.60000038147</ele>
        <time>2021-11-07T09:00:25.000Z</time>
      </trkpt>
      <trkpt lat="47.26648" lon="-2.30707">
        <ele>-16.60000038147</ele>
        <time>2021-11-07T09:00:29.000Z</time>
      </trkpt>
      <trkpt lat="47.26645" lon="-2.30717">
        <ele>-17</ele>
        <time>2021-11-07T09:00:32.000Z</time>
      </trkpt>
      <trkpt lat="47.26643" lon="-2.3072">
        <ele>-17.39999961853</ele>
        <time>2021-11-07T09:00:33.000Z</time>
      </trkpt>
      <trkpt lat="47.26642" lon="-2.30722">
        <ele>-18.39999961853</ele>
        <time>2021-11-07T09:00:34.000Z</time>
      </trkpt>
      <trkpt lat="47.26641" lon="-2.30724">
        <ele>-18.799999237061</ele>
        <time>2021-11-07T09:00:35.000Z</time>
      </trkpt>
      <trkpt lat="47.2663" lon="-2.30738">
        <ele>-18.799999237061</ele>
        <time>2021-11-07T09:00:40.000Z</time>
      </trkpt>
      <trkpt lat="47.26624" lon="-2.30753">
        <ele>-18.799999237061</ele>
        <time>2021-11-07T09:00:45.000Z</time>
      </trkpt>
      <trkpt lat="47.26614" lon="-2.30769">
        <ele>-18.799999237061</ele>
        <time>2021-11-07T09:00:50.000Z</time>
      </trkpt>
      <trkpt lat="47.26608" lon="-2.30776">
        <ele>-19.200000762939</ele>
        <time>2021-11-07T09:00:52.000Z</time>
      </trkpt>
      <trkpt lat="47.26604" lon="-2.30779">
        <ele>-19.60000038147</ele>
        <time>2021-11-07T09:00:53.000Z</time>
      </trkpt>
      <trkpt lat="47.26599" lon="-2.30782">
        <ele>-20</ele>
        <time>2021-11-07T09:00:54.000Z</time>
      </trkpt>
      <trkpt lat="47.26596" lon="-2.30786">
        <ele>-20.39999961853</ele>
        <time>2021-11-07T09:00:55.000Z</time>
      </trkpt>
      <trkpt lat="47.26592" lon="-2.30789">
        <ele>-20.799999237061</ele>
        <time>2021-11-07T09:00:56.000Z</time>
      </trkpt>
      <trkpt lat="47.26575" lon="-2.30812">
        <ele>-20.799999237061</ele>
        <time>2021-11-07T09:01:01.000Z</time>
      </trkpt>
      <trkpt lat="47.26571" lon="-2.30822">
        <ele>-21.200000762939</ele>
        <time>2021-11-07T09:01:03.000Z</time>
      </trkpt>
      <trkpt lat="47.26569" lon="-2.30825">
        <ele>-21.60000038147</ele>
        <time>2021-11-07T09:01:04.000Z</time>
      </trkpt>
      <trkpt lat="47.26567" lon="-2.30828">
        <ele>-22</ele>
        <time>2021-11-07T09:01:05.000Z</time>
      </trkpt>
      <trkpt lat="47.26564" lon="-2.3083">
        <ele>-22.39999961853</ele>
        <time>2021-11-07T09:01:06.000Z</time>
      </trkpt>
      <trkpt lat="47.26562" lon="-2.30832">
        <ele>-22.799999237061</ele>
        <time>2021-11-07T09:01:07.000Z</time>
      </trkpt>
      <trkpt lat="47.26553" lon="-2.30843">
        <ele>-22.799999237061</ele>
        <time>2021-11-07T09:01:10.000Z</time>
      </trkpt>
      <trkpt lat="47.26539" lon="-2.30858">
        <ele>-22.799999237061</ele>
        <time>2021-11-07T09:01:15.000Z</time>
      </trkpt>
      <trkpt lat="47.26525" lon="-2.3087">
        <ele>-23.200000762939</ele>
        <time>2021-11-07T09:01:20.000Z</time>
      </trkpt>
      <trkpt lat="47.26521" lon="-2.30872">
        <ele>-23.799999237061</ele>
        <time>2021-11-07T09:01:21.000Z</time>
      </trkpt>
      <trkpt lat="47.26519" lon="-2.30874">
        <ele>-24.200000762939</ele>
        <time>2021-11-07T09:01:22.000Z</time>
      </trkpt>
      <trkpt lat="47.26515" lon="-2.30874">
        <ele>-25</ele>
        <time>2021-11-07T09:01:23.000Z</time>
      </trkpt>
      <trkpt lat="47.26509" lon="-2.30872">
        <ele>-25</ele>
        <time>2021-11-07T09:01:25.000Z</time>
      </trkpt>
      <trkpt lat="47.265" lon="-2.3087">
        <ele>-25</ele>
        <time>2021-11-07T09:01:28.000Z</time>
      </trkpt>
      <trkpt lat="47.26497" lon="-2.30865">
        <ele>-24.60000038147</ele>
        <time>2021-11-07T09:01:30.000Z</time>
      </trkpt>
      <trkpt lat="47.26495" lon="-2.30861">
        <ele>-24</ele>
        <time>2021-11-07T09:01:31.000Z</time>
      </trkpt>
      <trkpt lat="47.26493" lon="-2.30858">
        <ele>-23.60000038147</ele>
        <time>2021-11-07T09:01:32.000Z</time>
      </trkpt>
      <trkpt lat="47.26491" lon="-2.30856">
        <ele>-23.200000762939</ele>
        <time>2021-11-07T09:01:33.000Z</time>
      </trkpt>
      <trkpt lat="47.26489" lon="-2.30854">
        <ele>-22.60000038147</ele>
        <time>2021-11-07T09:01:34.000Z</time>
      </trkpt>
      <trkpt lat="47.26481" lon="-2.30837">
        <ele>-22.60000038147</ele>
        <time>2021-11-07T09:01:38.000Z</time>
      </trkpt>
      <trkpt lat="47.26475" lon="-2.30826">
        <ele>-22.200000762939</ele>
        <time>2021-11-07T09:01:41.000Z</time>
      </trkpt>
      <trkpt lat="47.26473" lon="-2.30822">
        <ele>-21.799999237061</ele>
        <time>2021-11-07T09:01:42.000Z</time>
      </trkpt>
      <trkpt lat="47.26472" lon="-2.30818">
        <ele>-21.39999961853</ele>
        <time>2021-11-07T09:01:43.000Z</time>
      </trkpt>
      <trkpt lat="47.26471" lon="-2.30814">
        <ele>-21</ele>
        <time>2021-11-07T09:01:44.000Z</time>
      </trkpt>
      <trkpt lat="47.2647" lon="-2.3081">
        <ele>-20.60000038147</ele>
        <time>2021-11-07T09:01:45.000Z</time>
      </trkpt>
      <trkpt lat="47.26466" lon="-2.30793">
        <ele>-20.60000038147</ele>
        <time>2021-11-07T09:01:49.000Z</time>
      </trkpt>
      <trkpt lat="47.26461" lon="-2.30783">
        <ele>-20.200000762939</ele>
        <time>2021-11-07T09:01:51.000Z</time>
      </trkpt>
      <trkpt lat="47.26458" lon="-2.30777">
        <ele>-19.799999237061</ele>
        <time>2021-11-07T09:01:52.000Z</time>
      </trkpt>
      <trkpt lat="47.26455" lon="-2.30772">
        <ele>-19.39999961853</ele>
        <time>2021-11-07T09:01:53.000Z</time>
      </trkpt>
      <trkpt lat="47.26452" lon="-2.30766">
        <ele>-18.799999237061</ele>
        <time>2021-11-07T09:01:54.000Z</time>
      </trkpt>
      <trkpt lat="47.2645" lon="-2.30761">
        <ele>-18.39999961853</ele>
        <time>2021-11-07T09:01:55.000Z</time>
      </trkpt>
      <trkpt lat="47.26435" lon="-2.30727">
        <ele>-18.39999961853</ele>
        <time>2021-11-07T09:02:02.000Z</time>
      </trkpt>
      <trkpt lat="47.26423" lon="-2.30698">
        <ele>-18.39999961853</ele>
        <time>2021-11-07T09:02:09.000Z</time>
      </trkpt>
      <trkpt lat="47.26413" lon="-2.30684">
        <ele>-17.60000038147</ele>
        <time>2021-11-07T09:02:13.000Z</time>
      </trkpt>
      <trkpt lat="47.2641" lon="-2.30682">
        <ele>-17.200000762939</ele>
        <time>2021-11-07T09:02:14.000Z</time>
      </trkpt>
      <trkpt lat="47.26406" lon="-2.30679">
        <ele>-16.799999237061</ele>
        <time>2021-11-07T09:02:15.000Z</time>
      </trkpt>
      <trkpt lat="47.26402" lon="-2.30676">
        <ele>-16.39999961853</ele>
        <time>2021-11-07T09:02:16.000Z</time>
      </trkpt>
      <trkpt lat="47.2639" lon="-2.30667">
        <ele>-16.39999961853</ele>
        <time>2021-11-07T09:02:19.000Z</time>
      </trkpt>
      <trkpt lat="47.26374" lon="-2.30647">
        <ele>-16.39999961853</ele>
        <time>2021-11-07T09:02:24.000Z</time>
      </trkpt>
      <trkpt lat="47.26362" lon="-2.30623">
        <ele>-16.39999961853</ele>
        <time>2021-11-07T09:02:28.000Z</time>
      </trkpt>
      <trkpt lat="47.26356" lon="-2.30612">
        <ele>-16.39999961853</ele>
        <time>2021-11-07T09:02:30.000Z</time>
      </trkpt>
      <trkpt lat="47.26345" lon="-2.30592">
        <ele>-16.39999961853</ele>
        <time>2021-11-07T09:02:35.000Z</time>
      </trkpt>
      <trkpt lat="47.26344" lon="-2.30586">
        <ele>-16.39999961853</ele>
        <time>2021-11-07T09:02:38.000Z</time>
      </trkpt>
      <trkpt lat="47.26343" lon="-2.30582">
        <ele>-16.39999961853</ele>
        <time>2021-11-07T09:03:34.000Z</time>
      </trkpt>
      <trkpt lat="47.26343" lon="-2.3058">
        <ele>-16.39999961853</ele>
        <time>2021-11-07T09:03:35.000Z</time>
      </trkpt>
      <trkpt lat="47.26343" lon="-2.30565">
        <ele>-16.39999961853</ele>
        <time>2021-11-07T09:03:39.000Z</time>
      </trkpt>
      <trkpt lat="47.2634" lon="-2.30536">
        <ele>-16.39999961853</ele>
        <time>2021-11-07T09:03:44.000Z</time>
      </trkpt>
      <trkpt lat="47.26331" lon="-2.30497">
        <ele>-16.39999961853</ele>
        <time>2021-11-07T09:03:50.000Z</time>
      </trkpt>
      <trkpt lat="47.26323" lon="-2.30453">
        <ele>-16.39999961853</ele>
        <time>2021-11-07T09:03:56.000Z</time>
      </trkpt>
      <trkpt lat="47.26322" lon="-2.30447">
        <ele>-16.39999961853</ele>
        <time>2021-11-07T09:03:57.000Z</time>
      </trkpt>
      <trkpt lat="47.26317" lon="-2.30426">
        <ele>-16.39999961853</ele>
        <time>2021-11-07T09:04:00.000Z</time>
      </trkpt>
      <trkpt lat="47.26314" lon="-2.30412">
        <ele>-16.39999961853</ele>
        <time>2021-11-07T09:04:02.000Z</time>
      </trkpt>
      <trkpt lat="47.26305" lon="-2.30356">
        <ele>-16.39999961853</ele>
        <time>2021-11-07T09:04:09.000Z</time>
      </trkpt>
      <trkpt lat="47.26301" lon="-2.30331">
        <ele>-16.39999961853</ele>
        <time>2021-11-07T09:04:12.000Z</time>
      </trkpt>
      <trkpt lat="47.26294" lon="-2.30309">
        <ele>-16.39999961853</ele>
        <time>2021-11-07T09:04:15.000Z</time>
      </trkpt>
      <trkpt lat="47.26284" lon="-2.30276">
        <ele>-16.39999961853</ele>
        <time>2021-11-07T09:04:19.000Z</time>
      </trkpt>
      <trkpt lat="47.2628" lon="-2.30259">
        <ele>-16.39999961853</ele>
        <time>2021-11-07T09:04:21.000Z</time>
      </trkpt>
      <trkpt lat="47.26267" lon="-2.30191">
        <ele>-16</ele>
        <time>2021-11-07T09:04:29.000Z</time>
      </trkpt>
      <trkpt lat="47.26265" lon="-2.30183">
        <ele>-15.60000038147</ele>
        <time>2021-11-07T09:04:30.000Z</time>
      </trkpt>
      <trkpt lat="47.26263" lon="-2.30176">
        <ele>-15.199999809265</ele>
        <time>2021-11-07T09:04:31.000Z</time>
      </trkpt>
      <trkpt lat="47.26261" lon="-2.30169">
        <ele>-14.800000190735</ele>
        <time>2021-11-07T09:04:32.000Z</time>
      </trkpt>
      <trkpt lat="47.26258" lon="-2.30163">
        <ele>-14.39999961853</ele>
        <time>2021-11-07T09:04:33.000Z</time>
      </trkpt>
      <trkpt lat="47.26255" lon="-2.30157">
        <ele>-14.39999961853</ele>
        <time>2021-11-07T09:04:34.000Z</time>
      </trkpt>
      <trkpt lat="47.26253" lon="-2.3015">
        <ele>-14.39999961853</ele>
        <time>2021-11-07T09:04:35.000Z</time>
      </trkpt>
      <trkpt lat="47.26246" lon="-2.30134">
        <ele>-14.39999961853</ele>
        <time>2021-11-07T09:04:38.000Z</time>
      </trkpt>
      <trkpt lat="47.26233" lon="-2.30137">
        <ele>-14.39999961853</ele>
        <time>2021-11-07T09:04:41.000Z</time>
      </trkpt>
      <trkpt lat="47.26219" lon="-2.30143">
        <ele>-14.39999961853</ele>
        <time>2021-11-07T09:04:44.000Z</time>
      </trkpt>
      <trkpt lat="47.26208" lon="-2.30147">
        <ele>-14.39999961853</ele>
        <time>2021-11-07T09:04:46.000Z</time>
      </trkpt>
      <trkpt lat="47.26183" lon="-2.30157">
        <ele>-14.39999961853</ele>
        <time>2021-11-07T09:04:51.000Z</time>
      </trkpt>
      <trkpt lat="47.26177" lon="-2.3016">
        <ele>-14.39999961853</ele>
        <time>2021-11-07T09:04:53.000Z</time>
      </trkpt>
      <trkpt lat="47.26175" lon="-2.30158">
        <ele>-14.39999961853</ele>
        <time>2021-11-07T09:04:54.000Z</time>
      </trkpt>
      <trkpt lat="47.26172" lon="-2.30151">
        <ele>-14.39999961853</ele>
        <time>2021-11-07T09:04:56.000Z</time>
      </trkpt>
      <trkpt lat="47.2617" lon="-2.30147">
        <ele>-14.39999961853</ele>
        <time>2021-11-07T09:04:58.000Z</time>
      </trkpt>
      <trkpt lat="47.26167" lon="-2.30147">
        <ele>-14.39999961853</ele>
        <time>2021-11-07T09:05:00.000Z</time>
      </trkpt>
      <trkpt lat="47.26164" lon="-2.30149">
        <ele>-14.800000190735</ele>
        <time>2021-11-07T09:05:01.000Z</time>
      </trkpt>
      <trkpt lat="47.26161" lon="-2.3015">
        <ele>-15.199999809265</ele>
        <time>2021-11-07T09:05:02.000Z</time>
      </trkpt>
      <trkpt lat="47.26157" lon="-2.30152">
        <ele>-15.60000038147</ele>
        <time>2021-11-07T09:05:03.000Z</time>
      </trkpt>
      <trkpt lat="47.26154" lon="-2.30153">
        <ele>-16</ele>
        <time>2021-11-07T09:05:04.000Z</time>
      </trkpt>
      <trkpt lat="47.2615" lon="-2.30155">
        <ele>-16.39999961853</ele>
        <time>2021-11-07T09:05:05.000Z</time>
      </trkpt>
      <trkpt lat="47.26127" lon="-2.30163">
        <ele>-16.39999961853</ele>
        <time>2021-11-07T09:05:10.000Z</time>
      </trkpt>
      <trkpt lat="47.26123" lon="-2.30163">
        <ele>-16.799999237061</ele>
        <time>2021-11-07T09:05:11.000Z</time>
      </trkpt>
      <trkpt lat="47.2612" lon="-2.30165">
        <ele>-17.200000762939</ele>
        <time>2021-11-07T09:05:12.000Z</time>
      </trkpt>
      <trkpt lat="47.26116" lon="-2.30165">
        <ele>-17.799999237061</ele>
        <time>2021-11-07T09:05:13.000Z</time>
      </trkpt>
      <trkpt lat="47.26113" lon="-2.30166">
        <ele>-18.200000762939</ele>
        <time>2021-11-07T09:05:14.000Z</time>
      </trkpt>
      <trkpt lat="47.26111" lon="-2.30167">
        <ele>-18.60000038147</ele>
        <time>2021-11-07T09:05:15.000Z</time>
      </trkpt>
      <trkpt lat="47.26109" lon="-2.30166">
        <ele>-18.60000038147</ele>
        <time>2021-11-07T09:05:16.000Z</time>
      </trkpt>
      <trkpt lat="47.26105" lon="-2.30163">
        <ele>-18.60000038147</ele>
        <time>2021-11-07T09:05:18.000Z</time>
      </trkpt>
      <trkpt lat="47.261" lon="-2.30157">
        <ele>-19</ele>
        <time>2021-11-07T09:05:21.000Z</time>
      </trkpt>
      <trkpt lat="47.26097" lon="-2.30157">
        <ele>-19.39999961853</ele>
        <time>2021-11-07T09:05:22.000Z</time>
      </trkpt>
      <trkpt lat="47.26094" lon="-2.30157">
        <ele>-19.799999237061</ele>
        <time>2021-11-07T09:05:23.000Z</time>
      </trkpt>
      <trkpt lat="47.2609" lon="-2.30158">
        <ele>-20.200000762939</ele>
        <time>2021-11-07T09:05:24.000Z</time>
      </trkpt>
      <trkpt lat="47.26086" lon="-2.30159">
        <ele>-20.60000038147</ele>
        <time>2021-11-07T09:05:25.000Z</time>
      </trkpt>
      <trkpt lat="47.26076" lon="-2.30158">
        <ele>-20.60000038147</ele>
        <time>2021-11-07T09:05:28.000Z</time>
      </trkpt>
      <trkpt lat="47.26075" lon="-2.30155">
        <ele>-20.60000038147</ele>
        <time>2021-11-07T09:05:29.000Z</time>
      </trkpt>
      <trkpt lat="47.26063" lon="-2.30149">
        <ele>-21</ele>
        <time>2021-11-07T09:05:32.000Z</time>
      </trkpt>
      <trkpt lat="47.26058" lon="-2.3015">
        <ele>-21.39999961853</ele>
        <time>2021-11-07T09:05:33.000Z</time>
      </trkpt>
      <trkpt lat="47.26052" lon="-2.3015">
        <ele>-21.799999237061</ele>
        <time>2021-11-07T09:05:34.000Z</time>
      </trkpt>
      <trkpt lat="47.26047" lon="-2.3015">
        <ele>-22.39999961853</ele>
        <time>2021-11-07T09:05:35.000Z</time>
      </trkpt>
      <trkpt lat="47.26042" lon="-2.30149">
        <ele>-22.799999237061</ele>
        <time>2021-11-07T09:05:36.000Z</time>
      </trkpt>
      <trkpt lat="47.26017" lon="-2.30142">
        <ele>-22.799999237061</ele>
        <time>2021-11-07T09:05:41.000Z</time>
      </trkpt>
      <trkpt lat="47.26001" lon="-2.30143">
        <ele>-23.200000762939</ele>
        <time>2021-11-07T09:05:44.000Z</time>
      </trkpt>
      <trkpt lat="47.25997" lon="-2.30143">
        <ele>-23.60000038147</ele>
        <time>2021-11-07T09:05:45.000Z</time>
      </trkpt>
      <trkpt lat="47.25991" lon="-2.30143">
        <ele>-24</ele>
        <time>2021-11-07T09:05:46.000Z</time>
      </trkpt>
      <trkpt lat="47.25985" lon="-2.30144">
        <ele>-24.60000038147</ele>
        <time>2021-11-07T09:05:47.000Z</time>
      </trkpt>
      <trkpt lat="47.25979" lon="-2.30147">
        <ele>-25</ele>
        <time>2021-11-07T09:05:48.000Z</time>
      </trkpt>
      <trkpt lat="47.25973" lon="-2.30151">
        <ele>-25</ele>
        <time>2021-11-07T09:05:49.000Z</time>
      </trkpt>
      <trkpt lat="47.25958" lon="-2.30166">
        <ele>-25</ele>
        <time>2021-11-07T09:05:52.000Z</time>
      </trkpt>
      <trkpt lat="47.25953" lon="-2.3017">
        <ele>-25</ele>
        <time>2021-11-07T09:05:53.000Z</time>
      </trkpt>
      <trkpt lat="47.25928" lon="-2.30179">
        <ele>-25</ele>
        <time>2021-11-07T09:05:57.000Z</time>
      </trkpt>
      <trkpt lat="47.25922" lon="-2.3018">
        <ele>-25</ele>
        <time>2021-11-07T09:05:58.000Z</time>
      </trkpt>
      <trkpt lat="47.25905" lon="-2.30182">
        <ele>-25</ele>
        <time>2021-11-07T09:06:01.000Z</time>
      </trkpt>
      <trkpt lat="47.259" lon="-2.30185">
        <ele>-25</ele>
        <time>2021-11-07T09:06:02.000Z</time>
      </trkpt>
      <trkpt lat="47.25893" lon="-2.30205">
        <ele>-25</ele>
        <time>2021-11-07T09:06:05.000Z</time>
      </trkpt>
      <trkpt lat="47.25895" lon="-2.30228">
        <ele>-25</ele>
        <time>2021-11-07T09:06:08.000Z</time>
      </trkpt>
      <trkpt lat="47.25895" lon="-2.30236">
        <ele>-25</ele>
        <time>2021-11-07T09:06:09.000Z</time>
      </trkpt>
      <trkpt lat="47.25896" lon="-2.30287">
        <ele>-25</ele>
        <time>2021-11-07T09:06:15.000Z</time>
      </trkpt>
      <trkpt lat="47.25896" lon="-2.30295">
        <ele>-25</ele>
        <time>2021-11-07T09:06:16.000Z</time>
      </trkpt>
      <trkpt lat="47.2589" lon="-2.30307">
        <ele>-25</ele>
        <time>2021-11-07T09:06:18.000Z</time>
      </trkpt>
      <trkpt lat="47.25875" lon="-2.3031">
        <ele>-25</ele>
        <time>2021-11-07T09:06:21.000Z</time>
      </trkpt>
      <trkpt lat="47.2587" lon="-2.30312">
        <ele>-25</ele>
        <time>2021-11-07T09:06:22.000Z</time>
      </trkpt>
      <trkpt lat="47.25861" lon="-2.30305">
        <ele>-25</ele>
        <time>2021-11-07T09:06:24.000Z</time>
      </trkpt>
      <trkpt lat="47.25854" lon="-2.30289">
        <ele>-25</ele>
        <time>2021-11-07T09:06:26.000Z</time>
      </trkpt>
      <trkpt lat="47.25849" lon="-2.30283">
        <ele>-25</ele>
        <time>2021-11-07T09:06:27.000Z</time>
      </trkpt>
      <trkpt lat="47.25829" lon="-2.30272">
        <ele>-25</ele>
        <time>2021-11-07T09:06:30.000Z</time>
      </trkpt>
      <trkpt lat="47.25822" lon="-2.30268">
        <ele>-25</ele>
        <time>2021-11-07T09:06:31.000Z</time>
      </trkpt>
      <trkpt lat="47.25777" lon="-2.30248">
        <ele>-25</ele>
        <time>2021-11-07T09:06:37.000Z</time>
      </trkpt>
      <trkpt lat="47.25744" lon="-2.30232">
        <ele>-25</ele>
        <time>2021-11-07T09:06:42.000Z</time>
      </trkpt>
      <trkpt lat="47.25715" lon="-2.30221">
        <ele>-25</ele>
        <time>2021-11-07T09:06:47.000Z</time>
      </trkpt>
      <trkpt lat="47.25709" lon="-2.30223">
        <ele>-25</ele>
        <time>2021-11-07T09:06:48.000Z</time>
      </trkpt>
      <trkpt lat="47.25696" lon="-2.30236">
        <ele>-25</ele>
        <time>2021-11-07T09:06:51.000Z</time>
      </trkpt>
      <trkpt lat="47.25691" lon="-2.30248">
        <ele>-24.60000038147</ele>
        <time>2021-11-07T09:06:53.000Z</time>
      </trkpt>
      <trkpt lat="47.2569" lon="-2.30254">
        <ele>-24.200000762939</ele>
        <time>2021-11-07T09:06:54.000Z</time>
      </trkpt>
      <trkpt lat="47.2569" lon="-2.30261">
        <ele>-23.60000038147</ele>
        <time>2021-11-07T09:06:55.000Z</time>
      </trkpt>
      <trkpt lat="47.2569" lon="-2.30267">
        <ele>-23.200000762939</ele>
        <time>2021-11-07T09:06:56.000Z</time>
      </trkpt>
      <trkpt lat="47.25692" lon="-2.30272">
        <ele>-22.799999237061</ele>
        <time>2021-11-07T09:06:57.000Z</time>
      </trkpt>
      <trkpt lat="47.25691" lon="-2.30283">
        <ele>-22.799999237061</ele>
        <time>2021-11-07T09:06:59.000Z</time>
      </trkpt>
      <trkpt lat="47.25683" lon="-2.30307">
        <ele>-22.799999237061</ele>
        <time>2021-11-07T09:07:03.000Z</time>
      </trkpt>
      <trkpt lat="47.2567" lon="-2.30319">
        <ele>-22.799999237061</ele>
        <time>2021-11-07T09:07:06.000Z</time>
      </trkpt>
      <trkpt lat="47.25666" lon="-2.30321">
        <ele>-22.799999237061</ele>
        <time>2021-11-07T09:07:07.000Z</time>
      </trkpt>
      <trkpt lat="47.25649" lon="-2.30338">
        <ele>-22.799999237061</ele>
        <time>2021-11-07T09:07:11.000Z</time>
      </trkpt>
      <trkpt lat="47.25637" lon="-2.30348">
        <ele>-22.799999237061</ele>
        <time>2021-11-07T09:07:15.000Z</time>
      </trkpt>
      <trkpt lat="47.25627" lon="-2.30332">
        <ele>-22.799999237061</ele>
        <time>2021-11-07T09:07:18.000Z</time>
      </trkpt>
      <trkpt lat="47.25623" lon="-2.303">
        <ele>-22.799999237061</ele>
        <time>2021-11-07T09:07:22.000Z</time>
      </trkpt>
      <trkpt lat="47.25615" lon="-2.3024">
        <ele>-22.799999237061</ele>
        <time>2021-11-07T09:07:29.000Z</time>
      </trkpt>
      <trkpt lat="47.25613" lon="-2.30232">
        <ele>-22.799999237061</ele>
        <time>2021-11-07T09:07:30.000Z</time>
      </trkpt>
      <trkpt lat="47.25598" lon="-2.30205">
        <ele>-22.799999237061</ele>
        <time>2021-11-07T09:07:34.000Z</time>
      </trkpt>
      <trkpt lat="47.25585" lon="-2.30193">
        <ele>-22.799999237061</ele>
        <time>2021-11-07T09:07:37.000Z</time>
      </trkpt>
      <trkpt lat="47.25577" lon="-2.30187">
        <ele>-22.799999237061</ele>
        <time>2021-11-07T09:07:39.000Z</time>
      </trkpt>
      <trkpt lat="47.25572" lon="-2.30185">
        <ele>-22.799999237061</ele>
        <time>2021-11-07T09:07:40.000Z</time>
      </trkpt>
      <trkpt lat="47.25556" lon="-2.30183">
        <ele>-22.799999237061</ele>
        <time>2021-11-07T09:07:43.000Z</time>
      </trkpt>
      <trkpt lat="47.25541" lon="-2.30189">
        <ele>-22.799999237061</ele>
        <time>2021-11-07T09:07:46.000Z</time>
      </trkpt>
      <trkpt lat="47.25532" lon="-2.30194">
        <ele>-22.799999237061</ele>
        <time>2021-11-07T09:07:48.000Z</time>
      </trkpt>
      <trkpt lat="47.25523" lon="-2.30197">
        <ele>-22.799999237061</ele>
        <time>2021-11-07T09:07:50.000Z</time>
      </trkpt>
      <trkpt lat="47.25512" lon="-2.30196">
        <ele>-22.799999237061</ele>
        <time>2021-11-07T09:07:53.000Z</time>
      </trkpt>
      <trkpt lat="47.25497" lon="-2.30205">
        <ele>-22.799999237061</ele>
        <time>2021-11-07T09:07:57.000Z</time>
      </trkpt>
      <trkpt lat="47.25494" lon="-2.30209">
        <ele>-22.39999961853</ele>
        <time>2021-11-07T09:07:58.000Z</time>
      </trkpt>
      <trkpt lat="47.25491" lon="-2.30213">
        <ele>-21.60000038147</ele>
        <time>2021-11-07T09:07:59.000Z</time>
      </trkpt>
      <trkpt lat="47.25488" lon="-2.30218">
        <ele>-21.200000762939</ele>
        <time>2021-11-07T09:08:00.000Z</time>
      </trkpt>
      <trkpt lat="47.25486" lon="-2.30223">
        <ele>-20.799999237061</ele>
        <time>2021-11-07T09:08:01.000Z</time>
      </trkpt>
      <trkpt lat="47.25484" lon="-2.30228">
        <ele>-20.799999237061</ele>
        <time>2021-11-07T09:08:02.000Z</time>
      </trkpt>
      <trkpt lat="47.25479" lon="-2.30244">
        <ele>-20.799999237061</ele>
        <time>2021-11-07T09:08:05.000Z</time>
      </trkpt>
      <trkpt lat="47.25476" lon="-2.30245">
        <ele>-20.799999237061</ele>
        <time>2021-11-07T09:08:06.000Z</time>
      </trkpt>
      <trkpt lat="47.25466" lon="-2.30243">
        <ele>-20.799999237061</ele>
        <time>2021-11-07T09:08:09.000Z</time>
      </trkpt>
      <trkpt lat="47.25462" lon="-2.30242">
        <ele>-20.799999237061</ele>
        <time>2021-11-07T09:08:10.000Z</time>
      </trkpt>
      <trkpt lat="47.25436" lon="-2.30233">
        <ele>-20.799999237061</ele>
        <time>2021-11-07T09:08:16.000Z</time>
      </trkpt>
      <trkpt lat="47.25431" lon="-2.30231">
        <ele>-20.39999961853</ele>
        <time>2021-11-07T09:08:17.000Z</time>
      </trkpt>
      <trkpt lat="47.25426" lon="-2.30231">
        <ele>-20</ele>
        <time>2021-11-07T09:08:18.000Z</time>
      </trkpt>
      <trkpt lat="47.25422" lon="-2.3023">
        <ele>-19.60000038147</ele>
        <time>2021-11-07T09:08:19.000Z</time>
      </trkpt>
      <trkpt lat="47.25418" lon="-2.30227">
        <ele>-19.200000762939</ele>
        <time>2021-11-07T09:08:20.000Z</time>
      </trkpt>
      <trkpt lat="47.25414" lon="-2.30225">
        <ele>-18.799999237061</ele>
        <time>2021-11-07T09:08:21.000Z</time>
      </trkpt>
      <trkpt lat="47.25409" lon="-2.30224">
        <ele>-18.799999237061</ele>
        <time>2021-11-07T09:08:22.000Z</time>
      </trkpt>
      <trkpt lat="47.25394" lon="-2.30218">
        <ele>-18.799999237061</ele>
        <time>2021-11-07T09:08:26.000Z</time>
      </trkpt>
      <trkpt lat="47.2537" lon="-2.30212">
        <ele>-18.799999237061</ele>
        <time>2021-11-07T09:08:32.000Z</time>
      </trkpt>
      <trkpt lat="47.25353" lon="-2.30212">
        <ele>-18.799999237061</ele>
        <time>2021-11-07T09:08:35.000Z</time>
      </trkpt>
      <trkpt lat="47.25341" lon="-2.30212">
        <ele>-18.799999237061</ele>
        <time>2021-11-07T09:08:37.000Z</time>
      </trkpt>
      <trkpt lat="47.25312" lon="-2.30208">
        <ele>-18.39999961853</ele>
        <time>2021-11-07T09:08:43.000Z</time>
      </trkpt>
      <trkpt lat="47.2531" lon="-2.30212">
        <ele>-18</ele>
        <time>2021-11-07T09:08:44.000Z</time>
      </trkpt>
      <trkpt lat="47.25308" lon="-2.30214">
        <ele>-17.60000038147</ele>
        <time>2021-11-07T09:08:45.000Z</time>
      </trkpt>
      <trkpt lat="47.25305" lon="-2.30215">
        <ele>-17.200000762939</ele>
        <time>2021-11-07T09:08:46.000Z</time>
      </trkpt>
      <trkpt lat="47.25302" lon="-2.30214">
        <ele>-16.799999237061</ele>
        <time>2021-11-07T09:08:47.000Z</time>
      </trkpt>
      <trkpt lat="47.25294" lon="-2.30211">
        <ele>-16.799999237061</ele>
        <time>2021-11-07T09:08:49.000Z</time>
      </trkpt>
      <trkpt lat="47.2527" lon="-2.302">
        <ele>-16.799999237061</ele>
        <time>2021-11-07T09:08:55.000Z</time>
      </trkpt>
      <trkpt lat="47.25242" lon="-2.30189">
        <ele>-16.799999237061</ele>
        <time>2021-11-07T09:09:02.000Z</time>
      </trkpt>
      <trkpt lat="47.25223" lon="-2.30176">
        <ele>-16.200000762939</ele>
        <time>2021-11-07T09:09:07.000Z</time>
      </trkpt>
      <trkpt lat="47.2522" lon="-2.30172">
        <ele>-15.800000190735</ele>
        <time>2021-11-07T09:09:08.000Z</time>
      </trkpt>
      <trkpt lat="47.25216" lon="-2.30168">
        <ele>-15.39999961853</ele>
        <time>2021-11-07T09:09:09.000Z</time>
      </trkpt>
      <trkpt lat="47.25212" lon="-2.30163">
        <ele>-15</ele>
        <time>2021-11-07T09:09:10.000Z</time>
      </trkpt>
      <trkpt lat="47.25207" lon="-2.30158">
        <ele>-14.39999961853</ele>
        <time>2021-11-07T09:09:11.000Z</time>
      </trkpt>
      <trkpt lat="47.25196" lon="-2.30143">
        <ele>-14.39999961853</ele>
        <time>2021-11-07T09:09:14.000Z</time>
      </trkpt>
      <trkpt lat="47.25181" lon="-2.30124">
        <ele>-14.39999961853</ele>
        <time>2021-11-07T09:09:19.000Z</time>
      </trkpt>
      <trkpt lat="47.25177" lon="-2.30123">
        <ele>-14</ele>
        <time>2021-11-07T09:09:20.000Z</time>
      </trkpt>
      <trkpt lat="47.25173" lon="-2.30124">
        <ele>-13.60000038147</ele>
        <time>2021-11-07T09:09:21.000Z</time>
      </trkpt>
      <trkpt lat="47.25168" lon="-2.30126">
        <ele>-13.199999809265</ele>
        <time>2021-11-07T09:09:22.000Z</time>
      </trkpt>
      <trkpt lat="47.25163" lon="-2.30128">
        <ele>-12.800000190735</ele>
        <time>2021-11-07T09:09:23.000Z</time>
      </trkpt>
      <trkpt lat="47.25159" lon="-2.30129">
        <ele>-12.39999961853</ele>
        <time>2021-11-07T09:09:24.000Z</time>
      </trkpt>
      <trkpt lat="47.25133" lon="-2.30134">
        <ele>-12.39999961853</ele>
        <time>2021-11-07T09:09:29.000Z</time>
      </trkpt>
      <trkpt lat="47.25105" lon="-2.30138">
        <ele>-12.39999961853</ele>
        <time>2021-11-07T09:09:35.000Z</time>
      </trkpt>
      <trkpt lat="47.25091" lon="-2.3014">
        <ele>-12</ele>
        <time>2021-11-07T09:09:38.000Z</time>
      </trkpt>
      <trkpt lat="47.25086" lon="-2.30141">
        <ele>-11.199999809265</ele>
        <time>2021-11-07T09:09:39.000Z</time>
      </trkpt>
      <trkpt lat="47.25081" lon="-2.3014">
        <ele>-10.800000190735</ele>
        <time>2021-11-07T09:09:40.000Z</time>
      </trkpt>
      <trkpt lat="47.25076" lon="-2.30139">
        <ele>-10.39999961853</ele>
        <time>2021-11-07T09:09:41.000Z</time>
      </trkpt>
      <trkpt lat="47.2507" lon="-2.30121">
        <ele>-10.39999961853</ele>
        <time>2021-11-07T09:09:44.000Z</time>
      </trkpt>
      <trkpt lat="47.25072" lon="-2.30107">
        <ele>-10.39999961853</ele>
        <time>2021-11-07T09:09:46.000Z</time>
      </trkpt>
      <trkpt lat="47.25073" lon="-2.30086">
        <ele>-10.39999961853</ele>
        <time>2021-11-07T09:09:49.000Z</time>
      </trkpt>
      <trkpt lat="47.25071" lon="-2.30058">
        <ele>-10.39999961853</ele>
        <time>2021-11-07T09:09:54.000Z</time>
      </trkpt>
      <trkpt lat="47.25059" lon="-2.30057">
        <ele>-10.39999961853</ele>
        <time>2021-11-07T09:09:57.000Z</time>
      </trkpt>
      <trkpt lat="47.25047" lon="-2.30058">
        <ele>-10.39999961853</ele>
        <time>2021-11-07T09:10:00.000Z</time>
      </trkpt>
      <trkpt lat="47.25042" lon="-2.30057">
        <ele>-10.39999961853</ele>
        <time>2021-11-07T09:10:01.000Z</time>
      </trkpt>
      <trkpt lat="47.25033" lon="-2.30056">
        <ele>-10.39999961853</ele>
        <time>2021-11-07T09:10:03.000Z</time>
      </trkpt>
      <trkpt lat="47.25001" lon="-2.30055">
        <ele>-10.39999961853</ele>
        <time>2021-11-07T09:10:10.000Z</time>
      </trkpt>
      <trkpt lat="47.24996" lon="-2.30056">
        <ele>-10.39999961853</ele>
        <time>2021-11-07T09:10:11.000Z</time>
      </trkpt>
      <trkpt lat="47.24978" lon="-2.30058">
        <ele>-10.39999961853</ele>
        <time>2021-11-07T09:10:15.000Z</time>
      </trkpt>
      <trkpt lat="47.24963" lon="-2.30058">
        <ele>-10</ele>
        <time>2021-11-07T09:10:18.000Z</time>
      </trkpt>
      <trkpt lat="47.24958" lon="-2.30057">
        <ele>-9.6000003814697</ele>
        <time>2021-11-07T09:10:19.000Z</time>
      </trkpt>
      <trkpt lat="47.24953" lon="-2.30057">
        <ele>-9.1999998092651</ele>
        <time>2021-11-07T09:10:20.000Z</time>
      </trkpt>
      <trkpt lat="47.24949" lon="-2.30058">
        <ele>-8.8000001907349</ele>
        <time>2021-11-07T09:10:21.000Z</time>
      </trkpt>
      <trkpt lat="47.24944" lon="-2.30058">
        <ele>-8.3999996185303</ele>
        <time>2021-11-07T09:10:22.000Z</time>
      </trkpt>
      <trkpt lat="47.24915" lon="-2.30058">
        <ele>-8.3999996185303</ele>
        <time>2021-11-07T09:10:28.000Z</time>
      </trkpt>
      <trkpt lat="47.24907" lon="-2.30055">
        <ele>-8.3999996185303</ele>
        <time>2021-11-07T09:10:30.000Z</time>
      </trkpt>
      <trkpt lat="47.24905" lon="-2.30041">
        <ele>-8.3999996185303</ele>
        <time>2021-11-07T09:10:32.000Z</time>
      </trkpt>
      <trkpt lat="47.24903" lon="-2.30013">
        <ele>-8.3999996185303</ele>
        <time>2021-11-07T09:10:36.000Z</time>
      </trkpt>
      <trkpt lat="47.24902" lon="-2.30006">
        <ele>-8.3999996185303</ele>
        <time>2021-11-07T09:10:37.000Z</time>
      </trkpt>
      <trkpt lat="47.24891" lon="-2.29968">
        <ele>-8.3999996185303</ele>
        <time>2021-11-07T09:10:42.000Z</time>
      </trkpt>
      <trkpt lat="47.24881" lon="-2.29926">
        <ele>-8.3999996185303</ele>
        <time>2021-11-07T09:10:47.000Z</time>
      </trkpt>
      <trkpt lat="47.24878" lon="-2.29909">
        <ele>-8.3999996185303</ele>
        <time>2021-11-07T09:10:49.000Z</time>
      </trkpt>
      <trkpt lat="47.24872" lon="-2.29862">
        <ele>-8.3999996185303</ele>
        <time>2021-11-07T09:10:55.000Z</time>
      </trkpt>
      <trkpt lat="47.24869" lon="-2.29856">
        <ele>-8.3999996185303</ele>
        <time>2021-11-07T09:10:56.000Z</time>
      </trkpt>
      <trkpt lat="47.24866" lon="-2.29843">
        <ele>-8.3999996185303</ele>
        <time>2021-11-07T09:10:58.000Z</time>
      </trkpt>
      <trkpt lat="47.24865" lon="-2.29835">
        <ele>-8.3999996185303</ele>
        <time>2021-11-07T09:11:00.000Z</time>
      </trkpt>
      <trkpt lat="47.24864" lon="-2.29831">
        <ele>-8.3999996185303</ele>
        <time>2021-11-07T09:11:02.000Z</time>
      </trkpt>
      <trkpt lat="47.24864" lon="-2.2983">
        <ele>-8.3999996185303</ele>
        <time>2021-11-07T09:11:04.000Z</time>
      </trkpt>
      <trkpt lat="47.24861" lon="-2.29832">
        <ele>-8.3999996185303</ele>
        <time>2021-11-07T09:13:15.000Z</time>
      </trkpt>
      <trkpt lat="47.24856" lon="-2.29836">
        <ele>-8.3999996185303</ele>
        <time>2021-11-07T09:13:18.000Z</time>
      </trkpt>
      <trkpt lat="47.24842" lon="-2.29843">
        <ele>-8.3999996185303</ele>
        <time>2021-11-07T09:13:23.000Z</time>
      </trkpt>
      <trkpt lat="47.24825" lon="-2.29847">
        <ele>-8.3999996185303</ele>
        <time>2021-11-07T09:13:28.000Z</time>
      </trkpt>
      <trkpt lat="47.24802" lon="-2.29856">
        <ele>-8.3999996185303</ele>
        <time>2021-11-07T09:13:33.000Z</time>
      </trkpt>
      <trkpt lat="47.24792" lon="-2.29863">
        <ele>-8.3999996185303</ele>
        <time>2021-11-07T09:13:35.000Z</time>
      </trkpt>
      <trkpt lat="47.24771" lon="-2.29879">
        <ele>-8.3999996185303</ele>
        <time>2021-11-07T09:13:40.000Z</time>
      </trkpt>
      <trkpt lat="47.2475" lon="-2.29897">
        <ele>-8.3999996185303</ele>
        <time>2021-11-07T09:13:45.000Z</time>
      </trkpt>
      <trkpt lat="47.24748" lon="-2.29911">
        <ele>-8.3999996185303</ele>
        <time>2021-11-07T09:13:47.000Z</time>
      </trkpt>
      <trkpt lat="47.24747" lon="-2.29926">
        <ele>-8.3999996185303</ele>
        <time>2021-11-07T09:13:49.000Z</time>
      </trkpt>
      <trkpt lat="47.24747" lon="-2.29952">
        <ele>-8.3999996185303</ele>
        <time>2021-11-07T09:13:52.000Z</time>
      </trkpt>
      <trkpt lat="47.24738" lon="-2.29995">
        <ele>-8.3999996185303</ele>
        <time>2021-11-07T09:13:57.000Z</time>
      </trkpt>
      <trkpt lat="47.24722" lon="-2.30023">
        <ele>-8.3999996185303</ele>
        <time>2021-11-07T09:14:01.000Z</time>
      </trkpt>
      <trkpt lat="47.24718" lon="-2.30029">
        <ele>-8.3999996185303</ele>
        <time>2021-11-07T09:14:02.000Z</time>
      </trkpt>
      <trkpt lat="47.24713" lon="-2.30034">
        <ele>-8.8000001907349</ele>
        <time>2021-11-07T09:14:03.000Z</time>
      </trkpt>
      <trkpt lat="47.24708" lon="-2.30039">
        <ele>-9.1999998092651</ele>
        <time>2021-11-07T09:14:04.000Z</time>
      </trkpt>
      <trkpt lat="47.24703" lon="-2.30044">
        <ele>-9.6000003814697</ele>
        <time>2021-11-07T09:14:05.000Z</time>
      </trkpt>
      <trkpt lat="47.24697" lon="-2.30048">
        <ele>-10</ele>
        <time>2021-11-07T09:14:06.000Z</time>
      </trkpt>
      <trkpt lat="47.24692" lon="-2.30051">
        <ele>-10.39999961853</ele>
        <time>2021-11-07T09:14:07.000Z</time>
      </trkpt>
      <trkpt lat="47.24661" lon="-2.30077">
        <ele>-10.39999961853</ele>
        <time>2021-11-07T09:14:13.000Z</time>
      </trkpt>
      <trkpt lat="47.24657" lon="-2.3008">
        <ele>-10.39999961853</ele>
        <time>2021-11-07T09:14:14.000Z</time>
      </trkpt>
      <trkpt lat="47.24653" lon="-2.30083">
        <ele>-10.800000190735</ele>
        <time>2021-11-07T09:14:15.000Z</time>
      </trkpt>
      <trkpt lat="47.24651" lon="-2.30085">
        <ele>-11.199999809265</ele>
        <time>2021-11-07T09:14:16.000Z</time>
      </trkpt>
      <trkpt lat="47.24649" lon="-2.30086">
        <ele>-11.60000038147</ele>
        <time>2021-11-07T09:14:17.000Z</time>
      </trkpt>
      <trkpt lat="47.24647" lon="-2.30089">
        <ele>-12</ele>
        <time>2021-11-07T09:14:18.000Z</time>
      </trkpt>
      <trkpt lat="47.24644" lon="-2.30092">
        <ele>-12.39999961853</ele>
        <time>2021-11-07T09:14:19.000Z</time>
      </trkpt>
      <trkpt lat="47.24637" lon="-2.30099">
        <ele>-12.39999961853</ele>
        <time>2021-11-07T09:14:21.000Z</time>
      </trkpt>
      <trkpt lat="47.24607" lon="-2.30126">
        <ele>-12.39999961853</ele>
        <time>2021-11-07T09:14:28.000Z</time>
      </trkpt>
      <trkpt lat="47.24582" lon="-2.3016">
        <ele>-12.39999961853</ele>
        <time>2021-11-07T09:14:34.000Z</time>
      </trkpt>
      <trkpt lat="47.24553" lon="-2.30202">
        <ele>-12.39999961853</ele>
        <time>2021-11-07T09:14:41.000Z</time>
      </trkpt>
      <trkpt lat="47.24525" lon="-2.30232">
        <ele>-12.39999961853</ele>
        <time>2021-11-07T09:14:47.000Z</time>
      </trkpt>
      <trkpt lat="47.2452" lon="-2.30237">
        <ele>-12.39999961853</ele>
        <time>2021-11-07T09:14:48.000Z</time>
      </trkpt>
      <trkpt lat="47.24509" lon="-2.30245">
        <ele>-12.800000190735</ele>
        <time>2021-11-07T09:14:50.000Z</time>
      </trkpt>
      <trkpt lat="47.24504" lon="-2.30249">
        <ele>-13.39999961853</ele>
        <time>2021-11-07T09:14:51.000Z</time>
      </trkpt>
      <trkpt lat="47.24498" lon="-2.30253">
        <ele>-13.800000190735</ele>
        <time>2021-11-07T09:14:52.000Z</time>
      </trkpt>
      <trkpt lat="47.24492" lon="-2.30258">
        <ele>-14.199999809265</ele>
        <time>2021-11-07T09:14:53.000Z</time>
      </trkpt>
      <trkpt lat="47.24487" lon="-2.30264">
        <ele>-14.60000038147</ele>
        <time>2021-11-07T09:14:54.000Z</time>
      </trkpt>
      <trkpt lat="47.24482" lon="-2.30271">
        <ele>-14.60000038147</ele>
        <time>2021-11-07T09:14:55.000Z</time>
      </trkpt>
      <trkpt lat="47.24472" lon="-2.30285">
        <ele>-14.60000038147</ele>
        <time>2021-11-07T09:14:57.000Z</time>
      </trkpt>
      <trkpt lat="47.24469" lon="-2.30293">
        <ele>-15</ele>
        <time>2021-11-07T09:14:58.000Z</time>
      </trkpt>
      <trkpt lat="47.24465" lon="-2.30302">
        <ele>-15.39999961853</ele>
        <time>2021-11-07T09:14:59.000Z</time>
      </trkpt>
      <trkpt lat="47.24464" lon="-2.30312">
        <ele>-16.200000762939</ele>
        <time>2021-11-07T09:15:00.000Z</time>
      </trkpt>
      <trkpt lat="47.24463" lon="-2.30322">
        <ele>-16.60000038147</ele>
        <time>2021-11-07T09:15:01.000Z</time>
      </trkpt>
      <trkpt lat="47.24462" lon="-2.30344">
        <ele>-16.60000038147</ele>
        <time>2021-11-07T09:15:03.000Z</time>
      </trkpt>
      <trkpt lat="47.24461" lon="-2.30389">
        <ele>-17.200000762939</ele>
        <time>2021-11-07T09:15:07.000Z</time>
      </trkpt>
      <trkpt lat="47.24461" lon="-2.304">
        <ele>-17.60000038147</ele>
        <time>2021-11-07T09:15:08.000Z</time>
      </trkpt>
      <trkpt lat="47.2446" lon="-2.30411">
        <ele>-18</ele>
        <time>2021-11-07T09:15:09.000Z</time>
      </trkpt>
      <trkpt lat="47.2446" lon="-2.30423">
        <ele>-18.39999961853</ele>
        <time>2021-11-07T09:15:10.000Z</time>
      </trkpt>
      <trkpt lat="47.2446" lon="-2.30436">
        <ele>-18.799999237061</ele>
        <time>2021-11-07T09:15:11.000Z</time>
      </trkpt>
      <trkpt lat="47.24461" lon="-2.30447">
        <ele>-19.200000762939</ele>
        <time>2021-11-07T09:15:12.000Z</time>
      </trkpt>
      <trkpt lat="47.24463" lon="-2.30459">
        <ele>-19.60000038147</ele>
        <time>2021-11-07T09:15:13.000Z</time>
      </trkpt>
      <trkpt lat="47.24467" lon="-2.30469">
        <ele>-20</ele>
        <time>2021-11-07T09:15:14.000Z</time>
      </trkpt>
      <trkpt lat="47.24471" lon="-2.30479">
        <ele>-20.39999961853</ele>
        <time>2021-11-07T09:15:15.000Z</time>
      </trkpt>
      <trkpt lat="47.24477" lon="-2.30488">
        <ele>-21</ele>
        <time>2021-11-07T09:15:16.000Z</time>
      </trkpt>
      <trkpt lat="47.24479" lon="-2.30519">
        <ele>-21.39999961853</ele>
        <time>2021-11-07T09:15:19.000Z</time>
      </trkpt>
      <trkpt lat="47.24478" lon="-2.30529">
        <ele>-21.799999237061</ele>
        <time>2021-11-07T09:15:20.000Z</time>
      </trkpt>
      <trkpt lat="47.24477" lon="-2.30538">
        <ele>-22.200000762939</ele>
        <time>2021-11-07T09:15:21.000Z</time>
      </trkpt>
      <trkpt lat="47.24472" lon="-2.30544">
        <ele>-22.60000038147</ele>
        <time>2021-11-07T09:15:22.000Z</time>
      </trkpt>
      <trkpt lat="47.24468" lon="-2.30549">
        <ele>-23</ele>
        <time>2021-11-07T09:15:23.000Z</time>
      </trkpt>
      <trkpt lat="47.24452" lon="-2.30566">
        <ele>-23</ele>
        <time>2021-11-07T09:15:26.000Z</time>
      </trkpt>
      <trkpt lat="47.24447" lon="-2.30571">
        <ele>-23</ele>
        <time>2021-11-07T09:15:27.000Z</time>
      </trkpt>
      <trkpt lat="47.24428" lon="-2.30582">
        <ele>-23</ele>
        <time>2021-11-07T09:15:30.000Z</time>
      </trkpt>
      <trkpt lat="47.24421" lon="-2.30585">
        <ele>-23.39999961853</ele>
        <time>2021-11-07T09:15:31.000Z</time>
      </trkpt>
      <trkpt lat="47.24414" lon="-2.30587">
        <ele>-23.799999237061</ele>
        <time>2021-11-07T09:15:32.000Z</time>
      </trkpt>
      <trkpt lat="47.24406" lon="-2.30587">
        <ele>-24.200000762939</ele>
        <time>2021-11-07T09:15:33.000Z</time>
      </trkpt>
      <trkpt lat="47.24398" lon="-2.30585">
        <ele>-24.799999237061</ele>
        <time>2021-11-07T09:15:34.000Z</time>
      </trkpt>
      <trkpt lat="47.24392" lon="-2.30582">
        <ele>-25.200000762939</ele>
        <time>2021-11-07T09:15:35.000Z</time>
      </trkpt>
      <trkpt lat="47.2438" lon="-2.30574">
        <ele>-25.200000762939</ele>
        <time>2021-11-07T09:15:37.000Z</time>
      </trkpt>
      <trkpt lat="47.24374" lon="-2.30569">
        <ele>-25.200000762939</ele>
        <time>2021-11-07T09:15:38.000Z</time>
      </trkpt>
      <trkpt lat="47.24369" lon="-2.30562">
        <ele>-25.60000038147</ele>
        <time>2021-11-07T09:15:39.000Z</time>
      </trkpt>
      <trkpt lat="47.24365" lon="-2.30556">
        <ele>-26</ele>
        <time>2021-11-07T09:15:40.000Z</time>
      </trkpt>
      <trkpt lat="47.2436" lon="-2.3055">
        <ele>-26.39999961853</ele>
        <time>2021-11-07T09:15:41.000Z</time>
      </trkpt>
      <trkpt lat="47.24359" lon="-2.30542">
        <ele>-27</ele>
        <time>2021-11-07T09:15:42.000Z</time>
      </trkpt>
      <trkpt lat="47.24357" lon="-2.30536">
        <ele>-27.39999961853</ele>
        <time>2021-11-07T09:15:43.000Z</time>
      </trkpt>
      <trkpt lat="47.24353" lon="-2.30521">
        <ele>-27.39999961853</ele>
        <time>2021-11-07T09:15:47.000Z</time>
      </trkpt>
      <trkpt lat="47.24355" lon="-2.30517">
        <ele>-27</ele>
        <time>2021-11-07T09:15:49.000Z</time>
      </trkpt>
      <trkpt lat="47.24356" lon="-2.30513">
        <ele>-26.39999961853</ele>
        <time>2021-11-07T09:15:50.000Z</time>
      </trkpt>
      <trkpt lat="47.24357" lon="-2.30511">
        <ele>-26</ele>
        <time>2021-11-07T09:15:51.000Z</time>
      </trkpt>
      <trkpt lat="47.24358" lon="-2.30508">
        <ele>-25.60000038147</ele>
        <time>2021-11-07T09:15:52.000Z</time>
      </trkpt>
      <trkpt lat="47.24362" lon="-2.30503">
        <ele>-25.200000762939</ele>
        <time>2021-11-07T09:15:53.000Z</time>
      </trkpt>
      <trkpt lat="47.24369" lon="-2.30488">
        <ele>-25.200000762939</ele>
        <time>2021-11-07T09:15:57.000Z</time>
      </trkpt>
      <trkpt lat="47.2437" lon="-2.30485">
        <ele>-24.799999237061</ele>
        <time>2021-11-07T09:15:58.000Z</time>
      </trkpt>
      <trkpt lat="47.24371" lon="-2.3048">
        <ele>-24.39999961853</ele>
        <time>2021-11-07T09:15:59.000Z</time>
      </trkpt>
      <trkpt lat="47.24373" lon="-2.30474">
        <ele>-24</ele>
        <time>2021-11-07T09:16:00.000Z</time>
      </trkpt>
      <trkpt lat="47.24374" lon="-2.30469">
        <ele>-23.39999961853</ele>
        <time>2021-11-07T09:16:01.000Z</time>
      </trkpt>
      <trkpt lat="47.24375" lon="-2.30463">
        <ele>-23</ele>
        <time>2021-11-07T09:16:02.000Z</time>
      </trkpt>
      <trkpt lat="47.24371" lon="-2.30454">
        <ele>-23</ele>
        <time>2021-11-07T09:16:06.000Z</time>
      </trkpt>
      <trkpt lat="47.24356" lon="-2.30454">
        <ele>-23</ele>
        <time>2021-11-07T09:16:10.000Z</time>
      </trkpt>
      <trkpt lat="47.24348" lon="-2.30451">
        <ele>-22.60000038147</ele>
        <time>2021-11-07T09:16:12.000Z</time>
      </trkpt>
      <trkpt lat="47.24345" lon="-2.30449">
        <ele>-22.200000762939</ele>
        <time>2021-11-07T09:16:13.000Z</time>
      </trkpt>
      <trkpt lat="47.24342" lon="-2.30446">
        <ele>-21.39999961853</ele>
        <time>2021-11-07T09:16:14.000Z</time>
      </trkpt>
      <trkpt lat="47.24339" lon="-2.30443">
        <ele>-21</ele>
        <time>2021-11-07T09:16:15.000Z</time>
      </trkpt>
      <trkpt lat="47.24336" lon="-2.30442">
        <ele>-21</ele>
        <time>2021-11-07T09:16:16.000Z</time>
      </trkpt>
      <trkpt lat="47.24317" lon="-2.30429">
        <ele>-21</ele>
        <time>2021-11-07T09:16:22.000Z</time>
      </trkpt>
      <trkpt lat="47.24298" lon="-2.30419">
        <ele>-21</ele>
        <time>2021-11-07T09:16:28.000Z</time>
      </trkpt>
      <trkpt lat="47.24277" lon="-2.30389">
        <ele>-21</ele>
        <time>2021-11-07T09:16:34.000Z</time>
      </trkpt>
      <trkpt lat="47.2426" lon="-2.30363">
        <ele>-20.60000038147</ele>
        <time>2021-11-07T09:16:39.000Z</time>
      </trkpt>
      <trkpt lat="47.24257" lon="-2.30358">
        <ele>-20.200000762939</ele>
        <time>2021-11-07T09:16:40.000Z</time>
      </trkpt>
      <trkpt lat="47.24255" lon="-2.30354">
        <ele>-19.799999237061</ele>
        <time>2021-11-07T09:16:41.000Z</time>
      </trkpt>
      <trkpt lat="47.24252" lon="-2.30349">
        <ele>-19.39999961853</ele>
        <time>2021-11-07T09:16:42.000Z</time>
      </trkpt>
      <trkpt lat="47.24249" lon="-2.30342">
        <ele>-19</ele>
        <time>2021-11-07T09:16:43.000Z</time>
      </trkpt>
      <trkpt lat="47.24231" lon="-2.30326">
        <ele>-19</ele>
        <time>2021-11-07T09:16:48.000Z</time>
      </trkpt>
      <trkpt lat="47.24217" lon="-2.30332">
        <ele>-19.39999961853</ele>
        <time>2021-11-07T09:16:51.000Z</time>
      </trkpt>
      <trkpt lat="47.24212" lon="-2.30334">
        <ele>-19.799999237061</ele>
        <time>2021-11-07T09:16:52.000Z</time>
      </trkpt>
      <trkpt lat="47.24208" lon="-2.30333">
        <ele>-20.39999961853</ele>
        <time>2021-11-07T09:16:53.000Z</time>
      </trkpt>
      <trkpt lat="47.24204" lon="-2.30329">
        <ele>-21</ele>
        <time>2021-11-07T09:16:54.000Z</time>
      </trkpt>
      <trkpt lat="47.242" lon="-2.30324">
        <ele>-21.60000038147</ele>
        <time>2021-11-07T09:16:55.000Z</time>
      </trkpt>
      <trkpt lat="47.24197" lon="-2.30319">
        <ele>-22.200000762939</ele>
        <time>2021-11-07T09:16:56.000Z</time>
      </trkpt>
      <trkpt lat="47.24195" lon="-2.3031">
        <ele>-22.799999237061</ele>
        <time>2021-11-07T09:16:57.000Z</time>
      </trkpt>
      <trkpt lat="47.24194" lon="-2.30302">
        <ele>-23.39999961853</ele>
        <time>2021-11-07T09:16:58.000Z</time>
      </trkpt>
      <trkpt lat="47.24193" lon="-2.30294">
        <ele>-23.39999961853</ele>
        <time>2021-11-07T09:16:59.000Z</time>
      </trkpt>
      <trkpt lat="47.2419" lon="-2.30261">
        <ele>-24.200000762939</ele>
        <time>2021-11-07T09:17:03.000Z</time>
      </trkpt>
      <trkpt lat="47.24188" lon="-2.30253">
        <ele>-24.60000038147</ele>
        <time>2021-11-07T09:17:04.000Z</time>
      </trkpt>
      <trkpt lat="47.24187" lon="-2.30246">
        <ele>-25</ele>
        <time>2021-11-07T09:17:05.000Z</time>
      </trkpt>
      <trkpt lat="47.24186" lon="-2.30242">
        <ele>-25.39999961853</ele>
        <time>2021-11-07T09:17:06.000Z</time>
      </trkpt>
      <trkpt lat="47.24183" lon="-2.30242">
        <ele>-25.39999961853</ele>
        <time>2021-11-07T09:17:07.000Z</time>
      </trkpt>
      <trkpt lat="47.2418" lon="-2.30246">
        <ele>-25.39999961853</ele>
        <time>2021-11-07T09:17:08.000Z</time>
      </trkpt>
      <trkpt lat="47.24164" lon="-2.30243">
        <ele>-25.39999961853</ele>
        <time>2021-11-07T09:17:12.000Z</time>
      </trkpt>
      <trkpt lat="47.2416" lon="-2.3024">
        <ele>-25.39999961853</ele>
        <time>2021-11-07T09:17:13.000Z</time>
      </trkpt>
      <trkpt lat="47.24153" lon="-2.30224">
        <ele>-25.39999961853</ele>
        <time>2021-11-07T09:17:17.000Z</time>
      </trkpt>
      <trkpt lat="47.24147" lon="-2.30203">
        <ele>-25.39999961853</ele>
        <time>2021-11-07T09:17:22.000Z</time>
      </trkpt>
      <trkpt lat="47.24142" lon="-2.30189">
        <ele>-25</ele>
        <time>2021-11-07T09:17:26.000Z</time>
      </trkpt>
      <trkpt lat="47.2414" lon="-2.30186">
        <ele>-24</ele>
        <time>2021-11-07T09:17:27.000Z</time>
      </trkpt>
      <trkpt lat="47.24139" lon="-2.30183">
        <ele>-23.60000038147</ele>
        <time>2021-11-07T09:17:28.000Z</time>
      </trkpt>
      <trkpt lat="47.24138" lon="-2.30179">
        <ele>-23.200000762939</ele>
        <time>2021-11-07T09:17:29.000Z</time>
      </trkpt>
      <trkpt lat="47.24135" lon="-2.30166">
        <ele>-22.60000038147</ele>
        <time>2021-11-07T09:17:33.000Z</time>
      </trkpt>
      <trkpt lat="47.24134" lon="-2.30164">
        <ele>-22.200000762939</ele>
        <time>2021-11-07T09:17:34.000Z</time>
      </trkpt>
      <trkpt lat="47.24133" lon="-2.30163">
        <ele>-21.799999237061</ele>
        <time>2021-11-07T09:17:35.000Z</time>
      </trkpt>
      <trkpt lat="47.24132" lon="-2.30162">
        <ele>-21.39999961853</ele>
        <time>2021-11-07T09:17:36.000Z</time>
      </trkpt>
      <trkpt lat="47.24131" lon="-2.30161">
        <ele>-21</ele>
        <time>2021-11-07T09:17:37.000Z</time>
      </trkpt>
      <trkpt lat="47.24129" lon="-2.3016">
        <ele>-21</ele>
        <time>2021-11-07T09:17:40.000Z</time>
      </trkpt>
      <trkpt lat="47.24125" lon="-2.3016">
        <ele>-21</ele>
        <time>2021-11-07T09:18:33.000Z</time>
      </trkpt>
      <trkpt lat="47.24112" lon="-2.30167">
        <ele>-21</ele>
        <time>2021-11-07T09:18:41.000Z</time>
      </trkpt>
      <trkpt lat="47.24108" lon="-2.30166">
        <ele>-20.60000038147</ele>
        <time>2021-11-07T09:18:43.000Z</time>
      </trkpt>
      <trkpt lat="47.24106" lon="-2.30166">
        <ele>-20.200000762939</ele>
        <time>2021-11-07T09:18:44.000Z</time>
      </trkpt>
      <trkpt lat="47.24103" lon="-2.30165">
        <ele>-19.799999237061</ele>
        <time>2021-11-07T09:18:45.000Z</time>
      </trkpt>
      <trkpt lat="47.24101" lon="-2.30164">
        <ele>-19.200000762939</ele>
        <time>2021-11-07T09:18:46.000Z</time>
      </trkpt>
      <trkpt lat="47.24098" lon="-2.30163">
        <ele>-18.799999237061</ele>
        <time>2021-11-07T09:18:47.000Z</time>
      </trkpt>
      <trkpt lat="47.24087" lon="-2.30169">
        <ele>-18.799999237061</ele>
        <time>2021-11-07T09:18:50.000Z</time>
      </trkpt>
      <trkpt lat="47.24065" lon="-2.3018">
        <ele>-18.799999237061</ele>
        <time>2021-11-07T09:18:56.000Z</time>
      </trkpt>
      <trkpt lat="47.24046" lon="-2.3019">
        <ele>-18.799999237061</ele>
        <time>2021-11-07T09:19:02.000Z</time>
      </trkpt>
      <trkpt lat="47.24034" lon="-2.30182">
        <ele>-18.799999237061</ele>
        <time>2021-11-07T09:19:07.000Z</time>
      </trkpt>
      <trkpt lat="47.24016" lon="-2.30168">
        <ele>-18.799999237061</ele>
        <time>2021-11-07T09:19:13.000Z</time>
      </trkpt>
      <trkpt lat="47.23992" lon="-2.30151">
        <ele>-18.799999237061</ele>
        <time>2021-11-07T09:19:20.000Z</time>
      </trkpt>
      <trkpt lat="47.23975" lon="-2.3014">
        <ele>-18.799999237061</ele>
        <time>2021-11-07T09:19:25.000Z</time>
      </trkpt>
      <trkpt lat="47.23955" lon="-2.30139">
        <ele>-18.799999237061</ele>
        <time>2021-11-07T09:19:29.000Z</time>
      </trkpt>
      <trkpt lat="47.23939" lon="-2.30129">
        <ele>-18.799999237061</ele>
        <time>2021-11-07T09:19:33.000Z</time>
      </trkpt>
      <trkpt lat="47.23935" lon="-2.30106">
        <ele>-18.799999237061</ele>
        <time>2021-11-07T09:19:39.000Z</time>
      </trkpt>
      <trkpt lat="47.23939" lon="-2.30102">
        <ele>-18.799999237061</ele>
        <time>2021-11-07T09:19:41.000Z</time>
      </trkpt>
      <trkpt lat="47.23948" lon="-2.30099">
        <ele>-18.799999237061</ele>
        <time>2021-11-07T09:19:44.000Z</time>
      </trkpt>
      <trkpt lat="47.23958" lon="-2.30085">
        <ele>-18.799999237061</ele>
        <time>2021-11-07T09:19:48.000Z</time>
      </trkpt>
      <trkpt lat="47.2396" lon="-2.3008">
        <ele>-18.799999237061</ele>
        <time>2021-11-07T09:19:49.000Z</time>
      </trkpt>
      <trkpt lat="47.23967" lon="-2.30059">
        <ele>-18.799999237061</ele>
        <time>2021-11-07T09:19:56.000Z</time>
      </trkpt>
      <trkpt lat="47.23973" lon="-2.30052">
        <ele>-18.799999237061</ele>
        <time>2021-11-07T09:20:04.000Z</time>
      </trkpt>
      <trkpt lat="47.23982" lon="-2.30049">
        <ele>-18.799999237061</ele>
        <time>2021-11-07T09:20:12.000Z</time>
      </trkpt>
      <trkpt lat="47.23985" lon="-2.30045">
        <ele>-18.799999237061</ele>
        <time>2021-11-07T09:20:14.000Z</time>
      </trkpt>
      <trkpt lat="47.23993" lon="-2.30034">
        <ele>-18.39999961853</ele>
        <time>2021-11-07T09:20:18.000Z</time>
      </trkpt>
      <trkpt lat="47.23995" lon="-2.30033">
        <ele>-18</ele>
        <time>2021-11-07T09:20:19.000Z</time>
      </trkpt>
      <trkpt lat="47.23998" lon="-2.30033">
        <ele>-17.60000038147</ele>
        <time>2021-11-07T09:20:20.000Z</time>
      </trkpt>
      <trkpt lat="47.24001" lon="-2.30032">
        <ele>-16.799999237061</ele>
        <time>2021-11-07T09:20:21.000Z</time>
      </trkpt>
      <trkpt lat="47.24007" lon="-2.30029">
        <ele>-16.799999237061</ele>
        <time>2021-11-07T09:20:23.000Z</time>
      </trkpt>
      <trkpt lat="47.24021" lon="-2.30012">
        <ele>-16.799999237061</ele>
        <time>2021-11-07T09:20:29.000Z</time>
      </trkpt>
      <trkpt lat="47.2404" lon="-2.29989">
        <ele>-16.799999237061</ele>
        <time>2021-11-07T09:20:36.000Z</time>
      </trkpt>
      <trkpt lat="47.24061" lon="-2.29989">
        <ele>-16.799999237061</ele>
        <time>2021-11-07T09:20:42.000Z</time>
      </trkpt>
      <trkpt lat="47.24081" lon="-2.29985">
        <ele>-16.799999237061</ele>
        <time>2021-11-07T09:20:48.000Z</time>
      </trkpt>
      <trkpt lat="47.24103" lon="-2.29984">
        <ele>-16.799999237061</ele>
        <time>2021-11-07T09:20:54.000Z</time>
      </trkpt>
      <trkpt lat="47.24125" lon="-2.29985">
        <ele>-16.799999237061</ele>
        <time>2021-11-07T09:21:00.000Z</time>
      </trkpt>
      <trkpt lat="47.24149" lon="-2.29984">
        <ele>-16.799999237061</ele>
        <time>2021-11-07T09:21:06.000Z</time>
      </trkpt>
      <trkpt lat="47.2416" lon="-2.29985">
        <ele>-16.799999237061</ele>
        <time>2021-11-07T09:21:10.000Z</time>
      </trkpt>
      <trkpt lat="47.24177" lon="-2.30006">
        <ele>-16.799999237061</ele>
        <time>2021-11-07T09:21:15.000Z</time>
      </trkpt>
      <trkpt lat="47.24182" lon="-2.30025">
        <ele>-16.799999237061</ele>
        <time>2021-11-07T09:21:19.000Z</time>
      </trkpt>
      <trkpt lat="47.24181" lon="-2.30028">
        <ele>-16.799999237061</ele>
        <time>2021-11-07T09:21:20.000Z</time>
      </trkpt>
      <trkpt lat="47.24176" lon="-2.3003">
        <ele>-16.799999237061</ele>
        <time>2021-11-07T09:21:23.000Z</time>
      </trkpt>
      <trkpt lat="47.24169" lon="-2.30029">
        <ele>-16.799999237061</ele>
        <time>2021-11-07T09:21:27.000Z</time>
      </trkpt>
      <trkpt lat="47.24168" lon="-2.30024">
        <ele>-16.799999237061</ele>
        <time>2021-11-07T09:21:29.000Z</time>
      </trkpt>
      <trkpt lat="47.24163" lon="-2.29996">
        <ele>-16.799999237061</ele>
        <time>2021-11-07T09:21:35.000Z</time>
      </trkpt>
      <trkpt lat="47.24164" lon="-2.29985">
        <ele>-16.799999237061</ele>
        <time>2021-11-07T09:21:37.000Z</time>
      </trkpt>
      <trkpt lat="47.24169" lon="-2.29959">
        <ele>-16.799999237061</ele>
        <time>2021-11-07T09:21:42.000Z</time>
      </trkpt>
      <trkpt lat="47.2417" lon="-2.29943">
        <ele>-16.799999237061</ele>
        <time>2021-11-07T09:21:45.000Z</time>
      </trkpt>
      <trkpt lat="47.24171" lon="-2.29939">
        <ele>-16.799999237061</ele>
        <time>2021-11-07T09:21:46.000Z</time>
      </trkpt>
      <trkpt lat="47.2417" lon="-2.29919">
        <ele>-16.799999237061</ele>
        <time>2021-11-07T09:21:50.000Z</time>
      </trkpt>
      <trkpt lat="47.24169" lon="-2.29913">
        <ele>-16.799999237061</ele>
        <time>2021-11-07T09:21:51.000Z</time>
      </trkpt>
      <trkpt lat="47.2417" lon="-2.29877">
        <ele>-16.799999237061</ele>
        <time>2021-11-07T09:21:57.000Z</time>
      </trkpt>
      <trkpt lat="47.24169" lon="-2.29859">
        <ele>-16.799999237061</ele>
        <time>2021-11-07T09:22:01.000Z</time>
      </trkpt>
      <trkpt lat="47.24173" lon="-2.29855">
        <ele>-16.799999237061</ele>
        <time>2021-11-07T09:22:06.000Z</time>
      </trkpt>
      <trkpt lat="47.24175" lon="-2.29856">
        <ele>-16.799999237061</ele>
        <time>2021-11-07T09:22:07.000Z</time>
      </trkpt>
      <trkpt lat="47.24174" lon="-2.29861">
        <ele>-16.799999237061</ele>
        <time>2021-11-07T09:22:10.000Z</time>
      </trkpt>
      <trkpt lat="47.24176" lon="-2.29867">
        <ele>-16.799999237061</ele>
        <time>2021-11-07T09:22:12.000Z</time>
      </trkpt>
      <trkpt lat="47.24177" lon="-2.29871">
        <ele>-16.39999961853</ele>
        <time>2021-11-07T09:22:13.000Z</time>
      </trkpt>
      <trkpt lat="47.24177" lon="-2.29875">
        <ele>-16</ele>
        <time>2021-11-07T09:22:14.000Z</time>
      </trkpt>
      <trkpt lat="47.24178" lon="-2.29879">
        <ele>-15.60000038147</ele>
        <time>2021-11-07T09:22:15.000Z</time>
      </trkpt>
      <trkpt lat="47.24179" lon="-2.29883">
        <ele>-15.199999809265</ele>
        <time>2021-11-07T09:22:16.000Z</time>
      </trkpt>
      <trkpt lat="47.24181" lon="-2.29886">
        <ele>-14.800000190735</ele>
        <time>2021-11-07T09:22:17.000Z</time>
      </trkpt>
      <trkpt lat="47.24182" lon="-2.29895">
        <ele>-14.800000190735</ele>
        <time>2021-11-07T09:22:20.000Z</time>
      </trkpt>
      <trkpt lat="47.24178" lon="-2.29904">
        <ele>-14.800000190735</ele>
        <time>2021-11-07T09:22:22.000Z</time>
      </trkpt>
      <trkpt lat="47.2417" lon="-2.29922">
        <ele>-14.800000190735</ele>
        <time>2021-11-07T09:22:26.000Z</time>
      </trkpt>
      <trkpt lat="47.24168" lon="-2.29931">
        <ele>-14.800000190735</ele>
        <time>2021-11-07T09:22:28.000Z</time>
      </trkpt>
      <trkpt lat="47.24158" lon="-2.29965">
        <ele>-14.800000190735</ele>
        <time>2021-11-07T09:22:34.000Z</time>
      </trkpt>
      <trkpt lat="47.24156" lon="-2.29975">
        <ele>-14.800000190735</ele>
        <time>2021-11-07T09:22:36.000Z</time>
      </trkpt>
      <trkpt lat="47.24153" lon="-2.29982">
        <ele>-14.800000190735</ele>
        <time>2021-11-07T09:22:38.000Z</time>
      </trkpt>
      <trkpt lat="47.24139" lon="-2.29989">
        <ele>-14.800000190735</ele>
        <time>2021-11-07T09:22:43.000Z</time>
      </trkpt>
      <trkpt lat="47.24125" lon="-2.2999">
        <ele>-14.800000190735</ele>
        <time>2021-11-07T09:22:46.000Z</time>
      </trkpt>
      <trkpt lat="47.24116" lon="-2.29988">
        <ele>-14.800000190735</ele>
        <time>2021-11-07T09:22:48.000Z</time>
      </trkpt>
      <trkpt lat="47.24095" lon="-2.29986">
        <ele>-14.800000190735</ele>
        <time>2021-11-07T09:22:53.000Z</time>
      </trkpt>
      <trkpt lat="47.24074" lon="-2.29983">
        <ele>-14.800000190735</ele>
        <time>2021-11-07T09:22:59.000Z</time>
      </trkpt>
      <trkpt lat="47.24066" lon="-2.2997">
        <ele>-14.800000190735</ele>
        <time>2021-11-07T09:23:03.000Z</time>
      </trkpt>
      <trkpt lat="47.24065" lon="-2.29962">
        <ele>-14.800000190735</ele>
        <time>2021-11-07T09:23:05.000Z</time>
      </trkpt>
      <trkpt lat="47.24068" lon="-2.29944">
        <ele>-14.800000190735</ele>
        <time>2021-11-07T09:23:09.000Z</time>
      </trkpt>
      <trkpt lat="47.24077" lon="-2.29904">
        <ele>-14.800000190735</ele>
        <time>2021-11-07T09:23:16.000Z</time>
      </trkpt>
      <trkpt lat="47.24082" lon="-2.29868">
        <ele>-14.800000190735</ele>
        <time>2021-11-07T09:23:22.000Z</time>
      </trkpt>
      <trkpt lat="47.24082" lon="-2.29841">
        <ele>-14.800000190735</ele>
        <time>2021-11-07T09:23:27.000Z</time>
      </trkpt>
      <trkpt lat="47.24082" lon="-2.29796">
        <ele>-14.800000190735</ele>
        <time>2021-11-07T09:23:34.000Z</time>
      </trkpt>
      <trkpt lat="47.24078" lon="-2.2975">
        <ele>-14.800000190735</ele>
        <time>2021-11-07T09:23:40.000Z</time>
      </trkpt>
      <trkpt lat="47.24073" lon="-2.29729">
        <ele>-14.800000190735</ele>
        <time>2021-11-07T09:23:43.000Z</time>
      </trkpt>
      <trkpt lat="47.24069" lon="-2.29714">
        <ele>-14.800000190735</ele>
        <time>2021-11-07T09:23:45.000Z</time>
      </trkpt>
      <trkpt lat="47.24065" lon="-2.29706">
        <ele>-14.800000190735</ele>
        <time>2021-11-07T09:23:46.000Z</time>
      </trkpt>
      <trkpt lat="47.24057" lon="-2.2968">
        <ele>-14.800000190735</ele>
        <time>2021-11-07T09:23:49.000Z</time>
      </trkpt>
      <trkpt lat="47.24053" lon="-2.29658">
        <ele>-14.800000190735</ele>
        <time>2021-11-07T09:23:52.000Z</time>
      </trkpt>
      <trkpt lat="47.24052" lon="-2.2965">
        <ele>-14.800000190735</ele>
        <time>2021-11-07T09:23:53.000Z</time>
      </trkpt>
      <trkpt lat="47.24052" lon="-2.29636">
        <ele>-14.800000190735</ele>
        <time>2021-11-07T09:23:55.000Z</time>
      </trkpt>
      <trkpt lat="47.24053" lon="-2.29629">
        <ele>-14.800000190735</ele>
        <time>2021-11-07T09:23:56.000Z</time>
      </trkpt>
      <trkpt lat="47.24069" lon="-2.29613">
        <ele>-14.800000190735</ele>
        <time>2021-11-07T09:24:00.000Z</time>
      </trkpt>
      <trkpt lat="47.24074" lon="-2.2961">
        <ele>-14.800000190735</ele>
        <time>2021-11-07T09:24:01.000Z</time>
      </trkpt>
      <trkpt lat="47.24099" lon="-2.29594">
        <ele>-14.800000190735</ele>
        <time>2021-11-07T09:24:06.000Z</time>
      </trkpt>
      <trkpt lat="47.24104" lon="-2.2959">
        <ele>-14.800000190735</ele>
        <time>2021-11-07T09:24:07.000Z</time>
      </trkpt>
      <trkpt lat="47.24113" lon="-2.2958">
        <ele>-14.800000190735</ele>
        <time>2021-11-07T09:24:09.000Z</time>
      </trkpt>
      <trkpt lat="47.24117" lon="-2.29565">
        <ele>-14.800000190735</ele>
        <time>2021-11-07T09:24:11.000Z</time>
      </trkpt>
      <trkpt lat="47.24115" lon="-2.29541">
        <ele>-14.800000190735</ele>
        <time>2021-11-07T09:24:14.000Z</time>
      </trkpt>
      <trkpt lat="47.24112" lon="-2.29532">
        <ele>-14.800000190735</ele>
        <time>2021-11-07T09:24:15.000Z</time>
      </trkpt>
      <trkpt lat="47.24105" lon="-2.29507">
        <ele>-15.199999809265</ele>
        <time>2021-11-07T09:24:18.000Z</time>
      </trkpt>
      <trkpt lat="47.24103" lon="-2.29498">
        <ele>-15.60000038147</ele>
        <time>2021-11-07T09:24:19.000Z</time>
      </trkpt>
      <trkpt lat="47.24102" lon="-2.29489">
        <ele>-16</ele>
        <time>2021-11-07T09:24:20.000Z</time>
      </trkpt>
      <trkpt lat="47.24104" lon="-2.29481">
        <ele>-16.60000038147</ele>
        <time>2021-11-07T09:24:21.000Z</time>
      </trkpt>
      <trkpt lat="47.24106" lon="-2.29474">
        <ele>-17</ele>
        <time>2021-11-07T09:24:22.000Z</time>
      </trkpt>
      <trkpt lat="47.24116" lon="-2.29464">
        <ele>-17</ele>
        <time>2021-11-07T09:24:24.000Z</time>
      </trkpt>
      <trkpt lat="47.24127" lon="-2.29457">
        <ele>-17</ele>
        <time>2021-11-07T09:24:26.000Z</time>
      </trkpt>
      <trkpt lat="47.24146" lon="-2.29448">
        <ele>-17</ele>
        <time>2021-11-07T09:24:29.000Z</time>
      </trkpt>
      <trkpt lat="47.24153" lon="-2.29445">
        <ele>-17</ele>
        <time>2021-11-07T09:24:30.000Z</time>
      </trkpt>
      <trkpt lat="47.2418" lon="-2.29438">
        <ele>-17</ele>
        <time>2021-11-07T09:24:34.000Z</time>
      </trkpt>
      <trkpt lat="47.24187" lon="-2.29438">
        <ele>-17</ele>
        <time>2021-11-07T09:24:35.000Z</time>
      </trkpt>
      <trkpt lat="47.2422" lon="-2.29446">
        <ele>-17</ele>
        <time>2021-11-07T09:24:40.000Z</time>
      </trkpt>
      <trkpt lat="47.24243" lon="-2.29457">
        <ele>-17.39999961853</ele>
        <time>2021-11-07T09:24:44.000Z</time>
      </trkpt>
      <trkpt lat="47.24249" lon="-2.29458">
        <ele>-17.799999237061</ele>
        <time>2021-11-07T09:24:45.000Z</time>
      </trkpt>
      <trkpt lat="47.24255" lon="-2.29458">
        <ele>-18.200000762939</ele>
        <time>2021-11-07T09:24:46.000Z</time>
      </trkpt>
      <trkpt lat="47.24261" lon="-2.29456">
        <ele>-18.60000038147</ele>
        <time>2021-11-07T09:24:47.000Z</time>
      </trkpt>
      <trkpt lat="47.24266" lon="-2.29453">
        <ele>-19</ele>
        <time>2021-11-07T09:24:48.000Z</time>
      </trkpt>
      <trkpt lat="47.24276" lon="-2.29447">
        <ele>-19</ele>
        <time>2021-11-07T09:24:50.000Z</time>
      </trkpt>
      <trkpt lat="47.24305" lon="-2.29432">
        <ele>-19</ele>
        <time>2021-11-07T09:24:55.000Z</time>
      </trkpt>
      <trkpt lat="47.24311" lon="-2.29431">
        <ele>-19</ele>
        <time>2021-11-07T09:24:56.000Z</time>
      </trkpt>
      <trkpt lat="47.2433" lon="-2.29434">
        <ele>-19</ele>
        <time>2021-11-07T09:24:59.000Z</time>
      </trkpt>
      <trkpt lat="47.24352" lon="-2.29451">
        <ele>-19</ele>
        <time>2021-11-07T09:25:03.000Z</time>
      </trkpt>
      <trkpt lat="47.24356" lon="-2.29455">
        <ele>-19</ele>
        <time>2021-11-07T09:25:04.000Z</time>
      </trkpt>
      <trkpt lat="47.24366" lon="-2.29457">
        <ele>-19</ele>
        <time>2021-11-07T09:25:06.000Z</time>
      </trkpt>
      <trkpt lat="47.24381" lon="-2.29449">
        <ele>-19</ele>
        <time>2021-11-07T09:25:09.000Z</time>
      </trkpt>
      <trkpt lat="47.24385" lon="-2.29444">
        <ele>-19</ele>
        <time>2021-11-07T09:25:10.000Z</time>
      </trkpt>
      <trkpt lat="47.244" lon="-2.29433">
        <ele>-19</ele>
        <time>2021-11-07T09:25:13.000Z</time>
      </trkpt>
      <trkpt lat="47.24411" lon="-2.2943">
        <ele>-19</ele>
        <time>2021-11-07T09:25:15.000Z</time>
      </trkpt>
      <trkpt lat="47.24423" lon="-2.29429">
        <ele>-19</ele>
        <time>2021-11-07T09:25:17.000Z</time>
      </trkpt>
      <trkpt lat="47.24429" lon="-2.29429">
        <ele>-18.60000038147</ele>
        <time>2021-11-07T09:25:18.000Z</time>
      </trkpt>
      <trkpt lat="47.24435" lon="-2.29429">
        <ele>-18.200000762939</ele>
        <time>2021-11-07T09:25:19.000Z</time>
      </trkpt>
      <trkpt lat="47.24441" lon="-2.29428">
        <ele>-17.799999237061</ele>
        <time>2021-11-07T09:25:20.000Z</time>
      </trkpt>
      <trkpt lat="47.24446" lon="-2.29428">
        <ele>-17.39999961853</ele>
        <time>2021-11-07T09:25:21.000Z</time>
      </trkpt>
      <trkpt lat="47.24452" lon="-2.29427">
        <ele>-16.799999237061</ele>
        <time>2021-11-07T09:25:22.000Z</time>
      </trkpt>
      <trkpt lat="47.2448" lon="-2.29423">
        <ele>-16.799999237061</ele>
        <time>2021-11-07T09:25:27.000Z</time>
      </trkpt>
      <trkpt lat="47.24491" lon="-2.29422">
        <ele>-16.39999961853</ele>
        <time>2021-11-07T09:25:29.000Z</time>
      </trkpt>
      <trkpt lat="47.24496" lon="-2.29421">
        <ele>-16</ele>
        <time>2021-11-07T09:25:30.000Z</time>
      </trkpt>
      <trkpt lat="47.24501" lon="-2.2942">
        <ele>-15.60000038147</ele>
        <time>2021-11-07T09:25:31.000Z</time>
      </trkpt>
      <trkpt lat="47.24506" lon="-2.29419">
        <ele>-15.199999809265</ele>
        <time>2021-11-07T09:25:32.000Z</time>
      </trkpt>
      <trkpt lat="47.2451" lon="-2.29417">
        <ele>-14.800000190735</ele>
        <time>2021-11-07T09:25:33.000Z</time>
      </trkpt>
      <trkpt lat="47.24518" lon="-2.29406">
        <ele>-14.800000190735</ele>
        <time>2021-11-07T09:25:36.000Z</time>
      </trkpt>
      <trkpt lat="47.24519" lon="-2.29386">
        <ele>-14.800000190735</ele>
        <time>2021-11-07T09:25:40.000Z</time>
      </trkpt>
      <trkpt lat="47.24518" lon="-2.29373">
        <ele>-14.800000190735</ele>
        <time>2021-11-07T09:25:42.000Z</time>
      </trkpt>
      <trkpt lat="47.24515" lon="-2.29352">
        <ele>-14.800000190735</ele>
        <time>2021-11-07T09:25:45.000Z</time>
      </trkpt>
      <trkpt lat="47.24514" lon="-2.29304">
        <ele>-14.800000190735</ele>
        <time>2021-11-07T09:25:51.000Z</time>
      </trkpt>
      <trkpt lat="47.24514" lon="-2.29227">
        <ele>-14.800000190735</ele>
        <time>2021-11-07T09:25:59.000Z</time>
      </trkpt>
      <trkpt lat="47.24521" lon="-2.29175">
        <ele>-14.800000190735</ele>
        <time>2021-11-07T09:26:04.000Z</time>
      </trkpt>
      <trkpt lat="47.24528" lon="-2.29144">
        <ele>-14.800000190735</ele>
        <time>2021-11-07T09:26:07.000Z</time>
      </trkpt>
      <trkpt lat="47.24534" lon="-2.29124">
        <ele>-14.800000190735</ele>
        <time>2021-11-07T09:26:09.000Z</time>
      </trkpt>
      <trkpt lat="47.24546" lon="-2.29069">
        <ele>-14.800000190735</ele>
        <time>2021-11-07T09:26:15.000Z</time>
      </trkpt>
      <trkpt lat="47.24548" lon="-2.2906">
        <ele>-14.800000190735</ele>
        <time>2021-11-07T09:26:16.000Z</time>
      </trkpt>
      <trkpt lat="47.24552" lon="-2.29006">
        <ele>-14.800000190735</ele>
        <time>2021-11-07T09:26:22.000Z</time>
      </trkpt>
      <trkpt lat="47.24552" lon="-2.28997">
        <ele>-14.800000190735</ele>
        <time>2021-11-07T09:26:23.000Z</time>
      </trkpt>
      <trkpt lat="47.24547" lon="-2.28971">
        <ele>-15.199999809265</ele>
        <time>2021-11-07T09:26:26.000Z</time>
      </trkpt>
      <trkpt lat="47.24545" lon="-2.28963">
        <ele>-15.60000038147</ele>
        <time>2021-11-07T09:26:27.000Z</time>
      </trkpt>
      <trkpt lat="47.24543" lon="-2.28955">
        <ele>-16</ele>
        <time>2021-11-07T09:26:28.000Z</time>
      </trkpt>
      <trkpt lat="47.24541" lon="-2.28947">
        <ele>-16.39999961853</ele>
        <time>2021-11-07T09:26:29.000Z</time>
      </trkpt>
      <trkpt lat="47.24539" lon="-2.28939">
        <ele>-17</ele>
        <time>2021-11-07T09:26:30.000Z</time>
      </trkpt>
      <trkpt lat="47.24535" lon="-2.28922">
        <ele>-17</ele>
        <time>2021-11-07T09:26:32.000Z</time>
      </trkpt>
      <trkpt lat="47.24526" lon="-2.28897">
        <ele>-17</ele>
        <time>2021-11-07T09:26:35.000Z</time>
      </trkpt>
      <trkpt lat="47.24524" lon="-2.28889">
        <ele>-17</ele>
        <time>2021-11-07T09:26:36.000Z</time>
      </trkpt>
      <trkpt lat="47.24524" lon="-2.2887">
        <ele>-17</ele>
        <time>2021-11-07T09:26:38.000Z</time>
      </trkpt>
      <trkpt lat="47.24536" lon="-2.2885">
        <ele>-17</ele>
        <time>2021-11-07T09:26:41.000Z</time>
      </trkpt>
      <trkpt lat="47.24541" lon="-2.28845">
        <ele>-17</ele>
        <time>2021-11-07T09:26:42.000Z</time>
      </trkpt>
      <trkpt lat="47.24567" lon="-2.28819">
        <ele>-17</ele>
        <time>2021-11-07T09:26:47.000Z</time>
      </trkpt>
      <trkpt lat="47.24577" lon="-2.28809">
        <ele>-17</ele>
        <time>2021-11-07T09:26:49.000Z</time>
      </trkpt>
      <trkpt lat="47.24588" lon="-2.28802">
        <ele>-17</ele>
        <time>2021-11-07T09:26:51.000Z</time>
      </trkpt>
      <trkpt lat="47.24623" lon="-2.28767">
        <ele>-17</ele>
        <time>2021-11-07T09:26:58.000Z</time>
      </trkpt>
      <trkpt lat="47.24652" lon="-2.28721">
        <ele>-17</ele>
        <time>2021-11-07T09:27:05.000Z</time>
      </trkpt>
      <trkpt lat="47.24683" lon="-2.28684">
        <ele>-17</ele>
        <time>2021-11-07T09:27:11.000Z</time>
      </trkpt>
      <trkpt lat="47.24708" lon="-2.28651">
        <ele>-17</ele>
        <time>2021-11-07T09:27:16.000Z</time>
      </trkpt>
      <trkpt lat="47.24735" lon="-2.28622">
        <ele>-17</ele>
        <time>2021-11-07T09:27:21.000Z</time>
      </trkpt>
      <trkpt lat="47.24743" lon="-2.28599">
        <ele>-17</ele>
        <time>2021-11-07T09:27:24.000Z</time>
      </trkpt>
      <trkpt lat="47.24744" lon="-2.2859">
        <ele>-17</ele>
        <time>2021-11-07T09:27:25.000Z</time>
      </trkpt>
      <trkpt lat="47.24748" lon="-2.28573">
        <ele>-17</ele>
        <time>2021-11-07T09:27:27.000Z</time>
      </trkpt>
      <trkpt lat="47.24756" lon="-2.28558">
        <ele>-17</ele>
        <time>2021-11-07T09:27:29.000Z</time>
      </trkpt>
      <trkpt lat="47.24767" lon="-2.28546">
        <ele>-17</ele>
        <time>2021-11-07T09:27:31.000Z</time>
      </trkpt>
      <trkpt lat="47.24785" lon="-2.2853">
        <ele>-17</ele>
        <time>2021-11-07T09:27:34.000Z</time>
      </trkpt>
      <trkpt lat="47.24807" lon="-2.2851">
        <ele>-17</ele>
        <time>2021-11-07T09:27:38.000Z</time>
      </trkpt>
      <trkpt lat="47.24819" lon="-2.28501">
        <ele>-17</ele>
        <time>2021-11-07T09:27:40.000Z</time>
      </trkpt>
      <trkpt lat="47.24861" lon="-2.28466">
        <ele>-17</ele>
        <time>2021-11-07T09:27:47.000Z</time>
      </trkpt>
      <trkpt lat="47.24884" lon="-2.2844">
        <ele>-17</ele>
        <time>2021-11-07T09:27:51.000Z</time>
      </trkpt>
      <trkpt lat="47.24896" lon="-2.28431">
        <ele>-17</ele>
        <time>2021-11-07T09:27:53.000Z</time>
      </trkpt>
      <trkpt lat="47.24903" lon="-2.28427">
        <ele>-17.39999961853</ele>
        <time>2021-11-07T09:27:54.000Z</time>
      </trkpt>
      <trkpt lat="47.24911" lon="-2.28423">
        <ele>-17.799999237061</ele>
        <time>2021-11-07T09:27:55.000Z</time>
      </trkpt>
      <trkpt lat="47.24919" lon="-2.28419">
        <ele>-18.200000762939</ele>
        <time>2021-11-07T09:27:56.000Z</time>
      </trkpt>
      <trkpt lat="47.24927" lon="-2.28416">
        <ele>-18.60000038147</ele>
        <time>2021-11-07T09:27:57.000Z</time>
      </trkpt>
      <trkpt lat="47.24934" lon="-2.28414">
        <ele>-19</ele>
        <time>2021-11-07T09:27:58.000Z</time>
      </trkpt>
      <trkpt lat="47.24956" lon="-2.28406">
        <ele>-19.39999961853</ele>
        <time>2021-11-07T09:28:01.000Z</time>
      </trkpt>
      <trkpt lat="47.24964" lon="-2.28403">
        <ele>-20</ele>
        <time>2021-11-07T09:28:02.000Z</time>
      </trkpt>
      <trkpt lat="47.24972" lon="-2.284">
        <ele>-20.39999961853</ele>
        <time>2021-11-07T09:28:03.000Z</time>
      </trkpt>
      <trkpt lat="47.2498" lon="-2.28395">
        <ele>-21</ele>
        <time>2021-11-07T09:28:04.000Z</time>
      </trkpt>
      <trkpt lat="47.24987" lon="-2.28391">
        <ele>-21.39999961853</ele>
        <time>2021-11-07T09:28:05.000Z</time>
      </trkpt>
      <trkpt lat="47.24991" lon="-2.28384">
        <ele>-21.799999237061</ele>
        <time>2021-11-07T09:28:06.000Z</time>
      </trkpt>
      <trkpt lat="47.24995" lon="-2.28376">
        <ele>-22.200000762939</ele>
        <time>2021-11-07T09:28:07.000Z</time>
      </trkpt>
      <trkpt lat="47.24998" lon="-2.28368">
        <ele>-22.60000038147</ele>
        <time>2021-11-07T09:28:08.000Z</time>
      </trkpt>
      <trkpt lat="47.25002" lon="-2.28361">
        <ele>-23</ele>
        <time>2021-11-07T09:28:09.000Z</time>
      </trkpt>
      <trkpt lat="47.25006" lon="-2.28353">
        <ele>-23.39999961853</ele>
        <time>2021-11-07T09:28:10.000Z</time>
      </trkpt>
      <trkpt lat="47.25014" lon="-2.2834">
        <ele>-23.39999961853</ele>
        <time>2021-11-07T09:28:12.000Z</time>
      </trkpt>
      <trkpt lat="47.25019" lon="-2.28335">
        <ele>-23.39999961853</ele>
        <time>2021-11-07T09:28:13.000Z</time>
      </trkpt>
      <trkpt lat="47.25033" lon="-2.28315">
        <ele>-23.39999961853</ele>
        <time>2021-11-07T09:28:17.000Z</time>
      </trkpt>
      <trkpt lat="47.25034" lon="-2.28302">
        <ele>-23</ele>
        <time>2021-11-07T09:28:19.000Z</time>
      </trkpt>
      <trkpt lat="47.25035" lon="-2.28294">
        <ele>-22.60000038147</ele>
        <time>2021-11-07T09:28:20.000Z</time>
      </trkpt>
      <trkpt lat="47.25036" lon="-2.28286">
        <ele>-22.200000762939</ele>
        <time>2021-11-07T09:28:21.000Z</time>
      </trkpt>
      <trkpt lat="47.25036" lon="-2.28276">
        <ele>-21.799999237061</ele>
        <time>2021-11-07T09:28:22.000Z</time>
      </trkpt>
      <trkpt lat="47.25037" lon="-2.28267">
        <ele>-21.39999961853</ele>
        <time>2021-11-07T09:28:23.000Z</time>
      </trkpt>
      <trkpt lat="47.25046" lon="-2.28213">
        <ele>-21.39999961853</ele>
        <time>2021-11-07T09:28:29.000Z</time>
      </trkpt>
      <trkpt lat="47.25059" lon="-2.28163">
        <ele>-21.39999961853</ele>
        <time>2021-11-07T09:28:35.000Z</time>
      </trkpt>
      <trkpt lat="47.25071" lon="-2.28115">
        <ele>-21.39999961853</ele>
        <time>2021-11-07T09:28:41.000Z</time>
      </trkpt>
      <trkpt lat="47.25072" lon="-2.28106">
        <ele>-21.39999961853</ele>
        <time>2021-11-07T09:28:42.000Z</time>
      </trkpt>
      <trkpt lat="47.25077" lon="-2.2808">
        <ele>-21.39999961853</ele>
        <time>2021-11-07T09:28:45.000Z</time>
      </trkpt>
      <trkpt lat="47.25083" lon="-2.28064">
        <ele>-21.39999961853</ele>
        <time>2021-11-07T09:28:47.000Z</time>
      </trkpt>
      <trkpt lat="47.25096" lon="-2.28034">
        <ele>-21</ele>
        <time>2021-11-07T09:28:51.000Z</time>
      </trkpt>
      <trkpt lat="47.25099" lon="-2.28026">
        <ele>-20.60000038147</ele>
        <time>2021-11-07T09:28:52.000Z</time>
      </trkpt>
      <trkpt lat="47.25103" lon="-2.28018">
        <ele>-20.200000762939</ele>
        <time>2021-11-07T09:28:53.000Z</time>
      </trkpt>
      <trkpt lat="47.25106" lon="-2.2801">
        <ele>-19.60000038147</ele>
        <time>2021-11-07T09:28:54.000Z</time>
      </trkpt>
      <trkpt lat="47.2511" lon="-2.28002">
        <ele>-19.200000762939</ele>
        <time>2021-11-07T09:28:55.000Z</time>
      </trkpt>
      <trkpt lat="47.25129" lon="-2.2797">
        <ele>-19.200000762939</ele>
        <time>2021-11-07T09:29:00.000Z</time>
      </trkpt>
      <trkpt lat="47.25144" lon="-2.27953">
        <ele>-18.799999237061</ele>
        <time>2021-11-07T09:29:03.000Z</time>
      </trkpt>
      <trkpt lat="47.25149" lon="-2.27948">
        <ele>-18.39999961853</ele>
        <time>2021-11-07T09:29:04.000Z</time>
      </trkpt>
      <trkpt lat="47.25155" lon="-2.27944">
        <ele>-18</ele>
        <time>2021-11-07T09:29:05.000Z</time>
      </trkpt>
      <trkpt lat="47.25161" lon="-2.2794">
        <ele>-17.60000038147</ele>
        <time>2021-11-07T09:29:06.000Z</time>
      </trkpt>
      <trkpt lat="47.25167" lon="-2.27936">
        <ele>-17.200000762939</ele>
        <time>2021-11-07T09:29:07.000Z</time>
      </trkpt>
      <trkpt lat="47.2519" lon="-2.2792">
        <ele>-17.200000762939</ele>
        <time>2021-11-07T09:29:11.000Z</time>
      </trkpt>
      <trkpt lat="47.2523" lon="-2.27896">
        <ele>-17.200000762939</ele>
        <time>2021-11-07T09:29:18.000Z</time>
      </trkpt>
      <trkpt lat="47.25259" lon="-2.27881">
        <ele>-17.200000762939</ele>
        <time>2021-11-07T09:29:23.000Z</time>
      </trkpt>
      <trkpt lat="47.25265" lon="-2.27879">
        <ele>-16.799999237061</ele>
        <time>2021-11-07T09:29:24.000Z</time>
      </trkpt>
      <trkpt lat="47.25271" lon="-2.27876">
        <ele>-16.39999961853</ele>
        <time>2021-11-07T09:29:25.000Z</time>
      </trkpt>
      <trkpt lat="47.25278" lon="-2.27875">
        <ele>-16</ele>
        <time>2021-11-07T09:29:26.000Z</time>
      </trkpt>
      <trkpt lat="47.25284" lon="-2.27873">
        <ele>-15.60000038147</ele>
        <time>2021-11-07T09:29:27.000Z</time>
      </trkpt>
      <trkpt lat="47.2529" lon="-2.27872">
        <ele>-15.199999809265</ele>
        <time>2021-11-07T09:29:28.000Z</time>
      </trkpt>
      <trkpt lat="47.25296" lon="-2.27871">
        <ele>-15.199999809265</ele>
        <time>2021-11-07T09:29:29.000Z</time>
      </trkpt>
      <trkpt lat="47.25337" lon="-2.27863">
        <ele>-15.199999809265</ele>
        <time>2021-11-07T09:29:36.000Z</time>
      </trkpt>
      <trkpt lat="47.25373" lon="-2.27854">
        <ele>-14.800000190735</ele>
        <time>2021-11-07T09:29:42.000Z</time>
      </trkpt>
      <trkpt lat="47.25379" lon="-2.27851">
        <ele>-14.39999961853</ele>
        <time>2021-11-07T09:29:43.000Z</time>
      </trkpt>
      <trkpt lat="47.25385" lon="-2.27849">
        <ele>-14</ele>
        <time>2021-11-07T09:29:44.000Z</time>
      </trkpt>
      <trkpt lat="47.25391" lon="-2.27847">
        <ele>-13.60000038147</ele>
        <time>2021-11-07T09:29:45.000Z</time>
      </trkpt>
      <trkpt lat="47.25397" lon="-2.27845">
        <ele>-13.199999809265</ele>
        <time>2021-11-07T09:29:46.000Z</time>
      </trkpt>
      <trkpt lat="47.25414" lon="-2.27836">
        <ele>-13.199999809265</ele>
        <time>2021-11-07T09:29:49.000Z</time>
      </trkpt>
      <trkpt lat="47.25444" lon="-2.27815">
        <ele>-13.199999809265</ele>
        <time>2021-11-07T09:29:55.000Z</time>
      </trkpt>
      <trkpt lat="47.25467" lon="-2.27791">
        <ele>-13.199999809265</ele>
        <time>2021-11-07T09:30:00.000Z</time>
      </trkpt>
      <trkpt lat="47.25487" lon="-2.27767">
        <ele>-12.800000190735</ele>
        <time>2021-11-07T09:30:05.000Z</time>
      </trkpt>
      <trkpt lat="47.25491" lon="-2.27764">
        <ele>-12.39999961853</ele>
        <time>2021-11-07T09:30:06.000Z</time>
      </trkpt>
      <trkpt lat="47.25495" lon="-2.27761">
        <ele>-12</ele>
        <time>2021-11-07T09:30:07.000Z</time>
      </trkpt>
      <trkpt lat="47.25498" lon="-2.27757">
        <ele>-11.60000038147</ele>
        <time>2021-11-07T09:30:08.000Z</time>
      </trkpt>
      <trkpt lat="47.25502" lon="-2.27752">
        <ele>-11.199999809265</ele>
        <time>2021-11-07T09:30:09.000Z</time>
      </trkpt>
      <trkpt lat="47.25505" lon="-2.2774">
        <ele>-11.199999809265</ele>
        <time>2021-11-07T09:30:11.000Z</time>
      </trkpt>
      <trkpt lat="47.25501" lon="-2.27716">
        <ele>-11.199999809265</ele>
        <time>2021-11-07T09:30:14.000Z</time>
      </trkpt>
      <trkpt lat="47.25499" lon="-2.27708">
        <ele>-11.199999809265</ele>
        <time>2021-11-07T09:30:15.000Z</time>
      </trkpt>
      <trkpt lat="47.25495" lon="-2.27691">
        <ele>-11.199999809265</ele>
        <time>2021-11-07T09:30:17.000Z</time>
      </trkpt>
      <trkpt lat="47.25489" lon="-2.27669">
        <ele>-11.199999809265</ele>
        <time>2021-11-07T09:30:20.000Z</time>
      </trkpt>
      <trkpt lat="47.25488" lon="-2.27661">
        <ele>-11.199999809265</ele>
        <time>2021-11-07T09:30:21.000Z</time>
      </trkpt>
      <trkpt lat="47.25482" lon="-2.27631">
        <ele>-11.199999809265</ele>
        <time>2021-11-07T09:30:25.000Z</time>
      </trkpt>
      <trkpt lat="47.2548" lon="-2.27624">
        <ele>-11.199999809265</ele>
        <time>2021-11-07T09:30:26.000Z</time>
      </trkpt>
      <trkpt lat="47.25472" lon="-2.2761">
        <ele>-11.199999809265</ele>
        <time>2021-11-07T09:30:29.000Z</time>
      </trkpt>
      <trkpt lat="47.25462" lon="-2.27592">
        <ele>-11.199999809265</ele>
        <time>2021-11-07T09:30:33.000Z</time>
      </trkpt>
      <trkpt lat="47.25453" lon="-2.27561">
        <ele>-11.199999809265</ele>
        <time>2021-11-07T09:30:38.000Z</time>
      </trkpt>
      <trkpt lat="47.25442" lon="-2.27525">
        <ele>-11.199999809265</ele>
        <time>2021-11-07T09:30:44.000Z</time>
      </trkpt>
      <trkpt lat="47.25434" lon="-2.27505">
        <ele>-11.199999809265</ele>
        <time>2021-11-07T09:30:48.000Z</time>
      </trkpt>
      <trkpt lat="47.25427" lon="-2.27495">
        <ele>-11.199999809265</ele>
        <time>2021-11-07T09:30:50.000Z</time>
      </trkpt>
      <trkpt lat="47.25419" lon="-2.27475">
        <ele>-11.199999809265</ele>
        <time>2021-11-07T09:30:53.000Z</time>
      </trkpt>
      <trkpt lat="47.25399" lon="-2.27414">
        <ele>-11.199999809265</ele>
        <time>2021-11-07T09:31:01.000Z</time>
      </trkpt>
      <trkpt lat="47.25392" lon="-2.27393">
        <ele>-11.199999809265</ele>
        <time>2021-11-07T09:31:04.000Z</time>
      </trkpt>
      <trkpt lat="47.25391" lon="-2.27381">
        <ele>-11.199999809265</ele>
        <time>2021-11-07T09:31:06.000Z</time>
      </trkpt>
      <trkpt lat="47.25381" lon="-2.27367">
        <ele>-11.199999809265</ele>
        <time>2021-11-07T09:31:10.000Z</time>
      </trkpt>
      <trkpt lat="47.25377" lon="-2.27366">
        <ele>-11.199999809265</ele>
        <time>2021-11-07T09:31:11.000Z</time>
      </trkpt>
      <trkpt lat="47.25368" lon="-2.27356">
        <ele>-11.199999809265</ele>
        <time>2021-11-07T09:31:14.000Z</time>
      </trkpt>
      <trkpt lat="47.25367" lon="-2.27353">
        <ele>-11.199999809265</ele>
        <time>2021-11-07T09:31:15.000Z</time>
      </trkpt>
      <trkpt lat="47.25354" lon="-2.27332">
        <ele>-11.199999809265</ele>
        <time>2021-11-07T09:31:21.000Z</time>
      </trkpt>
      <trkpt lat="47.25347" lon="-2.27322">
        <ele>-11.199999809265</ele>
        <time>2021-11-07T09:31:23.000Z</time>
      </trkpt>
      <trkpt lat="47.25343" lon="-2.2731">
        <ele>-11.199999809265</ele>
        <time>2021-11-07T09:31:25.000Z</time>
      </trkpt>
      <trkpt lat="47.25334" lon="-2.27281">
        <ele>-11.199999809265</ele>
        <time>2021-11-07T09:31:30.000Z</time>
      </trkpt>
      <trkpt lat="47.25331" lon="-2.27276">
        <ele>-11.199999809265</ele>
        <time>2021-11-07T09:31:31.000Z</time>
      </trkpt>
      <trkpt lat="47.25321" lon="-2.27263">
        <ele>-11.199999809265</ele>
        <time>2021-11-07T09:31:34.000Z</time>
      </trkpt>
      <trkpt lat="47.25314" lon="-2.27253">
        <ele>-11.199999809265</ele>
        <time>2021-11-07T09:31:36.000Z</time>
      </trkpt>
      <trkpt lat="47.2531" lon="-2.27247">
        <ele>-11.199999809265</ele>
        <time>2021-11-07T09:31:37.000Z</time>
      </trkpt>
      <trkpt lat="47.253" lon="-2.27227">
        <ele>-11.199999809265</ele>
        <time>2021-11-07T09:31:40.000Z</time>
      </trkpt>
      <trkpt lat="47.25293" lon="-2.27206">
        <ele>-11.199999809265</ele>
        <time>2021-11-07T09:31:43.000Z</time>
      </trkpt>
      <trkpt lat="47.25286" lon="-2.27192">
        <ele>-11.199999809265</ele>
        <time>2021-11-07T09:31:45.000Z</time>
      </trkpt>
      <trkpt lat="47.25278" lon="-2.27178">
        <ele>-11.199999809265</ele>
        <time>2021-11-07T09:31:47.000Z</time>
      </trkpt>
      <trkpt lat="47.25257" lon="-2.27146">
        <ele>-11.199999809265</ele>
        <time>2021-11-07T09:31:52.000Z</time>
      </trkpt>
      <trkpt lat="47.25247" lon="-2.27136">
        <ele>-11.199999809265</ele>
        <time>2021-11-07T09:31:54.000Z</time>
      </trkpt>
      <trkpt lat="47.25235" lon="-2.27117">
        <ele>-11.199999809265</ele>
        <time>2021-11-07T09:31:57.000Z</time>
      </trkpt>
      <trkpt lat="47.25227" lon="-2.27103">
        <ele>-11.199999809265</ele>
        <time>2021-11-07T09:31:59.000Z</time>
      </trkpt>
      <trkpt lat="47.25206" lon="-2.27061">
        <ele>-11.199999809265</ele>
        <time>2021-11-07T09:32:05.000Z</time>
      </trkpt>
      <trkpt lat="47.252" lon="-2.27048">
        <ele>-11.199999809265</ele>
        <time>2021-11-07T09:32:07.000Z</time>
      </trkpt>
      <trkpt lat="47.25191" lon="-2.2703">
        <ele>-11.199999809265</ele>
        <time>2021-11-07T09:32:10.000Z</time>
      </trkpt>
      <trkpt lat="47.25182" lon="-2.27015">
        <ele>-11.199999809265</ele>
        <time>2021-11-07T09:32:13.000Z</time>
      </trkpt>
      <trkpt lat="47.25177" lon="-2.27005">
        <ele>-11.199999809265</ele>
        <time>2021-11-07T09:32:15.000Z</time>
      </trkpt>
      <trkpt lat="47.25174" lon="-2.26982">
        <ele>-11.199999809265</ele>
        <time>2021-11-07T09:32:19.000Z</time>
      </trkpt>
      <trkpt lat="47.25169" lon="-2.26977">
        <ele>-11.199999809265</ele>
        <time>2021-11-07T09:32:22.000Z</time>
      </trkpt>
      <trkpt lat="47.25162" lon="-2.26973">
        <ele>-11.199999809265</ele>
        <time>2021-11-07T09:32:26.000Z</time>
      </trkpt>
      <trkpt lat="47.25158" lon="-2.26965">
        <ele>-11.199999809265</ele>
        <time>2021-11-07T09:32:28.000Z</time>
      </trkpt>
      <trkpt lat="47.25153" lon="-2.26952">
        <ele>-11.199999809265</ele>
        <time>2021-11-07T09:32:31.000Z</time>
      </trkpt>
      <trkpt lat="47.25149" lon="-2.26934">
        <ele>-11.199999809265</ele>
        <time>2021-11-07T09:32:34.000Z</time>
      </trkpt>
      <trkpt lat="47.25149" lon="-2.26927">
        <ele>-11.199999809265</ele>
        <time>2021-11-07T09:32:35.000Z</time>
      </trkpt>
      <trkpt lat="47.2515" lon="-2.26883">
        <ele>-11.199999809265</ele>
        <time>2021-11-07T09:32:41.000Z</time>
      </trkpt>
      <trkpt lat="47.2515" lon="-2.26863">
        <ele>-11.199999809265</ele>
        <time>2021-11-07T09:32:44.000Z</time>
      </trkpt>
      <trkpt lat="47.25154" lon="-2.26851">
        <ele>-11.199999809265</ele>
        <time>2021-11-07T09:32:46.000Z</time>
      </trkpt>
      <trkpt lat="47.25161" lon="-2.26822">
        <ele>-11.199999809265</ele>
        <time>2021-11-07T09:32:51.000Z</time>
      </trkpt>
      <trkpt lat="47.25162" lon="-2.26816">
        <ele>-11.199999809265</ele>
        <time>2021-11-07T09:32:52.000Z</time>
      </trkpt>
      <trkpt lat="47.2517" lon="-2.268">
        <ele>-11.199999809265</ele>
        <time>2021-11-07T09:32:55.000Z</time>
      </trkpt>
      <trkpt lat="47.25173" lon="-2.26796">
        <ele>-11.199999809265</ele>
        <time>2021-11-07T09:32:56.000Z</time>
      </trkpt>
      <trkpt lat="47.25178" lon="-2.26785">
        <ele>-11.199999809265</ele>
        <time>2021-11-07T09:32:58.000Z</time>
      </trkpt>
      <trkpt lat="47.25179" lon="-2.26771">
        <ele>-11.199999809265</ele>
        <time>2021-11-07T09:33:00.000Z</time>
      </trkpt>
      <trkpt lat="47.25178" lon="-2.26756">
        <ele>-11.199999809265</ele>
        <time>2021-11-07T09:33:02.000Z</time>
      </trkpt>
      <trkpt lat="47.25176" lon="-2.26725">
        <ele>-11.199999809265</ele>
        <time>2021-11-07T09:33:06.000Z</time>
      </trkpt>
      <trkpt lat="47.25172" lon="-2.26662">
        <ele>-11.199999809265</ele>
        <time>2021-11-07T09:33:13.000Z</time>
      </trkpt>
      <trkpt lat="47.25168" lon="-2.26596">
        <ele>-11.199999809265</ele>
        <time>2021-11-07T09:33:20.000Z</time>
      </trkpt>
      <trkpt lat="47.25167" lon="-2.26587">
        <ele>-11.60000038147</ele>
        <time>2021-11-07T09:33:21.000Z</time>
      </trkpt>
      <trkpt lat="47.25165" lon="-2.26579">
        <ele>-12</ele>
        <time>2021-11-07T09:33:22.000Z</time>
      </trkpt>
      <trkpt lat="47.25164" lon="-2.2657">
        <ele>-12.39999961853</ele>
        <time>2021-11-07T09:33:23.000Z</time>
      </trkpt>
      <trkpt lat="47.25162" lon="-2.26561">
        <ele>-12.800000190735</ele>
        <time>2021-11-07T09:33:24.000Z</time>
      </trkpt>
      <trkpt lat="47.2516" lon="-2.26553">
        <ele>-13.199999809265</ele>
        <time>2021-11-07T09:33:25.000Z</time>
      </trkpt>
      <trkpt lat="47.25158" lon="-2.26544">
        <ele>-13.199999809265</ele>
        <time>2021-11-07T09:33:26.000Z</time>
      </trkpt>
      <trkpt lat="47.25149" lon="-2.26507">
        <ele>-13.199999809265</ele>
        <time>2021-11-07T09:33:30.000Z</time>
      </trkpt>
      <trkpt lat="47.25146" lon="-2.26499">
        <ele>-13.199999809265</ele>
        <time>2021-11-07T09:33:31.000Z</time>
      </trkpt>
      <trkpt lat="47.25141" lon="-2.26482">
        <ele>-13.60000038147</ele>
        <time>2021-11-07T09:33:33.000Z</time>
      </trkpt>
      <trkpt lat="47.25138" lon="-2.26473">
        <ele>-14</ele>
        <time>2021-11-07T09:33:34.000Z</time>
      </trkpt>
      <trkpt lat="47.25136" lon="-2.26463">
        <ele>-14.39999961853</ele>
        <time>2021-11-07T09:33:35.000Z</time>
      </trkpt>
      <trkpt lat="47.25134" lon="-2.26454">
        <ele>-14.800000190735</ele>
        <time>2021-11-07T09:33:36.000Z</time>
      </trkpt>
      <trkpt lat="47.25131" lon="-2.26445">
        <ele>-15.199999809265</ele>
        <time>2021-11-07T09:33:37.000Z</time>
      </trkpt>
      <trkpt lat="47.25128" lon="-2.26438">
        <ele>-15.199999809265</ele>
        <time>2021-11-07T09:33:38.000Z</time>
      </trkpt>
      <trkpt lat="47.25121" lon="-2.2642">
        <ele>-15.60000038147</ele>
        <time>2021-11-07T09:33:41.000Z</time>
      </trkpt>
      <trkpt lat="47.25116" lon="-2.26417">
        <ele>-16</ele>
        <time>2021-11-07T09:33:42.000Z</time>
      </trkpt>
      <trkpt lat="47.25111" lon="-2.26415">
        <ele>-16.39999961853</ele>
        <time>2021-11-07T09:33:43.000Z</time>
      </trkpt>
      <trkpt lat="47.25106" lon="-2.26415">
        <ele>-16.799999237061</ele>
        <time>2021-11-07T09:33:44.000Z</time>
      </trkpt>
      <trkpt lat="47.25102" lon="-2.26415">
        <ele>-17.200000762939</ele>
        <time>2021-11-07T09:33:45.000Z</time>
      </trkpt>
      <trkpt lat="47.25092" lon="-2.26417">
        <ele>-17.200000762939</ele>
        <time>2021-11-07T09:33:47.000Z</time>
      </trkpt>
      <trkpt lat="47.25086" lon="-2.26416">
        <ele>-17.200000762939</ele>
        <time>2021-11-07T09:33:48.000Z</time>
      </trkpt>
      <trkpt lat="47.25081" lon="-2.26413">
        <ele>-17.200000762939</ele>
        <time>2021-11-07T09:33:49.000Z</time>
      </trkpt>
      <trkpt lat="47.2507" lon="-2.26395">
        <ele>-17.200000762939</ele>
        <time>2021-11-07T09:33:52.000Z</time>
      </trkpt>
      <trkpt lat="47.25068" lon="-2.26388">
        <ele>-17.200000762939</ele>
        <time>2021-11-07T09:33:53.000Z</time>
      </trkpt>
      <trkpt lat="47.25062" lon="-2.26369">
        <ele>-17.200000762939</ele>
        <time>2021-11-07T09:33:56.000Z</time>
      </trkpt>
      <trkpt lat="47.25058" lon="-2.26353">
        <ele>-17.799999237061</ele>
        <time>2021-11-07T09:33:58.000Z</time>
      </trkpt>
      <trkpt lat="47.25055" lon="-2.26344">
        <ele>-18.200000762939</ele>
        <time>2021-11-07T09:33:59.000Z</time>
      </trkpt>
      <trkpt lat="47.25054" lon="-2.26335">
        <ele>-18.60000038147</ele>
        <time>2021-11-07T09:34:00.000Z</time>
      </trkpt>
      <trkpt lat="47.25053" lon="-2.26325">
        <ele>-19</ele>
        <time>2021-11-07T09:34:01.000Z</time>
      </trkpt>
      <trkpt lat="47.25053" lon="-2.26316">
        <ele>-19.39999961853</ele>
        <time>2021-11-07T09:34:02.000Z</time>
      </trkpt>
      <trkpt lat="47.25054" lon="-2.26289">
        <ele>-19.39999961853</ele>
        <time>2021-11-07T09:34:05.000Z</time>
      </trkpt>
      <trkpt lat="47.25056" lon="-2.2628">
        <ele>-19.39999961853</ele>
        <time>2021-11-07T09:34:06.000Z</time>
      </trkpt>
      <trkpt lat="47.25062" lon="-2.26251">
        <ele>-19.39999961853</ele>
        <time>2021-11-07T09:34:09.000Z</time>
      </trkpt>
      <trkpt lat="47.25065" lon="-2.26243">
        <ele>-19.39999961853</ele>
        <time>2021-11-07T09:34:10.000Z</time>
      </trkpt>
      <trkpt lat="47.25069" lon="-2.26236">
        <ele>-19.39999961853</ele>
        <time>2021-11-07T09:34:11.000Z</time>
      </trkpt>
      <trkpt lat="47.25073" lon="-2.26221">
        <ele>-19.39999961853</ele>
        <time>2021-11-07T09:34:13.000Z</time>
      </trkpt>
      <trkpt lat="47.25074" lon="-2.26197">
        <ele>-19.39999961853</ele>
        <time>2021-11-07T09:34:16.000Z</time>
      </trkpt>
      <trkpt lat="47.25074" lon="-2.26189">
        <ele>-19.39999961853</ele>
        <time>2021-11-07T09:34:17.000Z</time>
      </trkpt>
      <trkpt lat="47.25077" lon="-2.26126">
        <ele>-19.39999961853</ele>
        <time>2021-11-07T09:34:24.000Z</time>
      </trkpt>
      <trkpt lat="47.25085" lon="-2.26069">
        <ele>-19.39999961853</ele>
        <time>2021-11-07T09:34:30.000Z</time>
      </trkpt>
      <trkpt lat="47.25086" lon="-2.26059">
        <ele>-19.799999237061</ele>
        <time>2021-11-07T09:34:31.000Z</time>
      </trkpt>
      <trkpt lat="47.25088" lon="-2.26048">
        <ele>-20.200000762939</ele>
        <time>2021-11-07T09:34:32.000Z</time>
      </trkpt>
      <trkpt lat="47.2509" lon="-2.26038">
        <ele>-20.60000038147</ele>
        <time>2021-11-07T09:34:33.000Z</time>
      </trkpt>
      <trkpt lat="47.25091" lon="-2.26027">
        <ele>-21.200000762939</ele>
        <time>2021-11-07T09:34:34.000Z</time>
      </trkpt>
      <trkpt lat="47.25094" lon="-2.26015">
        <ele>-21.60000038147</ele>
        <time>2021-11-07T09:34:35.000Z</time>
      </trkpt>
      <trkpt lat="47.25102" lon="-2.25982">
        <ele>-22</ele>
        <time>2021-11-07T09:34:38.000Z</time>
      </trkpt>
      <trkpt lat="47.25106" lon="-2.25972">
        <ele>-22.39999961853</ele>
        <time>2021-11-07T09:34:39.000Z</time>
      </trkpt>
      <trkpt lat="47.2511" lon="-2.25963">
        <ele>-22.799999237061</ele>
        <time>2021-11-07T09:34:40.000Z</time>
      </trkpt>
      <trkpt lat="47.25114" lon="-2.25955">
        <ele>-23.200000762939</ele>
        <time>2021-11-07T09:34:41.000Z</time>
      </trkpt>
      <trkpt lat="47.25118" lon="-2.25947">
        <ele>-23.60000038147</ele>
        <time>2021-11-07T09:34:42.000Z</time>
      </trkpt>
      <trkpt lat="47.25123" lon="-2.25941">
        <ele>-23.60000038147</ele>
        <time>2021-11-07T09:34:43.000Z</time>
      </trkpt>
      <trkpt lat="47.25127" lon="-2.25935">
        <ele>-23.60000038147</ele>
        <time>2021-11-07T09:34:44.000Z</time>
      </trkpt>
      <trkpt lat="47.2514" lon="-2.25919">
        <ele>-23.60000038147</ele>
        <time>2021-11-07T09:34:47.000Z</time>
      </trkpt>
      <trkpt lat="47.25151" lon="-2.25917">
        <ele>-23.60000038147</ele>
        <time>2021-11-07T09:34:49.000Z</time>
      </trkpt>
      <trkpt lat="47.25171" lon="-2.25915">
        <ele>-23.60000038147</ele>
        <time>2021-11-07T09:34:53.000Z</time>
      </trkpt>
      <trkpt lat="47.25181" lon="-2.25918">
        <ele>-23.60000038147</ele>
        <time>2021-11-07T09:34:56.000Z</time>
      </trkpt>
      <trkpt lat="47.25185" lon="-2.2592">
        <ele>-23.200000762939</ele>
        <time>2021-11-07T09:34:57.000Z</time>
      </trkpt>
      <trkpt lat="47.25188" lon="-2.25921">
        <ele>-22.799999237061</ele>
        <time>2021-11-07T09:34:58.000Z</time>
      </trkpt>
      <trkpt lat="47.25191" lon="-2.25922">
        <ele>-22.39999961853</ele>
        <time>2021-11-07T09:34:59.000Z</time>
      </trkpt>
      <trkpt lat="47.25195" lon="-2.25923">
        <ele>-22</ele>
        <time>2021-11-07T09:35:00.000Z</time>
      </trkpt>
      <trkpt lat="47.25198" lon="-2.25924">
        <ele>-21.60000038147</ele>
        <time>2021-11-07T09:35:01.000Z</time>
      </trkpt>
      <trkpt lat="47.2521" lon="-2.2593">
        <ele>-21.60000038147</ele>
        <time>2021-11-07T09:35:05.000Z</time>
      </trkpt>
      <trkpt lat="47.25226" lon="-2.25944">
        <ele>-21.60000038147</ele>
        <time>2021-11-07T09:35:11.000Z</time>
      </trkpt>
      <trkpt lat="47.25245" lon="-2.25976">
        <ele>-21.60000038147</ele>
        <time>2021-11-07T09:35:19.000Z</time>
      </trkpt>
      <trkpt lat="47.25259" lon="-2.26">
        <ele>-21.60000038147</ele>
        <time>2021-11-07T09:35:25.000Z</time>
      </trkpt>
      <trkpt lat="47.25279" lon="-2.2602">
        <ele>-21.60000038147</ele>
        <time>2021-11-07T09:35:32.000Z</time>
      </trkpt>
      <trkpt lat="47.25286" lon="-2.26025">
        <ele>-21.60000038147</ele>
        <time>2021-11-07T09:35:35.000Z</time>
      </trkpt>
      <trkpt lat="47.25292" lon="-2.26023">
        <ele>-21.60000038147</ele>
        <time>2021-11-07T09:35:37.000Z</time>
      </trkpt>
      <trkpt lat="47.25305" lon="-2.26023">
        <ele>-21.60000038147</ele>
        <time>2021-11-07T09:35:41.000Z</time>
      </trkpt>
      <trkpt lat="47.25319" lon="-2.26028">
        <ele>-21.60000038147</ele>
        <time>2021-11-07T09:35:46.000Z</time>
      </trkpt>
      <trkpt lat="47.25332" lon="-2.26033">
        <ele>-21.60000038147</ele>
        <time>2021-11-07T09:35:52.000Z</time>
      </trkpt>
      <trkpt lat="47.25346" lon="-2.26027">
        <ele>-22</ele>
        <time>2021-11-07T09:35:56.000Z</time>
      </trkpt>
      <trkpt lat="47.25349" lon="-2.26025">
        <ele>-22.39999961853</ele>
        <time>2021-11-07T09:35:57.000Z</time>
      </trkpt>
      <trkpt lat="47.25352" lon="-2.26023">
        <ele>-23.200000762939</ele>
        <time>2021-11-07T09:35:58.000Z</time>
      </trkpt>
      <trkpt lat="47.25354" lon="-2.2602">
        <ele>-23.60000038147</ele>
        <time>2021-11-07T09:35:59.000Z</time>
      </trkpt>
      <trkpt lat="47.25355" lon="-2.26012">
        <ele>-23.60000038147</ele>
        <time>2021-11-07T09:36:01.000Z</time>
      </trkpt>
      <trkpt lat="47.25355" lon="-2.26008">
        <ele>-24</ele>
        <time>2021-11-07T09:36:02.000Z</time>
      </trkpt>
      <trkpt lat="47.25355" lon="-2.26005">
        <ele>-24.60000038147</ele>
        <time>2021-11-07T09:36:03.000Z</time>
      </trkpt>
      <trkpt lat="47.25355" lon="-2.26001">
        <ele>-25</ele>
        <time>2021-11-07T09:36:04.000Z</time>
      </trkpt>
      <trkpt lat="47.25355" lon="-2.25997">
        <ele>-25.39999961853</ele>
        <time>2021-11-07T09:36:05.000Z</time>
      </trkpt>
      <trkpt lat="47.25356" lon="-2.25992">
        <ele>-26</ele>
        <time>2021-11-07T09:36:06.000Z</time>
      </trkpt>
      <trkpt lat="47.25356" lon="-2.25988">
        <ele>-26</ele>
        <time>2021-11-07T09:36:07.000Z</time>
      </trkpt>
      <trkpt lat="47.25358" lon="-2.25977">
        <ele>-26.39999961853</ele>
        <time>2021-11-07T09:36:10.000Z</time>
      </trkpt>
      <trkpt lat="47.25358" lon="-2.25973">
        <ele>-26.799999237061</ele>
        <time>2021-11-07T09:36:11.000Z</time>
      </trkpt>
      <trkpt lat="47.25359" lon="-2.2597">
        <ele>-27.39999961853</ele>
        <time>2021-11-07T09:36:12.000Z</time>
      </trkpt>
      <trkpt lat="47.25359" lon="-2.25966">
        <ele>-27.799999237061</ele>
        <time>2021-11-07T09:36:13.000Z</time>
      </trkpt>
      <trkpt lat="47.2536" lon="-2.25963">
        <ele>-28.200000762939</ele>
        <time>2021-11-07T09:36:14.000Z</time>
      </trkpt>
      <trkpt lat="47.25364" lon="-2.25943">
        <ele>-28.200000762939</ele>
        <time>2021-11-07T09:36:20.000Z</time>
      </trkpt>
      <trkpt lat="47.25361" lon="-2.25939">
        <ele>-28.200000762939</ele>
        <time>2021-11-07T09:36:22.000Z</time>
      </trkpt>
      <trkpt lat="47.25358" lon="-2.25929">
        <ele>-28.200000762939</ele>
        <time>2021-11-07T09:36:26.000Z</time>
      </trkpt>
      <trkpt lat="47.25357" lon="-2.25924">
        <ele>-28.200000762939</ele>
        <time>2021-11-07T09:36:28.000Z</time>
      </trkpt>
      <trkpt lat="47.25357" lon="-2.25907">
        <ele>-28.200000762939</ele>
        <time>2021-11-07T09:36:34.000Z</time>
      </trkpt>
      <trkpt lat="47.25358" lon="-2.25899">
        <ele>-28.200000762939</ele>
        <time>2021-11-07T09:36:39.000Z</time>
      </trkpt>
      <trkpt lat="47.2536" lon="-2.25892">
        <ele>-28.200000762939</ele>
        <time>2021-11-07T09:36:51.000Z</time>
      </trkpt>
      <trkpt lat="47.2536" lon="-2.25891">
        <ele>-28.200000762939</ele>
        <time>2021-11-07T09:36:52.000Z</time>
      </trkpt>
      <trkpt lat="47.2536" lon="-2.2588">
        <ele>-28.200000762939</ele>
        <time>2021-11-07T09:36:58.000Z</time>
      </trkpt>
      <trkpt lat="47.25346" lon="-2.25866">
        <ele>-28.200000762939</ele>
        <time>2021-11-07T09:37:07.000Z</time>
      </trkpt>
      <trkpt lat="47.25339" lon="-2.2586">
        <ele>-28.200000762939</ele>
        <time>2021-11-07T09:37:13.000Z</time>
      </trkpt>
      <trkpt lat="47.25338" lon="-2.25859">
        <ele>-28.200000762939</ele>
        <time>2021-11-07T09:37:14.000Z</time>
      </trkpt>
      <trkpt lat="47.25341" lon="-2.25848">
        <ele>-29</ele>
        <time>2021-11-07T09:37:20.000Z</time>
      </trkpt>
      <trkpt lat="47.25341" lon="-2.25846">
        <ele>-29.60000038147</ele>
        <time>2021-11-07T09:37:21.000Z</time>
      </trkpt>
      <trkpt lat="47.25343" lon="-2.25843">
        <ele>-30</ele>
        <time>2021-11-07T09:37:22.000Z</time>
      </trkpt>
      <trkpt lat="47.25344" lon="-2.2584">
        <ele>-30.39999961853</ele>
        <time>2021-11-07T09:37:23.000Z</time>
      </trkpt>
      <trkpt lat="47.25344" lon="-2.25836">
        <ele>-30.799999237061</ele>
        <time>2021-11-07T09:37:24.000Z</time>
      </trkpt>
      <trkpt lat="47.25345" lon="-2.25831">
        <ele>-31.39999961853</ele>
        <time>2021-11-07T09:37:25.000Z</time>
      </trkpt>
      <trkpt lat="47.25346" lon="-2.25826">
        <ele>-31.799999237061</ele>
        <time>2021-11-07T09:37:26.000Z</time>
      </trkpt>
      <trkpt lat="47.25348" lon="-2.25821">
        <ele>-32.400001525879</ele>
        <time>2021-11-07T09:37:27.000Z</time>
      </trkpt>
      <trkpt lat="47.25351" lon="-2.25817">
        <ele>-33</ele>
        <time>2021-11-07T09:37:28.000Z</time>
      </trkpt>
      <trkpt lat="47.25354" lon="-2.25814">
        <ele>-33.599998474121</ele>
        <time>2021-11-07T09:37:29.000Z</time>
      </trkpt>
      <trkpt lat="47.25357" lon="-2.25811">
        <ele>-34.200000762939</ele>
        <time>2021-11-07T09:37:30.000Z</time>
      </trkpt>
      <trkpt lat="47.2536" lon="-2.25808">
        <ele>-34.799999237061</ele>
        <time>2021-11-07T09:37:31.000Z</time>
      </trkpt>
      <trkpt lat="47.25363" lon="-2.25806">
        <ele>-35.400001525879</ele>
        <time>2021-11-07T09:37:32.000Z</time>
      </trkpt>
      <trkpt lat="47.25365" lon="-2.25804">
        <ele>-35.799999237061</ele>
        <time>2021-11-07T09:37:33.000Z</time>
      </trkpt>
      <trkpt lat="47.25367" lon="-2.25802">
        <ele>-36.400001525879</ele>
        <time>2021-11-07T09:37:34.000Z</time>
      </trkpt>
      <trkpt lat="47.25368" lon="-2.25801">
        <ele>-37.400001525879</ele>
        <time>2021-11-07T09:37:35.000Z</time>
      </trkpt>
      <trkpt lat="47.25371" lon="-2.25799">
        <ele>-37.400001525879</ele>
        <time>2021-11-07T09:37:38.000Z</time>
      </trkpt>
      <trkpt lat="47.25385" lon="-2.25781">
        <ele>-39.200000762939</ele>
        <time>2021-11-07T09:38:40.000Z</time>
      </trkpt>
      <trkpt lat="47.25388" lon="-2.25779">
        <ele>-39.599998474121</ele>
        <time>2021-11-07T09:38:41.000Z</time>
      </trkpt>
      <trkpt lat="47.25395" lon="-2.25774">
        <ele>-39.599998474121</ele>
        <time>2021-11-07T09:38:43.000Z</time>
      </trkpt>
      <trkpt lat="47.25413" lon="-2.25771">
        <ele>-39</ele>
        <time>2021-11-07T09:38:50.000Z</time>
      </trkpt>
      <trkpt lat="47.25416" lon="-2.25771">
        <ele>-38.599998474121</ele>
        <time>2021-11-07T09:38:51.000Z</time>
      </trkpt>
      <trkpt lat="47.25418" lon="-2.25772">
        <ele>-38.200000762939</ele>
        <time>2021-11-07T09:38:52.000Z</time>
      </trkpt>
      <trkpt lat="47.2542" lon="-2.25773">
        <ele>-37.799999237061</ele>
        <time>2021-11-07T09:38:53.000Z</time>
      </trkpt>
      <trkpt lat="47.25422" lon="-2.25773">
        <ele>-37.400001525879</ele>
        <time>2021-11-07T09:38:54.000Z</time>
      </trkpt>
      <trkpt lat="47.25428" lon="-2.25774">
        <ele>-37</ele>
        <time>2021-11-07T09:38:57.000Z</time>
      </trkpt>
      <trkpt lat="47.2543" lon="-2.25775">
        <ele>-36.599998474121</ele>
        <time>2021-11-07T09:38:58.000Z</time>
      </trkpt>
      <trkpt lat="47.25431" lon="-2.25776">
        <ele>-36.200000762939</ele>
        <time>2021-11-07T09:38:59.000Z</time>
      </trkpt>
      <trkpt lat="47.25433" lon="-2.25776">
        <ele>-35.799999237061</ele>
        <time>2021-11-07T09:39:00.000Z</time>
      </trkpt>
      <trkpt lat="47.25435" lon="-2.25777">
        <ele>-35.200000762939</ele>
        <time>2021-11-07T09:39:01.000Z</time>
      </trkpt>
      <trkpt lat="47.25438" lon="-2.25779">
        <ele>-34.799999237061</ele>
        <time>2021-11-07T09:39:03.000Z</time>
      </trkpt>
      <trkpt lat="47.2544" lon="-2.2578">
        <ele>-34.400001525879</ele>
        <time>2021-11-07T09:39:04.000Z</time>
      </trkpt>
      <trkpt lat="47.25442" lon="-2.2578">
        <ele>-34</ele>
        <time>2021-11-07T09:39:05.000Z</time>
      </trkpt>
      <trkpt lat="47.25443" lon="-2.2578">
        <ele>-33.599998474121</ele>
        <time>2021-11-07T09:39:06.000Z</time>
      </trkpt>
      <trkpt lat="47.25445" lon="-2.25781">
        <ele>-33.200000762939</ele>
        <time>2021-11-07T09:39:07.000Z</time>
      </trkpt>
      <trkpt lat="47.25448" lon="-2.25782">
        <ele>-33.200000762939</ele>
        <time>2021-11-07T09:39:09.000Z</time>
      </trkpt>
      <trkpt lat="47.25454" lon="-2.25785">
        <ele>-32.799999237061</ele>
        <time>2021-11-07T09:39:12.000Z</time>
      </trkpt>
      <trkpt lat="47.25456" lon="-2.25785">
        <ele>-32.400001525879</ele>
        <time>2021-11-07T09:39:13.000Z</time>
      </trkpt>
      <trkpt lat="47.25457" lon="-2.25784">
        <ele>-31.60000038147</ele>
        <time>2021-11-07T09:39:14.000Z</time>
      </trkpt>
      <trkpt lat="47.25459" lon="-2.25784">
        <ele>-31.200000762939</ele>
        <time>2021-11-07T09:39:15.000Z</time>
      </trkpt>
      <trkpt lat="47.2546" lon="-2.25783">
        <ele>-31.200000762939</ele>
        <time>2021-11-07T09:39:16.000Z</time>
      </trkpt>
      <trkpt lat="47.25465" lon="-2.25781">
        <ele>-31.200000762939</ele>
        <time>2021-11-07T09:39:19.000Z</time>
      </trkpt>
      <trkpt lat="47.25473" lon="-2.25777">
        <ele>-30.799999237061</ele>
        <time>2021-11-07T09:39:23.000Z</time>
      </trkpt>
      <trkpt lat="47.25475" lon="-2.25776">
        <ele>-30.200000762939</ele>
        <time>2021-11-07T09:39:24.000Z</time>
      </trkpt>
      <trkpt lat="47.25477" lon="-2.25775">
        <ele>-29.799999237061</ele>
        <time>2021-11-07T09:39:25.000Z</time>
      </trkpt>
      <trkpt lat="47.25477" lon="-2.25774">
        <ele>-29.39999961853</ele>
        <time>2021-11-07T09:39:26.000Z</time>
      </trkpt>
      <trkpt lat="47.25478" lon="-2.25772">
        <ele>-29</ele>
        <time>2021-11-07T09:39:27.000Z</time>
      </trkpt>
      <trkpt lat="47.25479" lon="-2.25771">
        <ele>-29</ele>
        <time>2021-11-07T09:39:28.000Z</time>
      </trkpt>
      <trkpt lat="47.25485" lon="-2.25764">
        <ele>-29</ele>
        <time>2021-11-07T09:39:35.000Z</time>
      </trkpt>
      <trkpt lat="47.25493" lon="-2.25755">
        <ele>-29</ele>
        <time>2021-11-07T09:39:43.000Z</time>
      </trkpt>
      <trkpt lat="47.25497" lon="-2.25748">
        <ele>-29</ele>
        <time>2021-11-07T09:39:45.000Z</time>
      </trkpt>
      <trkpt lat="47.25501" lon="-2.25736">
        <ele>-29</ele>
        <time>2021-11-07T09:39:48.000Z</time>
      </trkpt>
      <trkpt lat="47.25501" lon="-2.25731">
        <ele>-29</ele>
        <time>2021-11-07T09:39:49.000Z</time>
      </trkpt>
      <trkpt lat="47.25501" lon="-2.25709">
        <ele>-29</ele>
        <time>2021-11-07T09:39:52.000Z</time>
      </trkpt>
      <trkpt lat="47.25502" lon="-2.25674">
        <ele>-29</ele>
        <time>2021-11-07T09:39:57.000Z</time>
      </trkpt>
      <trkpt lat="47.25502" lon="-2.25667">
        <ele>-29.39999961853</ele>
        <time>2021-11-07T09:39:58.000Z</time>
      </trkpt>
      <trkpt lat="47.25502" lon="-2.2566">
        <ele>-29.799999237061</ele>
        <time>2021-11-07T09:39:59.000Z</time>
      </trkpt>
      <trkpt lat="47.25502" lon="-2.25654">
        <ele>-30.200000762939</ele>
        <time>2021-11-07T09:40:00.000Z</time>
      </trkpt>
      <trkpt lat="47.25502" lon="-2.25648">
        <ele>-30.60000038147</ele>
        <time>2021-11-07T09:40:01.000Z</time>
      </trkpt>
      <trkpt lat="47.25502" lon="-2.25643">
        <ele>-31</ele>
        <time>2021-11-07T09:40:02.000Z</time>
      </trkpt>
      <trkpt lat="47.25508" lon="-2.25614">
        <ele>-31</ele>
        <time>2021-11-07T09:40:09.000Z</time>
      </trkpt>
      <trkpt lat="47.25513" lon="-2.25588">
        <ele>-30.60000038147</ele>
        <time>2021-11-07T09:40:16.000Z</time>
      </trkpt>
      <trkpt lat="47.25515" lon="-2.25585">
        <ele>-30.200000762939</ele>
        <time>2021-11-07T09:40:17.000Z</time>
      </trkpt>
      <trkpt lat="47.25516" lon="-2.25582">
        <ele>-29.799999237061</ele>
        <time>2021-11-07T09:40:18.000Z</time>
      </trkpt>
      <trkpt lat="47.25518" lon="-2.25579">
        <ele>-29.39999961853</ele>
        <time>2021-11-07T09:40:19.000Z</time>
      </trkpt>
      <trkpt lat="47.25519" lon="-2.25576">
        <ele>-29</ele>
        <time>2021-11-07T09:40:20.000Z</time>
      </trkpt>
      <trkpt lat="47.25524" lon="-2.25562">
        <ele>-29</ele>
        <time>2021-11-07T09:40:25.000Z</time>
      </trkpt>
      <trkpt lat="47.25523" lon="-2.2556">
        <ele>-28.60000038147</ele>
        <time>2021-11-07T09:40:26.000Z</time>
      </trkpt>
      <trkpt lat="47.25523" lon="-2.25557">
        <ele>-28.200000762939</ele>
        <time>2021-11-07T09:40:27.000Z</time>
      </trkpt>
      <trkpt lat="47.25523" lon="-2.25555">
        <ele>-27.799999237061</ele>
        <time>2021-11-07T09:40:28.000Z</time>
      </trkpt>
      <trkpt lat="47.25522" lon="-2.25553">
        <ele>-27</ele>
        <time>2021-11-07T09:40:29.000Z</time>
      </trkpt>
      <trkpt lat="47.25522" lon="-2.25551">
        <ele>-27</ele>
        <time>2021-11-07T09:40:30.000Z</time>
      </trkpt>
      <trkpt lat="47.25516" lon="-2.25537">
        <ele>-27</ele>
        <time>2021-11-07T09:40:33.000Z</time>
      </trkpt>
      <trkpt lat="47.25513" lon="-2.25529">
        <ele>-27.39999961853</ele>
        <time>2021-11-07T09:40:34.000Z</time>
      </trkpt>
      <trkpt lat="47.2551" lon="-2.25521">
        <ele>-27.799999237061</ele>
        <time>2021-11-07T09:40:35.000Z</time>
      </trkpt>
      <trkpt lat="47.25507" lon="-2.25513">
        <ele>-28.200000762939</ele>
        <time>2021-11-07T09:40:36.000Z</time>
      </trkpt>
      <trkpt lat="47.25504" lon="-2.25505">
        <ele>-28.799999237061</ele>
        <time>2021-11-07T09:40:37.000Z</time>
      </trkpt>
      <trkpt lat="47.25501" lon="-2.25498">
        <ele>-29.200000762939</ele>
        <time>2021-11-07T09:40:38.000Z</time>
      </trkpt>
      <trkpt lat="47.25493" lon="-2.2547">
        <ele>-29.200000762939</ele>
        <time>2021-11-07T09:40:42.000Z</time>
      </trkpt>
      <trkpt lat="47.25491" lon="-2.25465">
        <ele>-29.60000038147</ele>
        <time>2021-11-07T09:40:43.000Z</time>
      </trkpt>
      <trkpt lat="47.25489" lon="-2.25457">
        <ele>-30.39999961853</ele>
        <time>2021-11-07T09:40:44.000Z</time>
      </trkpt>
      <trkpt lat="47.25488" lon="-2.25453">
        <ele>-30.799999237061</ele>
        <time>2021-11-07T09:40:46.000Z</time>
      </trkpt>
      <trkpt lat="47.25488" lon="-2.2545">
        <ele>-31.200000762939</ele>
        <time>2021-11-07T09:40:47.000Z</time>
      </trkpt>
      <trkpt lat="47.2549" lon="-2.25435">
        <ele>-31.200000762939</ele>
        <time>2021-11-07T09:40:52.000Z</time>
      </trkpt>
      <trkpt lat="47.2549" lon="-2.25431">
        <ele>-31.200000762939</ele>
        <time>2021-11-07T09:40:54.000Z</time>
      </trkpt>
      <trkpt lat="47.25488" lon="-2.25424">
        <ele>-31.200000762939</ele>
        <time>2021-11-07T09:40:58.000Z</time>
      </trkpt>
      <trkpt lat="47.25483" lon="-2.25414">
        <ele>-31.60000038147</ele>
        <time>2021-11-07T09:41:03.000Z</time>
      </trkpt>
      <trkpt lat="47.25483" lon="-2.25412">
        <ele>-32</ele>
        <time>2021-11-07T09:41:04.000Z</time>
      </trkpt>
      <trkpt lat="47.25483" lon="-2.25408">
        <ele>-32.599998474121</ele>
        <time>2021-11-07T09:41:05.000Z</time>
      </trkpt>
      <trkpt lat="47.25484" lon="-2.25405">
        <ele>-33</ele>
        <time>2021-11-07T09:41:06.000Z</time>
      </trkpt>
      <trkpt lat="47.25485" lon="-2.25404">
        <ele>-33.400001525879</ele>
        <time>2021-11-07T09:41:07.000Z</time>
      </trkpt>
      <trkpt lat="47.25485" lon="-2.25402">
        <ele>-33.400001525879</ele>
        <time>2021-11-07T09:41:08.000Z</time>
      </trkpt>
      <trkpt lat="47.25482" lon="-2.25396">
        <ele>-33.400001525879</ele>
        <time>2021-11-07T09:41:12.000Z</time>
      </trkpt>
      <trkpt lat="47.2548" lon="-2.25396">
        <ele>-33.400001525879</ele>
        <time>2021-11-07T09:41:13.000Z</time>
      </trkpt>
      <trkpt lat="47.25468" lon="-2.25394">
        <ele>-33.799999237061</ele>
        <time>2021-11-07T09:41:16.000Z</time>
      </trkpt>
      <trkpt lat="47.25464" lon="-2.25394">
        <ele>-34.200000762939</ele>
        <time>2021-11-07T09:41:17.000Z</time>
      </trkpt>
      <trkpt lat="47.25458" lon="-2.25394">
        <ele>-34.599998474121</ele>
        <time>2021-11-07T09:41:18.000Z</time>
      </trkpt>
      <trkpt lat="47.25452" lon="-2.25394">
        <ele>-35.799999237061</ele>
        <time>2021-11-07T09:41:19.000Z</time>
      </trkpt>
      <trkpt lat="47.25446" lon="-2.25395">
        <ele>-36.400001525879</ele>
        <time>2021-11-07T09:41:20.000Z</time>
      </trkpt>
      <trkpt lat="47.2544" lon="-2.25396">
        <ele>-37</ele>
        <time>2021-11-07T09:41:21.000Z</time>
      </trkpt>
      <trkpt lat="47.25433" lon="-2.25397">
        <ele>-37.799999237061</ele>
        <time>2021-11-07T09:41:22.000Z</time>
      </trkpt>
      <trkpt lat="47.25427" lon="-2.25397">
        <ele>-38.400001525879</ele>
        <time>2021-11-07T09:41:23.000Z</time>
      </trkpt>
      <trkpt lat="47.25422" lon="-2.25397">
        <ele>-39.200000762939</ele>
        <time>2021-11-07T09:41:24.000Z</time>
      </trkpt>
      <trkpt lat="47.25418" lon="-2.25396">
        <ele>-39.799999237061</ele>
        <time>2021-11-07T09:41:25.000Z</time>
      </trkpt>
      <trkpt lat="47.25414" lon="-2.25395">
        <ele>-40.599998474121</ele>
        <time>2021-11-07T09:41:26.000Z</time>
      </trkpt>
      <trkpt lat="47.25411" lon="-2.25394">
        <ele>-41.200000762939</ele>
        <time>2021-11-07T09:41:27.000Z</time>
      </trkpt>
      <trkpt lat="47.25408" lon="-2.25393">
        <ele>-41.799999237061</ele>
        <time>2021-11-07T09:41:28.000Z</time>
      </trkpt>
      <trkpt lat="47.25401" lon="-2.25387">
        <ele>-41.799999237061</ele>
        <time>2021-11-07T09:41:31.000Z</time>
      </trkpt>
      <trkpt lat="47.25399" lon="-2.25383">
        <ele>-41.799999237061</ele>
        <time>2021-11-07T09:41:32.000Z</time>
      </trkpt>
      <trkpt lat="47.25395" lon="-2.25368">
        <ele>-41.799999237061</ele>
        <time>2021-11-07T09:41:35.000Z</time>
      </trkpt>
      <trkpt lat="47.25394" lon="-2.25362">
        <ele>-41.799999237061</ele>
        <time>2021-11-07T09:41:36.000Z</time>
      </trkpt>
      <trkpt lat="47.25389" lon="-2.25325">
        <ele>-41</ele>
        <time>2021-11-07T09:41:44.000Z</time>
      </trkpt>
      <trkpt lat="47.25388" lon="-2.25322">
        <ele>-40.400001525879</ele>
        <time>2021-11-07T09:41:45.000Z</time>
      </trkpt>
      <trkpt lat="47.25388" lon="-2.25319">
        <ele>-40</ele>
        <time>2021-11-07T09:41:46.000Z</time>
      </trkpt>
      <trkpt lat="47.25388" lon="-2.25315">
        <ele>-39.400001525879</ele>
        <time>2021-11-07T09:41:47.000Z</time>
      </trkpt>
      <trkpt lat="47.25388" lon="-2.25304">
        <ele>-39.400001525879</ele>
        <time>2021-11-07T09:41:49.000Z</time>
      </trkpt>
      <trkpt lat="47.25388" lon="-2.253">
        <ele>-39</ele>
        <time>2021-11-07T09:41:50.000Z</time>
      </trkpt>
      <trkpt lat="47.25388" lon="-2.25295">
        <ele>-38.599998474121</ele>
        <time>2021-11-07T09:41:51.000Z</time>
      </trkpt>
      <trkpt lat="47.25388" lon="-2.2529">
        <ele>-38.200000762939</ele>
        <time>2021-11-07T09:41:52.000Z</time>
      </trkpt>
      <trkpt lat="47.25388" lon="-2.25285">
        <ele>-37.799999237061</ele>
        <time>2021-11-07T09:41:53.000Z</time>
      </trkpt>
      <trkpt lat="47.25389" lon="-2.2528">
        <ele>-37.200000762939</ele>
        <time>2021-11-07T09:41:54.000Z</time>
      </trkpt>
      <trkpt lat="47.25389" lon="-2.25275">
        <ele>-37.200000762939</ele>
        <time>2021-11-07T09:41:55.000Z</time>
      </trkpt>
      <trkpt lat="47.2539" lon="-2.25265">
        <ele>-36.799999237061</ele>
        <time>2021-11-07T09:41:57.000Z</time>
      </trkpt>
      <trkpt lat="47.2539" lon="-2.25261">
        <ele>-36.400001525879</ele>
        <time>2021-11-07T09:41:58.000Z</time>
      </trkpt>
      <trkpt lat="47.25391" lon="-2.25256">
        <ele>-36</ele>
        <time>2021-11-07T09:41:59.000Z</time>
      </trkpt>
      <trkpt lat="47.25392" lon="-2.25251">
        <ele>-35.599998474121</ele>
        <time>2021-11-07T09:42:00.000Z</time>
      </trkpt>
      <trkpt lat="47.25392" lon="-2.25247">
        <ele>-35.200000762939</ele>
        <time>2021-11-07T09:42:01.000Z</time>
      </trkpt>
      <trkpt lat="47.25394" lon="-2.25238">
        <ele>-35.200000762939</ele>
        <time>2021-11-07T09:42:03.000Z</time>
      </trkpt>
      <trkpt lat="47.25398" lon="-2.25222">
        <ele>-34.799999237061</ele>
        <time>2021-11-07T09:42:07.000Z</time>
      </trkpt>
      <trkpt lat="47.25398" lon="-2.25218">
        <ele>-33.799999237061</ele>
        <time>2021-11-07T09:42:08.000Z</time>
      </trkpt>
      <trkpt lat="47.25399" lon="-2.25214">
        <ele>-33.400001525879</ele>
        <time>2021-11-07T09:42:09.000Z</time>
      </trkpt>
      <trkpt lat="47.25401" lon="-2.25211">
        <ele>-33</ele>
        <time>2021-11-07T09:42:10.000Z</time>
      </trkpt>
      <trkpt lat="47.25404" lon="-2.25208">
        <ele>-33</ele>
        <time>2021-11-07T09:42:12.000Z</time>
      </trkpt>
      <trkpt lat="47.25409" lon="-2.2521">
        <ele>-33</ele>
        <time>2021-11-07T09:42:14.000Z</time>
      </trkpt>
      <trkpt lat="47.25425" lon="-2.25211">
        <ele>-33</ele>
        <time>2021-11-07T09:42:19.000Z</time>
      </trkpt>
      <trkpt lat="47.25433" lon="-2.25203">
        <ele>-33</ele>
        <time>2021-11-07T09:42:22.000Z</time>
      </trkpt>
      <trkpt lat="47.25435" lon="-2.25201">
        <ele>-32.400001525879</ele>
        <time>2021-11-07T09:42:23.000Z</time>
      </trkpt>
      <trkpt lat="47.25438" lon="-2.25199">
        <ele>-32</ele>
        <time>2021-11-07T09:42:24.000Z</time>
      </trkpt>
      <trkpt lat="47.2544" lon="-2.25197">
        <ele>-31.60000038147</ele>
        <time>2021-11-07T09:42:25.000Z</time>
      </trkpt>
      <trkpt lat="47.25444" lon="-2.25197">
        <ele>-31.200000762939</ele>
        <time>2021-11-07T09:42:26.000Z</time>
      </trkpt>
      <trkpt lat="47.25449" lon="-2.25197">
        <ele>-30.799999237061</ele>
        <time>2021-11-07T09:42:27.000Z</time>
      </trkpt>
      <trkpt lat="47.25459" lon="-2.25197">
        <ele>-30.799999237061</ele>
        <time>2021-11-07T09:42:29.000Z</time>
      </trkpt>
      <trkpt lat="47.2549" lon="-2.25199">
        <ele>-30.799999237061</ele>
        <time>2021-11-07T09:42:36.000Z</time>
      </trkpt>
      <trkpt lat="47.25522" lon="-2.25199">
        <ele>-30.799999237061</ele>
        <time>2021-11-07T09:42:43.000Z</time>
      </trkpt>
      <trkpt lat="47.25545" lon="-2.25191">
        <ele>-30.39999961853</ele>
        <time>2021-11-07T09:42:50.000Z</time>
      </trkpt>
      <trkpt lat="47.25549" lon="-2.2519">
        <ele>-30</ele>
        <time>2021-11-07T09:42:51.000Z</time>
      </trkpt>
      <trkpt lat="47.25552" lon="-2.25188">
        <ele>-29.60000038147</ele>
        <time>2021-11-07T09:42:52.000Z</time>
      </trkpt>
      <trkpt lat="47.25555" lon="-2.25187">
        <ele>-29</ele>
        <time>2021-11-07T09:42:53.000Z</time>
      </trkpt>
      <trkpt lat="47.25558" lon="-2.25185">
        <ele>-28.60000038147</ele>
        <time>2021-11-07T09:42:54.000Z</time>
      </trkpt>
      <trkpt lat="47.25564" lon="-2.25173">
        <ele>-28.60000038147</ele>
        <time>2021-11-07T09:42:57.000Z</time>
      </trkpt>
      <trkpt lat="47.25564" lon="-2.25168">
        <ele>-28.200000762939</ele>
        <time>2021-11-07T09:42:58.000Z</time>
      </trkpt>
      <trkpt lat="47.25564" lon="-2.25162">
        <ele>-27.799999237061</ele>
        <time>2021-11-07T09:42:59.000Z</time>
      </trkpt>
      <trkpt lat="47.25565" lon="-2.25156">
        <ele>-27.39999961853</ele>
        <time>2021-11-07T09:43:00.000Z</time>
      </trkpt>
      <trkpt lat="47.25565" lon="-2.2515">
        <ele>-26.799999237061</ele>
        <time>2021-11-07T09:43:01.000Z</time>
      </trkpt>
      <trkpt lat="47.25566" lon="-2.25144">
        <ele>-26.39999961853</ele>
        <time>2021-11-07T09:43:02.000Z</time>
      </trkpt>
      <trkpt lat="47.25568" lon="-2.25132">
        <ele>-26.39999961853</ele>
        <time>2021-11-07T09:43:04.000Z</time>
      </trkpt>
      <trkpt lat="47.25572" lon="-2.25123">
        <ele>-26.39999961853</ele>
        <time>2021-11-07T09:43:06.000Z</time>
      </trkpt>
      <trkpt lat="47.25582" lon="-2.25121">
        <ele>-26.39999961853</ele>
        <time>2021-11-07T09:43:09.000Z</time>
      </trkpt>
      <trkpt lat="47.25596" lon="-2.25129">
        <ele>-26</ele>
        <time>2021-11-07T09:43:12.000Z</time>
      </trkpt>
      <trkpt lat="47.256" lon="-2.25131">
        <ele>-25.60000038147</ele>
        <time>2021-11-07T09:43:13.000Z</time>
      </trkpt>
      <trkpt lat="47.25604" lon="-2.25133">
        <ele>-25.200000762939</ele>
        <time>2021-11-07T09:43:14.000Z</time>
      </trkpt>
      <trkpt lat="47.25607" lon="-2.25134">
        <ele>-24.799999237061</ele>
        <time>2021-11-07T09:43:15.000Z</time>
      </trkpt>
      <trkpt lat="47.25611" lon="-2.25136">
        <ele>-24.39999961853</ele>
        <time>2021-11-07T09:43:16.000Z</time>
      </trkpt>
      <trkpt lat="47.25624" lon="-2.25143">
        <ele>-24</ele>
        <time>2021-11-07T09:43:20.000Z</time>
      </trkpt>
      <trkpt lat="47.25627" lon="-2.25144">
        <ele>-23.60000038147</ele>
        <time>2021-11-07T09:43:21.000Z</time>
      </trkpt>
      <trkpt lat="47.2563" lon="-2.25146">
        <ele>-22.60000038147</ele>
        <time>2021-11-07T09:43:22.000Z</time>
      </trkpt>
      <trkpt lat="47.25633" lon="-2.25148">
        <ele>-22.200000762939</ele>
        <time>2021-11-07T09:43:23.000Z</time>
      </trkpt>
      <trkpt lat="47.25648" lon="-2.25157">
        <ele>-21.60000038147</ele>
        <time>2021-11-07T09:43:28.000Z</time>
      </trkpt>
      <trkpt lat="47.25651" lon="-2.25159">
        <ele>-21.200000762939</ele>
        <time>2021-11-07T09:43:29.000Z</time>
      </trkpt>
      <trkpt lat="47.25653" lon="-2.2516">
        <ele>-20.799999237061</ele>
        <time>2021-11-07T09:43:30.000Z</time>
      </trkpt>
      <trkpt lat="47.25655" lon="-2.25161">
        <ele>-20.39999961853</ele>
        <time>2021-11-07T09:43:31.000Z</time>
      </trkpt>
      <trkpt lat="47.25657" lon="-2.2516">
        <ele>-20</ele>
        <time>2021-11-07T09:43:32.000Z</time>
      </trkpt>
      <trkpt lat="47.25661" lon="-2.25156">
        <ele>-20</ele>
        <time>2021-11-07T09:43:34.000Z</time>
      </trkpt>
      <trkpt lat="47.25664" lon="-2.25138">
        <ele>-20</ele>
        <time>2021-11-07T09:43:38.000Z</time>
      </trkpt>
      <trkpt lat="47.25666" lon="-2.25132">
        <ele>-20</ele>
        <time>2021-11-07T09:43:39.000Z</time>
      </trkpt>
      <trkpt lat="47.25671" lon="-2.25104">
        <ele>-20</ele>
        <time>2021-11-07T09:43:44.000Z</time>
      </trkpt>
      <trkpt lat="47.25678" lon="-2.25059">
        <ele>-20</ele>
        <time>2021-11-07T09:43:50.000Z</time>
      </trkpt>
      <trkpt lat="47.25689" lon="-2.24996">
        <ele>-20</ele>
        <time>2021-11-07T09:43:58.000Z</time>
      </trkpt>
      <trkpt lat="47.25702" lon="-2.24926">
        <ele>-20</ele>
        <time>2021-11-07T09:44:07.000Z</time>
      </trkpt>
      <trkpt lat="47.25707" lon="-2.24869">
        <ele>-20.39999961853</ele>
        <time>2021-11-07T09:44:14.000Z</time>
      </trkpt>
      <trkpt lat="47.25708" lon="-2.2486">
        <ele>-20.799999237061</ele>
        <time>2021-11-07T09:44:15.000Z</time>
      </trkpt>
      <trkpt lat="47.2571" lon="-2.24851">
        <ele>-21.200000762939</ele>
        <time>2021-11-07T09:44:16.000Z</time>
      </trkpt>
      <trkpt lat="47.25714" lon="-2.24844">
        <ele>-21.60000038147</ele>
        <time>2021-11-07T09:44:17.000Z</time>
      </trkpt>
      <trkpt lat="47.25719" lon="-2.2484">
        <ele>-22</ele>
        <time>2021-11-07T09:44:18.000Z</time>
      </trkpt>
      <trkpt lat="47.25735" lon="-2.24838">
        <ele>-22</ele>
        <time>2021-11-07T09:44:21.000Z</time>
      </trkpt>
      <trkpt lat="47.25741" lon="-2.24838">
        <ele>-22</ele>
        <time>2021-11-07T09:44:22.000Z</time>
      </trkpt>
      <trkpt lat="47.25763" lon="-2.24841">
        <ele>-22</ele>
        <time>2021-11-07T09:44:27.000Z</time>
      </trkpt>
      <trkpt lat="47.25765" lon="-2.24839">
        <ele>-22</ele>
        <time>2021-11-07T09:44:28.000Z</time>
      </trkpt>
      <trkpt lat="47.25767" lon="-2.24829">
        <ele>-22</ele>
        <time>2021-11-07T09:44:30.000Z</time>
      </trkpt>
      <trkpt lat="47.25772" lon="-2.24791">
        <ele>-22</ele>
        <time>2021-11-07T09:44:36.000Z</time>
      </trkpt>
      <trkpt lat="47.25783" lon="-2.24732">
        <ele>-22</ele>
        <time>2021-11-07T09:44:43.000Z</time>
      </trkpt>
      <trkpt lat="47.25783" lon="-2.24711">
        <ele>-22</ele>
        <time>2021-11-07T09:44:45.000Z</time>
      </trkpt>
      <trkpt lat="47.25783" lon="-2.24681">
        <ele>-22</ele>
        <time>2021-11-07T09:44:48.000Z</time>
      </trkpt>
      <trkpt lat="47.25779" lon="-2.24617">
        <ele>-22</ele>
        <time>2021-11-07T09:44:55.000Z</time>
      </trkpt>
      <trkpt lat="47.25769" lon="-2.24566">
        <ele>-22</ele>
        <time>2021-11-07T09:45:01.000Z</time>
      </trkpt>
      <trkpt lat="47.25757" lon="-2.24523">
        <ele>-22.39999961853</ele>
        <time>2021-11-07T09:45:06.000Z</time>
      </trkpt>
      <trkpt lat="47.25756" lon="-2.24515">
        <ele>-22.799999237061</ele>
        <time>2021-11-07T09:45:07.000Z</time>
      </trkpt>
      <trkpt lat="47.25755" lon="-2.24506">
        <ele>-23.200000762939</ele>
        <time>2021-11-07T09:45:08.000Z</time>
      </trkpt>
      <trkpt lat="47.25754" lon="-2.24498">
        <ele>-23.60000038147</ele>
        <time>2021-11-07T09:45:09.000Z</time>
      </trkpt>
      <trkpt lat="47.25753" lon="-2.2449">
        <ele>-24</ele>
        <time>2021-11-07T09:45:10.000Z</time>
      </trkpt>
      <trkpt lat="47.25751" lon="-2.24481">
        <ele>-24</ele>
        <time>2021-11-07T09:45:11.000Z</time>
      </trkpt>
      <trkpt lat="47.25748" lon="-2.24452">
        <ele>-24</ele>
        <time>2021-11-07T09:45:14.000Z</time>
      </trkpt>
      <trkpt lat="47.25748" lon="-2.24433">
        <ele>-24.60000038147</ele>
        <time>2021-11-07T09:45:16.000Z</time>
      </trkpt>
      <trkpt lat="47.25748" lon="-2.24424">
        <ele>-25</ele>
        <time>2021-11-07T09:45:17.000Z</time>
      </trkpt>
      <trkpt lat="47.25747" lon="-2.24415">
        <ele>-25.39999961853</ele>
        <time>2021-11-07T09:45:18.000Z</time>
      </trkpt>
      <trkpt lat="47.25747" lon="-2.24407">
        <ele>-25.799999237061</ele>
        <time>2021-11-07T09:45:19.000Z</time>
      </trkpt>
      <trkpt lat="47.25747" lon="-2.24399">
        <ele>-26.200000762939</ele>
        <time>2021-11-07T09:45:20.000Z</time>
      </trkpt>
      <trkpt lat="47.25747" lon="-2.24392">
        <ele>-26.200000762939</ele>
        <time>2021-11-07T09:45:21.000Z</time>
      </trkpt>
      <trkpt lat="47.25746" lon="-2.24355">
        <ele>-26.200000762939</ele>
        <time>2021-11-07T09:45:26.000Z</time>
      </trkpt>
      <trkpt lat="47.25746" lon="-2.24343">
        <ele>-26.200000762939</ele>
        <time>2021-11-07T09:45:28.000Z</time>
      </trkpt>
      <trkpt lat="47.25744" lon="-2.24293">
        <ele>-26.200000762939</ele>
        <time>2021-11-07T09:45:36.000Z</time>
      </trkpt>
      <trkpt lat="47.25743" lon="-2.2425">
        <ele>-26.200000762939</ele>
        <time>2021-11-07T09:45:43.000Z</time>
      </trkpt>
      <trkpt lat="47.25743" lon="-2.24211">
        <ele>-26.200000762939</ele>
        <time>2021-11-07T09:45:49.000Z</time>
      </trkpt>
      <trkpt lat="47.25743" lon="-2.2416">
        <ele>-26.200000762939</ele>
        <time>2021-11-07T09:45:56.000Z</time>
      </trkpt>
      <trkpt lat="47.25745" lon="-2.24108">
        <ele>-26.60000038147</ele>
        <time>2021-11-07T09:46:02.000Z</time>
      </trkpt>
      <trkpt lat="47.25745" lon="-2.24098">
        <ele>-27</ele>
        <time>2021-11-07T09:46:03.000Z</time>
      </trkpt>
      <trkpt lat="47.25745" lon="-2.24088">
        <ele>-27.39999961853</ele>
        <time>2021-11-07T09:46:04.000Z</time>
      </trkpt>
      <trkpt lat="47.25745" lon="-2.24078">
        <ele>-27.799999237061</ele>
        <time>2021-11-07T09:46:05.000Z</time>
      </trkpt>
      <trkpt lat="47.25745" lon="-2.24068">
        <ele>-28.200000762939</ele>
        <time>2021-11-07T09:46:06.000Z</time>
      </trkpt>
      <trkpt lat="47.25744" lon="-2.24036">
        <ele>-28.200000762939</ele>
        <time>2021-11-07T09:46:09.000Z</time>
      </trkpt>
      <trkpt lat="47.25743" lon="-2.24026">
        <ele>-28.60000038147</ele>
        <time>2021-11-07T09:46:10.000Z</time>
      </trkpt>
      <trkpt lat="47.25744" lon="-2.24015">
        <ele>-29.200000762939</ele>
        <time>2021-11-07T09:46:11.000Z</time>
      </trkpt>
      <trkpt lat="47.25744" lon="-2.24007">
        <ele>-29.60000038147</ele>
        <time>2021-11-07T09:46:12.000Z</time>
      </trkpt>
      <trkpt lat="47.25743" lon="-2.23999">
        <ele>-30</ele>
        <time>2021-11-07T09:46:13.000Z</time>
      </trkpt>
      <trkpt lat="47.25742" lon="-2.23992">
        <ele>-30.39999961853</ele>
        <time>2021-11-07T09:46:14.000Z</time>
      </trkpt>
      <trkpt lat="47.25741" lon="-2.23986">
        <ele>-30.39999961853</ele>
        <time>2021-11-07T09:46:15.000Z</time>
      </trkpt>
      <trkpt lat="47.25734" lon="-2.23979">
        <ele>-30.39999961853</ele>
        <time>2021-11-07T09:46:17.000Z</time>
      </trkpt>
      <trkpt lat="47.25714" lon="-2.23977">
        <ele>-30.39999961853</ele>
        <time>2021-11-07T09:46:21.000Z</time>
      </trkpt>
      <trkpt lat="47.25691" lon="-2.23975">
        <ele>-30.39999961853</ele>
        <time>2021-11-07T09:46:27.000Z</time>
      </trkpt>
      <trkpt lat="47.2569" lon="-2.23975">
        <ele>-30.799999237061</ele>
        <time>2021-11-07T09:46:28.000Z</time>
      </trkpt>
      <trkpt lat="47.25688" lon="-2.23974">
        <ele>-31.200000762939</ele>
        <time>2021-11-07T09:46:29.000Z</time>
      </trkpt>
      <trkpt lat="47.25686" lon="-2.23975">
        <ele>-31.60000038147</ele>
        <time>2021-11-07T09:46:30.000Z</time>
      </trkpt>
      <trkpt lat="47.25684" lon="-2.23975">
        <ele>-32</ele>
        <time>2021-11-07T09:46:31.000Z</time>
      </trkpt>
      <trkpt lat="47.25682" lon="-2.23975">
        <ele>-32.400001525879</ele>
        <time>2021-11-07T09:46:32.000Z</time>
      </trkpt>
      <trkpt lat="47.25673" lon="-2.23976">
        <ele>-32.400001525879</ele>
        <time>2021-11-07T09:46:38.000Z</time>
      </trkpt>
      <trkpt lat="47.25672" lon="-2.23974">
        <ele>-32.400001525879</ele>
        <time>2021-11-07T09:46:39.000Z</time>
      </trkpt>
      <trkpt lat="47.25675" lon="-2.23968">
        <ele>-32.400001525879</ele>
        <time>2021-11-07T09:46:43.000Z</time>
      </trkpt>
      <trkpt lat="47.25679" lon="-2.2397">
        <ele>-32.400001525879</ele>
        <time>2021-11-07T09:46:45.000Z</time>
      </trkpt>
      <trkpt lat="47.25687" lon="-2.23972">
        <ele>-32.400001525879</ele>
        <time>2021-11-07T09:46:48.000Z</time>
      </trkpt>
      <trkpt lat="47.25705" lon="-2.23976">
        <ele>-32.400001525879</ele>
        <time>2021-11-07T09:46:53.000Z</time>
      </trkpt>
      <trkpt lat="47.25727" lon="-2.23979">
        <ele>-32.400001525879</ele>
        <time>2021-11-07T09:46:58.000Z</time>
      </trkpt>
      <trkpt lat="47.25735" lon="-2.23976">
        <ele>-32.400001525879</ele>
        <time>2021-11-07T09:47:01.000Z</time>
      </trkpt>
      <trkpt lat="47.25735" lon="-2.2397">
        <ele>-32.400001525879</ele>
        <time>2021-11-07T09:47:02.000Z</time>
      </trkpt>
      <trkpt lat="47.25732" lon="-2.23951">
        <ele>-32.400001525879</ele>
        <time>2021-11-07T09:47:05.000Z</time>
      </trkpt>
      <trkpt lat="47.25729" lon="-2.23935">
        <ele>-32.400001525879</ele>
        <time>2021-11-07T09:47:07.000Z</time>
      </trkpt>
      <trkpt lat="47.25726" lon="-2.23908">
        <ele>-32.400001525879</ele>
        <time>2021-11-07T09:47:10.000Z</time>
      </trkpt>
      <trkpt lat="47.25716" lon="-2.23834">
        <ele>-32.400001525879</ele>
        <time>2021-11-07T09:47:18.000Z</time>
      </trkpt>
      <trkpt lat="47.25714" lon="-2.23815">
        <ele>-32.400001525879</ele>
        <time>2021-11-07T09:47:20.000Z</time>
      </trkpt>
      <trkpt lat="47.25713" lon="-2.23796">
        <ele>-32.400001525879</ele>
        <time>2021-11-07T09:47:22.000Z</time>
      </trkpt>
      <trkpt lat="47.25713" lon="-2.2372">
        <ele>-32.400001525879</ele>
        <time>2021-11-07T09:47:30.000Z</time>
      </trkpt>
      <trkpt lat="47.25709" lon="-2.23652">
        <ele>-32.400001525879</ele>
        <time>2021-11-07T09:47:37.000Z</time>
      </trkpt>
      <trkpt lat="47.25705" lon="-2.23586">
        <ele>-32.400001525879</ele>
        <time>2021-11-07T09:47:44.000Z</time>
      </trkpt>
      <trkpt lat="47.25702" lon="-2.23501">
        <ele>-32.400001525879</ele>
        <time>2021-11-07T09:47:53.000Z</time>
      </trkpt>
      <trkpt lat="47.257" lon="-2.23448">
        <ele>-32.400001525879</ele>
        <time>2021-11-07T09:47:59.000Z</time>
      </trkpt>
      <trkpt lat="47.25697" lon="-2.23423">
        <ele>-32.400001525879</ele>
        <time>2021-11-07T09:48:02.000Z</time>
      </trkpt>
      <trkpt lat="47.25692" lon="-2.23401">
        <ele>-32.400001525879</ele>
        <time>2021-11-07T09:48:05.000Z</time>
      </trkpt>
      <trkpt lat="47.25688" lon="-2.2335">
        <ele>-32.400001525879</ele>
        <time>2021-11-07T09:48:11.000Z</time>
      </trkpt>
      <trkpt lat="47.25688" lon="-2.23316">
        <ele>-32.400001525879</ele>
        <time>2021-11-07T09:48:15.000Z</time>
      </trkpt>
      <trkpt lat="47.25685" lon="-2.23298">
        <ele>-32.400001525879</ele>
        <time>2021-11-07T09:48:17.000Z</time>
      </trkpt>
      <trkpt lat="47.25682" lon="-2.23289">
        <ele>-32.799999237061</ele>
        <time>2021-11-07T09:48:18.000Z</time>
      </trkpt>
      <trkpt lat="47.25679" lon="-2.23281">
        <ele>-33.799999237061</ele>
        <time>2021-11-07T09:48:19.000Z</time>
      </trkpt>
      <trkpt lat="47.25676" lon="-2.23272">
        <ele>-34.200000762939</ele>
        <time>2021-11-07T09:48:20.000Z</time>
      </trkpt>
      <trkpt lat="47.25673" lon="-2.23264">
        <ele>-34.599998474121</ele>
        <time>2021-11-07T09:48:21.000Z</time>
      </trkpt>
      <trkpt lat="47.25669" lon="-2.23257">
        <ele>-34.599998474121</ele>
        <time>2021-11-07T09:48:22.000Z</time>
      </trkpt>
      <trkpt lat="47.25659" lon="-2.23232">
        <ele>-34.599998474121</ele>
        <time>2021-11-07T09:48:25.000Z</time>
      </trkpt>
      <trkpt lat="47.25657" lon="-2.23213">
        <ele>-34.599998474121</ele>
        <time>2021-11-07T09:48:27.000Z</time>
      </trkpt>
      <trkpt lat="47.25656" lon="-2.23194">
        <ele>-35</ele>
        <time>2021-11-07T09:48:29.000Z</time>
      </trkpt>
      <trkpt lat="47.25657" lon="-2.23184">
        <ele>-35.400001525879</ele>
        <time>2021-11-07T09:48:30.000Z</time>
      </trkpt>
      <trkpt lat="47.25658" lon="-2.23174">
        <ele>-35.799999237061</ele>
        <time>2021-11-07T09:48:31.000Z</time>
      </trkpt>
      <trkpt lat="47.25659" lon="-2.23164">
        <ele>-36.200000762939</ele>
        <time>2021-11-07T09:48:32.000Z</time>
      </trkpt>
      <trkpt lat="47.2566" lon="-2.23153">
        <ele>-36.599998474121</ele>
        <time>2021-11-07T09:48:33.000Z</time>
      </trkpt>
      <trkpt lat="47.25665" lon="-2.23086">
        <ele>-36.599998474121</ele>
        <time>2021-11-07T09:48:40.000Z</time>
      </trkpt>
      <trkpt lat="47.25666" lon="-2.23052">
        <ele>-37.400001525879</ele>
        <time>2021-11-07T09:48:44.000Z</time>
      </trkpt>
      <trkpt lat="47.25666" lon="-2.23043">
        <ele>-37.799999237061</ele>
        <time>2021-11-07T09:48:45.000Z</time>
      </trkpt>
      <trkpt lat="47.25666" lon="-2.23036">
        <ele>-38.200000762939</ele>
        <time>2021-11-07T09:48:46.000Z</time>
      </trkpt>
      <trkpt lat="47.25667" lon="-2.23028">
        <ele>-38.599998474121</ele>
        <time>2021-11-07T09:48:47.000Z</time>
      </trkpt>
      <trkpt lat="47.25666" lon="-2.2302">
        <ele>-38.599998474121</ele>
        <time>2021-11-07T09:48:48.000Z</time>
      </trkpt>
      <trkpt lat="47.25668" lon="-2.22988">
        <ele>-38.599998474121</ele>
        <time>2021-11-07T09:48:53.000Z</time>
      </trkpt>
      <trkpt lat="47.25669" lon="-2.22958">
        <ele>-38.599998474121</ele>
        <time>2021-11-07T09:49:00.000Z</time>
      </trkpt>
      <trkpt lat="47.25669" lon="-2.22946">
        <ele>-38.599998474121</ele>
        <time>2021-11-07T09:49:05.000Z</time>
      </trkpt>
      <trkpt lat="47.25668" lon="-2.22943">
        <ele>-38.599998474121</ele>
        <time>2021-11-07T09:49:07.000Z</time>
      </trkpt>
      <trkpt lat="47.25666" lon="-2.22941">
        <ele>-38.599998474121</ele>
        <time>2021-11-07T09:49:10.000Z</time>
      </trkpt>
      <trkpt lat="47.25666" lon="-2.22936">
        <ele>-38.599998474121</ele>
        <time>2021-11-07T09:51:33.000Z</time>
      </trkpt>
      <trkpt lat="47.25666" lon="-2.22927">
        <ele>-39</ele>
        <time>2021-11-07T09:51:36.000Z</time>
      </trkpt>
      <trkpt lat="47.25666" lon="-2.22922">
        <ele>-39.400001525879</ele>
        <time>2021-11-07T09:51:37.000Z</time>
      </trkpt>
      <trkpt lat="47.25667" lon="-2.22917">
        <ele>-39.799999237061</ele>
        <time>2021-11-07T09:51:38.000Z</time>
      </trkpt>
      <trkpt lat="47.25667" lon="-2.22912">
        <ele>-40.200000762939</ele>
        <time>2021-11-07T09:51:39.000Z</time>
      </trkpt>
      <trkpt lat="47.25668" lon="-2.22905">
        <ele>-40.599998474121</ele>
        <time>2021-11-07T09:51:40.000Z</time>
      </trkpt>
      <trkpt lat="47.25668" lon="-2.22899">
        <ele>-40.599998474121</ele>
        <time>2021-11-07T09:51:41.000Z</time>
      </trkpt>
      <trkpt lat="47.25672" lon="-2.22881">
        <ele>-40.599998474121</ele>
        <time>2021-11-07T09:51:44.000Z</time>
      </trkpt>
      <trkpt lat="47.25678" lon="-2.22869">
        <ele>-40.599998474121</ele>
        <time>2021-11-07T09:51:46.000Z</time>
      </trkpt>
      <trkpt lat="47.25685" lon="-2.22856">
        <ele>-40.599998474121</ele>
        <time>2021-11-07T09:51:48.000Z</time>
      </trkpt>
      <trkpt lat="47.25699" lon="-2.22842">
        <ele>-41</ele>
        <time>2021-11-07T09:51:51.000Z</time>
      </trkpt>
      <trkpt lat="47.25704" lon="-2.22838">
        <ele>-41.599998474121</ele>
        <time>2021-11-07T09:51:52.000Z</time>
      </trkpt>
      <trkpt lat="47.2571" lon="-2.22834">
        <ele>-42</ele>
        <time>2021-11-07T09:51:53.000Z</time>
      </trkpt>
      <trkpt lat="47.25716" lon="-2.2283">
        <ele>-42.400001525879</ele>
        <time>2021-11-07T09:51:54.000Z</time>
      </trkpt>
      <trkpt lat="47.25722" lon="-2.22825">
        <ele>-42.799999237061</ele>
        <time>2021-11-07T09:51:55.000Z</time>
      </trkpt>
      <trkpt lat="47.25734" lon="-2.22817">
        <ele>-42.799999237061</ele>
        <time>2021-11-07T09:51:57.000Z</time>
      </trkpt>
      <trkpt lat="47.2576" lon="-2.22798">
        <ele>-42.799999237061</ele>
        <time>2021-11-07T09:52:02.000Z</time>
      </trkpt>
      <trkpt lat="47.2579" lon="-2.22777">
        <ele>-42.799999237061</ele>
        <time>2021-11-07T09:52:09.000Z</time>
      </trkpt>
      <trkpt lat="47.25799" lon="-2.22771">
        <ele>-42.799999237061</ele>
        <time>2021-11-07T09:52:11.000Z</time>
      </trkpt>
      <trkpt lat="47.25804" lon="-2.2276">
        <ele>-42.799999237061</ele>
        <time>2021-11-07T09:52:13.000Z</time>
      </trkpt>
      <trkpt lat="47.25804" lon="-2.22739">
        <ele>-42.799999237061</ele>
        <time>2021-11-07T09:52:16.000Z</time>
      </trkpt>
      <trkpt lat="47.25804" lon="-2.22731">
        <ele>-42.799999237061</ele>
        <time>2021-11-07T09:52:17.000Z</time>
      </trkpt>
      <trkpt lat="47.258" lon="-2.22695">
        <ele>-42.799999237061</ele>
        <time>2021-11-07T09:52:21.000Z</time>
      </trkpt>
      <trkpt lat="47.25799" lon="-2.22676">
        <ele>-42.799999237061</ele>
        <time>2021-11-07T09:52:23.000Z</time>
      </trkpt>
      <trkpt lat="47.258" lon="-2.2264">
        <ele>-42.799999237061</ele>
        <time>2021-11-07T09:52:27.000Z</time>
      </trkpt>
      <trkpt lat="47.25801" lon="-2.22621">
        <ele>-42.799999237061</ele>
        <time>2021-11-07T09:52:29.000Z</time>
      </trkpt>
      <trkpt lat="47.25801" lon="-2.22594">
        <ele>-42.799999237061</ele>
        <time>2021-11-07T09:52:32.000Z</time>
      </trkpt>
      <trkpt lat="47.25806" lon="-2.2255">
        <ele>-42.799999237061</ele>
        <time>2021-11-07T09:52:37.000Z</time>
      </trkpt>
      <trkpt lat="47.25807" lon="-2.22541">
        <ele>-42.799999237061</ele>
        <time>2021-11-07T09:52:38.000Z</time>
      </trkpt>
      <trkpt lat="47.25814" lon="-2.22491">
        <ele>-42.799999237061</ele>
        <time>2021-11-07T09:52:44.000Z</time>
      </trkpt>
      <trkpt lat="47.25821" lon="-2.22458">
        <ele>-42.799999237061</ele>
        <time>2021-11-07T09:52:48.000Z</time>
      </trkpt>
      <trkpt lat="47.25835" lon="-2.22395">
        <ele>-42.799999237061</ele>
        <time>2021-11-07T09:52:56.000Z</time>
      </trkpt>
      <trkpt lat="47.25837" lon="-2.22387">
        <ele>-42.799999237061</ele>
        <time>2021-11-07T09:52:57.000Z</time>
      </trkpt>
      <trkpt lat="47.25847" lon="-2.22351">
        <ele>-42.799999237061</ele>
        <time>2021-11-07T09:53:02.000Z</time>
      </trkpt>
      <trkpt lat="47.2585" lon="-2.22344">
        <ele>-42.799999237061</ele>
        <time>2021-11-07T09:53:03.000Z</time>
      </trkpt>
      <trkpt lat="47.25856" lon="-2.22332">
        <ele>-42.799999237061</ele>
        <time>2021-11-07T09:53:05.000Z</time>
      </trkpt>
      <trkpt lat="47.25869" lon="-2.22318">
        <ele>-42.799999237061</ele>
        <time>2021-11-07T09:53:08.000Z</time>
      </trkpt>
      <trkpt lat="47.25892" lon="-2.22315">
        <ele>-42.799999237061</ele>
        <time>2021-11-07T09:53:12.000Z</time>
      </trkpt>
      <trkpt lat="47.25913" lon="-2.22328">
        <ele>-42.799999237061</ele>
        <time>2021-11-07T09:53:16.000Z</time>
      </trkpt>
      <trkpt lat="47.25918" lon="-2.22332">
        <ele>-42.799999237061</ele>
        <time>2021-11-07T09:53:17.000Z</time>
      </trkpt>
      <trkpt lat="47.25965" lon="-2.22369">
        <ele>-42.799999237061</ele>
        <time>2021-11-07T09:53:26.000Z</time>
      </trkpt>
      <trkpt lat="47.25995" lon="-2.22381">
        <ele>-42.799999237061</ele>
        <time>2021-11-07T09:53:31.000Z</time>
      </trkpt>
      <trkpt lat="47.26014" lon="-2.22384">
        <ele>-42.799999237061</ele>
        <time>2021-11-07T09:53:34.000Z</time>
      </trkpt>
      <trkpt lat="47.26027" lon="-2.22389">
        <ele>-42.799999237061</ele>
        <time>2021-11-07T09:53:36.000Z</time>
      </trkpt>
      <trkpt lat="47.26039" lon="-2.22395">
        <ele>-42.799999237061</ele>
        <time>2021-11-07T09:53:38.000Z</time>
      </trkpt>
      <trkpt lat="47.26049" lon="-2.22406">
        <ele>-42.799999237061</ele>
        <time>2021-11-07T09:53:40.000Z</time>
      </trkpt>
      <trkpt lat="47.26074" lon="-2.22432">
        <ele>-42.799999237061</ele>
        <time>2021-11-07T09:53:45.000Z</time>
      </trkpt>
      <trkpt lat="47.2608" lon="-2.22435">
        <ele>-42.799999237061</ele>
        <time>2021-11-07T09:53:46.000Z</time>
      </trkpt>
      <trkpt lat="47.26116" lon="-2.2245">
        <ele>-42.799999237061</ele>
        <time>2021-11-07T09:53:53.000Z</time>
      </trkpt>
      <trkpt lat="47.26157" lon="-2.22458">
        <ele>-42.799999237061</ele>
        <time>2021-11-07T09:54:01.000Z</time>
      </trkpt>
      <trkpt lat="47.26193" lon="-2.22459">
        <ele>-42.799999237061</ele>
        <time>2021-11-07T09:54:08.000Z</time>
      </trkpt>
      <trkpt lat="47.26214" lon="-2.22465">
        <ele>-42.799999237061</ele>
        <time>2021-11-07T09:54:12.000Z</time>
      </trkpt>
      <trkpt lat="47.26228" lon="-2.22474">
        <ele>-42.799999237061</ele>
        <time>2021-11-07T09:54:15.000Z</time>
      </trkpt>
      <trkpt lat="47.2626" lon="-2.225">
        <ele>-42.799999237061</ele>
        <time>2021-11-07T09:54:22.000Z</time>
      </trkpt>
      <trkpt lat="47.26302" lon="-2.2252">
        <ele>-42.799999237061</ele>
        <time>2021-11-07T09:54:30.000Z</time>
      </trkpt>
      <trkpt lat="47.26351" lon="-2.22535">
        <ele>-42.799999237061</ele>
        <time>2021-11-07T09:54:39.000Z</time>
      </trkpt>
      <trkpt lat="47.26387" lon="-2.22536">
        <ele>-42.799999237061</ele>
        <time>2021-11-07T09:54:46.000Z</time>
      </trkpt>
      <trkpt lat="47.26423" lon="-2.22526">
        <ele>-42.799999237061</ele>
        <time>2021-11-07T09:54:53.000Z</time>
      </trkpt>
      <trkpt lat="47.26468" lon="-2.22512">
        <ele>-42.799999237061</ele>
        <time>2021-11-07T09:55:02.000Z</time>
      </trkpt>
      <trkpt lat="47.26473" lon="-2.2251">
        <ele>-42.799999237061</ele>
        <time>2021-11-07T09:55:03.000Z</time>
      </trkpt>
      <trkpt lat="47.2649" lon="-2.22501">
        <ele>-42.799999237061</ele>
        <time>2021-11-07T09:55:07.000Z</time>
      </trkpt>
      <trkpt lat="47.26503" lon="-2.22494">
        <ele>-42.799999237061</ele>
        <time>2021-11-07T09:55:10.000Z</time>
      </trkpt>
      <trkpt lat="47.26511" lon="-2.22486">
        <ele>-42.799999237061</ele>
        <time>2021-11-07T09:55:12.000Z</time>
      </trkpt>
      <trkpt lat="47.26537" lon="-2.22451">
        <ele>-42.799999237061</ele>
        <time>2021-11-07T09:55:19.000Z</time>
      </trkpt>
      <trkpt lat="47.26544" lon="-2.22439">
        <ele>-42.799999237061</ele>
        <time>2021-11-07T09:55:21.000Z</time>
      </trkpt>
      <trkpt lat="47.26555" lon="-2.22424">
        <ele>-42.799999237061</ele>
        <time>2021-11-07T09:55:24.000Z</time>
      </trkpt>
      <trkpt lat="47.26561" lon="-2.22413">
        <ele>-42.799999237061</ele>
        <time>2021-11-07T09:55:26.000Z</time>
      </trkpt>
      <trkpt lat="47.26571" lon="-2.22394">
        <ele>-42.799999237061</ele>
        <time>2021-11-07T09:55:29.000Z</time>
      </trkpt>
      <trkpt lat="47.26595" lon="-2.22348">
        <ele>-42.799999237061</ele>
        <time>2021-11-07T09:55:36.000Z</time>
      </trkpt>
      <trkpt lat="47.26598" lon="-2.22341">
        <ele>-42.799999237061</ele>
        <time>2021-11-07T09:55:37.000Z</time>
      </trkpt>
      <trkpt lat="47.26628" lon="-2.22285">
        <ele>-42.799999237061</ele>
        <time>2021-11-07T09:55:45.000Z</time>
      </trkpt>
      <trkpt lat="47.26652" lon="-2.22242">
        <ele>-42.799999237061</ele>
        <time>2021-11-07T09:55:51.000Z</time>
      </trkpt>
      <trkpt lat="47.26683" lon="-2.22187">
        <ele>-42.799999237061</ele>
        <time>2021-11-07T09:55:59.000Z</time>
      </trkpt>
      <trkpt lat="47.26697" lon="-2.22153">
        <ele>-42.799999237061</ele>
        <time>2021-11-07T09:56:04.000Z</time>
      </trkpt>
      <trkpt lat="47.26704" lon="-2.22141">
        <ele>-42.799999237061</ele>
        <time>2021-11-07T09:56:08.000Z</time>
      </trkpt>
      <trkpt lat="47.26706" lon="-2.2214">
        <ele>-42.799999237061</ele>
        <time>2021-11-07T09:56:09.000Z</time>
      </trkpt>
      <trkpt lat="47.26713" lon="-2.22144">
        <ele>-42.799999237061</ele>
        <time>2021-11-07T09:56:13.000Z</time>
      </trkpt>
      <trkpt lat="47.26716" lon="-2.22146">
        <ele>-42.799999237061</ele>
        <time>2021-11-07T09:56:14.000Z</time>
      </trkpt>
      <trkpt lat="47.26728" lon="-2.2215">
        <ele>-42.799999237061</ele>
        <time>2021-11-07T09:56:18.000Z</time>
      </trkpt>
      <trkpt lat="47.2673" lon="-2.22147">
        <ele>-42.799999237061</ele>
        <time>2021-11-07T09:56:19.000Z</time>
      </trkpt>
      <trkpt lat="47.26735" lon="-2.2213">
        <ele>-42.799999237061</ele>
        <time>2021-11-07T09:56:23.000Z</time>
      </trkpt>
      <trkpt lat="47.26744" lon="-2.22128">
        <ele>-42.799999237061</ele>
        <time>2021-11-07T09:56:26.000Z</time>
      </trkpt>
      <trkpt lat="47.26748" lon="-2.22128">
        <ele>-42.799999237061</ele>
        <time>2021-11-07T09:56:27.000Z</time>
      </trkpt>
      <trkpt lat="47.26755" lon="-2.22132">
        <ele>-42.799999237061</ele>
        <time>2021-11-07T09:56:29.000Z</time>
      </trkpt>
      <trkpt lat="47.26767" lon="-2.22139">
        <ele>-42.799999237061</ele>
        <time>2021-11-07T09:56:32.000Z</time>
      </trkpt>
      <trkpt lat="47.26791" lon="-2.22159">
        <ele>-42.799999237061</ele>
        <time>2021-11-07T09:56:39.000Z</time>
      </trkpt>
      <trkpt lat="47.26795" lon="-2.22162">
        <ele>-42.799999237061</ele>
        <time>2021-11-07T09:56:40.000Z</time>
      </trkpt>
      <trkpt lat="47.26798" lon="-2.22165">
        <ele>-43.200000762939</ele>
        <time>2021-11-07T09:56:41.000Z</time>
      </trkpt>
      <trkpt lat="47.26801" lon="-2.22168">
        <ele>-43.599998474121</ele>
        <time>2021-11-07T09:56:42.000Z</time>
      </trkpt>
      <trkpt lat="47.26805" lon="-2.22172">
        <ele>-44</ele>
        <time>2021-11-07T09:56:43.000Z</time>
      </trkpt>
      <trkpt lat="47.26807" lon="-2.22176">
        <ele>-44.400001525879</ele>
        <time>2021-11-07T09:56:44.000Z</time>
      </trkpt>
      <trkpt lat="47.2681" lon="-2.22181">
        <ele>-44.799999237061</ele>
        <time>2021-11-07T09:56:45.000Z</time>
      </trkpt>
      <trkpt lat="47.26818" lon="-2.22194">
        <ele>-44.799999237061</ele>
        <time>2021-11-07T09:56:48.000Z</time>
      </trkpt>
      <trkpt lat="47.26822" lon="-2.22197">
        <ele>-44.799999237061</ele>
        <time>2021-11-07T09:56:49.000Z</time>
      </trkpt>
      <trkpt lat="47.26852" lon="-2.22218">
        <ele>-44.799999237061</ele>
        <time>2021-11-07T09:56:56.000Z</time>
      </trkpt>
      <trkpt lat="47.2688" lon="-2.22236">
        <ele>-44.799999237061</ele>
        <time>2021-11-07T09:57:02.000Z</time>
      </trkpt>
      <trkpt lat="47.26911" lon="-2.22255">
        <ele>-44.799999237061</ele>
        <time>2021-11-07T09:57:08.000Z</time>
      </trkpt>
      <trkpt lat="47.26946" lon="-2.22282">
        <ele>-44.799999237061</ele>
        <time>2021-11-07T09:57:15.000Z</time>
      </trkpt>
      <trkpt lat="47.26984" lon="-2.22315">
        <ele>-44.799999237061</ele>
        <time>2021-11-07T09:57:23.000Z</time>
      </trkpt>
      <trkpt lat="47.27014" lon="-2.22345">
        <ele>-44.799999237061</ele>
        <time>2021-11-07T09:57:30.000Z</time>
      </trkpt>
      <trkpt lat="47.27037" lon="-2.22361">
        <ele>-44.799999237061</ele>
        <time>2021-11-07T09:57:35.000Z</time>
      </trkpt>
      <trkpt lat="47.2706" lon="-2.22359">
        <ele>-44.799999237061</ele>
        <time>2021-11-07T09:57:40.000Z</time>
      </trkpt>
      <trkpt lat="47.27068" lon="-2.22353">
        <ele>-44.799999237061</ele>
        <time>2021-11-07T09:57:42.000Z</time>
      </trkpt>
      <trkpt lat="47.27076" lon="-2.22345">
        <ele>-44.799999237061</ele>
        <time>2021-11-07T09:57:44.000Z</time>
      </trkpt>
      <trkpt lat="47.2708" lon="-2.22341">
        <ele>-44.799999237061</ele>
        <time>2021-11-07T09:57:45.000Z</time>
      </trkpt>
      <trkpt lat="47.27083" lon="-2.22338">
        <ele>-44.799999237061</ele>
        <time>2021-11-07T09:57:46.000Z</time>
      </trkpt>
      <trkpt lat="47.2709" lon="-2.22337">
        <ele>-44.799999237061</ele>
        <time>2021-11-07T09:57:48.000Z</time>
      </trkpt>
      <trkpt lat="47.27096" lon="-2.22339">
        <ele>-44.799999237061</ele>
        <time>2021-11-07T09:57:51.000Z</time>
      </trkpt>
      <trkpt lat="47.27097" lon="-2.22339">
        <ele>-44.799999237061</ele>
        <time>2021-11-07T09:57:52.000Z</time>
      </trkpt>
      <trkpt lat="47.27097" lon="-2.22344">
        <ele>-44.799999237061</ele>
        <time>2021-11-07T09:57:55.000Z</time>
      </trkpt>
      <trkpt lat="47.27096" lon="-2.2235">
        <ele>-44.799999237061</ele>
        <time>2021-11-07T09:57:58.000Z</time>
      </trkpt>
      <trkpt lat="47.27096" lon="-2.22354">
        <ele>-44.799999237061</ele>
        <time>2021-11-07T09:58:00.000Z</time>
      </trkpt>
      <trkpt lat="47.27095" lon="-2.22355">
        <ele>-44.799999237061</ele>
        <time>2021-11-07T09:58:01.000Z</time>
      </trkpt>
      <trkpt lat="47.27093" lon="-2.22359">
        <ele>-44.799999237061</ele>
        <time>2021-11-07T09:58:03.000Z</time>
      </trkpt>
      <trkpt lat="47.27093" lon="-2.22361">
        <ele>-44.799999237061</ele>
        <time>2021-11-07T09:58:04.000Z</time>
      </trkpt>
      <trkpt lat="47.27089" lon="-2.22377">
        <ele>-44.799999237061</ele>
        <time>2021-11-07T09:58:11.000Z</time>
      </trkpt>
      <trkpt lat="47.27085" lon="-2.2239">
        <ele>-44.799999237061</ele>
        <time>2021-11-07T09:58:18.000Z</time>
      </trkpt>
      <trkpt lat="47.27081" lon="-2.22403">
        <ele>-44.799999237061</ele>
        <time>2021-11-07T09:58:24.000Z</time>
      </trkpt>
      <trkpt lat="47.27076" lon="-2.22422">
        <ele>-44.799999237061</ele>
        <time>2021-11-07T09:58:32.000Z</time>
      </trkpt>
      <trkpt lat="47.27071" lon="-2.22442">
        <ele>-44.799999237061</ele>
        <time>2021-11-07T09:58:38.000Z</time>
      </trkpt>
      <trkpt lat="47.27064" lon="-2.2247">
        <ele>-44.799999237061</ele>
        <time>2021-11-07T09:58:45.000Z</time>
      </trkpt>
      <trkpt lat="47.2706" lon="-2.22494">
        <ele>-44.799999237061</ele>
        <time>2021-11-07T09:58:51.000Z</time>
      </trkpt>
      <trkpt lat="47.27062" lon="-2.22501">
        <ele>-44.799999237061</ele>
        <time>2021-11-07T09:58:56.000Z</time>
      </trkpt>
      <trkpt lat="47.27062" lon="-2.22507">
        <ele>-44.799999237061</ele>
        <time>2021-11-07T09:58:58.000Z</time>
      </trkpt>
      <trkpt lat="47.27064" lon="-2.22513">
        <ele>-44.799999237061</ele>
        <time>2021-11-07T09:59:00.000Z</time>
      </trkpt>
      <trkpt lat="47.27072" lon="-2.22534">
        <ele>-44.799999237061</ele>
        <time>2021-11-07T09:59:06.000Z</time>
      </trkpt>
      <trkpt lat="47.27078" lon="-2.22559">
        <ele>-44.799999237061</ele>
        <time>2021-11-07T09:59:12.000Z</time>
      </trkpt>
      <trkpt lat="47.27087" lon="-2.22592">
        <ele>-44.799999237061</ele>
        <time>2021-11-07T09:59:19.000Z</time>
      </trkpt>
      <trkpt lat="47.27101" lon="-2.22607">
        <ele>-44.799999237061</ele>
        <time>2021-11-07T09:59:24.000Z</time>
      </trkpt>
      <trkpt lat="47.27124" lon="-2.22623">
        <ele>-44.799999237061</ele>
        <time>2021-11-07T09:59:31.000Z</time>
      </trkpt>
      <trkpt lat="47.27145" lon="-2.22644">
        <ele>-44.799999237061</ele>
        <time>2021-11-07T09:59:39.000Z</time>
      </trkpt>
      <trkpt lat="47.27151" lon="-2.22661">
        <ele>-44.799999237061</ele>
        <time>2021-11-07T09:59:45.000Z</time>
      </trkpt>
      <trkpt lat="47.27156" lon="-2.22671">
        <ele>-44.799999237061</ele>
        <time>2021-11-07T09:59:49.000Z</time>
      </trkpt>
      <trkpt lat="47.27166" lon="-2.22685">
        <ele>-44.799999237061</ele>
        <time>2021-11-07T09:59:55.000Z</time>
      </trkpt>
      <trkpt lat="47.27177" lon="-2.22696">
        <ele>-44.799999237061</ele>
        <time>2021-11-07T09:59:59.000Z</time>
      </trkpt>
      <trkpt lat="47.2719" lon="-2.22704">
        <ele>-44.799999237061</ele>
        <time>2021-11-07T10:00:04.000Z</time>
      </trkpt>
      <trkpt lat="47.27207" lon="-2.2271">
        <ele>-44.799999237061</ele>
        <time>2021-11-07T10:00:09.000Z</time>
      </trkpt>
      <trkpt lat="47.27229" lon="-2.22718">
        <ele>-44.799999237061</ele>
        <time>2021-11-07T10:00:16.000Z</time>
      </trkpt>
      <trkpt lat="47.27248" lon="-2.22725">
        <ele>-44.799999237061</ele>
        <time>2021-11-07T10:00:23.000Z</time>
      </trkpt>
      <trkpt lat="47.27263" lon="-2.22734">
        <ele>-44.799999237061</ele>
        <time>2021-11-07T10:00:28.000Z</time>
      </trkpt>
      <trkpt lat="47.27285" lon="-2.22752">
        <ele>-44.799999237061</ele>
        <time>2021-11-07T10:00:35.000Z</time>
      </trkpt>
      <trkpt lat="47.27296" lon="-2.2276">
        <ele>-44.799999237061</ele>
        <time>2021-11-07T10:00:38.000Z</time>
      </trkpt>
      <trkpt lat="47.27309" lon="-2.22763">
        <ele>-44.799999237061</ele>
        <time>2021-11-07T10:00:41.000Z</time>
      </trkpt>
      <trkpt lat="47.27318" lon="-2.22762">
        <ele>-44.799999237061</ele>
        <time>2021-11-07T10:00:43.000Z</time>
      </trkpt>
      <trkpt lat="47.27336" lon="-2.22764">
        <ele>-44.799999237061</ele>
        <time>2021-11-07T10:00:47.000Z</time>
      </trkpt>
      <trkpt lat="47.27344" lon="-2.22762">
        <ele>-44.799999237061</ele>
        <time>2021-11-07T10:00:49.000Z</time>
      </trkpt>
      <trkpt lat="47.27353" lon="-2.22756">
        <ele>-44.799999237061</ele>
        <time>2021-11-07T10:00:51.000Z</time>
      </trkpt>
      <trkpt lat="47.2737" lon="-2.22742">
        <ele>-44.799999237061</ele>
        <time>2021-11-07T10:00:55.000Z</time>
      </trkpt>
      <trkpt lat="47.27379" lon="-2.22738">
        <ele>-44.799999237061</ele>
        <time>2021-11-07T10:00:57.000Z</time>
      </trkpt>
      <trkpt lat="47.27388" lon="-2.22733">
        <ele>-44.799999237061</ele>
        <time>2021-11-07T10:00:59.000Z</time>
      </trkpt>
      <trkpt lat="47.27407" lon="-2.22724">
        <ele>-44.799999237061</ele>
        <time>2021-11-07T10:01:03.000Z</time>
      </trkpt>
      <trkpt lat="47.27418" lon="-2.22704">
        <ele>-44.799999237061</ele>
        <time>2021-11-07T10:01:07.000Z</time>
      </trkpt>
      <trkpt lat="47.27426" lon="-2.22688">
        <ele>-44.799999237061</ele>
        <time>2021-11-07T10:01:10.000Z</time>
      </trkpt>
      <trkpt lat="47.27428" lon="-2.22682">
        <ele>-44.799999237061</ele>
        <time>2021-11-07T10:01:11.000Z</time>
      </trkpt>
      <trkpt lat="47.2743" lon="-2.22661">
        <ele>-44.799999237061</ele>
        <time>2021-11-07T10:01:14.000Z</time>
      </trkpt>
      <trkpt lat="47.27431" lon="-2.22654">
        <ele>-44.799999237061</ele>
        <time>2021-11-07T10:01:15.000Z</time>
      </trkpt>
      <trkpt lat="47.27431" lon="-2.22632">
        <ele>-44.799999237061</ele>
        <time>2021-11-07T10:01:18.000Z</time>
      </trkpt>
      <trkpt lat="47.2743" lon="-2.22625">
        <ele>-44.799999237061</ele>
        <time>2021-11-07T10:01:19.000Z</time>
      </trkpt>
      <trkpt lat="47.27424" lon="-2.22606">
        <ele>-44.799999237061</ele>
        <time>2021-11-07T10:01:22.000Z</time>
      </trkpt>
      <trkpt lat="47.27421" lon="-2.22601">
        <ele>-44.799999237061</ele>
        <time>2021-11-07T10:01:23.000Z</time>
      </trkpt>
      <trkpt lat="47.27418" lon="-2.22597">
        <ele>-44.799999237061</ele>
        <time>2021-11-07T10:01:24.000Z</time>
      </trkpt>
      <trkpt lat="47.27395" lon="-2.22568">
        <ele>-44.799999237061</ele>
        <time>2021-11-07T10:01:30.000Z</time>
      </trkpt>
      <trkpt lat="47.27374" lon="-2.22526">
        <ele>-44.799999237061</ele>
        <time>2021-11-07T10:01:37.000Z</time>
      </trkpt>
      <trkpt lat="47.27357" lon="-2.2249">
        <ele>-44.799999237061</ele>
        <time>2021-11-07T10:01:43.000Z</time>
      </trkpt>
      <trkpt lat="47.27347" lon="-2.22475">
        <ele>-44.799999237061</ele>
        <time>2021-11-07T10:01:46.000Z</time>
      </trkpt>
      <trkpt lat="47.27335" lon="-2.22463">
        <ele>-44.799999237061</ele>
        <time>2021-11-07T10:01:49.000Z</time>
      </trkpt>
      <trkpt lat="47.27332" lon="-2.22459">
        <ele>-45.200000762939</ele>
        <time>2021-11-07T10:01:50.000Z</time>
      </trkpt>
      <trkpt lat="47.27328" lon="-2.22455">
        <ele>-45.599998474121</ele>
        <time>2021-11-07T10:01:51.000Z</time>
      </trkpt>
      <trkpt lat="47.27325" lon="-2.2245">
        <ele>-46.200000762939</ele>
        <time>2021-11-07T10:01:52.000Z</time>
      </trkpt>
      <trkpt lat="47.27322" lon="-2.22446">
        <ele>-46.599998474121</ele>
        <time>2021-11-07T10:01:53.000Z</time>
      </trkpt>
      <trkpt lat="47.27319" lon="-2.22442">
        <ele>-47</ele>
        <time>2021-11-07T10:01:54.000Z</time>
      </trkpt>
      <trkpt lat="47.27304" lon="-2.22428">
        <ele>-47</ele>
        <time>2021-11-07T10:01:59.000Z</time>
      </trkpt>
      <trkpt lat="47.27286" lon="-2.22411">
        <ele>-47</ele>
        <time>2021-11-07T10:02:05.000Z</time>
      </trkpt>
      <trkpt lat="47.27278" lon="-2.22402">
        <ele>-47</ele>
        <time>2021-11-07T10:02:10.000Z</time>
      </trkpt>
      <trkpt lat="47.27278" lon="-2.22403">
        <ele>-47</ele>
        <time>2021-11-07T10:02:11.000Z</time>
      </trkpt>
      <trkpt lat="47.27279" lon="-2.22408">
        <ele>-47</ele>
        <time>2021-11-07T10:05:01.000Z</time>
      </trkpt>
      <trkpt lat="47.27278" lon="-2.2241">
        <ele>-47</ele>
        <time>2021-11-07T10:05:03.000Z</time>
      </trkpt>
      <trkpt lat="47.27278" lon="-2.22412">
        <ele>-47</ele>
        <time>2021-11-07T10:05:06.000Z</time>
      </trkpt>
      <trkpt lat="47.2728" lon="-2.22411">
        <ele>-47</ele>
        <time>2021-11-07T10:20:03.000Z</time>
      </trkpt>
      <trkpt lat="47.27281" lon="-2.22412">
        <ele>-47</ele>
        <time>2021-11-07T10:20:04.000Z</time>
      </trkpt>
      <trkpt lat="47.2729" lon="-2.2242">
        <ele>-47</ele>
        <time>2021-11-07T10:20:11.000Z</time>
      </trkpt>
      <trkpt lat="47.27299" lon="-2.22426">
        <ele>-47</ele>
        <time>2021-11-07T10:20:16.000Z</time>
      </trkpt>
      <trkpt lat="47.27316" lon="-2.22432">
        <ele>-47</ele>
        <time>2021-11-07T10:20:21.000Z</time>
      </trkpt>
      <trkpt lat="47.27343" lon="-2.22432">
        <ele>-47</ele>
        <time>2021-11-07T10:20:28.000Z</time>
      </trkpt>
      <trkpt lat="47.27361" lon="-2.22441">
        <ele>-47</ele>
        <time>2021-11-07T10:20:33.000Z</time>
      </trkpt>
      <trkpt lat="47.27386" lon="-2.22461">
        <ele>-47</ele>
        <time>2021-11-07T10:20:40.000Z</time>
      </trkpt>
      <trkpt lat="47.274" lon="-2.22474">
        <ele>-47</ele>
        <time>2021-11-07T10:20:45.000Z</time>
      </trkpt>
      <trkpt lat="47.27413" lon="-2.225">
        <ele>-47</ele>
        <time>2021-11-07T10:20:51.000Z</time>
      </trkpt>
      <trkpt lat="47.27426" lon="-2.22531">
        <ele>-47</ele>
        <time>2021-11-07T10:20:57.000Z</time>
      </trkpt>
      <trkpt lat="47.27429" lon="-2.22536">
        <ele>-47</ele>
        <time>2021-11-07T10:20:58.000Z</time>
      </trkpt>
      <trkpt lat="47.27444" lon="-2.22569">
        <ele>-47</ele>
        <time>2021-11-07T10:21:05.000Z</time>
      </trkpt>
      <trkpt lat="47.27459" lon="-2.22603">
        <ele>-47</ele>
        <time>2021-11-07T10:21:12.000Z</time>
      </trkpt>
      <trkpt lat="47.27474" lon="-2.22645">
        <ele>-47</ele>
        <time>2021-11-07T10:21:20.000Z</time>
      </trkpt>
      <trkpt lat="47.27487" lon="-2.227">
        <ele>-47</ele>
        <time>2021-11-07T10:21:29.000Z</time>
      </trkpt>
      <trkpt lat="47.27488" lon="-2.22707">
        <ele>-46.599998474121</ele>
        <time>2021-11-07T10:21:30.000Z</time>
      </trkpt>
      <trkpt lat="47.27489" lon="-2.22713">
        <ele>-46.200000762939</ele>
        <time>2021-11-07T10:21:31.000Z</time>
      </trkpt>
      <trkpt lat="47.2749" lon="-2.22719">
        <ele>-45.799999237061</ele>
        <time>2021-11-07T10:21:32.000Z</time>
      </trkpt>
      <trkpt lat="47.27491" lon="-2.22725">
        <ele>-45.400001525879</ele>
        <time>2021-11-07T10:21:33.000Z</time>
      </trkpt>
      <trkpt lat="47.27491" lon="-2.2273">
        <ele>-44.799999237061</ele>
        <time>2021-11-07T10:21:34.000Z</time>
      </trkpt>
      <trkpt lat="47.27492" lon="-2.22738">
        <ele>-44.799999237061</ele>
        <time>2021-11-07T10:21:36.000Z</time>
      </trkpt>
      <trkpt lat="47.27495" lon="-2.22747">
        <ele>-44.799999237061</ele>
        <time>2021-11-07T10:21:39.000Z</time>
      </trkpt>
      <trkpt lat="47.27496" lon="-2.22749">
        <ele>-44.799999237061</ele>
        <time>2021-11-07T10:21:40.000Z</time>
      </trkpt>
      <trkpt lat="47.27507" lon="-2.22755">
        <ele>-44.799999237061</ele>
        <time>2021-11-07T10:21:44.000Z</time>
      </trkpt>
      <trkpt lat="47.27515" lon="-2.2276">
        <ele>-44.799999237061</ele>
        <time>2021-11-07T10:21:46.000Z</time>
      </trkpt>
      <trkpt lat="47.27523" lon="-2.22762">
        <ele>-44.799999237061</ele>
        <time>2021-11-07T10:21:48.000Z</time>
      </trkpt>
      <trkpt lat="47.27534" lon="-2.22762">
        <ele>-44.799999237061</ele>
        <time>2021-11-07T10:21:50.000Z</time>
      </trkpt>
      <trkpt lat="47.27548" lon="-2.2276">
        <ele>-44.799999237061</ele>
        <time>2021-11-07T10:21:53.000Z</time>
      </trkpt>
      <trkpt lat="47.27579" lon="-2.22756">
        <ele>-44.799999237061</ele>
        <time>2021-11-07T10:21:59.000Z</time>
      </trkpt>
      <trkpt lat="47.27623" lon="-2.22751">
        <ele>-44.799999237061</ele>
        <time>2021-11-07T10:22:07.000Z</time>
      </trkpt>
      <trkpt lat="47.27662" lon="-2.22745">
        <ele>-44.799999237061</ele>
        <time>2021-11-07T10:22:15.000Z</time>
      </trkpt>
      <trkpt lat="47.27685" lon="-2.22742">
        <ele>-44.799999237061</ele>
        <time>2021-11-07T10:22:21.000Z</time>
      </trkpt>
      <trkpt lat="47.27696" lon="-2.2274">
        <ele>-44.799999237061</ele>
        <time>2021-11-07T10:22:25.000Z</time>
      </trkpt>
      <trkpt lat="47.27702" lon="-2.22752">
        <ele>-44.799999237061</ele>
        <time>2021-11-07T10:22:28.000Z</time>
      </trkpt>
      <trkpt lat="47.27703" lon="-2.22767">
        <ele>-44.799999237061</ele>
        <time>2021-11-07T10:22:30.000Z</time>
      </trkpt>
      <trkpt lat="47.27704" lon="-2.22791">
        <ele>-44.799999237061</ele>
        <time>2021-11-07T10:22:33.000Z</time>
      </trkpt>
      <trkpt lat="47.27704" lon="-2.22816">
        <ele>-44.799999237061</ele>
        <time>2021-11-07T10:22:36.000Z</time>
      </trkpt>
      <trkpt lat="47.27704" lon="-2.22841">
        <ele>-44.799999237061</ele>
        <time>2021-11-07T10:22:39.000Z</time>
      </trkpt>
      <trkpt lat="47.27704" lon="-2.22901">
        <ele>-45.200000762939</ele>
        <time>2021-11-07T10:22:46.000Z</time>
      </trkpt>
      <trkpt lat="47.27703" lon="-2.2291">
        <ele>-45.799999237061</ele>
        <time>2021-11-07T10:22:47.000Z</time>
      </trkpt>
      <trkpt lat="47.27702" lon="-2.2292">
        <ele>-46.599998474121</ele>
        <time>2021-11-07T10:22:48.000Z</time>
      </trkpt>
      <trkpt lat="47.27701" lon="-2.2293">
        <ele>-47</ele>
        <time>2021-11-07T10:22:49.000Z</time>
      </trkpt>
      <trkpt lat="47.27697" lon="-2.22966">
        <ele>-47</ele>
        <time>2021-11-07T10:22:53.000Z</time>
      </trkpt>
      <trkpt lat="47.27692" lon="-2.23015">
        <ele>-47</ele>
        <time>2021-11-07T10:22:59.000Z</time>
      </trkpt>
      <trkpt lat="47.27687" lon="-2.23064">
        <ele>-47</ele>
        <time>2021-11-07T10:23:05.000Z</time>
      </trkpt>
      <trkpt lat="47.27683" lon="-2.23096">
        <ele>-47</ele>
        <time>2021-11-07T10:23:09.000Z</time>
      </trkpt>
      <trkpt lat="47.27681" lon="-2.23137">
        <ele>-47</ele>
        <time>2021-11-07T10:23:14.000Z</time>
      </trkpt>
      <trkpt lat="47.27682" lon="-2.23146">
        <ele>-47</ele>
        <time>2021-11-07T10:23:15.000Z</time>
      </trkpt>
      <trkpt lat="47.27682" lon="-2.23155">
        <ele>-46.400001525879</ele>
        <time>2021-11-07T10:23:16.000Z</time>
      </trkpt>
      <trkpt lat="47.27682" lon="-2.23163">
        <ele>-46</ele>
        <time>2021-11-07T10:23:17.000Z</time>
      </trkpt>
      <trkpt lat="47.27682" lon="-2.23172">
        <ele>-45.599998474121</ele>
        <time>2021-11-07T10:23:18.000Z</time>
      </trkpt>
      <trkpt lat="47.27683" lon="-2.23181">
        <ele>-45.200000762939</ele>
        <time>2021-11-07T10:23:19.000Z</time>
      </trkpt>
      <trkpt lat="47.27683" lon="-2.23189">
        <ele>-44.799999237061</ele>
        <time>2021-11-07T10:23:20.000Z</time>
      </trkpt>
      <trkpt lat="47.27686" lon="-2.23223">
        <ele>-44.799999237061</ele>
        <time>2021-11-07T10:23:24.000Z</time>
      </trkpt>
      <trkpt lat="47.27692" lon="-2.23262">
        <ele>-44.400001525879</ele>
        <time>2021-11-07T10:23:29.000Z</time>
      </trkpt>
      <trkpt lat="47.27693" lon="-2.2327">
        <ele>-44</ele>
        <time>2021-11-07T10:23:30.000Z</time>
      </trkpt>
      <trkpt lat="47.27694" lon="-2.23277">
        <ele>-43.599998474121</ele>
        <time>2021-11-07T10:23:31.000Z</time>
      </trkpt>
      <trkpt lat="47.27695" lon="-2.23285">
        <ele>-43.200000762939</ele>
        <time>2021-11-07T10:23:32.000Z</time>
      </trkpt>
      <trkpt lat="47.27697" lon="-2.23293">
        <ele>-42.799999237061</ele>
        <time>2021-11-07T10:23:33.000Z</time>
      </trkpt>
      <trkpt lat="47.27708" lon="-2.23329">
        <ele>-42.400001525879</ele>
        <time>2021-11-07T10:23:38.000Z</time>
      </trkpt>
      <trkpt lat="47.2771" lon="-2.23335">
        <ele>-41.799999237061</ele>
        <time>2021-11-07T10:23:39.000Z</time>
      </trkpt>
      <trkpt lat="47.27711" lon="-2.23342">
        <ele>-41.400001525879</ele>
        <time>2021-11-07T10:23:40.000Z</time>
      </trkpt>
      <trkpt lat="47.27713" lon="-2.23349">
        <ele>-41</ele>
        <time>2021-11-07T10:23:41.000Z</time>
      </trkpt>
      <trkpt lat="47.27716" lon="-2.23356">
        <ele>-40.599998474121</ele>
        <time>2021-11-07T10:23:42.000Z</time>
      </trkpt>
      <trkpt lat="47.27722" lon="-2.23375">
        <ele>-40.599998474121</ele>
        <time>2021-11-07T10:23:45.000Z</time>
      </trkpt>
      <trkpt lat="47.27726" lon="-2.23388">
        <ele>-40.200000762939</ele>
        <time>2021-11-07T10:23:47.000Z</time>
      </trkpt>
      <trkpt lat="47.27728" lon="-2.23394">
        <ele>-39.799999237061</ele>
        <time>2021-11-07T10:23:48.000Z</time>
      </trkpt>
      <trkpt lat="47.27729" lon="-2.234">
        <ele>-39.400001525879</ele>
        <time>2021-11-07T10:23:49.000Z</time>
      </trkpt>
      <trkpt lat="47.27731" lon="-2.23406">
        <ele>-39</ele>
        <time>2021-11-07T10:23:50.000Z</time>
      </trkpt>
      <trkpt lat="47.27732" lon="-2.23411">
        <ele>-38.400001525879</ele>
        <time>2021-11-07T10:23:51.000Z</time>
      </trkpt>
      <trkpt lat="47.27734" lon="-2.23417">
        <ele>-38.400001525879</ele>
        <time>2021-11-07T10:23:52.000Z</time>
      </trkpt>
      <trkpt lat="47.2774" lon="-2.23445">
        <ele>-38</ele>
        <time>2021-11-07T10:23:57.000Z</time>
      </trkpt>
      <trkpt lat="47.27741" lon="-2.23451">
        <ele>-37.599998474121</ele>
        <time>2021-11-07T10:23:58.000Z</time>
      </trkpt>
      <trkpt lat="47.27742" lon="-2.23457">
        <ele>-37.200000762939</ele>
        <time>2021-11-07T10:23:59.000Z</time>
      </trkpt>
      <trkpt lat="47.27742" lon="-2.23464">
        <ele>-36.799999237061</ele>
        <time>2021-11-07T10:24:00.000Z</time>
      </trkpt>
      <trkpt lat="47.27743" lon="-2.2347">
        <ele>-36.400001525879</ele>
        <time>2021-11-07T10:24:01.000Z</time>
      </trkpt>
      <trkpt lat="47.27744" lon="-2.23488">
        <ele>-36.400001525879</ele>
        <time>2021-11-07T10:24:04.000Z</time>
      </trkpt>
      <trkpt lat="47.27745" lon="-2.23513">
        <ele>-36</ele>
        <time>2021-11-07T10:24:08.000Z</time>
      </trkpt>
      <trkpt lat="47.27745" lon="-2.23519">
        <ele>-35.599998474121</ele>
        <time>2021-11-07T10:24:09.000Z</time>
      </trkpt>
      <trkpt lat="47.27745" lon="-2.23525">
        <ele>-35.200000762939</ele>
        <time>2021-11-07T10:24:10.000Z</time>
      </trkpt>
      <trkpt lat="47.27746" lon="-2.23532">
        <ele>-34.799999237061</ele>
        <time>2021-11-07T10:24:11.000Z</time>
      </trkpt>
      <trkpt lat="47.27746" lon="-2.23538">
        <ele>-34.400001525879</ele>
        <time>2021-11-07T10:24:12.000Z</time>
      </trkpt>
      <trkpt lat="47.27748" lon="-2.2358">
        <ele>-34.400001525879</ele>
        <time>2021-11-07T10:24:19.000Z</time>
      </trkpt>
      <trkpt lat="47.2775" lon="-2.23606">
        <ele>-34</ele>
        <time>2021-11-07T10:24:23.000Z</time>
      </trkpt>
      <trkpt lat="47.27751" lon="-2.23612">
        <ele>-33.599998474121</ele>
        <time>2021-11-07T10:24:24.000Z</time>
      </trkpt>
      <trkpt lat="47.27751" lon="-2.23619">
        <ele>-33.200000762939</ele>
        <time>2021-11-07T10:24:25.000Z</time>
      </trkpt>
      <trkpt lat="47.27752" lon="-2.23625">
        <ele>-32.799999237061</ele>
        <time>2021-11-07T10:24:26.000Z</time>
      </trkpt>
      <trkpt lat="47.27752" lon="-2.23631">
        <ele>-32.400001525879</ele>
        <time>2021-11-07T10:24:27.000Z</time>
      </trkpt>
      <trkpt lat="47.27758" lon="-2.23673">
        <ele>-32.400001525879</ele>
        <time>2021-11-07T10:24:34.000Z</time>
      </trkpt>
      <trkpt lat="47.2776" lon="-2.23684">
        <ele>-32</ele>
        <time>2021-11-07T10:24:36.000Z</time>
      </trkpt>
      <trkpt lat="47.27762" lon="-2.2369">
        <ele>-31.60000038147</ele>
        <time>2021-11-07T10:24:37.000Z</time>
      </trkpt>
      <trkpt lat="47.27763" lon="-2.23695">
        <ele>-31.200000762939</ele>
        <time>2021-11-07T10:24:38.000Z</time>
      </trkpt>
      <trkpt lat="47.27765" lon="-2.23701">
        <ele>-30.60000038147</ele>
        <time>2021-11-07T10:24:39.000Z</time>
      </trkpt>
      <trkpt lat="47.27767" lon="-2.23706">
        <ele>-30.200000762939</ele>
        <time>2021-11-07T10:24:40.000Z</time>
      </trkpt>
      <trkpt lat="47.27771" lon="-2.23718">
        <ele>-30.200000762939</ele>
        <time>2021-11-07T10:24:42.000Z</time>
      </trkpt>
      <trkpt lat="47.27775" lon="-2.23736">
        <ele>-30.200000762939</ele>
        <time>2021-11-07T10:24:45.000Z</time>
      </trkpt>
      <trkpt lat="47.27783" lon="-2.23779">
        <ele>-30.200000762939</ele>
        <time>2021-11-07T10:24:52.000Z</time>
      </trkpt>
      <trkpt lat="47.27784" lon="-2.23785">
        <ele>-29.799999237061</ele>
        <time>2021-11-07T10:24:53.000Z</time>
      </trkpt>
      <trkpt lat="47.27785" lon="-2.23792">
        <ele>-29.39999961853</ele>
        <time>2021-11-07T10:24:54.000Z</time>
      </trkpt>
      <trkpt lat="47.27786" lon="-2.23798">
        <ele>-29</ele>
        <time>2021-11-07T10:24:55.000Z</time>
      </trkpt>
      <trkpt lat="47.27787" lon="-2.23805">
        <ele>-28.60000038147</ele>
        <time>2021-11-07T10:24:56.000Z</time>
      </trkpt>
      <trkpt lat="47.27788" lon="-2.23811">
        <ele>-28.200000762939</ele>
        <time>2021-11-07T10:24:57.000Z</time>
      </trkpt>
      <trkpt lat="47.2779" lon="-2.23824">
        <ele>-28.200000762939</ele>
        <time>2021-11-07T10:24:59.000Z</time>
      </trkpt>
      <trkpt lat="47.27798" lon="-2.23875">
        <ele>-28.200000762939</ele>
        <time>2021-11-07T10:25:07.000Z</time>
      </trkpt>
      <trkpt lat="47.27801" lon="-2.23888">
        <ele>-28.200000762939</ele>
        <time>2021-11-07T10:25:09.000Z</time>
      </trkpt>
      <trkpt lat="47.27809" lon="-2.2392">
        <ele>-27.799999237061</ele>
        <time>2021-11-07T10:25:14.000Z</time>
      </trkpt>
      <trkpt lat="47.27811" lon="-2.23926">
        <ele>-27</ele>
        <time>2021-11-07T10:25:15.000Z</time>
      </trkpt>
      <trkpt lat="47.27813" lon="-2.23932">
        <ele>-26.60000038147</ele>
        <time>2021-11-07T10:25:16.000Z</time>
      </trkpt>
      <trkpt lat="47.27815" lon="-2.23937">
        <ele>-26</ele>
        <time>2021-11-07T10:25:17.000Z</time>
      </trkpt>
      <trkpt lat="47.27826" lon="-2.23959">
        <ele>-26</ele>
        <time>2021-11-07T10:25:21.000Z</time>
      </trkpt>
      <trkpt lat="47.27846" lon="-2.23995">
        <ele>-26</ele>
        <time>2021-11-07T10:25:28.000Z</time>
      </trkpt>
      <trkpt lat="47.27858" lon="-2.24011">
        <ele>-26</ele>
        <time>2021-11-07T10:25:33.000Z</time>
      </trkpt>
      <trkpt lat="47.27864" lon="-2.24016">
        <ele>-26</ele>
        <time>2021-11-07T10:25:37.000Z</time>
      </trkpt>
      <trkpt lat="47.27865" lon="-2.24017">
        <ele>-26</ele>
        <time>2021-11-07T10:25:38.000Z</time>
      </trkpt>
      <trkpt lat="47.27865" lon="-2.24017">
        <ele>-26</ele>
        <time>2021-11-07T10:25:39.000Z</time>
      </trkpt>
      <trkpt lat="47.27865" lon="-2.24019">
        <ele>-26</ele>
        <time>2021-11-07T10:25:59.000Z</time>
      </trkpt>
      <trkpt lat="47.27867" lon="-2.24024">
        <ele>-26</ele>
        <time>2021-11-07T10:26:01.000Z</time>
      </trkpt>
      <trkpt lat="47.27874" lon="-2.2404">
        <ele>-26</ele>
        <time>2021-11-07T10:26:06.000Z</time>
      </trkpt>
      <trkpt lat="47.27886" lon="-2.24061">
        <ele>-26</ele>
        <time>2021-11-07T10:26:11.000Z</time>
      </trkpt>
      <trkpt lat="47.27895" lon="-2.24067">
        <ele>-26</ele>
        <time>2021-11-07T10:26:15.000Z</time>
      </trkpt>
      <trkpt lat="47.27905" lon="-2.2407">
        <ele>-26</ele>
        <time>2021-11-07T10:26:18.000Z</time>
      </trkpt>
      <trkpt lat="47.2791" lon="-2.24069">
        <ele>-26</ele>
        <time>2021-11-07T10:26:19.000Z</time>
      </trkpt>
      <trkpt lat="47.27915" lon="-2.24066">
        <ele>-26.39999961853</ele>
        <time>2021-11-07T10:26:20.000Z</time>
      </trkpt>
      <trkpt lat="47.27919" lon="-2.24064">
        <ele>-26.799999237061</ele>
        <time>2021-11-07T10:26:21.000Z</time>
      </trkpt>
      <trkpt lat="47.27924" lon="-2.24062">
        <ele>-27.200000762939</ele>
        <time>2021-11-07T10:26:22.000Z</time>
      </trkpt>
      <trkpt lat="47.27929" lon="-2.24059">
        <ele>-27.799999237061</ele>
        <time>2021-11-07T10:26:23.000Z</time>
      </trkpt>
      <trkpt lat="47.27935" lon="-2.24056">
        <ele>-28.200000762939</ele>
        <time>2021-11-07T10:26:24.000Z</time>
      </trkpt>
      <trkpt lat="47.27951" lon="-2.24045">
        <ele>-28.60000038147</ele>
        <time>2021-11-07T10:26:27.000Z</time>
      </trkpt>
      <trkpt lat="47.27956" lon="-2.24041">
        <ele>-29</ele>
        <time>2021-11-07T10:26:28.000Z</time>
      </trkpt>
      <trkpt lat="47.27962" lon="-2.24037">
        <ele>-30</ele>
        <time>2021-11-07T10:26:29.000Z</time>
      </trkpt>
      <trkpt lat="47.27969" lon="-2.24034">
        <ele>-30.39999961853</ele>
        <time>2021-11-07T10:26:30.000Z</time>
      </trkpt>
      <trkpt lat="47.27993" lon="-2.24021">
        <ele>-30.39999961853</ele>
        <time>2021-11-07T10:26:34.000Z</time>
      </trkpt>
      <trkpt lat="47.28011" lon="-2.24013">
        <ele>-31</ele>
        <time>2021-11-07T10:26:37.000Z</time>
      </trkpt>
      <trkpt lat="47.28018" lon="-2.24009">
        <ele>-31.39999961853</ele>
        <time>2021-11-07T10:26:38.000Z</time>
      </trkpt>
      <trkpt lat="47.28025" lon="-2.24006">
        <ele>-31.799999237061</ele>
        <time>2021-11-07T10:26:39.000Z</time>
      </trkpt>
      <trkpt lat="47.28031" lon="-2.24003">
        <ele>-32.200000762939</ele>
        <time>2021-11-07T10:26:40.000Z</time>
      </trkpt>
      <trkpt lat="47.28038" lon="-2.23999">
        <ele>-32.799999237061</ele>
        <time>2021-11-07T10:26:41.000Z</time>
      </trkpt>
      <trkpt lat="47.28069" lon="-2.23983">
        <ele>-32.799999237061</ele>
        <time>2021-11-07T10:26:46.000Z</time>
      </trkpt>
      <trkpt lat="47.28082" lon="-2.23977">
        <ele>-33.200000762939</ele>
        <time>2021-11-07T10:26:48.000Z</time>
      </trkpt>
      <trkpt lat="47.28088" lon="-2.23973">
        <ele>-33.599998474121</ele>
        <time>2021-11-07T10:26:49.000Z</time>
      </trkpt>
      <trkpt lat="47.28095" lon="-2.23969">
        <ele>-34</ele>
        <time>2021-11-07T10:26:50.000Z</time>
      </trkpt>
      <trkpt lat="47.28101" lon="-2.23965">
        <ele>-34.400001525879</ele>
        <time>2021-11-07T10:26:51.000Z</time>
      </trkpt>
      <trkpt lat="47.28107" lon="-2.2396">
        <ele>-34.799999237061</ele>
        <time>2021-11-07T10:26:52.000Z</time>
      </trkpt>
      <trkpt lat="47.28131" lon="-2.23939">
        <ele>-35.200000762939</ele>
        <time>2021-11-07T10:26:56.000Z</time>
      </trkpt>
      <trkpt lat="47.28136" lon="-2.23932">
        <ele>-35.799999237061</ele>
        <time>2021-11-07T10:26:57.000Z</time>
      </trkpt>
      <trkpt lat="47.28142" lon="-2.23925">
        <ele>-36.200000762939</ele>
        <time>2021-11-07T10:26:58.000Z</time>
      </trkpt>
      <trkpt lat="47.28147" lon="-2.23918">
        <ele>-36.599998474121</ele>
        <time>2021-11-07T10:26:59.000Z</time>
      </trkpt>
      <trkpt lat="47.28153" lon="-2.2391">
        <ele>-37</ele>
        <time>2021-11-07T10:27:00.000Z</time>
      </trkpt>
      <trkpt lat="47.28166" lon="-2.23887">
        <ele>-37</ele>
        <time>2021-11-07T10:27:03.000Z</time>
      </trkpt>
      <trkpt lat="47.2817" lon="-2.23879">
        <ele>-37</ele>
        <time>2021-11-07T10:27:04.000Z</time>
      </trkpt>
      <trkpt lat="47.28188" lon="-2.23841">
        <ele>-37.400001525879</ele>
        <time>2021-11-07T10:27:09.000Z</time>
      </trkpt>
      <trkpt lat="47.28191" lon="-2.23834">
        <ele>-38</ele>
        <time>2021-11-07T10:27:10.000Z</time>
      </trkpt>
      <trkpt lat="47.28195" lon="-2.23827">
        <ele>-38.400001525879</ele>
        <time>2021-11-07T10:27:11.000Z</time>
      </trkpt>
      <trkpt lat="47.28198" lon="-2.2382">
        <ele>-38.799999237061</ele>
        <time>2021-11-07T10:27:12.000Z</time>
      </trkpt>
      <trkpt lat="47.28201" lon="-2.23814">
        <ele>-39.200000762939</ele>
        <time>2021-11-07T10:27:13.000Z</time>
      </trkpt>
      <trkpt lat="47.28214" lon="-2.23799">
        <ele>-39.200000762939</ele>
        <time>2021-11-07T10:27:16.000Z</time>
      </trkpt>
      <trkpt lat="47.28218" lon="-2.23795">
        <ele>-39.200000762939</ele>
        <time>2021-11-07T10:27:17.000Z</time>
      </trkpt>
      <trkpt lat="47.28227" lon="-2.23787">
        <ele>-39.200000762939</ele>
        <time>2021-11-07T10:27:19.000Z</time>
      </trkpt>
      <trkpt lat="47.28238" lon="-2.23778">
        <ele>-39.200000762939</ele>
        <time>2021-11-07T10:27:22.000Z</time>
      </trkpt>
      <trkpt lat="47.28256" lon="-2.23767">
        <ele>-39.200000762939</ele>
        <time>2021-11-07T10:27:28.000Z</time>
      </trkpt>
      <trkpt lat="47.28281" lon="-2.2376">
        <ele>-39.200000762939</ele>
        <time>2021-11-07T10:27:33.000Z</time>
      </trkpt>
      <trkpt lat="47.28311" lon="-2.23755">
        <ele>-39.599998474121</ele>
        <time>2021-11-07T10:27:38.000Z</time>
      </trkpt>
      <trkpt lat="47.28317" lon="-2.23754">
        <ele>-40</ele>
        <time>2021-11-07T10:27:39.000Z</time>
      </trkpt>
      <trkpt lat="47.28323" lon="-2.23753">
        <ele>-40.400001525879</ele>
        <time>2021-11-07T10:27:40.000Z</time>
      </trkpt>
      <trkpt lat="47.28329" lon="-2.23752">
        <ele>-40.799999237061</ele>
        <time>2021-11-07T10:27:41.000Z</time>
      </trkpt>
      <trkpt lat="47.28335" lon="-2.23751">
        <ele>-41.200000762939</ele>
        <time>2021-11-07T10:27:42.000Z</time>
      </trkpt>
      <trkpt lat="47.28365" lon="-2.23748">
        <ele>-41.200000762939</ele>
        <time>2021-11-07T10:27:47.000Z</time>
      </trkpt>
      <trkpt lat="47.28377" lon="-2.23748">
        <ele>-41.599998474121</ele>
        <time>2021-11-07T10:27:49.000Z</time>
      </trkpt>
      <trkpt lat="47.28383" lon="-2.23748">
        <ele>-42</ele>
        <time>2021-11-07T10:27:50.000Z</time>
      </trkpt>
      <trkpt lat="47.28389" lon="-2.23748">
        <ele>-42.400001525879</ele>
        <time>2021-11-07T10:27:51.000Z</time>
      </trkpt>
      <trkpt lat="47.28395" lon="-2.23748">
        <ele>-42.799999237061</ele>
        <time>2021-11-07T10:27:52.000Z</time>
      </trkpt>
      <trkpt lat="47.28402" lon="-2.23749">
        <ele>-43.200000762939</ele>
        <time>2021-11-07T10:27:53.000Z</time>
      </trkpt>
      <trkpt lat="47.28421" lon="-2.23749">
        <ele>-43.200000762939</ele>
        <time>2021-11-07T10:27:56.000Z</time>
      </trkpt>
      <trkpt lat="47.28427" lon="-2.2375">
        <ele>-43.200000762939</ele>
        <time>2021-11-07T10:27:57.000Z</time>
      </trkpt>
      <trkpt lat="47.28441" lon="-2.23752">
        <ele>-43.200000762939</ele>
        <time>2021-11-07T10:27:59.000Z</time>
      </trkpt>
      <trkpt lat="47.28469" lon="-2.23753">
        <ele>-43.200000762939</ele>
        <time>2021-11-07T10:28:03.000Z</time>
      </trkpt>
      <trkpt lat="47.28497" lon="-2.23753">
        <ele>-43.599998474121</ele>
        <time>2021-11-07T10:28:07.000Z</time>
      </trkpt>
      <trkpt lat="47.28504" lon="-2.23754">
        <ele>-44.599998474121</ele>
        <time>2021-11-07T10:28:08.000Z</time>
      </trkpt>
      <trkpt lat="47.28511" lon="-2.23753">
        <ele>-45</ele>
        <time>2021-11-07T10:28:09.000Z</time>
      </trkpt>
      <trkpt lat="47.28518" lon="-2.23751">
        <ele>-45.400001525879</ele>
        <time>2021-11-07T10:28:10.000Z</time>
      </trkpt>
      <trkpt lat="47.28544" lon="-2.23739">
        <ele>-45.400001525879</ele>
        <time>2021-11-07T10:28:14.000Z</time>
      </trkpt>
      <trkpt lat="47.2855" lon="-2.23735">
        <ele>-45.400001525879</ele>
        <time>2021-11-07T10:28:15.000Z</time>
      </trkpt>
      <trkpt lat="47.28593" lon="-2.23705">
        <ele>-45.400001525879</ele>
        <time>2021-11-07T10:28:22.000Z</time>
      </trkpt>
      <trkpt lat="47.28598" lon="-2.23698">
        <ele>-45.400001525879</ele>
        <time>2021-11-07T10:28:23.000Z</time>
      </trkpt>
      <trkpt lat="47.28614" lon="-2.23666">
        <ele>-45.400001525879</ele>
        <time>2021-11-07T10:28:27.000Z</time>
      </trkpt>
      <trkpt lat="47.28618" lon="-2.2365">
        <ele>-45.400001525879</ele>
        <time>2021-11-07T10:28:29.000Z</time>
      </trkpt>
      <trkpt lat="47.28621" lon="-2.23633">
        <ele>-45.400001525879</ele>
        <time>2021-11-07T10:28:31.000Z</time>
      </trkpt>
      <trkpt lat="47.28617" lon="-2.23609">
        <ele>-45.400001525879</ele>
        <time>2021-11-07T10:28:34.000Z</time>
      </trkpt>
      <trkpt lat="47.28607" lon="-2.23579">
        <ele>-45.400001525879</ele>
        <time>2021-11-07T10:28:37.000Z</time>
      </trkpt>
      <trkpt lat="47.28616" lon="-2.23572">
        <ele>-45.400001525879</ele>
        <time>2021-11-07T10:28:40.000Z</time>
      </trkpt>
      <trkpt lat="47.28619" lon="-2.23571">
        <ele>-45.799999237061</ele>
        <time>2021-11-07T10:28:41.000Z</time>
      </trkpt>
      <trkpt lat="47.28623" lon="-2.23569">
        <ele>-46.200000762939</ele>
        <time>2021-11-07T10:28:42.000Z</time>
      </trkpt>
      <trkpt lat="47.28626" lon="-2.23567">
        <ele>-46.599998474121</ele>
        <time>2021-11-07T10:28:43.000Z</time>
      </trkpt>
      <trkpt lat="47.28629" lon="-2.23565">
        <ele>-47</ele>
        <time>2021-11-07T10:28:44.000Z</time>
      </trkpt>
      <trkpt lat="47.28632" lon="-2.23563">
        <ele>-47.400001525879</ele>
        <time>2021-11-07T10:28:45.000Z</time>
      </trkpt>
      <trkpt lat="47.28634" lon="-2.23562">
        <ele>-47.400001525879</ele>
        <time>2021-11-07T10:28:46.000Z</time>
      </trkpt>
      <trkpt lat="47.28647" lon="-2.23559">
        <ele>-47.400001525879</ele>
        <time>2021-11-07T10:28:51.000Z</time>
      </trkpt>
      <trkpt lat="47.28653" lon="-2.23548">
        <ele>-47.400001525879</ele>
        <time>2021-11-07T10:28:55.000Z</time>
      </trkpt>
      <trkpt lat="47.28652" lon="-2.23544">
        <ele>-47.400001525879</ele>
        <time>2021-11-07T10:28:56.000Z</time>
      </trkpt>
      <trkpt lat="47.28651" lon="-2.23534">
        <ele>-47.400001525879</ele>
        <time>2021-11-07T10:28:59.000Z</time>
      </trkpt>
      <trkpt lat="47.28652" lon="-2.23528">
        <ele>-47.400001525879</ele>
        <time>2021-11-07T10:29:01.000Z</time>
      </trkpt>
      <trkpt lat="47.28654" lon="-2.23508">
        <ele>-47.400001525879</ele>
        <time>2021-11-07T10:29:05.000Z</time>
      </trkpt>
      <trkpt lat="47.28655" lon="-2.23501">
        <ele>-47.400001525879</ele>
        <time>2021-11-07T10:29:06.000Z</time>
      </trkpt>
      <trkpt lat="47.28655" lon="-2.23489">
        <ele>-47.400001525879</ele>
        <time>2021-11-07T10:29:08.000Z</time>
      </trkpt>
      <trkpt lat="47.28657" lon="-2.2347">
        <ele>-47.400001525879</ele>
        <time>2021-11-07T10:29:11.000Z</time>
      </trkpt>
      <trkpt lat="47.28656" lon="-2.23454">
        <ele>-47.400001525879</ele>
        <time>2021-11-07T10:29:13.000Z</time>
      </trkpt>
      <trkpt lat="47.28652" lon="-2.23432">
        <ele>-47.400001525879</ele>
        <time>2021-11-07T10:29:16.000Z</time>
      </trkpt>
      <trkpt lat="47.28645" lon="-2.234">
        <ele>-47.400001525879</ele>
        <time>2021-11-07T10:29:20.000Z</time>
      </trkpt>
      <trkpt lat="47.28645" lon="-2.23392">
        <ele>-47.400001525879</ele>
        <time>2021-11-07T10:29:21.000Z</time>
      </trkpt>
      <trkpt lat="47.28653" lon="-2.23365">
        <ele>-47.400001525879</ele>
        <time>2021-11-07T10:29:25.000Z</time>
      </trkpt>
      <trkpt lat="47.28661" lon="-2.23364">
        <ele>-47.400001525879</ele>
        <time>2021-11-07T10:29:28.000Z</time>
      </trkpt>
      <trkpt lat="47.28664" lon="-2.23363">
        <ele>-47.400001525879</ele>
        <time>2021-11-07T10:29:29.000Z</time>
      </trkpt>
      <trkpt lat="47.28668" lon="-2.23358">
        <ele>-47.400001525879</ele>
        <time>2021-11-07T10:29:31.000Z</time>
      </trkpt>
      <trkpt lat="47.2867" lon="-2.23342">
        <ele>-47.400001525879</ele>
        <time>2021-11-07T10:29:34.000Z</time>
      </trkpt>
      <trkpt lat="47.28671" lon="-2.23337">
        <ele>-47.400001525879</ele>
        <time>2021-11-07T10:29:35.000Z</time>
      </trkpt>
      <trkpt lat="47.28671" lon="-2.23325">
        <ele>-47</ele>
        <time>2021-11-07T10:29:37.000Z</time>
      </trkpt>
      <trkpt lat="47.28672" lon="-2.23319">
        <ele>-46.599998474121</ele>
        <time>2021-11-07T10:29:38.000Z</time>
      </trkpt>
      <trkpt lat="47.28673" lon="-2.23313">
        <ele>-46.200000762939</ele>
        <time>2021-11-07T10:29:39.000Z</time>
      </trkpt>
      <trkpt lat="47.28673" lon="-2.23307">
        <ele>-45.799999237061</ele>
        <time>2021-11-07T10:29:40.000Z</time>
      </trkpt>
      <trkpt lat="47.28673" lon="-2.23303">
        <ele>-45.400001525879</ele>
        <time>2021-11-07T10:29:41.000Z</time>
      </trkpt>
      <trkpt lat="47.28674" lon="-2.23282">
        <ele>-45.400001525879</ele>
        <time>2021-11-07T10:29:45.000Z</time>
      </trkpt>
      <trkpt lat="47.28678" lon="-2.23272">
        <ele>-45.400001525879</ele>
        <time>2021-11-07T10:29:48.000Z</time>
      </trkpt>
      <trkpt lat="47.28682" lon="-2.2325">
        <ele>-45.400001525879</ele>
        <time>2021-11-07T10:29:53.000Z</time>
      </trkpt>
      <trkpt lat="47.2868" lon="-2.23222">
        <ele>-45.400001525879</ele>
        <time>2021-11-07T10:29:59.000Z</time>
      </trkpt>
      <trkpt lat="47.28678" lon="-2.23215">
        <ele>-45.400001525879</ele>
        <time>2021-11-07T10:30:00.000Z</time>
      </trkpt>
      <trkpt lat="47.28673" lon="-2.23203">
        <ele>-45.400001525879</ele>
        <time>2021-11-07T10:30:02.000Z</time>
      </trkpt>
      <trkpt lat="47.2867" lon="-2.23198">
        <ele>-46</ele>
        <time>2021-11-07T10:30:03.000Z</time>
      </trkpt>
      <trkpt lat="47.28666" lon="-2.23193">
        <ele>-46.400001525879</ele>
        <time>2021-11-07T10:30:04.000Z</time>
      </trkpt>
      <trkpt lat="47.28663" lon="-2.23189">
        <ele>-46.799999237061</ele>
        <time>2021-11-07T10:30:05.000Z</time>
      </trkpt>
      <trkpt lat="47.28658" lon="-2.23186">
        <ele>-47.200000762939</ele>
        <time>2021-11-07T10:30:06.000Z</time>
      </trkpt>
      <trkpt lat="47.28654" lon="-2.23183">
        <ele>-47.799999237061</ele>
        <time>2021-11-07T10:30:07.000Z</time>
      </trkpt>
      <trkpt lat="47.2865" lon="-2.23181">
        <ele>-47.799999237061</ele>
        <time>2021-11-07T10:30:08.000Z</time>
      </trkpt>
      <trkpt lat="47.28646" lon="-2.2318">
        <ele>-47.799999237061</ele>
        <time>2021-11-07T10:30:09.000Z</time>
      </trkpt>
      <trkpt lat="47.28637" lon="-2.23183">
        <ele>-47.799999237061</ele>
        <time>2021-11-07T10:30:12.000Z</time>
      </trkpt>
      <trkpt lat="47.28633" lon="-2.23186">
        <ele>-47.799999237061</ele>
        <time>2021-11-07T10:30:13.000Z</time>
      </trkpt>
      <trkpt lat="47.28612" lon="-2.23199">
        <ele>-47.799999237061</ele>
        <time>2021-11-07T10:30:18.000Z</time>
      </trkpt>
      <trkpt lat="47.286" lon="-2.23215">
        <ele>-47.799999237061</ele>
        <time>2021-11-07T10:30:22.000Z</time>
      </trkpt>
      <trkpt lat="47.28594" lon="-2.23242">
        <ele>-47.799999237061</ele>
        <time>2021-11-07T10:30:26.000Z</time>
      </trkpt>
      <trkpt lat="47.28592" lon="-2.23256">
        <ele>-47.799999237061</ele>
        <time>2021-11-07T10:30:28.000Z</time>
      </trkpt>
      <trkpt lat="47.28594" lon="-2.2328">
        <ele>-47.799999237061</ele>
        <time>2021-11-07T10:30:31.000Z</time>
      </trkpt>
      <trkpt lat="47.28596" lon="-2.23288">
        <ele>-47.799999237061</ele>
        <time>2021-11-07T10:30:32.000Z</time>
      </trkpt>
      <trkpt lat="47.28606" lon="-2.23304">
        <ele>-47.799999237061</ele>
        <time>2021-11-07T10:30:35.000Z</time>
      </trkpt>
      <trkpt lat="47.28616" lon="-2.23306">
        <ele>-47.799999237061</ele>
        <time>2021-11-07T10:30:37.000Z</time>
      </trkpt>
      <trkpt lat="47.28626" lon="-2.23307">
        <ele>-47.799999237061</ele>
        <time>2021-11-07T10:30:39.000Z</time>
      </trkpt>
      <trkpt lat="47.28647" lon="-2.23303">
        <ele>-47.799999237061</ele>
        <time>2021-11-07T10:30:44.000Z</time>
      </trkpt>
      <trkpt lat="47.28666" lon="-2.23305">
        <ele>-47.799999237061</ele>
        <time>2021-11-07T10:30:50.000Z</time>
      </trkpt>
      <trkpt lat="47.28667" lon="-2.23303">
        <ele>-47.200000762939</ele>
        <time>2021-11-07T10:30:51.000Z</time>
      </trkpt>
      <trkpt lat="47.28666" lon="-2.233">
        <ele>-46.799999237061</ele>
        <time>2021-11-07T10:30:52.000Z</time>
      </trkpt>
      <trkpt lat="47.28666" lon="-2.23297">
        <ele>-46.400001525879</ele>
        <time>2021-11-07T10:30:53.000Z</time>
      </trkpt>
      <trkpt lat="47.28665" lon="-2.23296">
        <ele>-46</ele>
        <time>2021-11-07T10:30:54.000Z</time>
      </trkpt>
      <trkpt lat="47.28663" lon="-2.23296">
        <ele>-45.599998474121</ele>
        <time>2021-11-07T10:30:55.000Z</time>
      </trkpt>
      <trkpt lat="47.28658" lon="-2.23304">
        <ele>-45.599998474121</ele>
        <time>2021-11-07T10:30:58.000Z</time>
      </trkpt>
      <trkpt lat="47.28657" lon="-2.23309">
        <ele>-46</ele>
        <time>2021-11-07T10:31:00.000Z</time>
      </trkpt>
      <trkpt lat="47.28657" lon="-2.23311">
        <ele>-46.400001525879</ele>
        <time>2021-11-07T10:31:01.000Z</time>
      </trkpt>
      <trkpt lat="47.28657" lon="-2.23313">
        <ele>-47.400001525879</ele>
        <time>2021-11-07T10:31:02.000Z</time>
      </trkpt>
      <trkpt lat="47.28657" lon="-2.23314">
        <ele>-47.799999237061</ele>
        <time>2021-11-07T10:31:03.000Z</time>
      </trkpt>
      <trkpt lat="47.28659" lon="-2.2333">
        <ele>-47.799999237061</ele>
        <time>2021-11-07T10:31:08.000Z</time>
      </trkpt>
      <trkpt lat="47.28657" lon="-2.23354">
        <ele>-47.799999237061</ele>
        <time>2021-11-07T10:31:14.000Z</time>
      </trkpt>
      <trkpt lat="47.28654" lon="-2.23383">
        <ele>-47.799999237061</ele>
        <time>2021-11-07T10:31:19.000Z</time>
      </trkpt>
      <trkpt lat="47.28652" lon="-2.23399">
        <ele>-47.799999237061</ele>
        <time>2021-11-07T10:31:21.000Z</time>
      </trkpt>
      <trkpt lat="47.28652" lon="-2.23413">
        <ele>-47.799999237061</ele>
        <time>2021-11-07T10:31:23.000Z</time>
      </trkpt>
      <trkpt lat="47.28658" lon="-2.23434">
        <ele>-47.799999237061</ele>
        <time>2021-11-07T10:31:27.000Z</time>
      </trkpt>
      <trkpt lat="47.28662" lon="-2.23464">
        <ele>-47.799999237061</ele>
        <time>2021-11-07T10:31:32.000Z</time>
      </trkpt>
      <trkpt lat="47.2866" lon="-2.23485">
        <ele>-47.799999237061</ele>
        <time>2021-11-07T10:31:35.000Z</time>
      </trkpt>
      <trkpt lat="47.2866" lon="-2.23491">
        <ele>-47.799999237061</ele>
        <time>2021-11-07T10:31:36.000Z</time>
      </trkpt>
      <trkpt lat="47.28657" lon="-2.23516">
        <ele>-47.799999237061</ele>
        <time>2021-11-07T10:31:40.000Z</time>
      </trkpt>
      <trkpt lat="47.28657" lon="-2.23524">
        <ele>-47.799999237061</ele>
        <time>2021-11-07T10:31:41.000Z</time>
      </trkpt>
      <trkpt lat="47.28661" lon="-2.23555">
        <ele>-47.799999237061</ele>
        <time>2021-11-07T10:31:46.000Z</time>
      </trkpt>
      <trkpt lat="47.28672" lon="-2.23563">
        <ele>-47.799999237061</ele>
        <time>2021-11-07T10:31:49.000Z</time>
      </trkpt>
      <trkpt lat="47.28682" lon="-2.23574">
        <ele>-47.799999237061</ele>
        <time>2021-11-07T10:31:52.000Z</time>
      </trkpt>
      <trkpt lat="47.28691" lon="-2.23588">
        <ele>-47.799999237061</ele>
        <time>2021-11-07T10:31:55.000Z</time>
      </trkpt>
      <trkpt lat="47.28704" lon="-2.23615">
        <ele>-47.799999237061</ele>
        <time>2021-11-07T10:32:01.000Z</time>
      </trkpt>
      <trkpt lat="47.28714" lon="-2.23636">
        <ele>-47.799999237061</ele>
        <time>2021-11-07T10:32:07.000Z</time>
      </trkpt>
      <trkpt lat="47.28727" lon="-2.23663">
        <ele>-47.799999237061</ele>
        <time>2021-11-07T10:32:14.000Z</time>
      </trkpt>
      <trkpt lat="47.28743" lon="-2.23694">
        <ele>-47.799999237061</ele>
        <time>2021-11-07T10:32:21.000Z</time>
      </trkpt>
      <trkpt lat="47.28759" lon="-2.23713">
        <ele>-47.799999237061</ele>
        <time>2021-11-07T10:32:26.000Z</time>
      </trkpt>
      <trkpt lat="47.28784" lon="-2.23753">
        <ele>-47.799999237061</ele>
        <time>2021-11-07T10:32:35.000Z</time>
      </trkpt>
      <trkpt lat="47.28801" lon="-2.23789">
        <ele>-47.799999237061</ele>
        <time>2021-11-07T10:32:42.000Z</time>
      </trkpt>
      <trkpt lat="47.2882" lon="-2.23824">
        <ele>-47.799999237061</ele>
        <time>2021-11-07T10:32:49.000Z</time>
      </trkpt>
      <trkpt lat="47.28836" lon="-2.2387">
        <ele>-47.799999237061</ele>
        <time>2021-11-07T10:32:57.000Z</time>
      </trkpt>
      <trkpt lat="47.28838" lon="-2.23876">
        <ele>-47.400001525879</ele>
        <time>2021-11-07T10:32:58.000Z</time>
      </trkpt>
      <trkpt lat="47.2884" lon="-2.23881">
        <ele>-47</ele>
        <time>2021-11-07T10:32:59.000Z</time>
      </trkpt>
      <trkpt lat="47.28842" lon="-2.23887">
        <ele>-46.599998474121</ele>
        <time>2021-11-07T10:33:00.000Z</time>
      </trkpt>
      <trkpt lat="47.28843" lon="-2.23894">
        <ele>-46.200000762939</ele>
        <time>2021-11-07T10:33:01.000Z</time>
      </trkpt>
      <trkpt lat="47.28845" lon="-2.239">
        <ele>-45.599998474121</ele>
        <time>2021-11-07T10:33:02.000Z</time>
      </trkpt>
      <trkpt lat="47.2885" lon="-2.23916">
        <ele>-45.599998474121</ele>
        <time>2021-11-07T10:33:05.000Z</time>
      </trkpt>
      <trkpt lat="47.28854" lon="-2.23927">
        <ele>-45.599998474121</ele>
        <time>2021-11-07T10:33:09.000Z</time>
      </trkpt>
      <trkpt lat="47.28858" lon="-2.23939">
        <ele>-45.200000762939</ele>
        <time>2021-11-07T10:33:16.000Z</time>
      </trkpt>
      <trkpt lat="47.28858" lon="-2.2394">
        <ele>-44.799999237061</ele>
        <time>2021-11-07T10:33:17.000Z</time>
      </trkpt>
      <trkpt lat="47.28858" lon="-2.2394">
        <ele>-44.400001525879</ele>
        <time>2021-11-07T10:33:18.000Z</time>
      </trkpt>
      <trkpt lat="47.28857" lon="-2.2394">
        <ele>-44</ele>
        <time>2021-11-07T10:33:19.000Z</time>
      </trkpt>
      <trkpt lat="47.28856" lon="-2.23939">
        <ele>-43.599998474121</ele>
        <time>2021-11-07T10:33:20.000Z</time>
      </trkpt>
      <trkpt lat="47.28856" lon="-2.23937">
        <ele>-43.599998474121</ele>
        <time>2021-11-07T10:33:21.000Z</time>
      </trkpt>
      <trkpt lat="47.28849" lon="-2.23918">
        <ele>-43.599998474121</ele>
        <time>2021-11-07T10:33:27.000Z</time>
      </trkpt>
      <trkpt lat="47.28837" lon="-2.23895">
        <ele>-43.599998474121</ele>
        <time>2021-11-07T10:33:33.000Z</time>
      </trkpt>
      <trkpt lat="47.28834" lon="-2.23891">
        <ele>-43.599998474121</ele>
        <time>2021-11-07T10:33:37.000Z</time>
      </trkpt>
      <trkpt lat="47.28835" lon="-2.23888">
        <ele>-43.599998474121</ele>
        <time>2021-11-07T10:34:22.000Z</time>
      </trkpt>
      <trkpt lat="47.28835" lon="-2.23883">
        <ele>-44</ele>
        <time>2021-11-07T10:34:24.000Z</time>
      </trkpt>
      <trkpt lat="47.28834" lon="-2.2388">
        <ele>-44.599998474121</ele>
        <time>2021-11-07T10:34:25.000Z</time>
      </trkpt>
      <trkpt lat="47.28833" lon="-2.23877">
        <ele>-45</ele>
        <time>2021-11-07T10:34:26.000Z</time>
      </trkpt>
      <trkpt lat="47.28832" lon="-2.23873">
        <ele>-45.400001525879</ele>
        <time>2021-11-07T10:34:27.000Z</time>
      </trkpt>
      <trkpt lat="47.28831" lon="-2.23869">
        <ele>-45.799999237061</ele>
        <time>2021-11-07T10:34:28.000Z</time>
      </trkpt>
      <trkpt lat="47.28827" lon="-2.23858">
        <ele>-45.799999237061</ele>
        <time>2021-11-07T10:34:31.000Z</time>
      </trkpt>
      <trkpt lat="47.28815" lon="-2.23833">
        <ele>-45.799999237061</ele>
        <time>2021-11-07T10:34:38.000Z</time>
      </trkpt>
      <trkpt lat="47.28806" lon="-2.2384">
        <ele>-45.799999237061</ele>
        <time>2021-11-07T10:34:42.000Z</time>
      </trkpt>
      <trkpt lat="47.28802" lon="-2.23859">
        <ele>-45.799999237061</ele>
        <time>2021-11-07T10:34:46.000Z</time>
      </trkpt>
      <trkpt lat="47.28798" lon="-2.23887">
        <ele>-45.799999237061</ele>
        <time>2021-11-07T10:34:50.000Z</time>
      </trkpt>
      <trkpt lat="47.28793" lon="-2.2395">
        <ele>-45.799999237061</ele>
        <time>2021-11-07T10:34:57.000Z</time>
      </trkpt>
      <trkpt lat="47.28786" lon="-2.24025">
        <ele>-45.799999237061</ele>
        <time>2021-11-07T10:35:05.000Z</time>
      </trkpt>
      <trkpt lat="47.28782" lon="-2.24088">
        <ele>-45.799999237061</ele>
        <time>2021-11-07T10:35:12.000Z</time>
      </trkpt>
      <trkpt lat="47.28782" lon="-2.24106">
        <ele>-45.799999237061</ele>
        <time>2021-11-07T10:35:14.000Z</time>
      </trkpt>
      <trkpt lat="47.28782" lon="-2.24132">
        <ele>-45.799999237061</ele>
        <time>2021-11-07T10:35:17.000Z</time>
      </trkpt>
      <trkpt lat="47.28782" lon="-2.24156">
        <ele>-45.799999237061</ele>
        <time>2021-11-07T10:35:20.000Z</time>
      </trkpt>
      <trkpt lat="47.28782" lon="-2.24172">
        <ele>-45.799999237061</ele>
        <time>2021-11-07T10:35:22.000Z</time>
      </trkpt>
      <trkpt lat="47.28782" lon="-2.24225">
        <ele>-45.799999237061</ele>
        <time>2021-11-07T10:35:28.000Z</time>
      </trkpt>
      <trkpt lat="47.28782" lon="-2.24249">
        <ele>-45.799999237061</ele>
        <time>2021-11-07T10:35:31.000Z</time>
      </trkpt>
      <trkpt lat="47.28782" lon="-2.24265">
        <ele>-45.799999237061</ele>
        <time>2021-11-07T10:35:33.000Z</time>
      </trkpt>
      <trkpt lat="47.28783" lon="-2.24309">
        <ele>-45.799999237061</ele>
        <time>2021-11-07T10:35:38.000Z</time>
      </trkpt>
      <trkpt lat="47.28777" lon="-2.24356">
        <ele>-45.799999237061</ele>
        <time>2021-11-07T10:35:43.000Z</time>
      </trkpt>
      <trkpt lat="47.28764" lon="-2.24408">
        <ele>-45.799999237061</ele>
        <time>2021-11-07T10:35:49.000Z</time>
      </trkpt>
      <trkpt lat="47.28754" lon="-2.24449">
        <ele>-45.799999237061</ele>
        <time>2021-11-07T10:35:54.000Z</time>
      </trkpt>
      <trkpt lat="47.28747" lon="-2.24489">
        <ele>-45.799999237061</ele>
        <time>2021-11-07T10:35:59.000Z</time>
      </trkpt>
      <trkpt lat="47.28747" lon="-2.24497">
        <ele>-45.799999237061</ele>
        <time>2021-11-07T10:36:00.000Z</time>
      </trkpt>
      <trkpt lat="47.2875" lon="-2.2453">
        <ele>-45.799999237061</ele>
        <time>2021-11-07T10:36:04.000Z</time>
      </trkpt>
      <trkpt lat="47.2875" lon="-2.24548">
        <ele>-45.799999237061</ele>
        <time>2021-11-07T10:36:06.000Z</time>
      </trkpt>
      <trkpt lat="47.28748" lon="-2.24564">
        <ele>-45.799999237061</ele>
        <time>2021-11-07T10:36:08.000Z</time>
      </trkpt>
      <trkpt lat="47.28731" lon="-2.24619">
        <ele>-45.799999237061</ele>
        <time>2021-11-07T10:36:15.000Z</time>
      </trkpt>
      <trkpt lat="47.28721" lon="-2.24645">
        <ele>-45.799999237061</ele>
        <time>2021-11-07T10:36:19.000Z</time>
      </trkpt>
      <trkpt lat="47.28713" lon="-2.24654">
        <ele>-45.799999237061</ele>
        <time>2021-11-07T10:36:21.000Z</time>
      </trkpt>
      <trkpt lat="47.28679" lon="-2.24688">
        <ele>-45.799999237061</ele>
        <time>2021-11-07T10:36:28.000Z</time>
      </trkpt>
      <trkpt lat="47.28668" lon="-2.24704">
        <ele>-45.799999237061</ele>
        <time>2021-11-07T10:36:31.000Z</time>
      </trkpt>
      <trkpt lat="47.28664" lon="-2.24713">
        <ele>-45.799999237061</ele>
        <time>2021-11-07T10:36:33.000Z</time>
      </trkpt>
      <trkpt lat="47.2866" lon="-2.24719">
        <ele>-45.799999237061</ele>
        <time>2021-11-07T10:36:37.000Z</time>
      </trkpt>
      <trkpt lat="47.28651" lon="-2.24726">
        <ele>-45.799999237061</ele>
        <time>2021-11-07T10:36:41.000Z</time>
      </trkpt>
      <trkpt lat="47.28647" lon="-2.24728">
        <ele>-45.799999237061</ele>
        <time>2021-11-07T10:36:42.000Z</time>
      </trkpt>
      <trkpt lat="47.28625" lon="-2.24737">
        <ele>-45.799999237061</ele>
        <time>2021-11-07T10:36:48.000Z</time>
      </trkpt>
      <trkpt lat="47.28614" lon="-2.24738">
        <ele>-45.799999237061</ele>
        <time>2021-11-07T10:36:50.000Z</time>
      </trkpt>
      <trkpt lat="47.28602" lon="-2.24739">
        <ele>-45.799999237061</ele>
        <time>2021-11-07T10:36:52.000Z</time>
      </trkpt>
      <trkpt lat="47.2857" lon="-2.24745">
        <ele>-45.799999237061</ele>
        <time>2021-11-07T10:36:57.000Z</time>
      </trkpt>
      <trkpt lat="47.28537" lon="-2.24757">
        <ele>-45.799999237061</ele>
        <time>2021-11-07T10:37:02.000Z</time>
      </trkpt>
      <trkpt lat="47.28505" lon="-2.24775">
        <ele>-45.799999237061</ele>
        <time>2021-11-07T10:37:08.000Z</time>
      </trkpt>
      <trkpt lat="47.28479" lon="-2.24789">
        <ele>-45.799999237061</ele>
        <time>2021-11-07T10:37:13.000Z</time>
      </trkpt>
      <trkpt lat="47.28474" lon="-2.24792">
        <ele>-45.799999237061</ele>
        <time>2021-11-07T10:37:14.000Z</time>
      </trkpt>
      <trkpt lat="47.28457" lon="-2.24797">
        <ele>-45.400001525879</ele>
        <time>2021-11-07T10:37:17.000Z</time>
      </trkpt>
      <trkpt lat="47.28452" lon="-2.24799">
        <ele>-45</ele>
        <time>2021-11-07T10:37:18.000Z</time>
      </trkpt>
      <trkpt lat="47.28447" lon="-2.24802">
        <ele>-44.599998474121</ele>
        <time>2021-11-07T10:37:19.000Z</time>
      </trkpt>
      <trkpt lat="47.28442" lon="-2.24805">
        <ele>-44.200000762939</ele>
        <time>2021-11-07T10:37:20.000Z</time>
      </trkpt>
      <trkpt lat="47.28437" lon="-2.24808">
        <ele>-43.799999237061</ele>
        <time>2021-11-07T10:37:21.000Z</time>
      </trkpt>
      <trkpt lat="47.28424" lon="-2.24816">
        <ele>-43.799999237061</ele>
        <time>2021-11-07T10:37:24.000Z</time>
      </trkpt>
      <trkpt lat="47.28421" lon="-2.24818">
        <ele>-43.799999237061</ele>
        <time>2021-11-07T10:37:25.000Z</time>
      </trkpt>
      <trkpt lat="47.28407" lon="-2.24823">
        <ele>-43.799999237061</ele>
        <time>2021-11-07T10:37:29.000Z</time>
      </trkpt>
      <trkpt lat="47.28399" lon="-2.24828">
        <ele>-43.799999237061</ele>
        <time>2021-11-07T10:37:33.000Z</time>
      </trkpt>
      <trkpt lat="47.28386" lon="-2.2484">
        <ele>-43.799999237061</ele>
        <time>2021-11-07T10:37:39.000Z</time>
      </trkpt>
      <trkpt lat="47.28385" lon="-2.24845">
        <ele>-43.799999237061</ele>
        <time>2021-11-07T10:37:40.000Z</time>
      </trkpt>
      <trkpt lat="47.28387" lon="-2.24857">
        <ele>-43.799999237061</ele>
        <time>2021-11-07T10:37:42.000Z</time>
      </trkpt>
      <trkpt lat="47.28391" lon="-2.24896">
        <ele>-43.799999237061</ele>
        <time>2021-11-07T10:37:47.000Z</time>
      </trkpt>
      <trkpt lat="47.28398" lon="-2.24961">
        <ele>-43.799999237061</ele>
        <time>2021-11-07T10:37:55.000Z</time>
      </trkpt>
      <trkpt lat="47.28401" lon="-2.25005">
        <ele>-43.200000762939</ele>
        <time>2021-11-07T10:38:01.000Z</time>
      </trkpt>
      <trkpt lat="47.28402" lon="-2.25012">
        <ele>-42.799999237061</ele>
        <time>2021-11-07T10:38:02.000Z</time>
      </trkpt>
      <trkpt lat="47.28403" lon="-2.25019">
        <ele>-42.400001525879</ele>
        <time>2021-11-07T10:38:03.000Z</time>
      </trkpt>
      <trkpt lat="47.28403" lon="-2.25026">
        <ele>-42</ele>
        <time>2021-11-07T10:38:04.000Z</time>
      </trkpt>
      <trkpt lat="47.28403" lon="-2.25033">
        <ele>-41.400001525879</ele>
        <time>2021-11-07T10:38:05.000Z</time>
      </trkpt>
      <trkpt lat="47.28404" lon="-2.25046">
        <ele>-41</ele>
        <time>2021-11-07T10:38:07.000Z</time>
      </trkpt>
      <trkpt lat="47.28404" lon="-2.25052">
        <ele>-40.599998474121</ele>
        <time>2021-11-07T10:38:08.000Z</time>
      </trkpt>
      <trkpt lat="47.28404" lon="-2.25058">
        <ele>-40.200000762939</ele>
        <time>2021-11-07T10:38:09.000Z</time>
      </trkpt>
      <trkpt lat="47.28404" lon="-2.25064">
        <ele>-39.799999237061</ele>
        <time>2021-11-07T10:38:10.000Z</time>
      </trkpt>
      <trkpt lat="47.28404" lon="-2.2507">
        <ele>-39.400001525879</ele>
        <time>2021-11-07T10:38:11.000Z</time>
      </trkpt>
      <trkpt lat="47.28408" lon="-2.25085">
        <ele>-39.400001525879</ele>
        <time>2021-11-07T10:38:14.000Z</time>
      </trkpt>
      <trkpt lat="47.28411" lon="-2.25087">
        <ele>-39</ele>
        <time>2021-11-07T10:38:15.000Z</time>
      </trkpt>
      <trkpt lat="47.28414" lon="-2.25088">
        <ele>-38.599998474121</ele>
        <time>2021-11-07T10:38:16.000Z</time>
      </trkpt>
      <trkpt lat="47.28417" lon="-2.25087">
        <ele>-38.200000762939</ele>
        <time>2021-11-07T10:38:17.000Z</time>
      </trkpt>
      <trkpt lat="47.28421" lon="-2.25087">
        <ele>-37.599998474121</ele>
        <time>2021-11-07T10:38:18.000Z</time>
      </trkpt>
      <trkpt lat="47.28425" lon="-2.25088">
        <ele>-37.200000762939</ele>
        <time>2021-11-07T10:38:19.000Z</time>
      </trkpt>
      <trkpt lat="47.28433" lon="-2.25093">
        <ele>-37.200000762939</ele>
        <time>2021-11-07T10:38:21.000Z</time>
      </trkpt>
      <trkpt lat="47.28434" lon="-2.25097">
        <ele>-37.200000762939</ele>
        <time>2021-11-07T10:38:22.000Z</time>
      </trkpt>
      <trkpt lat="47.28434" lon="-2.25113">
        <ele>-36.400001525879</ele>
        <time>2021-11-07T10:38:25.000Z</time>
      </trkpt>
      <trkpt lat="47.28434" lon="-2.25117">
        <ele>-36</ele>
        <time>2021-11-07T10:38:26.000Z</time>
      </trkpt>
      <trkpt lat="47.28433" lon="-2.25122">
        <ele>-35.599998474121</ele>
        <time>2021-11-07T10:38:27.000Z</time>
      </trkpt>
      <trkpt lat="47.28432" lon="-2.25127">
        <ele>-35</ele>
        <time>2021-11-07T10:38:28.000Z</time>
      </trkpt>
      <trkpt lat="47.2843" lon="-2.25141">
        <ele>-35</ele>
        <time>2021-11-07T10:38:31.000Z</time>
      </trkpt>
      <trkpt lat="47.2843" lon="-2.25145">
        <ele>-34.599998474121</ele>
        <time>2021-11-07T10:38:32.000Z</time>
      </trkpt>
      <trkpt lat="47.28429" lon="-2.25149">
        <ele>-34.200000762939</ele>
        <time>2021-11-07T10:38:33.000Z</time>
      </trkpt>
      <trkpt lat="47.28428" lon="-2.25154">
        <ele>-33.799999237061</ele>
        <time>2021-11-07T10:38:34.000Z</time>
      </trkpt>
      <trkpt lat="47.28427" lon="-2.25157">
        <ele>-33.400001525879</ele>
        <time>2021-11-07T10:38:35.000Z</time>
      </trkpt>
      <trkpt lat="47.28427" lon="-2.25162">
        <ele>-32.799999237061</ele>
        <time>2021-11-07T10:38:36.000Z</time>
      </trkpt>
      <trkpt lat="47.28425" lon="-2.25171">
        <ele>-32.799999237061</ele>
        <time>2021-11-07T10:38:38.000Z</time>
      </trkpt>
      <trkpt lat="47.28424" lon="-2.25186">
        <ele>-32.400001525879</ele>
        <time>2021-11-07T10:38:41.000Z</time>
      </trkpt>
      <trkpt lat="47.28423" lon="-2.25191">
        <ele>-32</ele>
        <time>2021-11-07T10:38:42.000Z</time>
      </trkpt>
      <trkpt lat="47.28423" lon="-2.25195">
        <ele>-31.60000038147</ele>
        <time>2021-11-07T10:38:43.000Z</time>
      </trkpt>
      <trkpt lat="47.28422" lon="-2.25199">
        <ele>-31.200000762939</ele>
        <time>2021-11-07T10:38:44.000Z</time>
      </trkpt>
      <trkpt lat="47.28422" lon="-2.25203">
        <ele>-30.799999237061</ele>
        <time>2021-11-07T10:38:45.000Z</time>
      </trkpt>
      <trkpt lat="47.2842" lon="-2.25211">
        <ele>-30.799999237061</ele>
        <time>2021-11-07T10:38:47.000Z</time>
      </trkpt>
      <trkpt lat="47.28419" lon="-2.25219">
        <ele>-30.39999961853</ele>
        <time>2021-11-07T10:38:49.000Z</time>
      </trkpt>
      <trkpt lat="47.28419" lon="-2.25222">
        <ele>-29.60000038147</ele>
        <time>2021-11-07T10:38:50.000Z</time>
      </trkpt>
      <trkpt lat="47.28418" lon="-2.25226">
        <ele>-29.200000762939</ele>
        <time>2021-11-07T10:38:51.000Z</time>
      </trkpt>
      <trkpt lat="47.28418" lon="-2.25231">
        <ele>-28.60000038147</ele>
        <time>2021-11-07T10:38:52.000Z</time>
      </trkpt>
      <trkpt lat="47.28417" lon="-2.25235">
        <ele>-28.60000038147</ele>
        <time>2021-11-07T10:38:53.000Z</time>
      </trkpt>
      <trkpt lat="47.28413" lon="-2.25258">
        <ele>-28.60000038147</ele>
        <time>2021-11-07T10:38:59.000Z</time>
      </trkpt>
      <trkpt lat="47.28412" lon="-2.25262">
        <ele>-28.200000762939</ele>
        <time>2021-11-07T10:39:00.000Z</time>
      </trkpt>
      <trkpt lat="47.28411" lon="-2.25264">
        <ele>-27.799999237061</ele>
        <time>2021-11-07T10:39:01.000Z</time>
      </trkpt>
      <trkpt lat="47.28409" lon="-2.25268">
        <ele>-27.39999961853</ele>
        <time>2021-11-07T10:39:02.000Z</time>
      </trkpt>
      <trkpt lat="47.28407" lon="-2.25273">
        <ele>-27</ele>
        <time>2021-11-07T10:39:03.000Z</time>
      </trkpt>
      <trkpt lat="47.28405" lon="-2.25277">
        <ele>-26.60000038147</ele>
        <time>2021-11-07T10:39:04.000Z</time>
      </trkpt>
      <trkpt lat="47.28399" lon="-2.25294">
        <ele>-26.60000038147</ele>
        <time>2021-11-07T10:39:08.000Z</time>
      </trkpt>
      <trkpt lat="47.28394" lon="-2.25322">
        <ele>-26.60000038147</ele>
        <time>2021-11-07T10:39:13.000Z</time>
      </trkpt>
      <trkpt lat="47.28395" lon="-2.25327">
        <ele>-26.60000038147</ele>
        <time>2021-11-07T10:39:14.000Z</time>
      </trkpt>
      <trkpt lat="47.28396" lon="-2.25335">
        <ele>-26.200000762939</ele>
        <time>2021-11-07T10:39:16.000Z</time>
      </trkpt>
      <trkpt lat="47.28396" lon="-2.2534">
        <ele>-25.799999237061</ele>
        <time>2021-11-07T10:39:17.000Z</time>
      </trkpt>
      <trkpt lat="47.28396" lon="-2.25344">
        <ele>-25.39999961853</ele>
        <time>2021-11-07T10:39:18.000Z</time>
      </trkpt>
      <trkpt lat="47.28396" lon="-2.25349">
        <ele>-25</ele>
        <time>2021-11-07T10:39:19.000Z</time>
      </trkpt>
      <trkpt lat="47.28396" lon="-2.25354">
        <ele>-24.60000038147</ele>
        <time>2021-11-07T10:39:20.000Z</time>
      </trkpt>
      <trkpt lat="47.28394" lon="-2.25371">
        <ele>-24.60000038147</ele>
        <time>2021-11-07T10:39:23.000Z</time>
      </trkpt>
      <trkpt lat="47.28389" lon="-2.25415">
        <ele>-24.60000038147</ele>
        <time>2021-11-07T10:39:30.000Z</time>
      </trkpt>
      <trkpt lat="47.28384" lon="-2.25455">
        <ele>-24.60000038147</ele>
        <time>2021-11-07T10:39:36.000Z</time>
      </trkpt>
      <trkpt lat="47.28379" lon="-2.25507">
        <ele>-24.60000038147</ele>
        <time>2021-11-07T10:39:43.000Z</time>
      </trkpt>
      <trkpt lat="47.28374" lon="-2.25564">
        <ele>-24.60000038147</ele>
        <time>2021-11-07T10:39:50.000Z</time>
      </trkpt>
      <trkpt lat="47.28371" lon="-2.25616">
        <ele>-24.60000038147</ele>
        <time>2021-11-07T10:39:56.000Z</time>
      </trkpt>
      <trkpt lat="47.2837" lon="-2.25632">
        <ele>-24.60000038147</ele>
        <time>2021-11-07T10:39:58.000Z</time>
      </trkpt>
      <trkpt lat="47.28374" lon="-2.25646">
        <ele>-24.60000038147</ele>
        <time>2021-11-07T10:40:00.000Z</time>
      </trkpt>
      <trkpt lat="47.28383" lon="-2.25684">
        <ele>-24.60000038147</ele>
        <time>2021-11-07T10:40:06.000Z</time>
      </trkpt>
      <trkpt lat="47.28386" lon="-2.25718">
        <ele>-24.60000038147</ele>
        <time>2021-11-07T10:40:12.000Z</time>
      </trkpt>
      <trkpt lat="47.28383" lon="-2.25731">
        <ele>-24.200000762939</ele>
        <time>2021-11-07T10:40:16.000Z</time>
      </trkpt>
      <trkpt lat="47.28383" lon="-2.25733">
        <ele>-23.799999237061</ele>
        <time>2021-11-07T10:40:17.000Z</time>
      </trkpt>
      <trkpt lat="47.28382" lon="-2.25736">
        <ele>-23.39999961853</ele>
        <time>2021-11-07T10:40:18.000Z</time>
      </trkpt>
      <trkpt lat="47.28381" lon="-2.2574">
        <ele>-23</ele>
        <time>2021-11-07T10:40:19.000Z</time>
      </trkpt>
      <trkpt lat="47.2838" lon="-2.25745">
        <ele>-22.60000038147</ele>
        <time>2021-11-07T10:40:20.000Z</time>
      </trkpt>
      <trkpt lat="47.2838" lon="-2.2575">
        <ele>-22.60000038147</ele>
        <time>2021-11-07T10:40:21.000Z</time>
      </trkpt>
      <trkpt lat="47.28377" lon="-2.25786">
        <ele>-22.60000038147</ele>
        <time>2021-11-07T10:40:29.000Z</time>
      </trkpt>
      <trkpt lat="47.28374" lon="-2.25802">
        <ele>-22.60000038147</ele>
        <time>2021-11-07T10:40:34.000Z</time>
      </trkpt>
      <trkpt lat="47.28378" lon="-2.2581">
        <ele>-22.60000038147</ele>
        <time>2021-11-07T10:40:37.000Z</time>
      </trkpt>
      <trkpt lat="47.28394" lon="-2.25813">
        <ele>-22.60000038147</ele>
        <time>2021-11-07T10:40:41.000Z</time>
      </trkpt>
      <trkpt lat="47.28398" lon="-2.25814">
        <ele>-22.60000038147</ele>
        <time>2021-11-07T10:40:42.000Z</time>
      </trkpt>
      <trkpt lat="47.28416" lon="-2.25815">
        <ele>-22.60000038147</ele>
        <time>2021-11-07T10:40:46.000Z</time>
      </trkpt>
      <trkpt lat="47.28455" lon="-2.25823">
        <ele>-22.60000038147</ele>
        <time>2021-11-07T10:40:53.000Z</time>
      </trkpt>
      <trkpt lat="47.28498" lon="-2.25829">
        <ele>-22.60000038147</ele>
        <time>2021-11-07T10:41:00.000Z</time>
      </trkpt>
      <trkpt lat="47.28524" lon="-2.25834">
        <ele>-23</ele>
        <time>2021-11-07T10:41:04.000Z</time>
      </trkpt>
      <trkpt lat="47.28531" lon="-2.25835">
        <ele>-23.39999961853</ele>
        <time>2021-11-07T10:41:05.000Z</time>
      </trkpt>
      <trkpt lat="47.28537" lon="-2.25836">
        <ele>-23.799999237061</ele>
        <time>2021-11-07T10:41:06.000Z</time>
      </trkpt>
      <trkpt lat="47.28543" lon="-2.25838">
        <ele>-24.200000762939</ele>
        <time>2021-11-07T10:41:07.000Z</time>
      </trkpt>
      <trkpt lat="47.28549" lon="-2.2584">
        <ele>-24.799999237061</ele>
        <time>2021-11-07T10:41:08.000Z</time>
      </trkpt>
      <trkpt lat="47.28555" lon="-2.25843">
        <ele>-24.799999237061</ele>
        <time>2021-11-07T10:41:09.000Z</time>
      </trkpt>
      <trkpt lat="47.28566" lon="-2.2586">
        <ele>-24.799999237061</ele>
        <time>2021-11-07T10:41:12.000Z</time>
      </trkpt>
      <trkpt lat="47.28568" lon="-2.25873">
        <ele>-25.200000762939</ele>
        <time>2021-11-07T10:41:14.000Z</time>
      </trkpt>
      <trkpt lat="47.28568" lon="-2.25881">
        <ele>-25.60000038147</ele>
        <time>2021-11-07T10:41:15.000Z</time>
      </trkpt>
      <trkpt lat="47.28568" lon="-2.25889">
        <ele>-26</ele>
        <time>2021-11-07T10:41:16.000Z</time>
      </trkpt>
      <trkpt lat="47.28567" lon="-2.25897">
        <ele>-26.39999961853</ele>
        <time>2021-11-07T10:41:17.000Z</time>
      </trkpt>
      <trkpt lat="47.28567" lon="-2.25905">
        <ele>-26.799999237061</ele>
        <time>2021-11-07T10:41:18.000Z</time>
      </trkpt>
      <trkpt lat="47.28565" lon="-2.25944">
        <ele>-26.799999237061</ele>
        <time>2021-11-07T10:41:23.000Z</time>
      </trkpt>
      <trkpt lat="47.28567" lon="-2.25958">
        <ele>-26.799999237061</ele>
        <time>2021-11-07T10:41:25.000Z</time>
      </trkpt>
      <trkpt lat="47.28577" lon="-2.25967">
        <ele>-26.799999237061</ele>
        <time>2021-11-07T10:41:28.000Z</time>
      </trkpt>
      <trkpt lat="47.28581" lon="-2.25968">
        <ele>-26.799999237061</ele>
        <time>2021-11-07T10:41:29.000Z</time>
      </trkpt>
      <trkpt lat="47.28598" lon="-2.25972">
        <ele>-26.799999237061</ele>
        <time>2021-11-07T10:41:33.000Z</time>
      </trkpt>
      <trkpt lat="47.28605" lon="-2.25983">
        <ele>-26.799999237061</ele>
        <time>2021-11-07T10:41:35.000Z</time>
      </trkpt>
      <trkpt lat="47.28606" lon="-2.26006">
        <ele>-26.799999237061</ele>
        <time>2021-11-07T10:41:38.000Z</time>
      </trkpt>
      <trkpt lat="47.28606" lon="-2.26032">
        <ele>-26.799999237061</ele>
        <time>2021-11-07T10:41:41.000Z</time>
      </trkpt>
      <trkpt lat="47.28606" lon="-2.26049">
        <ele>-26.799999237061</ele>
        <time>2021-11-07T10:41:43.000Z</time>
      </trkpt>
      <trkpt lat="47.28603" lon="-2.26113">
        <ele>-26.799999237061</ele>
        <time>2021-11-07T10:41:51.000Z</time>
      </trkpt>
      <trkpt lat="47.28602" lon="-2.26181">
        <ele>-26.799999237061</ele>
        <time>2021-11-07T10:41:59.000Z</time>
      </trkpt>
      <trkpt lat="47.28611" lon="-2.26226">
        <ele>-26.799999237061</ele>
        <time>2021-11-07T10:42:04.000Z</time>
      </trkpt>
      <trkpt lat="47.28628" lon="-2.26262">
        <ele>-26.799999237061</ele>
        <time>2021-11-07T10:42:09.000Z</time>
      </trkpt>
      <trkpt lat="47.28646" lon="-2.26307">
        <ele>-26.799999237061</ele>
        <time>2021-11-07T10:42:15.000Z</time>
      </trkpt>
      <trkpt lat="47.28663" lon="-2.26359">
        <ele>-26.799999237061</ele>
        <time>2021-11-07T10:42:22.000Z</time>
      </trkpt>
      <trkpt lat="47.28668" lon="-2.26364">
        <ele>-26.799999237061</ele>
        <time>2021-11-07T10:42:23.000Z</time>
      </trkpt>
      <trkpt lat="47.28679" lon="-2.26379">
        <ele>-26.799999237061</ele>
        <time>2021-11-07T10:42:26.000Z</time>
      </trkpt>
      <trkpt lat="47.28683" lon="-2.26384">
        <ele>-26.799999237061</ele>
        <time>2021-11-07T10:42:27.000Z</time>
      </trkpt>
      <trkpt lat="47.287" lon="-2.264">
        <ele>-26.799999237061</ele>
        <time>2021-11-07T10:42:31.000Z</time>
      </trkpt>
      <trkpt lat="47.28703" lon="-2.26404">
        <ele>-26.799999237061</ele>
        <time>2021-11-07T10:42:32.000Z</time>
      </trkpt>
      <trkpt lat="47.28714" lon="-2.264">
        <ele>-26.799999237061</ele>
        <time>2021-11-07T10:42:35.000Z</time>
      </trkpt>
      <trkpt lat="47.28716" lon="-2.26383">
        <ele>-26.799999237061</ele>
        <time>2021-11-07T10:42:38.000Z</time>
      </trkpt>
      <trkpt lat="47.28727" lon="-2.26365">
        <ele>-26.799999237061</ele>
        <time>2021-11-07T10:42:42.000Z</time>
      </trkpt>
      <trkpt lat="47.2874" lon="-2.26364">
        <ele>-26.799999237061</ele>
        <time>2021-11-07T10:42:45.000Z</time>
      </trkpt>
      <trkpt lat="47.28744" lon="-2.26365">
        <ele>-26.799999237061</ele>
        <time>2021-11-07T10:42:46.000Z</time>
      </trkpt>
      <trkpt lat="47.28774" lon="-2.26367">
        <ele>-26.799999237061</ele>
        <time>2021-11-07T10:42:53.000Z</time>
      </trkpt>
      <trkpt lat="47.2879" lon="-2.26368">
        <ele>-26</ele>
        <time>2021-11-07T10:42:57.000Z</time>
      </trkpt>
      <trkpt lat="47.28794" lon="-2.26369">
        <ele>-25.60000038147</ele>
        <time>2021-11-07T10:42:58.000Z</time>
      </trkpt>
      <trkpt lat="47.28798" lon="-2.26369">
        <ele>-25.200000762939</ele>
        <time>2021-11-07T10:42:59.000Z</time>
      </trkpt>
      <trkpt lat="47.28802" lon="-2.26368">
        <ele>-24.799999237061</ele>
        <time>2021-11-07T10:43:00.000Z</time>
      </trkpt>
      <trkpt lat="47.28807" lon="-2.26368">
        <ele>-24.799999237061</ele>
        <time>2021-11-07T10:43:01.000Z</time>
      </trkpt>
      <trkpt lat="47.28811" lon="-2.26368">
        <ele>-24.799999237061</ele>
        <time>2021-11-07T10:43:02.000Z</time>
      </trkpt>
      <trkpt lat="47.28834" lon="-2.26374">
        <ele>-24.799999237061</ele>
        <time>2021-11-07T10:43:07.000Z</time>
      </trkpt>
      <trkpt lat="47.28848" lon="-2.26371">
        <ele>-24.799999237061</ele>
        <time>2021-11-07T10:43:10.000Z</time>
      </trkpt>
      <trkpt lat="47.28882" lon="-2.26367">
        <ele>-24.799999237061</ele>
        <time>2021-11-07T10:43:17.000Z</time>
      </trkpt>
      <trkpt lat="47.28887" lon="-2.26366">
        <ele>-24.799999237061</ele>
        <time>2021-11-07T10:43:18.000Z</time>
      </trkpt>
      <trkpt lat="47.28896" lon="-2.26367">
        <ele>-24.39999961853</ele>
        <time>2021-11-07T10:43:20.000Z</time>
      </trkpt>
      <trkpt lat="47.28901" lon="-2.26368">
        <ele>-24</ele>
        <time>2021-11-07T10:43:21.000Z</time>
      </trkpt>
      <trkpt lat="47.28906" lon="-2.26368">
        <ele>-23.200000762939</ele>
        <time>2021-11-07T10:43:22.000Z</time>
      </trkpt>
      <trkpt lat="47.28911" lon="-2.26369">
        <ele>-22.799999237061</ele>
        <time>2021-11-07T10:43:23.000Z</time>
      </trkpt>
      <trkpt lat="47.28916" lon="-2.2637">
        <ele>-22.799999237061</ele>
        <time>2021-11-07T10:43:24.000Z</time>
      </trkpt>
      <trkpt lat="47.2893" lon="-2.26373">
        <ele>-22.799999237061</ele>
        <time>2021-11-07T10:43:27.000Z</time>
      </trkpt>
      <trkpt lat="47.2894" lon="-2.26376">
        <ele>-22.799999237061</ele>
        <time>2021-11-07T10:43:29.000Z</time>
      </trkpt>
      <trkpt lat="47.28945" lon="-2.26375">
        <ele>-22.799999237061</ele>
        <time>2021-11-07T10:43:30.000Z</time>
      </trkpt>
      <trkpt lat="47.28955" lon="-2.26373">
        <ele>-22.799999237061</ele>
        <time>2021-11-07T10:43:32.000Z</time>
      </trkpt>
      <trkpt lat="47.2896" lon="-2.26371">
        <ele>-22.799999237061</ele>
        <time>2021-11-07T10:43:33.000Z</time>
      </trkpt>
      <trkpt lat="47.28982" lon="-2.26364">
        <ele>-22.799999237061</ele>
        <time>2021-11-07T10:43:38.000Z</time>
      </trkpt>
      <trkpt lat="47.28993" lon="-2.26375">
        <ele>-22.799999237061</ele>
        <time>2021-11-07T10:43:41.000Z</time>
      </trkpt>
      <trkpt lat="47.28996" lon="-2.26379">
        <ele>-22.799999237061</ele>
        <time>2021-11-07T10:43:42.000Z</time>
      </trkpt>
      <trkpt lat="47.29008" lon="-2.26398">
        <ele>-23.799999237061</ele>
        <time>2021-11-07T10:43:47.000Z</time>
      </trkpt>
      <trkpt lat="47.2901" lon="-2.26404">
        <ele>-24.200000762939</ele>
        <time>2021-11-07T10:43:48.000Z</time>
      </trkpt>
      <trkpt lat="47.2901" lon="-2.26411">
        <ele>-24.60000038147</ele>
        <time>2021-11-07T10:43:49.000Z</time>
      </trkpt>
      <trkpt lat="47.29011" lon="-2.26418">
        <ele>-25</ele>
        <time>2021-11-07T10:43:50.000Z</time>
      </trkpt>
      <trkpt lat="47.29013" lon="-2.26426">
        <ele>-25</ele>
        <time>2021-11-07T10:43:51.000Z</time>
      </trkpt>
      <trkpt lat="47.29017" lon="-2.26452">
        <ele>-25.39999961853</ele>
        <time>2021-11-07T10:43:54.000Z</time>
      </trkpt>
      <trkpt lat="47.29018" lon="-2.26462">
        <ele>-26</ele>
        <time>2021-11-07T10:43:55.000Z</time>
      </trkpt>
      <trkpt lat="47.2902" lon="-2.26472">
        <ele>-26.39999961853</ele>
        <time>2021-11-07T10:43:56.000Z</time>
      </trkpt>
      <trkpt lat="47.29021" lon="-2.26482">
        <ele>-26.799999237061</ele>
        <time>2021-11-07T10:43:57.000Z</time>
      </trkpt>
      <trkpt lat="47.29022" lon="-2.26491">
        <ele>-27.200000762939</ele>
        <time>2021-11-07T10:43:58.000Z</time>
      </trkpt>
      <trkpt lat="47.29026" lon="-2.2651">
        <ele>-27.200000762939</ele>
        <time>2021-11-07T10:44:00.000Z</time>
      </trkpt>
      <trkpt lat="47.29039" lon="-2.26565">
        <ele>-27.200000762939</ele>
        <time>2021-11-07T10:44:07.000Z</time>
      </trkpt>
      <trkpt lat="47.29044" lon="-2.26583">
        <ele>-28</ele>
        <time>2021-11-07T10:44:11.000Z</time>
      </trkpt>
      <trkpt lat="47.29045" lon="-2.26586">
        <ele>-28.39999961853</ele>
        <time>2021-11-07T10:44:12.000Z</time>
      </trkpt>
      <trkpt lat="47.29045" lon="-2.2659">
        <ele>-28.799999237061</ele>
        <time>2021-11-07T10:44:13.000Z</time>
      </trkpt>
      <trkpt lat="47.29044" lon="-2.26594">
        <ele>-29.200000762939</ele>
        <time>2021-11-07T10:44:14.000Z</time>
      </trkpt>
      <trkpt lat="47.29043" lon="-2.26604">
        <ele>-29.200000762939</ele>
        <time>2021-11-07T10:44:16.000Z</time>
      </trkpt>
      <trkpt lat="47.29046" lon="-2.26637">
        <ele>-29.200000762939</ele>
        <time>2021-11-07T10:44:22.000Z</time>
      </trkpt>
      <trkpt lat="47.2905" lon="-2.26684">
        <ele>-29.200000762939</ele>
        <time>2021-11-07T10:44:29.000Z</time>
      </trkpt>
      <trkpt lat="47.29053" lon="-2.26709">
        <ele>-29.60000038147</ele>
        <time>2021-11-07T10:44:32.000Z</time>
      </trkpt>
      <trkpt lat="47.29054" lon="-2.26719">
        <ele>-30</ele>
        <time>2021-11-07T10:44:33.000Z</time>
      </trkpt>
      <trkpt lat="47.29055" lon="-2.26728">
        <ele>-30.60000038147</ele>
        <time>2021-11-07T10:44:34.000Z</time>
      </trkpt>
      <trkpt lat="47.29056" lon="-2.26739">
        <ele>-31</ele>
        <time>2021-11-07T10:44:35.000Z</time>
      </trkpt>
      <trkpt lat="47.29058" lon="-2.26749">
        <ele>-31.39999961853</ele>
        <time>2021-11-07T10:44:36.000Z</time>
      </trkpt>
      <trkpt lat="47.29059" lon="-2.26761">
        <ele>-32</ele>
        <time>2021-11-07T10:44:37.000Z</time>
      </trkpt>
      <trkpt lat="47.29061" lon="-2.26772">
        <ele>-32.400001525879</ele>
        <time>2021-11-07T10:44:38.000Z</time>
      </trkpt>
      <trkpt lat="47.29062" lon="-2.26783">
        <ele>-32.799999237061</ele>
        <time>2021-11-07T10:44:39.000Z</time>
      </trkpt>
      <trkpt lat="47.29062" lon="-2.26795">
        <ele>-33.400001525879</ele>
        <time>2021-11-07T10:44:40.000Z</time>
      </trkpt>
      <trkpt lat="47.29063" lon="-2.26806">
        <ele>-33.799999237061</ele>
        <time>2021-11-07T10:44:41.000Z</time>
      </trkpt>
      <trkpt lat="47.29062" lon="-2.26849">
        <ele>-34.200000762939</ele>
        <time>2021-11-07T10:44:45.000Z</time>
      </trkpt>
      <trkpt lat="47.29061" lon="-2.26859">
        <ele>-34.599998474121</ele>
        <time>2021-11-07T10:44:46.000Z</time>
      </trkpt>
      <trkpt lat="47.29061" lon="-2.26868">
        <ele>-35.200000762939</ele>
        <time>2021-11-07T10:44:47.000Z</time>
      </trkpt>
      <trkpt lat="47.29061" lon="-2.26877">
        <ele>-35.599998474121</ele>
        <time>2021-11-07T10:44:48.000Z</time>
      </trkpt>
      <trkpt lat="47.2906" lon="-2.26885">
        <ele>-36</ele>
        <time>2021-11-07T10:44:49.000Z</time>
      </trkpt>
      <trkpt lat="47.29059" lon="-2.26912">
        <ele>-36</ele>
        <time>2021-11-07T10:44:52.000Z</time>
      </trkpt>
      <trkpt lat="47.29057" lon="-2.26983">
        <ele>-36</ele>
        <time>2021-11-07T10:44:59.000Z</time>
      </trkpt>
      <trkpt lat="47.29056" lon="-2.27022">
        <ele>-36</ele>
        <time>2021-11-07T10:45:03.000Z</time>
      </trkpt>
      <trkpt lat="47.29058" lon="-2.27031">
        <ele>-36</ele>
        <time>2021-11-07T10:45:04.000Z</time>
      </trkpt>
      <trkpt lat="47.29065" lon="-2.27053">
        <ele>-36</ele>
        <time>2021-11-07T10:45:07.000Z</time>
      </trkpt>
      <trkpt lat="47.2906" lon="-2.2707">
        <ele>-36</ele>
        <time>2021-11-07T10:45:10.000Z</time>
      </trkpt>
      <trkpt lat="47.29059" lon="-2.27075">
        <ele>-36</ele>
        <time>2021-11-07T10:45:11.000Z</time>
      </trkpt>
      <trkpt lat="47.29051" lon="-2.27089">
        <ele>-36</ele>
        <time>2021-11-07T10:45:14.000Z</time>
      </trkpt>
      <trkpt lat="47.29047" lon="-2.27093">
        <ele>-36</ele>
        <time>2021-11-07T10:45:15.000Z</time>
      </trkpt>
      <trkpt lat="47.29031" lon="-2.27099">
        <ele>-36</ele>
        <time>2021-11-07T10:45:19.000Z</time>
      </trkpt>
      <trkpt lat="47.29027" lon="-2.27112">
        <ele>-36</ele>
        <time>2021-11-07T10:45:22.000Z</time>
      </trkpt>
      <trkpt lat="47.29035" lon="-2.27123">
        <ele>-36</ele>
        <time>2021-11-07T10:45:25.000Z</time>
      </trkpt>
      <trkpt lat="47.29051" lon="-2.27139">
        <ele>-36</ele>
        <time>2021-11-07T10:45:29.000Z</time>
      </trkpt>
      <trkpt lat="47.29063" lon="-2.27161">
        <ele>-36</ele>
        <time>2021-11-07T10:45:33.000Z</time>
      </trkpt>
      <trkpt lat="47.29065" lon="-2.27167">
        <ele>-36</ele>
        <time>2021-11-07T10:45:34.000Z</time>
      </trkpt>
      <trkpt lat="47.29071" lon="-2.27177">
        <ele>-36</ele>
        <time>2021-11-07T10:45:36.000Z</time>
      </trkpt>
      <trkpt lat="47.29075" lon="-2.27181">
        <ele>-36</ele>
        <time>2021-11-07T10:45:37.000Z</time>
      </trkpt>
      <trkpt lat="47.29091" lon="-2.2719">
        <ele>-36</ele>
        <time>2021-11-07T10:45:40.000Z</time>
      </trkpt>
      <trkpt lat="47.29105" lon="-2.27191">
        <ele>-36</ele>
        <time>2021-11-07T10:45:44.000Z</time>
      </trkpt>
      <trkpt lat="47.29108" lon="-2.27193">
        <ele>-36</ele>
        <time>2021-11-07T10:45:46.000Z</time>
      </trkpt>
      <trkpt lat="47.29108" lon="-2.27195">
        <ele>-36</ele>
        <time>2021-11-07T10:45:48.000Z</time>
      </trkpt>
      <trkpt lat="47.2911" lon="-2.27205">
        <ele>-36</ele>
        <time>2021-11-07T10:46:01.000Z</time>
      </trkpt>
      <trkpt lat="47.29112" lon="-2.27222">
        <ele>-36</ele>
        <time>2021-11-07T10:46:04.000Z</time>
      </trkpt>
      <trkpt lat="47.2911" lon="-2.27243">
        <ele>-36</ele>
        <time>2021-11-07T10:46:08.000Z</time>
      </trkpt>
      <trkpt lat="47.29109" lon="-2.27255">
        <ele>-36</ele>
        <time>2021-11-07T10:46:11.000Z</time>
      </trkpt>
      <trkpt lat="47.29109" lon="-2.2726">
        <ele>-36</ele>
        <time>2021-11-07T10:46:12.000Z</time>
      </trkpt>
      <trkpt lat="47.29107" lon="-2.27281">
        <ele>-36</ele>
        <time>2021-11-07T10:46:15.000Z</time>
      </trkpt>
      <trkpt lat="47.29106" lon="-2.27293">
        <ele>-36</ele>
        <time>2021-11-07T10:46:17.000Z</time>
      </trkpt>
      <trkpt lat="47.29102" lon="-2.2731">
        <ele>-36</ele>
        <time>2021-11-07T10:46:21.000Z</time>
      </trkpt>
      <trkpt lat="47.29101" lon="-2.27331">
        <ele>-36</ele>
        <time>2021-11-07T10:46:26.000Z</time>
      </trkpt>
      <trkpt lat="47.29106" lon="-2.27345">
        <ele>-36</ele>
        <time>2021-11-07T10:46:30.000Z</time>
      </trkpt>
      <trkpt lat="47.29111" lon="-2.27372">
        <ele>-36</ele>
        <time>2021-11-07T10:46:34.000Z</time>
      </trkpt>
      <trkpt lat="47.29113" lon="-2.27381">
        <ele>-36</ele>
        <time>2021-11-07T10:46:35.000Z</time>
      </trkpt>
      <trkpt lat="47.29117" lon="-2.27411">
        <ele>-36</ele>
        <time>2021-11-07T10:46:38.000Z</time>
      </trkpt>
      <trkpt lat="47.29115" lon="-2.27427">
        <ele>-36</ele>
        <time>2021-11-07T10:46:40.000Z</time>
      </trkpt>
      <trkpt lat="47.29112" lon="-2.27472">
        <ele>-36</ele>
        <time>2021-11-07T10:46:46.000Z</time>
      </trkpt>
      <trkpt lat="47.29109" lon="-2.27505">
        <ele>-36</ele>
        <time>2021-11-07T10:46:53.000Z</time>
      </trkpt>
      <trkpt lat="47.29104" lon="-2.27513">
        <ele>-36</ele>
        <time>2021-11-07T10:46:59.000Z</time>
      </trkpt>
      <trkpt lat="47.29102" lon="-2.27514">
        <ele>-36</ele>
        <time>2021-11-07T10:47:00.000Z</time>
      </trkpt>
      <trkpt lat="47.29092" lon="-2.27517">
        <ele>-36</ele>
        <time>2021-11-07T10:47:03.000Z</time>
      </trkpt>
      <trkpt lat="47.29083" lon="-2.27517">
        <ele>-36</ele>
        <time>2021-11-07T10:47:05.000Z</time>
      </trkpt>
      <trkpt lat="47.29053" lon="-2.27518">
        <ele>-36</ele>
        <time>2021-11-07T10:47:11.000Z</time>
      </trkpt>
      <trkpt lat="47.29019" lon="-2.27517">
        <ele>-36</ele>
        <time>2021-11-07T10:47:17.000Z</time>
      </trkpt>
      <trkpt lat="47.28975" lon="-2.27518">
        <ele>-36</ele>
        <time>2021-11-07T10:47:24.000Z</time>
      </trkpt>
      <trkpt lat="47.28923" lon="-2.27521">
        <ele>-36</ele>
        <time>2021-11-07T10:47:32.000Z</time>
      </trkpt>
      <trkpt lat="47.28882" lon="-2.27527">
        <ele>-36</ele>
        <time>2021-11-07T10:47:39.000Z</time>
      </trkpt>
      <trkpt lat="47.2883" lon="-2.27536">
        <ele>-36</ele>
        <time>2021-11-07T10:47:47.000Z</time>
      </trkpt>
      <trkpt lat="47.28817" lon="-2.2754">
        <ele>-36</ele>
        <time>2021-11-07T10:47:49.000Z</time>
      </trkpt>
      <trkpt lat="47.28806" lon="-2.27548">
        <ele>-36</ele>
        <time>2021-11-07T10:47:51.000Z</time>
      </trkpt>
      <trkpt lat="47.28796" lon="-2.27559">
        <ele>-36</ele>
        <time>2021-11-07T10:47:53.000Z</time>
      </trkpt>
      <trkpt lat="47.28782" lon="-2.27576">
        <ele>-36</ele>
        <time>2021-11-07T10:47:56.000Z</time>
      </trkpt>
      <trkpt lat="47.28754" lon="-2.27611">
        <ele>-36</ele>
        <time>2021-11-07T10:48:02.000Z</time>
      </trkpt>
      <trkpt lat="47.28726" lon="-2.27653">
        <ele>-36</ele>
        <time>2021-11-07T10:48:08.000Z</time>
      </trkpt>
      <trkpt lat="47.28695" lon="-2.27704">
        <ele>-36</ele>
        <time>2021-11-07T10:48:15.000Z</time>
      </trkpt>
      <trkpt lat="47.28667" lon="-2.27752">
        <ele>-36</ele>
        <time>2021-11-07T10:48:22.000Z</time>
      </trkpt>
      <trkpt lat="47.28663" lon="-2.2776">
        <ele>-36</ele>
        <time>2021-11-07T10:48:23.000Z</time>
      </trkpt>
      <trkpt lat="47.28656" lon="-2.27785">
        <ele>-36</ele>
        <time>2021-11-07T10:48:26.000Z</time>
      </trkpt>
      <trkpt lat="47.28648" lon="-2.27812">
        <ele>-36</ele>
        <time>2021-11-07T10:48:29.000Z</time>
      </trkpt>
      <trkpt lat="47.28645" lon="-2.2783">
        <ele>-36</ele>
        <time>2021-11-07T10:48:31.000Z</time>
      </trkpt>
      <trkpt lat="47.28644" lon="-2.27839">
        <ele>-36</ele>
        <time>2021-11-07T10:48:32.000Z</time>
      </trkpt>
      <trkpt lat="47.28642" lon="-2.27856">
        <ele>-35.599998474121</ele>
        <time>2021-11-07T10:48:34.000Z</time>
      </trkpt>
      <trkpt lat="47.2864" lon="-2.27865">
        <ele>-35.200000762939</ele>
        <time>2021-11-07T10:48:35.000Z</time>
      </trkpt>
      <trkpt lat="47.28638" lon="-2.27874">
        <ele>-34.799999237061</ele>
        <time>2021-11-07T10:48:36.000Z</time>
      </trkpt>
      <trkpt lat="47.28637" lon="-2.27883">
        <ele>-34.400001525879</ele>
        <time>2021-11-07T10:48:37.000Z</time>
      </trkpt>
      <trkpt lat="47.28635" lon="-2.27891">
        <ele>-34</ele>
        <time>2021-11-07T10:48:38.000Z</time>
      </trkpt>
      <trkpt lat="47.28634" lon="-2.27899">
        <ele>-34</ele>
        <time>2021-11-07T10:48:39.000Z</time>
      </trkpt>
      <trkpt lat="47.28632" lon="-2.27919">
        <ele>-34</ele>
        <time>2021-11-07T10:48:42.000Z</time>
      </trkpt>
      <trkpt lat="47.28631" lon="-2.27926">
        <ele>-34</ele>
        <time>2021-11-07T10:48:43.000Z</time>
      </trkpt>
      <trkpt lat="47.28628" lon="-2.27938">
        <ele>-34</ele>
        <time>2021-11-07T10:48:45.000Z</time>
      </trkpt>
      <trkpt lat="47.28621" lon="-2.2795">
        <ele>-34</ele>
        <time>2021-11-07T10:48:47.000Z</time>
      </trkpt>
      <trkpt lat="47.28613" lon="-2.27967">
        <ele>-34</ele>
        <time>2021-11-07T10:48:50.000Z</time>
      </trkpt>
      <trkpt lat="47.28611" lon="-2.27974">
        <ele>-34</ele>
        <time>2021-11-07T10:48:51.000Z</time>
      </trkpt>
      <trkpt lat="47.28604" lon="-2.28001">
        <ele>-34</ele>
        <time>2021-11-07T10:48:55.000Z</time>
      </trkpt>
      <trkpt lat="47.28601" lon="-2.28013">
        <ele>-34</ele>
        <time>2021-11-07T10:48:57.000Z</time>
      </trkpt>
      <trkpt lat="47.28591" lon="-2.28027">
        <ele>-34</ele>
        <time>2021-11-07T10:49:00.000Z</time>
      </trkpt>
      <trkpt lat="47.28588" lon="-2.2803">
        <ele>-34</ele>
        <time>2021-11-07T10:49:01.000Z</time>
      </trkpt>
      <trkpt lat="47.28573" lon="-2.28044">
        <ele>-34</ele>
        <time>2021-11-07T10:49:06.000Z</time>
      </trkpt>
      <trkpt lat="47.28553" lon="-2.28049">
        <ele>-33.400001525879</ele>
        <time>2021-11-07T10:49:12.000Z</time>
      </trkpt>
      <trkpt lat="47.2855" lon="-2.2805">
        <ele>-33</ele>
        <time>2021-11-07T10:49:13.000Z</time>
      </trkpt>
      <trkpt lat="47.28547" lon="-2.28051">
        <ele>-32.599998474121</ele>
        <time>2021-11-07T10:49:14.000Z</time>
      </trkpt>
      <trkpt lat="47.28545" lon="-2.28051">
        <ele>-32.200000762939</ele>
        <time>2021-11-07T10:49:15.000Z</time>
      </trkpt>
      <trkpt lat="47.28543" lon="-2.28052">
        <ele>-31.799999237061</ele>
        <time>2021-11-07T10:49:16.000Z</time>
      </trkpt>
      <trkpt lat="47.28537" lon="-2.28052">
        <ele>-31.39999961853</ele>
        <time>2021-11-07T10:49:19.000Z</time>
      </trkpt>
      <trkpt lat="47.28534" lon="-2.28053">
        <ele>-31</ele>
        <time>2021-11-07T10:49:20.000Z</time>
      </trkpt>
      <trkpt lat="47.28532" lon="-2.28053">
        <ele>-30.39999961853</ele>
        <time>2021-11-07T10:49:21.000Z</time>
      </trkpt>
      <trkpt lat="47.2853" lon="-2.28053">
        <ele>-30</ele>
        <time>2021-11-07T10:49:22.000Z</time>
      </trkpt>
      <trkpt lat="47.28527" lon="-2.28053">
        <ele>-29.60000038147</ele>
        <time>2021-11-07T10:49:23.000Z</time>
      </trkpt>
      <trkpt lat="47.28523" lon="-2.2805">
        <ele>-29.200000762939</ele>
        <time>2021-11-07T10:49:25.000Z</time>
      </trkpt>
      <trkpt lat="47.28521" lon="-2.28048">
        <ele>-28.799999237061</ele>
        <time>2021-11-07T10:49:26.000Z</time>
      </trkpt>
      <trkpt lat="47.28518" lon="-2.28046">
        <ele>-28.200000762939</ele>
        <time>2021-11-07T10:49:27.000Z</time>
      </trkpt>
      <trkpt lat="47.28515" lon="-2.28044">
        <ele>-27.799999237061</ele>
        <time>2021-11-07T10:49:28.000Z</time>
      </trkpt>
      <trkpt lat="47.28512" lon="-2.28041">
        <ele>-27.39999961853</ele>
        <time>2021-11-07T10:49:29.000Z</time>
      </trkpt>
      <trkpt lat="47.28509" lon="-2.28038">
        <ele>-27.39999961853</ele>
        <time>2021-11-07T10:49:30.000Z</time>
      </trkpt>
      <trkpt lat="47.28502" lon="-2.28036">
        <ele>-27.39999961853</ele>
        <time>2021-11-07T10:49:33.000Z</time>
      </trkpt>
      <trkpt lat="47.285" lon="-2.28037">
        <ele>-27.39999961853</ele>
        <time>2021-11-07T10:49:34.000Z</time>
      </trkpt>
      <trkpt lat="47.28497" lon="-2.28038">
        <ele>-27</ele>
        <time>2021-11-07T10:49:35.000Z</time>
      </trkpt>
      <trkpt lat="47.28494" lon="-2.2804">
        <ele>-26.60000038147</ele>
        <time>2021-11-07T10:49:36.000Z</time>
      </trkpt>
      <trkpt lat="47.28491" lon="-2.28042">
        <ele>-26.200000762939</ele>
        <time>2021-11-07T10:49:37.000Z</time>
      </trkpt>
      <trkpt lat="47.2849" lon="-2.28046">
        <ele>-25.799999237061</ele>
        <time>2021-11-07T10:49:38.000Z</time>
      </trkpt>
      <trkpt lat="47.2849" lon="-2.2805">
        <ele>-25.39999961853</ele>
        <time>2021-11-07T10:49:39.000Z</time>
      </trkpt>
      <trkpt lat="47.28493" lon="-2.28062">
        <ele>-25.39999961853</ele>
        <time>2021-11-07T10:49:42.000Z</time>
      </trkpt>
      <trkpt lat="47.28497" lon="-2.28068">
        <ele>-25.39999961853</ele>
        <time>2021-11-07T10:49:44.000Z</time>
      </trkpt>
      <trkpt lat="47.28495" lon="-2.28074">
        <ele>-25.799999237061</ele>
        <time>2021-11-07T10:49:46.000Z</time>
      </trkpt>
      <trkpt lat="47.28492" lon="-2.28076">
        <ele>-26.200000762939</ele>
        <time>2021-11-07T10:49:47.000Z</time>
      </trkpt>
      <trkpt lat="47.28488" lon="-2.28079">
        <ele>-26.60000038147</ele>
        <time>2021-11-07T10:49:48.000Z</time>
      </trkpt>
      <trkpt lat="47.28484" lon="-2.28082">
        <ele>-27</ele>
        <time>2021-11-07T10:49:49.000Z</time>
      </trkpt>
      <trkpt lat="47.28479" lon="-2.28085">
        <ele>-27.39999961853</ele>
        <time>2021-11-07T10:49:50.000Z</time>
      </trkpt>
      <trkpt lat="47.28476" lon="-2.28085">
        <ele>-27.39999961853</ele>
        <time>2021-11-07T10:49:51.000Z</time>
      </trkpt>
      <trkpt lat="47.28469" lon="-2.28083">
        <ele>-27.39999961853</ele>
        <time>2021-11-07T10:49:53.000Z</time>
      </trkpt>
      <trkpt lat="47.28461" lon="-2.28084">
        <ele>-27.39999961853</ele>
        <time>2021-11-07T10:49:56.000Z</time>
      </trkpt>
      <trkpt lat="47.28455" lon="-2.28084">
        <ele>-27.39999961853</ele>
        <time>2021-11-07T10:49:58.000Z</time>
      </trkpt>
      <trkpt lat="47.28445" lon="-2.28087">
        <ele>-27.39999961853</ele>
        <time>2021-11-07T10:50:02.000Z</time>
      </trkpt>
      <trkpt lat="47.28438" lon="-2.28085">
        <ele>-27.39999961853</ele>
        <time>2021-11-07T10:50:05.000Z</time>
      </trkpt>
      <trkpt lat="47.28429" lon="-2.28087">
        <ele>-27.39999961853</ele>
        <time>2021-11-07T10:50:08.000Z</time>
      </trkpt>
      <trkpt lat="47.28414" lon="-2.28082">
        <ele>-27.39999961853</ele>
        <time>2021-11-07T10:50:13.000Z</time>
      </trkpt>
      <trkpt lat="47.28407" lon="-2.28082">
        <ele>-27.39999961853</ele>
        <time>2021-11-07T10:50:15.000Z</time>
      </trkpt>
      <trkpt lat="47.28397" lon="-2.28082">
        <ele>-27.39999961853</ele>
        <time>2021-11-07T10:50:18.000Z</time>
      </trkpt>
      <trkpt lat="47.2839" lon="-2.28081">
        <ele>-27.799999237061</ele>
        <time>2021-11-07T10:50:20.000Z</time>
      </trkpt>
      <trkpt lat="47.28388" lon="-2.28082">
        <ele>-28.200000762939</ele>
        <time>2021-11-07T10:50:21.000Z</time>
      </trkpt>
      <trkpt lat="47.28385" lon="-2.28081">
        <ele>-28.60000038147</ele>
        <time>2021-11-07T10:50:22.000Z</time>
      </trkpt>
      <trkpt lat="47.28384" lon="-2.2808">
        <ele>-29</ele>
        <time>2021-11-07T10:50:23.000Z</time>
      </trkpt>
      <trkpt lat="47.28383" lon="-2.28079">
        <ele>-29.39999961853</ele>
        <time>2021-11-07T10:50:24.000Z</time>
      </trkpt>
      <trkpt lat="47.28383" lon="-2.28077">
        <ele>-29.39999961853</ele>
        <time>2021-11-07T10:50:25.000Z</time>
      </trkpt>
      <trkpt lat="47.28382" lon="-2.28074">
        <ele>-29.39999961853</ele>
        <time>2021-11-07T10:50:26.000Z</time>
      </trkpt>
      <trkpt lat="47.28382" lon="-2.28066">
        <ele>-29.39999961853</ele>
        <time>2021-11-07T10:50:29.000Z</time>
      </trkpt>
      <trkpt lat="47.28381" lon="-2.28064">
        <ele>-29.39999961853</ele>
        <time>2021-11-07T10:50:30.000Z</time>
      </trkpt>
      <trkpt lat="47.2838" lon="-2.28064">
        <ele>-29.39999961853</ele>
        <time>2021-11-07T10:50:31.000Z</time>
      </trkpt>
      <trkpt lat="47.28377" lon="-2.2807">
        <ele>-29.39999961853</ele>
        <time>2021-11-07T10:50:34.000Z</time>
      </trkpt>
      <trkpt lat="47.28376" lon="-2.28074">
        <ele>-29.39999961853</ele>
        <time>2021-11-07T10:50:35.000Z</time>
      </trkpt>
      <trkpt lat="47.28375" lon="-2.28077">
        <ele>-29.39999961853</ele>
        <time>2021-11-07T10:50:36.000Z</time>
      </trkpt>
      <trkpt lat="47.28372" lon="-2.28087">
        <ele>-29.39999961853</ele>
        <time>2021-11-07T10:50:39.000Z</time>
      </trkpt>
      <trkpt lat="47.28372" lon="-2.28099">
        <ele>-29.39999961853</ele>
        <time>2021-11-07T10:50:44.000Z</time>
      </trkpt>
      <trkpt lat="47.28371" lon="-2.28109">
        <ele>-29.39999961853</ele>
        <time>2021-11-07T10:50:50.000Z</time>
      </trkpt>
      <trkpt lat="47.28371" lon="-2.28122">
        <ele>-29.39999961853</ele>
        <time>2021-11-07T10:50:56.000Z</time>
      </trkpt>
      <trkpt lat="47.28372" lon="-2.28135">
        <ele>-29.39999961853</ele>
        <time>2021-11-07T10:51:01.000Z</time>
      </trkpt>
      <trkpt lat="47.28372" lon="-2.28138">
        <ele>-29.39999961853</ele>
        <time>2021-11-07T10:51:02.000Z</time>
      </trkpt>
      <trkpt lat="47.28372" lon="-2.28148">
        <ele>-29.39999961853</ele>
        <time>2021-11-07T10:51:05.000Z</time>
      </trkpt>
      <trkpt lat="47.28371" lon="-2.28157">
        <ele>-29.39999961853</ele>
        <time>2021-11-07T10:51:07.000Z</time>
      </trkpt>
      <trkpt lat="47.2837" lon="-2.28172">
        <ele>-29</ele>
        <time>2021-11-07T10:51:10.000Z</time>
      </trkpt>
      <trkpt lat="47.2837" lon="-2.28177">
        <ele>-28.39999961853</ele>
        <time>2021-11-07T10:51:11.000Z</time>
      </trkpt>
      <trkpt lat="47.2837" lon="-2.28182">
        <ele>-28</ele>
        <time>2021-11-07T10:51:12.000Z</time>
      </trkpt>
      <trkpt lat="47.2837" lon="-2.28188">
        <ele>-27.60000038147</ele>
        <time>2021-11-07T10:51:13.000Z</time>
      </trkpt>
      <trkpt lat="47.2837" lon="-2.28193">
        <ele>-27.200000762939</ele>
        <time>2021-11-07T10:51:14.000Z</time>
      </trkpt>
      <trkpt lat="47.2837" lon="-2.28207">
        <ele>-27.200000762939</ele>
        <time>2021-11-07T10:51:17.000Z</time>
      </trkpt>
      <trkpt lat="47.28369" lon="-2.28229">
        <ele>-26.60000038147</ele>
        <time>2021-11-07T10:51:21.000Z</time>
      </trkpt>
      <trkpt lat="47.28369" lon="-2.28233">
        <ele>-26.200000762939</ele>
        <time>2021-11-07T10:51:22.000Z</time>
      </trkpt>
      <trkpt lat="47.28369" lon="-2.28238">
        <ele>-25.799999237061</ele>
        <time>2021-11-07T10:51:23.000Z</time>
      </trkpt>
      <trkpt lat="47.2837" lon="-2.28244">
        <ele>-25.39999961853</ele>
        <time>2021-11-07T10:51:24.000Z</time>
      </trkpt>
      <trkpt lat="47.2837" lon="-2.2825">
        <ele>-25</ele>
        <time>2021-11-07T10:51:25.000Z</time>
      </trkpt>
      <trkpt lat="47.28371" lon="-2.28266">
        <ele>-25</ele>
        <time>2021-11-07T10:51:28.000Z</time>
      </trkpt>
      <trkpt lat="47.28372" lon="-2.28289">
        <ele>-24.39999961853</ele>
        <time>2021-11-07T10:51:33.000Z</time>
      </trkpt>
      <trkpt lat="47.28372" lon="-2.28294">
        <ele>-24</ele>
        <time>2021-11-07T10:51:34.000Z</time>
      </trkpt>
      <trkpt lat="47.28372" lon="-2.28299">
        <ele>-23.60000038147</ele>
        <time>2021-11-07T10:51:35.000Z</time>
      </trkpt>
      <trkpt lat="47.28372" lon="-2.28304">
        <ele>-23.200000762939</ele>
        <time>2021-11-07T10:51:36.000Z</time>
      </trkpt>
      <trkpt lat="47.28372" lon="-2.2831">
        <ele>-22.799999237061</ele>
        <time>2021-11-07T10:51:37.000Z</time>
      </trkpt>
      <trkpt lat="47.28372" lon="-2.28327">
        <ele>-22.799999237061</ele>
        <time>2021-11-07T10:51:40.000Z</time>
      </trkpt>
      <trkpt lat="47.28372" lon="-2.28363">
        <ele>-22.799999237061</ele>
        <time>2021-11-07T10:51:46.000Z</time>
      </trkpt>
      <trkpt lat="47.28373" lon="-2.28394">
        <ele>-22.799999237061</ele>
        <time>2021-11-07T10:51:51.000Z</time>
      </trkpt>
      <trkpt lat="47.28375" lon="-2.28414">
        <ele>-22.799999237061</ele>
        <time>2021-11-07T10:51:54.000Z</time>
      </trkpt>
      <trkpt lat="47.28375" lon="-2.28434">
        <ele>-22.799999237061</ele>
        <time>2021-11-07T10:51:57.000Z</time>
      </trkpt>
      <trkpt lat="47.28378" lon="-2.28487">
        <ele>-22.799999237061</ele>
        <time>2021-11-07T10:52:04.000Z</time>
      </trkpt>
      <trkpt lat="47.2838" lon="-2.28534">
        <ele>-22.799999237061</ele>
        <time>2021-11-07T10:52:10.000Z</time>
      </trkpt>
      <trkpt lat="47.28382" lon="-2.28608">
        <ele>-22.799999237061</ele>
        <time>2021-11-07T10:52:19.000Z</time>
      </trkpt>
      <trkpt lat="47.28383" lon="-2.28652">
        <ele>-22.799999237061</ele>
        <time>2021-11-07T10:52:24.000Z</time>
      </trkpt>
      <trkpt lat="47.28384" lon="-2.28669">
        <ele>-22.799999237061</ele>
        <time>2021-11-07T10:52:26.000Z</time>
      </trkpt>
      <trkpt lat="47.28385" lon="-2.28739">
        <ele>-22.799999237061</ele>
        <time>2021-11-07T10:52:34.000Z</time>
      </trkpt>
      <trkpt lat="47.28386" lon="-2.28797">
        <ele>-22.799999237061</ele>
        <time>2021-11-07T10:52:40.000Z</time>
      </trkpt>
      <trkpt lat="47.28389" lon="-2.28874">
        <ele>-22.799999237061</ele>
        <time>2021-11-07T10:52:48.000Z</time>
      </trkpt>
      <trkpt lat="47.28391" lon="-2.28924">
        <ele>-22.799999237061</ele>
        <time>2021-11-07T10:52:53.000Z</time>
      </trkpt>
      <trkpt lat="47.28392" lon="-2.28934">
        <ele>-22.799999237061</ele>
        <time>2021-11-07T10:52:54.000Z</time>
      </trkpt>
      <trkpt lat="47.28394" lon="-2.28969">
        <ele>-22.799999237061</ele>
        <time>2021-11-07T10:52:58.000Z</time>
      </trkpt>
      <trkpt lat="47.28397" lon="-2.28992">
        <ele>-22.799999237061</ele>
        <time>2021-11-07T10:53:02.000Z</time>
      </trkpt>
      <trkpt lat="47.28406" lon="-2.28996">
        <ele>-22.799999237061</ele>
        <time>2021-11-07T10:53:05.000Z</time>
      </trkpt>
      <trkpt lat="47.28421" lon="-2.28999">
        <ele>-23.200000762939</ele>
        <time>2021-11-07T10:53:09.000Z</time>
      </trkpt>
      <trkpt lat="47.28426" lon="-2.28999">
        <ele>-23.60000038147</ele>
        <time>2021-11-07T10:53:10.000Z</time>
      </trkpt>
      <trkpt lat="47.28431" lon="-2.28999">
        <ele>-24</ele>
        <time>2021-11-07T10:53:11.000Z</time>
      </trkpt>
      <trkpt lat="47.28436" lon="-2.28999">
        <ele>-24.799999237061</ele>
        <time>2021-11-07T10:53:12.000Z</time>
      </trkpt>
      <trkpt lat="47.28452" lon="-2.29001">
        <ele>-24.799999237061</ele>
        <time>2021-11-07T10:53:15.000Z</time>
      </trkpt>
      <trkpt lat="47.28463" lon="-2.29004">
        <ele>-25.200000762939</ele>
        <time>2021-11-07T10:53:17.000Z</time>
      </trkpt>
      <trkpt lat="47.28469" lon="-2.29005">
        <ele>-25.60000038147</ele>
        <time>2021-11-07T10:53:18.000Z</time>
      </trkpt>
      <trkpt lat="47.28474" lon="-2.29007">
        <ele>-26.200000762939</ele>
        <time>2021-11-07T10:53:19.000Z</time>
      </trkpt>
      <trkpt lat="47.2848" lon="-2.29009">
        <ele>-26.60000038147</ele>
        <time>2021-11-07T10:53:20.000Z</time>
      </trkpt>
      <trkpt lat="47.28485" lon="-2.29011">
        <ele>-27</ele>
        <time>2021-11-07T10:53:21.000Z</time>
      </trkpt>
      <trkpt lat="47.28521" lon="-2.29028">
        <ele>-27</ele>
        <time>2021-11-07T10:53:27.000Z</time>
      </trkpt>
      <trkpt lat="47.28545" lon="-2.29032">
        <ele>-27.39999961853</ele>
        <time>2021-11-07T10:53:31.000Z</time>
      </trkpt>
      <trkpt lat="47.28551" lon="-2.29033">
        <ele>-27.799999237061</ele>
        <time>2021-11-07T10:53:32.000Z</time>
      </trkpt>
      <trkpt lat="47.28556" lon="-2.29034">
        <ele>-28.200000762939</ele>
        <time>2021-11-07T10:53:33.000Z</time>
      </trkpt>
      <trkpt lat="47.28561" lon="-2.29034">
        <ele>-28.799999237061</ele>
        <time>2021-11-07T10:53:34.000Z</time>
      </trkpt>
      <trkpt lat="47.28566" lon="-2.29036">
        <ele>-29.200000762939</ele>
        <time>2021-11-07T10:53:35.000Z</time>
      </trkpt>
      <trkpt lat="47.28581" lon="-2.29039">
        <ele>-29.200000762939</ele>
        <time>2021-11-07T10:53:38.000Z</time>
      </trkpt>
      <trkpt lat="47.28597" lon="-2.29056">
        <ele>-29.200000762939</ele>
        <time>2021-11-07T10:53:42.000Z</time>
      </trkpt>
      <trkpt lat="47.286" lon="-2.29078">
        <ele>-29.200000762939</ele>
        <time>2021-11-07T10:53:45.000Z</time>
      </trkpt>
      <trkpt lat="47.28599" lon="-2.29086">
        <ele>-29.200000762939</ele>
        <time>2021-11-07T10:53:46.000Z</time>
      </trkpt>
      <trkpt lat="47.2859" lon="-2.2912">
        <ele>-29.200000762939</ele>
        <time>2021-11-07T10:53:51.000Z</time>
      </trkpt>
      <trkpt lat="47.28575" lon="-2.29155">
        <ele>-29.200000762939</ele>
        <time>2021-11-07T10:53:57.000Z</time>
      </trkpt>
      <trkpt lat="47.28573" lon="-2.2916">
        <ele>-29.200000762939</ele>
        <time>2021-11-07T10:53:58.000Z</time>
      </trkpt>
      <trkpt lat="47.28559" lon="-2.29174">
        <ele>-29.200000762939</ele>
        <time>2021-11-07T10:54:02.000Z</time>
      </trkpt>
      <trkpt lat="47.28555" lon="-2.29177">
        <ele>-29.200000762939</ele>
        <time>2021-11-07T10:54:03.000Z</time>
      </trkpt>
      <trkpt lat="47.28551" lon="-2.29179">
        <ele>-29.200000762939</ele>
        <time>2021-11-07T10:54:04.000Z</time>
      </trkpt>
      <trkpt lat="47.28535" lon="-2.29193">
        <ele>-29.200000762939</ele>
        <time>2021-11-07T10:54:08.000Z</time>
      </trkpt>
      <trkpt lat="47.28519" lon="-2.29213">
        <ele>-29.200000762939</ele>
        <time>2021-11-07T10:54:13.000Z</time>
      </trkpt>
      <trkpt lat="47.28518" lon="-2.29219">
        <ele>-29.200000762939</ele>
        <time>2021-11-07T10:54:14.000Z</time>
      </trkpt>
      <trkpt lat="47.2852" lon="-2.29259">
        <ele>-29.200000762939</ele>
        <time>2021-11-07T10:54:20.000Z</time>
      </trkpt>
      <trkpt lat="47.2852" lon="-2.29289">
        <ele>-29.200000762939</ele>
        <time>2021-11-07T10:54:26.000Z</time>
      </trkpt>
      <trkpt lat="47.28513" lon="-2.293">
        <ele>-29.200000762939</ele>
        <time>2021-11-07T10:54:29.000Z</time>
      </trkpt>
      <trkpt lat="47.28488" lon="-2.29314">
        <ele>-29.200000762939</ele>
        <time>2021-11-07T10:54:35.000Z</time>
      </trkpt>
      <trkpt lat="47.28462" lon="-2.29326">
        <ele>-29.200000762939</ele>
        <time>2021-11-07T10:54:41.000Z</time>
      </trkpt>
      <trkpt lat="47.28458" lon="-2.29328">
        <ele>-28.799999237061</ele>
        <time>2021-11-07T10:54:42.000Z</time>
      </trkpt>
      <trkpt lat="47.28454" lon="-2.29329">
        <ele>-28.39999961853</ele>
        <time>2021-11-07T10:54:43.000Z</time>
      </trkpt>
      <trkpt lat="47.2845" lon="-2.2933">
        <ele>-27.799999237061</ele>
        <time>2021-11-07T10:54:44.000Z</time>
      </trkpt>
      <trkpt lat="47.28446" lon="-2.29332">
        <ele>-27.39999961853</ele>
        <time>2021-11-07T10:54:45.000Z</time>
      </trkpt>
      <trkpt lat="47.28441" lon="-2.29333">
        <ele>-27</ele>
        <time>2021-11-07T10:54:46.000Z</time>
      </trkpt>
      <trkpt lat="47.28432" lon="-2.29335">
        <ele>-27</ele>
        <time>2021-11-07T10:54:48.000Z</time>
      </trkpt>
      <trkpt lat="47.28428" lon="-2.29337">
        <ele>-27</ele>
        <time>2021-11-07T10:54:49.000Z</time>
      </trkpt>
      <trkpt lat="47.28406" lon="-2.29349">
        <ele>-26.60000038147</ele>
        <time>2021-11-07T10:54:54.000Z</time>
      </trkpt>
      <trkpt lat="47.28402" lon="-2.29352">
        <ele>-26.200000762939</ele>
        <time>2021-11-07T10:54:55.000Z</time>
      </trkpt>
      <trkpt lat="47.28398" lon="-2.29354">
        <ele>-25.799999237061</ele>
        <time>2021-11-07T10:54:56.000Z</time>
      </trkpt>
      <trkpt lat="47.28393" lon="-2.29357">
        <ele>-25.39999961853</ele>
        <time>2021-11-07T10:54:57.000Z</time>
      </trkpt>
      <trkpt lat="47.28389" lon="-2.2936">
        <ele>-25</ele>
        <time>2021-11-07T10:54:58.000Z</time>
      </trkpt>
      <trkpt lat="47.28371" lon="-2.29371">
        <ele>-25</ele>
        <time>2021-11-07T10:55:02.000Z</time>
      </trkpt>
      <trkpt lat="47.28344" lon="-2.29395">
        <ele>-25</ele>
        <time>2021-11-07T10:55:08.000Z</time>
      </trkpt>
      <trkpt lat="47.28303" lon="-2.29437">
        <ele>-25</ele>
        <time>2021-11-07T10:55:16.000Z</time>
      </trkpt>
      <trkpt lat="47.28263" lon="-2.29467">
        <ele>-25</ele>
        <time>2021-11-07T10:55:24.000Z</time>
      </trkpt>
      <trkpt lat="47.28258" lon="-2.29471">
        <ele>-25</ele>
        <time>2021-11-07T10:55:25.000Z</time>
      </trkpt>
      <trkpt lat="47.28238" lon="-2.29484">
        <ele>-25</ele>
        <time>2021-11-07T10:55:29.000Z</time>
      </trkpt>
      <trkpt lat="47.28213" lon="-2.29498">
        <ele>-25</ele>
        <time>2021-11-07T10:55:34.000Z</time>
      </trkpt>
      <trkpt lat="47.28192" lon="-2.29507">
        <ele>-24.60000038147</ele>
        <time>2021-11-07T10:55:38.000Z</time>
      </trkpt>
      <trkpt lat="47.28187" lon="-2.29509">
        <ele>-24.200000762939</ele>
        <time>2021-11-07T10:55:39.000Z</time>
      </trkpt>
      <trkpt lat="47.28182" lon="-2.29511">
        <ele>-23.200000762939</ele>
        <time>2021-11-07T10:55:40.000Z</time>
      </trkpt>
      <trkpt lat="47.28177" lon="-2.29512">
        <ele>-22.799999237061</ele>
        <time>2021-11-07T10:55:41.000Z</time>
      </trkpt>
      <trkpt lat="47.28172" lon="-2.29514">
        <ele>-22.799999237061</ele>
        <time>2021-11-07T10:55:42.000Z</time>
      </trkpt>
      <trkpt lat="47.28152" lon="-2.29521">
        <ele>-22.799999237061</ele>
        <time>2021-11-07T10:55:46.000Z</time>
      </trkpt>
      <trkpt lat="47.28142" lon="-2.29524">
        <ele>-22.39999961853</ele>
        <time>2021-11-07T10:55:48.000Z</time>
      </trkpt>
      <trkpt lat="47.28137" lon="-2.29526">
        <ele>-22</ele>
        <time>2021-11-07T10:55:49.000Z</time>
      </trkpt>
      <trkpt lat="47.28132" lon="-2.29529">
        <ele>-21.60000038147</ele>
        <time>2021-11-07T10:55:50.000Z</time>
      </trkpt>
      <trkpt lat="47.28126" lon="-2.29531">
        <ele>-21.200000762939</ele>
        <time>2021-11-07T10:55:51.000Z</time>
      </trkpt>
      <trkpt lat="47.28121" lon="-2.29534">
        <ele>-20.799999237061</ele>
        <time>2021-11-07T10:55:52.000Z</time>
      </trkpt>
      <trkpt lat="47.28105" lon="-2.29541">
        <ele>-20.799999237061</ele>
        <time>2021-11-07T10:55:55.000Z</time>
      </trkpt>
      <trkpt lat="47.28063" lon="-2.29559">
        <ele>-20.799999237061</ele>
        <time>2021-11-07T10:56:03.000Z</time>
      </trkpt>
      <trkpt lat="47.28027" lon="-2.29576">
        <ele>-20.799999237061</ele>
        <time>2021-11-07T10:56:10.000Z</time>
      </trkpt>
      <trkpt lat="47.27988" lon="-2.2959">
        <ele>-20.799999237061</ele>
        <time>2021-11-07T10:56:17.000Z</time>
      </trkpt>
      <trkpt lat="47.27951" lon="-2.29596">
        <ele>-20.799999237061</ele>
        <time>2021-11-07T10:56:23.000Z</time>
      </trkpt>
      <trkpt lat="47.27906" lon="-2.29596">
        <ele>-20.799999237061</ele>
        <time>2021-11-07T10:56:30.000Z</time>
      </trkpt>
      <trkpt lat="47.27864" lon="-2.29593">
        <ele>-20.799999237061</ele>
        <time>2021-11-07T10:56:37.000Z</time>
      </trkpt>
      <trkpt lat="47.2785" lon="-2.29593">
        <ele>-20.799999237061</ele>
        <time>2021-11-07T10:56:41.000Z</time>
      </trkpt>
      <trkpt lat="47.27828" lon="-2.29593">
        <ele>-20.799999237061</ele>
        <time>2021-11-07T10:56:46.000Z</time>
      </trkpt>
      <trkpt lat="47.27799" lon="-2.29593">
        <ele>-20.799999237061</ele>
        <time>2021-11-07T10:56:51.000Z</time>
      </trkpt>
      <trkpt lat="47.27768" lon="-2.29594">
        <ele>-20.799999237061</ele>
        <time>2021-11-07T10:56:56.000Z</time>
      </trkpt>
      <trkpt lat="47.27723" lon="-2.29594">
        <ele>-20.799999237061</ele>
        <time>2021-11-07T10:57:03.000Z</time>
      </trkpt>
      <trkpt lat="47.27665" lon="-2.29596">
        <ele>-20.799999237061</ele>
        <time>2021-11-07T10:57:12.000Z</time>
      </trkpt>
      <trkpt lat="47.27659" lon="-2.29595">
        <ele>-20.799999237061</ele>
        <time>2021-11-07T10:57:13.000Z</time>
      </trkpt>
      <trkpt lat="47.27652" lon="-2.29596">
        <ele>-21.200000762939</ele>
        <time>2021-11-07T10:57:14.000Z</time>
      </trkpt>
      <trkpt lat="47.27646" lon="-2.29596">
        <ele>-21.60000038147</ele>
        <time>2021-11-07T10:57:15.000Z</time>
      </trkpt>
      <trkpt lat="47.27639" lon="-2.29596">
        <ele>-22</ele>
        <time>2021-11-07T10:57:16.000Z</time>
      </trkpt>
      <trkpt lat="47.27633" lon="-2.29596">
        <ele>-22.39999961853</ele>
        <time>2021-11-07T10:57:17.000Z</time>
      </trkpt>
      <trkpt lat="47.27627" lon="-2.29597">
        <ele>-22.799999237061</ele>
        <time>2021-11-07T10:57:18.000Z</time>
      </trkpt>
      <trkpt lat="47.27616" lon="-2.29596">
        <ele>-22.799999237061</ele>
        <time>2021-11-07T10:57:20.000Z</time>
      </trkpt>
      <trkpt lat="47.27581" lon="-2.29597">
        <ele>-22.799999237061</ele>
        <time>2021-11-07T10:57:26.000Z</time>
      </trkpt>
      <trkpt lat="47.27524" lon="-2.29597">
        <ele>-22.799999237061</ele>
        <time>2021-11-07T10:57:35.000Z</time>
      </trkpt>
      <trkpt lat="47.27475" lon="-2.29608">
        <ele>-22.799999237061</ele>
        <time>2021-11-07T10:57:43.000Z</time>
      </trkpt>
      <trkpt lat="47.27435" lon="-2.29618">
        <ele>-22.799999237061</ele>
        <time>2021-11-07T10:57:50.000Z</time>
      </trkpt>
      <trkpt lat="47.27392" lon="-2.29628">
        <ele>-22.799999237061</ele>
        <time>2021-11-07T10:57:57.000Z</time>
      </trkpt>
      <trkpt lat="47.2735" lon="-2.29635">
        <ele>-22.799999237061</ele>
        <time>2021-11-07T10:58:04.000Z</time>
      </trkpt>
      <trkpt lat="47.27308" lon="-2.2964">
        <ele>-22.799999237061</ele>
        <time>2021-11-07T10:58:11.000Z</time>
      </trkpt>
      <trkpt lat="47.2727" lon="-2.29644">
        <ele>-22.799999237061</ele>
        <time>2021-11-07T10:58:18.000Z</time>
      </trkpt>
      <trkpt lat="47.27265" lon="-2.29658">
        <ele>-22.799999237061</ele>
        <time>2021-11-07T10:58:21.000Z</time>
      </trkpt>
      <trkpt lat="47.27269" lon="-2.29685">
        <ele>-22.799999237061</ele>
        <time>2021-11-07T10:58:25.000Z</time>
      </trkpt>
      <trkpt lat="47.27271" lon="-2.29693">
        <ele>-22.799999237061</ele>
        <time>2021-11-07T10:58:26.000Z</time>
      </trkpt>
      <trkpt lat="47.27282" lon="-2.29733">
        <ele>-22.799999237061</ele>
        <time>2021-11-07T10:58:31.000Z</time>
      </trkpt>
      <trkpt lat="47.27303" lon="-2.29797">
        <ele>-22.799999237061</ele>
        <time>2021-11-07T10:58:39.000Z</time>
      </trkpt>
      <trkpt lat="47.27306" lon="-2.29804">
        <ele>-22.799999237061</ele>
        <time>2021-11-07T10:58:40.000Z</time>
      </trkpt>
      <trkpt lat="47.27322" lon="-2.29831">
        <ele>-22.799999237061</ele>
        <time>2021-11-07T10:58:44.000Z</time>
      </trkpt>
      <trkpt lat="47.2735" lon="-2.29881">
        <ele>-22.799999237061</ele>
        <time>2021-11-07T10:58:51.000Z</time>
      </trkpt>
      <trkpt lat="47.27371" lon="-2.29926">
        <ele>-22.799999237061</ele>
        <time>2021-11-07T10:58:57.000Z</time>
      </trkpt>
      <trkpt lat="47.27394" lon="-2.29978">
        <ele>-22.799999237061</ele>
        <time>2021-11-07T10:59:04.000Z</time>
      </trkpt>
      <trkpt lat="47.27414" lon="-2.30025">
        <ele>-22.799999237061</ele>
        <time>2021-11-07T10:59:10.000Z</time>
      </trkpt>
      <trkpt lat="47.27434" lon="-2.30081">
        <ele>-22.799999237061</ele>
        <time>2021-11-07T10:59:17.000Z</time>
      </trkpt>
      <trkpt lat="47.27447" lon="-2.30131">
        <ele>-22.799999237061</ele>
        <time>2021-11-07T10:59:23.000Z</time>
      </trkpt>
      <trkpt lat="47.2745" lon="-2.3014">
        <ele>-23.200000762939</ele>
        <time>2021-11-07T10:59:24.000Z</time>
      </trkpt>
      <trkpt lat="47.27452" lon="-2.30149">
        <ele>-23.60000038147</ele>
        <time>2021-11-07T10:59:25.000Z</time>
      </trkpt>
      <trkpt lat="47.27454" lon="-2.30157">
        <ele>-24.200000762939</ele>
        <time>2021-11-07T10:59:26.000Z</time>
      </trkpt>
      <trkpt lat="47.27456" lon="-2.30166">
        <ele>-24.60000038147</ele>
        <time>2021-11-07T10:59:27.000Z</time>
      </trkpt>
      <trkpt lat="47.27458" lon="-2.30176">
        <ele>-25</ele>
        <time>2021-11-07T10:59:28.000Z</time>
      </trkpt>
      <trkpt lat="47.2746" lon="-2.30185">
        <ele>-25</ele>
        <time>2021-11-07T10:59:29.000Z</time>
      </trkpt>
      <trkpt lat="47.27461" lon="-2.30192">
        <ele>-25</ele>
        <time>2021-11-07T10:59:30.000Z</time>
      </trkpt>
      <trkpt lat="47.27461" lon="-2.30202">
        <ele>-25</ele>
        <time>2021-11-07T10:59:32.000Z</time>
      </trkpt>
      <trkpt lat="47.27458" lon="-2.30207">
        <ele>-25.39999961853</ele>
        <time>2021-11-07T10:59:33.000Z</time>
      </trkpt>
      <trkpt lat="47.27454" lon="-2.3021">
        <ele>-25.799999237061</ele>
        <time>2021-11-07T10:59:34.000Z</time>
      </trkpt>
      <trkpt lat="47.2745" lon="-2.30213">
        <ele>-26.200000762939</ele>
        <time>2021-11-07T10:59:35.000Z</time>
      </trkpt>
      <trkpt lat="47.27446" lon="-2.30215">
        <ele>-26.60000038147</ele>
        <time>2021-11-07T10:59:36.000Z</time>
      </trkpt>
      <trkpt lat="47.27442" lon="-2.30218">
        <ele>-27</ele>
        <time>2021-11-07T10:59:37.000Z</time>
      </trkpt>
      <trkpt lat="47.27433" lon="-2.30224">
        <ele>-27</ele>
        <time>2021-11-07T10:59:39.000Z</time>
      </trkpt>
      <trkpt lat="47.27429" lon="-2.30226">
        <ele>-27</ele>
        <time>2021-11-07T10:59:40.000Z</time>
      </trkpt>
      <trkpt lat="47.27402" lon="-2.30241">
        <ele>-27</ele>
        <time>2021-11-07T10:59:45.000Z</time>
      </trkpt>
      <trkpt lat="47.27396" lon="-2.30244">
        <ele>-27</ele>
        <time>2021-11-07T10:59:46.000Z</time>
      </trkpt>
      <trkpt lat="47.27366" lon="-2.30253">
        <ele>-27</ele>
        <time>2021-11-07T10:59:51.000Z</time>
      </trkpt>
      <trkpt lat="47.27316" lon="-2.30261">
        <ele>-27</ele>
        <time>2021-11-07T10:59:59.000Z</time>
      </trkpt>
      <trkpt lat="47.27274" lon="-2.30266">
        <ele>-27</ele>
        <time>2021-11-07T11:00:06.000Z</time>
      </trkpt>
      <trkpt lat="47.27247" lon="-2.30272">
        <ele>-27.60000038147</ele>
        <time>2021-11-07T11:00:11.000Z</time>
      </trkpt>
      <trkpt lat="47.27244" lon="-2.30271">
        <ele>-28</ele>
        <time>2021-11-07T11:00:12.000Z</time>
      </trkpt>
      <trkpt lat="47.2724" lon="-2.3027">
        <ele>-28.39999961853</ele>
        <time>2021-11-07T11:00:13.000Z</time>
      </trkpt>
      <trkpt lat="47.27237" lon="-2.30269">
        <ele>-28.799999237061</ele>
        <time>2021-11-07T11:00:14.000Z</time>
      </trkpt>
      <trkpt lat="47.27234" lon="-2.30269">
        <ele>-29.200000762939</ele>
        <time>2021-11-07T11:00:15.000Z</time>
      </trkpt>
      <trkpt lat="47.27215" lon="-2.30268">
        <ele>-29.200000762939</ele>
        <time>2021-11-07T11:00:21.000Z</time>
      </trkpt>
      <trkpt lat="47.27191" lon="-2.3027">
        <ele>-29.200000762939</ele>
        <time>2021-11-07T11:00:27.000Z</time>
      </trkpt>
      <trkpt lat="47.27187" lon="-2.3027">
        <ele>-29.200000762939</ele>
        <time>2021-11-07T11:00:28.000Z</time>
      </trkpt>
      <trkpt lat="47.27181" lon="-2.30264">
        <ele>-29.200000762939</ele>
        <time>2021-11-07T11:00:30.000Z</time>
      </trkpt>
      <trkpt lat="47.27166" lon="-2.30256">
        <ele>-29.200000762939</ele>
        <time>2021-11-07T11:00:34.000Z</time>
      </trkpt>
      <trkpt lat="47.27161" lon="-2.30256">
        <ele>-29.200000762939</ele>
        <time>2021-11-07T11:00:35.000Z</time>
      </trkpt>
      <trkpt lat="47.27128" lon="-2.30263">
        <ele>-29.200000762939</ele>
        <time>2021-11-07T11:00:41.000Z</time>
      </trkpt>
      <trkpt lat="47.27107" lon="-2.30269">
        <ele>-28.799999237061</ele>
        <time>2021-11-07T11:00:45.000Z</time>
      </trkpt>
      <trkpt lat="47.27102" lon="-2.30272">
        <ele>-28.39999961853</ele>
        <time>2021-11-07T11:00:46.000Z</time>
      </trkpt>
      <trkpt lat="47.27098" lon="-2.30275">
        <ele>-28</ele>
        <time>2021-11-07T11:00:47.000Z</time>
      </trkpt>
      <trkpt lat="47.27093" lon="-2.30278">
        <ele>-27.60000038147</ele>
        <time>2021-11-07T11:00:48.000Z</time>
      </trkpt>
      <trkpt lat="47.27089" lon="-2.30282">
        <ele>-27.200000762939</ele>
        <time>2021-11-07T11:00:49.000Z</time>
      </trkpt>
      <trkpt lat="47.27083" lon="-2.30292">
        <ele>-27.200000762939</ele>
        <time>2021-11-07T11:00:51.000Z</time>
      </trkpt>
      <trkpt lat="47.27079" lon="-2.30306">
        <ele>-27.200000762939</ele>
        <time>2021-11-07T11:00:53.000Z</time>
      </trkpt>
      <trkpt lat="47.27077" lon="-2.30313">
        <ele>-26.799999237061</ele>
        <time>2021-11-07T11:00:54.000Z</time>
      </trkpt>
      <trkpt lat="47.27076" lon="-2.3032">
        <ele>-26.200000762939</ele>
        <time>2021-11-07T11:00:55.000Z</time>
      </trkpt>
      <trkpt lat="47.27074" lon="-2.30327">
        <ele>-25.799999237061</ele>
        <time>2021-11-07T11:00:56.000Z</time>
      </trkpt>
      <trkpt lat="47.27072" lon="-2.30336">
        <ele>-25.39999961853</ele>
        <time>2021-11-07T11:00:57.000Z</time>
      </trkpt>
      <trkpt lat="47.27071" lon="-2.30344">
        <ele>-25</ele>
        <time>2021-11-07T11:00:58.000Z</time>
      </trkpt>
      <trkpt lat="47.27066" lon="-2.30369">
        <ele>-25</ele>
        <time>2021-11-07T11:01:01.000Z</time>
      </trkpt>
      <trkpt lat="47.27058" lon="-2.30425">
        <ele>-25</ele>
        <time>2021-11-07T11:01:07.000Z</time>
      </trkpt>
      <trkpt lat="47.27055" lon="-2.30443">
        <ele>-25</ele>
        <time>2021-11-07T11:01:09.000Z</time>
      </trkpt>
      <trkpt lat="47.27052" lon="-2.30459">
        <ele>-25</ele>
        <time>2021-11-07T11:01:11.000Z</time>
      </trkpt>
      <trkpt lat="47.2705" lon="-2.30466">
        <ele>-25</ele>
        <time>2021-11-07T11:01:12.000Z</time>
      </trkpt>
      <trkpt lat="47.2704" lon="-2.30505">
        <ele>-25</ele>
        <time>2021-11-07T11:01:17.000Z</time>
      </trkpt>
      <trkpt lat="47.27037" lon="-2.30513">
        <ele>-25</ele>
        <time>2021-11-07T11:01:18.000Z</time>
      </trkpt>
      <trkpt lat="47.27024" lon="-2.30557">
        <ele>-25</ele>
        <time>2021-11-07T11:01:24.000Z</time>
      </trkpt>
      <trkpt lat="47.27011" lon="-2.30593">
        <ele>-25</ele>
        <time>2021-11-07T11:01:29.000Z</time>
      </trkpt>
      <trkpt lat="47.27002" lon="-2.30604">
        <ele>-25</ele>
        <time>2021-11-07T11:01:31.000Z</time>
      </trkpt>
      <trkpt lat="47.26986" lon="-2.30614">
        <ele>-25</ele>
        <time>2021-11-07T11:01:34.000Z</time>
      </trkpt>
      <trkpt lat="47.26975" lon="-2.3062">
        <ele>-25</ele>
        <time>2021-11-07T11:01:36.000Z</time>
      </trkpt>
      <trkpt lat="47.26958" lon="-2.30629">
        <ele>-25</ele>
        <time>2021-11-07T11:01:39.000Z</time>
      </trkpt>
      <trkpt lat="47.26934" lon="-2.30635">
        <ele>-25</ele>
        <time>2021-11-07T11:01:44.000Z</time>
      </trkpt>
      <trkpt lat="47.26918" lon="-2.30642">
        <ele>-25</ele>
        <time>2021-11-07T11:01:48.000Z</time>
      </trkpt>
      <trkpt lat="47.26914" lon="-2.30646">
        <ele>-24.60000038147</ele>
        <time>2021-11-07T11:01:49.000Z</time>
      </trkpt>
      <trkpt lat="47.26911" lon="-2.3065">
        <ele>-23.799999237061</ele>
        <time>2021-11-07T11:01:50.000Z</time>
      </trkpt>
      <trkpt lat="47.26907" lon="-2.30654">
        <ele>-23.39999961853</ele>
        <time>2021-11-07T11:01:51.000Z</time>
      </trkpt>
      <trkpt lat="47.26904" lon="-2.30659">
        <ele>-23</ele>
        <time>2021-11-07T11:01:52.000Z</time>
      </trkpt>
      <trkpt lat="47.26903" lon="-2.30664">
        <ele>-23</ele>
        <time>2021-11-07T11:01:53.000Z</time>
      </trkpt>
      <trkpt lat="47.26908" lon="-2.30681">
        <ele>-23</ele>
        <time>2021-11-07T11:01:56.000Z</time>
      </trkpt>
      <trkpt lat="47.26915" lon="-2.3069">
        <ele>-23</ele>
        <time>2021-11-07T11:01:58.000Z</time>
      </trkpt>
      <trkpt lat="47.26922" lon="-2.307">
        <ele>-23</ele>
        <time>2021-11-07T11:02:00.000Z</time>
      </trkpt>
      <trkpt lat="47.26938" lon="-2.30725">
        <ele>-23</ele>
        <time>2021-11-07T11:02:05.000Z</time>
      </trkpt>
      <trkpt lat="47.26946" lon="-2.30736">
        <ele>-23</ele>
        <time>2021-11-07T11:02:07.000Z</time>
      </trkpt>
      <trkpt lat="47.26954" lon="-2.30748">
        <ele>-23</ele>
        <time>2021-11-07T11:02:09.000Z</time>
      </trkpt>
      <trkpt lat="47.26968" lon="-2.30764">
        <ele>-23</ele>
        <time>2021-11-07T11:02:12.000Z</time>
      </trkpt>
      <trkpt lat="47.26972" lon="-2.3077">
        <ele>-23.39999961853</ele>
        <time>2021-11-07T11:02:13.000Z</time>
      </trkpt>
      <trkpt lat="47.26977" lon="-2.30776">
        <ele>-24.200000762939</ele>
        <time>2021-11-07T11:02:14.000Z</time>
      </trkpt>
      <trkpt lat="47.26981" lon="-2.30783">
        <ele>-24.799999237061</ele>
        <time>2021-11-07T11:02:15.000Z</time>
      </trkpt>
      <trkpt lat="47.26985" lon="-2.30789">
        <ele>-25.200000762939</ele>
        <time>2021-11-07T11:02:16.000Z</time>
      </trkpt>
      <trkpt lat="47.26989" lon="-2.30796">
        <ele>-25.200000762939</ele>
        <time>2021-11-07T11:02:17.000Z</time>
      </trkpt>
      <trkpt lat="47.2701" lon="-2.30829">
        <ele>-25.60000038147</ele>
        <time>2021-11-07T11:02:22.000Z</time>
      </trkpt>
      <trkpt lat="47.27014" lon="-2.30836">
        <ele>-26</ele>
        <time>2021-11-07T11:02:23.000Z</time>
      </trkpt>
      <trkpt lat="47.27018" lon="-2.30842">
        <ele>-26.39999961853</ele>
        <time>2021-11-07T11:02:24.000Z</time>
      </trkpt>
      <trkpt lat="47.27022" lon="-2.30848">
        <ele>-26.799999237061</ele>
        <time>2021-11-07T11:02:25.000Z</time>
      </trkpt>
      <trkpt lat="47.27026" lon="-2.30854">
        <ele>-27.200000762939</ele>
        <time>2021-11-07T11:02:26.000Z</time>
      </trkpt>
      <trkpt lat="47.27031" lon="-2.30861">
        <ele>-27.200000762939</ele>
        <time>2021-11-07T11:02:27.000Z</time>
      </trkpt>
      <trkpt lat="47.27035" lon="-2.30867">
        <ele>-27.200000762939</ele>
        <time>2021-11-07T11:02:28.000Z</time>
      </trkpt>
      <trkpt lat="47.27043" lon="-2.3088">
        <ele>-27.200000762939</ele>
        <time>2021-11-07T11:02:30.000Z</time>
      </trkpt>
      <trkpt lat="47.27046" lon="-2.30886">
        <ele>-27.60000038147</ele>
        <time>2021-11-07T11:02:31.000Z</time>
      </trkpt>
      <trkpt lat="47.27048" lon="-2.30891">
        <ele>-28.200000762939</ele>
        <time>2021-11-07T11:02:32.000Z</time>
      </trkpt>
      <trkpt lat="47.27049" lon="-2.30897">
        <ele>-28.60000038147</ele>
        <time>2021-11-07T11:02:33.000Z</time>
      </trkpt>
      <trkpt lat="47.2705" lon="-2.30901">
        <ele>-29</ele>
        <time>2021-11-07T11:02:34.000Z</time>
      </trkpt>
      <trkpt lat="47.27051" lon="-2.30906">
        <ele>-29.60000038147</ele>
        <time>2021-11-07T11:02:35.000Z</time>
      </trkpt>
      <trkpt lat="47.27051" lon="-2.30911">
        <ele>-29.60000038147</ele>
        <time>2021-11-07T11:02:36.000Z</time>
      </trkpt>
      <trkpt lat="47.27053" lon="-2.30915">
        <ele>-29.60000038147</ele>
        <time>2021-11-07T11:02:37.000Z</time>
      </trkpt>
      <trkpt lat="47.27063" lon="-2.30941">
        <ele>-29.60000038147</ele>
        <time>2021-11-07T11:02:45.000Z</time>
      </trkpt>
      <trkpt lat="47.27066" lon="-2.30975">
        <ele>-29.60000038147</ele>
        <time>2021-11-07T11:02:51.000Z</time>
      </trkpt>
      <trkpt lat="47.27065" lon="-2.30987">
        <ele>-29.60000038147</ele>
        <time>2021-11-07T11:02:54.000Z</time>
      </trkpt>
      <trkpt lat="47.27063" lon="-2.3099">
        <ele>-29.60000038147</ele>
        <time>2021-11-07T11:02:55.000Z</time>
      </trkpt>
      <trkpt lat="47.27054" lon="-2.30998">
        <ele>-29.60000038147</ele>
        <time>2021-11-07T11:02:58.000Z</time>
      </trkpt>
      <trkpt lat="47.27046" lon="-2.31006">
        <ele>-29.60000038147</ele>
        <time>2021-11-07T11:03:01.000Z</time>
      </trkpt>
      <trkpt lat="47.27026" lon="-2.31029">
        <ele>-29.60000038147</ele>
        <time>2021-11-07T11:03:06.000Z</time>
      </trkpt>
      <trkpt lat="47.27008" lon="-2.31048">
        <ele>-29.60000038147</ele>
        <time>2021-11-07T11:03:10.000Z</time>
      </trkpt>
      <trkpt lat="47.27004" lon="-2.31054">
        <ele>-29.200000762939</ele>
        <time>2021-11-07T11:03:11.000Z</time>
      </trkpt>
      <trkpt lat="47.27001" lon="-2.31061">
        <ele>-28.60000038147</ele>
        <time>2021-11-07T11:03:12.000Z</time>
      </trkpt>
      <trkpt lat="47.27" lon="-2.31069">
        <ele>-28.200000762939</ele>
        <time>2021-11-07T11:03:13.000Z</time>
      </trkpt>
      <trkpt lat="47.27" lon="-2.31076">
        <ele>-27.799999237061</ele>
        <time>2021-11-07T11:03:14.000Z</time>
      </trkpt>
      <trkpt lat="47.26999" lon="-2.31084">
        <ele>-27.39999961853</ele>
        <time>2021-11-07T11:03:15.000Z</time>
      </trkpt>
      <trkpt lat="47.26998" lon="-2.311">
        <ele>-27.39999961853</ele>
        <time>2021-11-07T11:03:17.000Z</time>
      </trkpt>
      <trkpt lat="47.26997" lon="-2.31124">
        <ele>-27.39999961853</ele>
        <time>2021-11-07T11:03:20.000Z</time>
      </trkpt>
      <trkpt lat="47.26996" lon="-2.31131">
        <ele>-27.39999961853</ele>
        <time>2021-11-07T11:03:21.000Z</time>
      </trkpt>
      <trkpt lat="47.26993" lon="-2.31152">
        <ele>-27</ele>
        <time>2021-11-07T11:03:24.000Z</time>
      </trkpt>
      <trkpt lat="47.26991" lon="-2.31158">
        <ele>-26.60000038147</ele>
        <time>2021-11-07T11:03:25.000Z</time>
      </trkpt>
      <trkpt lat="47.2699" lon="-2.31164">
        <ele>-26.200000762939</ele>
        <time>2021-11-07T11:03:26.000Z</time>
      </trkpt>
      <trkpt lat="47.26989" lon="-2.3117">
        <ele>-25.799999237061</ele>
        <time>2021-11-07T11:03:27.000Z</time>
      </trkpt>
      <trkpt lat="47.26988" lon="-2.31177">
        <ele>-25.39999961853</ele>
        <time>2021-11-07T11:03:28.000Z</time>
      </trkpt>
      <trkpt lat="47.26985" lon="-2.31198">
        <ele>-25.39999961853</ele>
        <time>2021-11-07T11:03:31.000Z</time>
      </trkpt>
      <trkpt lat="47.26984" lon="-2.31205">
        <ele>-25</ele>
        <time>2021-11-07T11:03:32.000Z</time>
      </trkpt>
      <trkpt lat="47.26982" lon="-2.31212">
        <ele>-24.39999961853</ele>
        <time>2021-11-07T11:03:33.000Z</time>
      </trkpt>
      <trkpt lat="47.26981" lon="-2.31218">
        <ele>-24</ele>
        <time>2021-11-07T11:03:34.000Z</time>
      </trkpt>
      <trkpt lat="47.2698" lon="-2.31224">
        <ele>-23.60000038147</ele>
        <time>2021-11-07T11:03:35.000Z</time>
      </trkpt>
      <trkpt lat="47.26979" lon="-2.3123">
        <ele>-23.200000762939</ele>
        <time>2021-11-07T11:03:36.000Z</time>
      </trkpt>
      <trkpt lat="47.26977" lon="-2.31262">
        <ele>-23.200000762939</ele>
        <time>2021-11-07T11:03:42.000Z</time>
      </trkpt>
      <trkpt lat="47.26978" lon="-2.31276">
        <ele>-23.200000762939</ele>
        <time>2021-11-07T11:03:47.000Z</time>
      </trkpt>
      <trkpt lat="47.26978" lon="-2.31279">
        <ele>-23.200000762939</ele>
        <time>2021-11-07T11:03:50.000Z</time>
      </trkpt>
      <trkpt lat="47.26978" lon="-2.31281">
        <ele>-21.200000762939</ele>
        <time>2021-11-07T11:06:41.000Z</time>
      </trkpt>
      <trkpt lat="47.26977" lon="-2.31283">
        <ele>-21.200000762939</ele>
        <time>2021-11-07T11:06:42.000Z</time>
      </trkpt>
      <trkpt lat="47.26977" lon="-2.31297">
        <ele>-21.200000762939</ele>
        <time>2021-11-07T11:06:45.000Z</time>
      </trkpt>
      <trkpt lat="47.2698" lon="-2.31316">
        <ele>-21.200000762939</ele>
        <time>2021-11-07T11:06:48.000Z</time>
      </trkpt>
      <trkpt lat="47.26982" lon="-2.31328">
        <ele>-21.200000762939</ele>
        <time>2021-11-07T11:06:50.000Z</time>
      </trkpt>
      <trkpt lat="47.26983" lon="-2.31334">
        <ele>-21.200000762939</ele>
        <time>2021-11-07T11:06:51.000Z</time>
      </trkpt>
      <trkpt lat="47.26986" lon="-2.31367">
        <ele>-21.200000762939</ele>
        <time>2021-11-07T11:06:56.000Z</time>
      </trkpt>
      <trkpt lat="47.26988" lon="-2.31406">
        <ele>-21.200000762939</ele>
        <time>2021-11-07T11:07:01.000Z</time>
      </trkpt>
      <trkpt lat="47.26989" lon="-2.31423">
        <ele>-21.60000038147</ele>
        <time>2021-11-07T11:07:03.000Z</time>
      </trkpt>
      <trkpt lat="47.26989" lon="-2.31431">
        <ele>-22</ele>
        <time>2021-11-07T11:07:04.000Z</time>
      </trkpt>
      <trkpt lat="47.26989" lon="-2.3144">
        <ele>-22.39999961853</ele>
        <time>2021-11-07T11:07:05.000Z</time>
      </trkpt>
      <trkpt lat="47.26989" lon="-2.31447">
        <ele>-22.799999237061</ele>
        <time>2021-11-07T11:07:06.000Z</time>
      </trkpt>
      <trkpt lat="47.26989" lon="-2.31455">
        <ele>-23.200000762939</ele>
        <time>2021-11-07T11:07:07.000Z</time>
      </trkpt>
      <trkpt lat="47.2699" lon="-2.31462">
        <ele>-23.200000762939</ele>
        <time>2021-11-07T11:07:08.000Z</time>
      </trkpt>
      <trkpt lat="47.26995" lon="-2.31486">
        <ele>-23.200000762939</ele>
        <time>2021-11-07T11:07:11.000Z</time>
      </trkpt>
      <trkpt lat="47.26999" lon="-2.31502">
        <ele>-23.799999237061</ele>
        <time>2021-11-07T11:07:13.000Z</time>
      </trkpt>
      <trkpt lat="47.27001" lon="-2.3151">
        <ele>-24.200000762939</ele>
        <time>2021-11-07T11:07:14.000Z</time>
      </trkpt>
      <trkpt lat="47.27003" lon="-2.31519">
        <ele>-24.60000038147</ele>
        <time>2021-11-07T11:07:15.000Z</time>
      </trkpt>
      <trkpt lat="47.27006" lon="-2.31528">
        <ele>-25</ele>
        <time>2021-11-07T11:07:16.000Z</time>
      </trkpt>
      <trkpt lat="47.27009" lon="-2.31537">
        <ele>-25.39999961853</ele>
        <time>2021-11-07T11:07:17.000Z</time>
      </trkpt>
      <trkpt lat="47.27017" lon="-2.31564">
        <ele>-25.799999237061</ele>
        <time>2021-11-07T11:07:20.000Z</time>
      </trkpt>
      <trkpt lat="47.27021" lon="-2.3157">
        <ele>-26.39999961853</ele>
        <time>2021-11-07T11:07:21.000Z</time>
      </trkpt>
      <trkpt lat="47.27023" lon="-2.31577">
        <ele>-26.799999237061</ele>
        <time>2021-11-07T11:07:22.000Z</time>
      </trkpt>
      <trkpt lat="47.27024" lon="-2.31583">
        <ele>-27.200000762939</ele>
        <time>2021-11-07T11:07:23.000Z</time>
      </trkpt>
      <trkpt lat="47.27026" lon="-2.31589">
        <ele>-27.799999237061</ele>
        <time>2021-11-07T11:07:24.000Z</time>
      </trkpt>
      <trkpt lat="47.27027" lon="-2.31595">
        <ele>-28.200000762939</ele>
        <time>2021-11-07T11:07:25.000Z</time>
      </trkpt>
      <trkpt lat="47.27029" lon="-2.31601">
        <ele>-28.60000038147</ele>
        <time>2021-11-07T11:07:26.000Z</time>
      </trkpt>
      <trkpt lat="47.27031" lon="-2.31608">
        <ele>-29</ele>
        <time>2021-11-07T11:07:27.000Z</time>
      </trkpt>
      <trkpt lat="47.27032" lon="-2.31615">
        <ele>-29.39999961853</ele>
        <time>2021-11-07T11:07:28.000Z</time>
      </trkpt>
      <trkpt lat="47.27034" lon="-2.31621">
        <ele>-29.799999237061</ele>
        <time>2021-11-07T11:07:29.000Z</time>
      </trkpt>
      <trkpt lat="47.27037" lon="-2.31636">
        <ele>-30.200000762939</ele>
        <time>2021-11-07T11:07:31.000Z</time>
      </trkpt>
      <trkpt lat="47.27038" lon="-2.31645">
        <ele>-30.60000038147</ele>
        <time>2021-11-07T11:07:32.000Z</time>
      </trkpt>
      <trkpt lat="47.27038" lon="-2.31655">
        <ele>-31</ele>
        <time>2021-11-07T11:07:33.000Z</time>
      </trkpt>
      <trkpt lat="47.27037" lon="-2.31665">
        <ele>-31.39999961853</ele>
        <time>2021-11-07T11:07:34.000Z</time>
      </trkpt>
      <trkpt lat="47.27036" lon="-2.31674">
        <ele>-31.799999237061</ele>
        <time>2021-11-07T11:07:35.000Z</time>
      </trkpt>
      <trkpt lat="47.27033" lon="-2.31688">
        <ele>-32.400001525879</ele>
        <time>2021-11-07T11:07:37.000Z</time>
      </trkpt>
      <trkpt lat="47.27032" lon="-2.31693">
        <ele>-32.799999237061</ele>
        <time>2021-11-07T11:07:38.000Z</time>
      </trkpt>
      <trkpt lat="47.27031" lon="-2.31698">
        <ele>-33.400001525879</ele>
        <time>2021-11-07T11:07:39.000Z</time>
      </trkpt>
      <trkpt lat="47.27031" lon="-2.31703">
        <ele>-33.799999237061</ele>
        <time>2021-11-07T11:07:40.000Z</time>
      </trkpt>
      <trkpt lat="47.27033" lon="-2.31708">
        <ele>-34.400001525879</ele>
        <time>2021-11-07T11:07:41.000Z</time>
      </trkpt>
      <trkpt lat="47.27036" lon="-2.31714">
        <ele>-34.400001525879</ele>
        <time>2021-11-07T11:07:42.000Z</time>
      </trkpt>
      <trkpt lat="47.27047" lon="-2.31733">
        <ele>-34.400001525879</ele>
        <time>2021-11-07T11:07:46.000Z</time>
      </trkpt>
      <trkpt lat="47.27051" lon="-2.31742">
        <ele>-34.400001525879</ele>
        <time>2021-11-07T11:07:48.000Z</time>
      </trkpt>
      <trkpt lat="47.27049" lon="-2.31754">
        <ele>-34.400001525879</ele>
        <time>2021-11-07T11:07:50.000Z</time>
      </trkpt>
      <trkpt lat="47.2705" lon="-2.3176">
        <ele>-34.400001525879</ele>
        <time>2021-11-07T11:07:51.000Z</time>
      </trkpt>
      <trkpt lat="47.27057" lon="-2.31785">
        <ele>-34.400001525879</ele>
        <time>2021-11-07T11:07:56.000Z</time>
      </trkpt>
      <trkpt lat="47.27057" lon="-2.31792">
        <ele>-34.799999237061</ele>
        <time>2021-11-07T11:07:57.000Z</time>
      </trkpt>
      <trkpt lat="47.27058" lon="-2.318">
        <ele>-35.200000762939</ele>
        <time>2021-11-07T11:07:58.000Z</time>
      </trkpt>
      <trkpt lat="47.27059" lon="-2.31807">
        <ele>-35.599998474121</ele>
        <time>2021-11-07T11:07:59.000Z</time>
      </trkpt>
      <trkpt lat="47.2706" lon="-2.31814">
        <ele>-36</ele>
        <time>2021-11-07T11:08:00.000Z</time>
      </trkpt>
      <trkpt lat="47.2706" lon="-2.31822">
        <ele>-36.400001525879</ele>
        <time>2021-11-07T11:08:01.000Z</time>
      </trkpt>
      <trkpt lat="47.27062" lon="-2.31829">
        <ele>-36.400001525879</ele>
        <time>2021-11-07T11:08:02.000Z</time>
      </trkpt>
      <trkpt lat="47.27069" lon="-2.31856">
        <ele>-36.799999237061</ele>
        <time>2021-11-07T11:08:07.000Z</time>
      </trkpt>
      <trkpt lat="47.27071" lon="-2.31856">
        <ele>-37.200000762939</ele>
        <time>2021-11-07T11:08:08.000Z</time>
      </trkpt>
      <trkpt lat="47.27073" lon="-2.31857">
        <ele>-37.799999237061</ele>
        <time>2021-11-07T11:08:09.000Z</time>
      </trkpt>
      <trkpt lat="47.27074" lon="-2.31857">
        <ele>-38.200000762939</ele>
        <time>2021-11-07T11:08:10.000Z</time>
      </trkpt>
      <trkpt lat="47.27075" lon="-2.31858">
        <ele>-38.599998474121</ele>
        <time>2021-11-07T11:08:11.000Z</time>
      </trkpt>
      <trkpt lat="47.27078" lon="-2.31865">
        <ele>-38.599998474121</ele>
        <time>2021-11-07T11:08:15.000Z</time>
      </trkpt>
      <trkpt lat="47.27078" lon="-2.31867">
        <ele>-38.599998474121</ele>
        <time>2021-11-07T11:08:16.000Z</time>
      </trkpt>
      <trkpt lat="47.27076" lon="-2.3188">
        <ele>-38.599998474121</ele>
        <time>2021-11-07T11:08:21.000Z</time>
      </trkpt>
      <trkpt lat="47.27077" lon="-2.31902">
        <ele>-38.599998474121</ele>
        <time>2021-11-07T11:08:26.000Z</time>
      </trkpt>
      <trkpt lat="47.27078" lon="-2.31933">
        <ele>-38.599998474121</ele>
        <time>2021-11-07T11:08:32.000Z</time>
      </trkpt>
      <trkpt lat="47.27076" lon="-2.31943">
        <ele>-39</ele>
        <time>2021-11-07T11:08:34.000Z</time>
      </trkpt>
      <trkpt lat="47.27074" lon="-2.31945">
        <ele>-39.400001525879</ele>
        <time>2021-11-07T11:08:35.000Z</time>
      </trkpt>
      <trkpt lat="47.27069" lon="-2.31947">
        <ele>-40</ele>
        <time>2021-11-07T11:08:36.000Z</time>
      </trkpt>
      <trkpt lat="47.27064" lon="-2.31948">
        <ele>-40.400001525879</ele>
        <time>2021-11-07T11:08:37.000Z</time>
      </trkpt>
      <trkpt lat="47.2706" lon="-2.31948">
        <ele>-40.799999237061</ele>
        <time>2021-11-07T11:08:38.000Z</time>
      </trkpt>
      <trkpt lat="47.27047" lon="-2.31949">
        <ele>-40.799999237061</ele>
        <time>2021-11-07T11:08:41.000Z</time>
      </trkpt>
      <trkpt lat="47.27031" lon="-2.3196">
        <ele>-40.799999237061</ele>
        <time>2021-11-07T11:08:45.000Z</time>
      </trkpt>
      <trkpt lat="47.27023" lon="-2.31966">
        <ele>-40.799999237061</ele>
        <time>2021-11-07T11:08:47.000Z</time>
      </trkpt>
      <trkpt lat="47.2701" lon="-2.31975">
        <ele>-40.799999237061</ele>
        <time>2021-11-07T11:08:50.000Z</time>
      </trkpt>
      <trkpt lat="47.27006" lon="-2.31984">
        <ele>-40.799999237061</ele>
        <time>2021-11-07T11:08:52.000Z</time>
      </trkpt>
      <trkpt lat="47.27006" lon="-2.3199">
        <ele>-40.799999237061</ele>
        <time>2021-11-07T11:08:53.000Z</time>
      </trkpt>
      <trkpt lat="47.2701" lon="-2.32009">
        <ele>-40.799999237061</ele>
        <time>2021-11-07T11:08:56.000Z</time>
      </trkpt>
      <trkpt lat="47.27019" lon="-2.32041">
        <ele>-40.799999237061</ele>
        <time>2021-11-07T11:09:00.000Z</time>
      </trkpt>
      <trkpt lat="47.27019" lon="-2.32049">
        <ele>-40.799999237061</ele>
        <time>2021-11-07T11:09:01.000Z</time>
      </trkpt>
      <trkpt lat="47.27016" lon="-2.32086">
        <ele>-40.799999237061</ele>
        <time>2021-11-07T11:09:05.000Z</time>
      </trkpt>
      <trkpt lat="47.27014" lon="-2.32101">
        <ele>-40.799999237061</ele>
        <time>2021-11-07T11:09:07.000Z</time>
      </trkpt>
      <trkpt lat="47.27008" lon="-2.32114">
        <ele>-40.799999237061</ele>
        <time>2021-11-07T11:09:09.000Z</time>
      </trkpt>
      <trkpt lat="47.27004" lon="-2.32119">
        <ele>-41.200000762939</ele>
        <time>2021-11-07T11:09:10.000Z</time>
      </trkpt>
      <trkpt lat="47.26999" lon="-2.32124">
        <ele>-41.599998474121</ele>
        <time>2021-11-07T11:09:11.000Z</time>
      </trkpt>
      <trkpt lat="47.26994" lon="-2.32129">
        <ele>-42</ele>
        <time>2021-11-07T11:09:12.000Z</time>
      </trkpt>
      <trkpt lat="47.26991" lon="-2.32136">
        <ele>-42.400001525879</ele>
        <time>2021-11-07T11:09:13.000Z</time>
      </trkpt>
      <trkpt lat="47.26991" lon="-2.32143">
        <ele>-42.799999237061</ele>
        <time>2021-11-07T11:09:14.000Z</time>
      </trkpt>
      <trkpt lat="47.26993" lon="-2.3215">
        <ele>-42.799999237061</ele>
        <time>2021-11-07T11:09:15.000Z</time>
      </trkpt>
      <trkpt lat="47.27006" lon="-2.32169">
        <ele>-42.799999237061</ele>
        <time>2021-11-07T11:09:18.000Z</time>
      </trkpt>
      <trkpt lat="47.27013" lon="-2.32185">
        <ele>-42.799999237061</ele>
        <time>2021-11-07T11:09:20.000Z</time>
      </trkpt>
      <trkpt lat="47.27016" lon="-2.32193">
        <ele>-42.799999237061</ele>
        <time>2021-11-07T11:09:21.000Z</time>
      </trkpt>
      <trkpt lat="47.27019" lon="-2.32201">
        <ele>-42.799999237061</ele>
        <time>2021-11-07T11:09:22.000Z</time>
      </trkpt>
      <trkpt lat="47.27023" lon="-2.32217">
        <ele>-42.799999237061</ele>
        <time>2021-11-07T11:09:24.000Z</time>
      </trkpt>
      <trkpt lat="47.27024" lon="-2.32245">
        <ele>-42.799999237061</ele>
        <time>2021-11-07T11:09:27.000Z</time>
      </trkpt>
      <trkpt lat="47.27023" lon="-2.32254">
        <ele>-42.799999237061</ele>
        <time>2021-11-07T11:09:28.000Z</time>
      </trkpt>
      <trkpt lat="47.27023" lon="-2.3231">
        <ele>-42.799999237061</ele>
        <time>2021-11-07T11:09:34.000Z</time>
      </trkpt>
      <trkpt lat="47.27025" lon="-2.32351">
        <ele>-42.799999237061</ele>
        <time>2021-11-07T11:09:39.000Z</time>
      </trkpt>
      <trkpt lat="47.27026" lon="-2.32359">
        <ele>-42.799999237061</ele>
        <time>2021-11-07T11:09:40.000Z</time>
      </trkpt>
      <trkpt lat="47.27027" lon="-2.32368">
        <ele>-42.799999237061</ele>
        <time>2021-11-07T11:09:41.000Z</time>
      </trkpt>
      <trkpt lat="47.27031" lon="-2.32404">
        <ele>-42.799999237061</ele>
        <time>2021-11-07T11:09:45.000Z</time>
      </trkpt>
      <trkpt lat="47.27033" lon="-2.32463">
        <ele>-42.799999237061</ele>
        <time>2021-11-07T11:09:51.000Z</time>
      </trkpt>
      <trkpt lat="47.27033" lon="-2.3248">
        <ele>-42.799999237061</ele>
        <time>2021-11-07T11:09:53.000Z</time>
      </trkpt>
      <trkpt lat="47.27029" lon="-2.32493">
        <ele>-42.799999237061</ele>
        <time>2021-11-07T11:09:55.000Z</time>
      </trkpt>
      <trkpt lat="47.27016" lon="-2.32504">
        <ele>-42.799999237061</ele>
        <time>2021-11-07T11:09:58.000Z</time>
      </trkpt>
      <trkpt lat="47.27001" lon="-2.32499">
        <ele>-42.799999237061</ele>
        <time>2021-11-07T11:10:01.000Z</time>
      </trkpt>
      <trkpt lat="47.26995" lon="-2.32486">
        <ele>-42.799999237061</ele>
        <time>2021-11-07T11:10:03.000Z</time>
      </trkpt>
      <trkpt lat="47.26992" lon="-2.3248">
        <ele>-42.799999237061</ele>
        <time>2021-11-07T11:10:04.000Z</time>
      </trkpt>
      <trkpt lat="47.26972" lon="-2.32445">
        <ele>-42.799999237061</ele>
        <time>2021-11-07T11:10:10.000Z</time>
      </trkpt>
      <trkpt lat="47.26954" lon="-2.32419">
        <ele>-42.799999237061</ele>
        <time>2021-11-07T11:10:15.000Z</time>
      </trkpt>
      <trkpt lat="47.26951" lon="-2.32412">
        <ele>-42.799999237061</ele>
        <time>2021-11-07T11:10:16.000Z</time>
      </trkpt>
      <trkpt lat="47.26947" lon="-2.32399">
        <ele>-42.799999237061</ele>
        <time>2021-11-07T11:10:18.000Z</time>
      </trkpt>
      <trkpt lat="47.26941" lon="-2.32372">
        <ele>-42.400001525879</ele>
        <time>2021-11-07T11:10:22.000Z</time>
      </trkpt>
      <trkpt lat="47.26939" lon="-2.32365">
        <ele>-42</ele>
        <time>2021-11-07T11:10:23.000Z</time>
      </trkpt>
      <trkpt lat="47.26937" lon="-2.32358">
        <ele>-41.599998474121</ele>
        <time>2021-11-07T11:10:24.000Z</time>
      </trkpt>
      <trkpt lat="47.26935" lon="-2.32352">
        <ele>-41.200000762939</ele>
        <time>2021-11-07T11:10:25.000Z</time>
      </trkpt>
      <trkpt lat="47.26931" lon="-2.32346">
        <ele>-40.599998474121</ele>
        <time>2021-11-07T11:10:26.000Z</time>
      </trkpt>
      <trkpt lat="47.26928" lon="-2.32343">
        <ele>-40.599998474121</ele>
        <time>2021-11-07T11:10:27.000Z</time>
      </trkpt>
      <trkpt lat="47.2692" lon="-2.32336">
        <ele>-40.599998474121</ele>
        <time>2021-11-07T11:10:29.000Z</time>
      </trkpt>
      <trkpt lat="47.26912" lon="-2.32334">
        <ele>-40.599998474121</ele>
        <time>2021-11-07T11:10:31.000Z</time>
      </trkpt>
      <trkpt lat="47.26904" lon="-2.32336">
        <ele>-40.599998474121</ele>
        <time>2021-11-07T11:10:33.000Z</time>
      </trkpt>
      <trkpt lat="47.26893" lon="-2.32338">
        <ele>-40.599998474121</ele>
        <time>2021-11-07T11:10:36.000Z</time>
      </trkpt>
      <trkpt lat="47.26889" lon="-2.32339">
        <ele>-40.200000762939</ele>
        <time>2021-11-07T11:10:37.000Z</time>
      </trkpt>
      <trkpt lat="47.26885" lon="-2.3234">
        <ele>-39.799999237061</ele>
        <time>2021-11-07T11:10:38.000Z</time>
      </trkpt>
      <trkpt lat="47.26881" lon="-2.3234">
        <ele>-39.400001525879</ele>
        <time>2021-11-07T11:10:39.000Z</time>
      </trkpt>
      <trkpt lat="47.26877" lon="-2.32342">
        <ele>-38.799999237061</ele>
        <time>2021-11-07T11:10:40.000Z</time>
      </trkpt>
      <trkpt lat="47.26873" lon="-2.32343">
        <ele>-38.400001525879</ele>
        <time>2021-11-07T11:10:41.000Z</time>
      </trkpt>
      <trkpt lat="47.26865" lon="-2.32345">
        <ele>-38.400001525879</ele>
        <time>2021-11-07T11:10:43.000Z</time>
      </trkpt>
      <trkpt lat="47.26853" lon="-2.32348">
        <ele>-38</ele>
        <time>2021-11-07T11:10:46.000Z</time>
      </trkpt>
      <trkpt lat="47.26849" lon="-2.32348">
        <ele>-37.599998474121</ele>
        <time>2021-11-07T11:10:47.000Z</time>
      </trkpt>
      <trkpt lat="47.26845" lon="-2.32349">
        <ele>-37.200000762939</ele>
        <time>2021-11-07T11:10:48.000Z</time>
      </trkpt>
      <trkpt lat="47.26842" lon="-2.32349">
        <ele>-36.799999237061</ele>
        <time>2021-11-07T11:10:49.000Z</time>
      </trkpt>
      <trkpt lat="47.26838" lon="-2.3235">
        <ele>-36.400001525879</ele>
        <time>2021-11-07T11:10:50.000Z</time>
      </trkpt>
      <trkpt lat="47.26822" lon="-2.32353">
        <ele>-35.400001525879</ele>
        <time>2021-11-07T11:10:55.000Z</time>
      </trkpt>
      <trkpt lat="47.26819" lon="-2.32354">
        <ele>-35</ele>
        <time>2021-11-07T11:10:56.000Z</time>
      </trkpt>
      <trkpt lat="47.26816" lon="-2.32354">
        <ele>-34.599998474121</ele>
        <time>2021-11-07T11:10:57.000Z</time>
      </trkpt>
      <trkpt lat="47.26812" lon="-2.32355">
        <ele>-34</ele>
        <time>2021-11-07T11:10:58.000Z</time>
      </trkpt>
      <trkpt lat="47.26803" lon="-2.32358">
        <ele>-33.599998474121</ele>
        <time>2021-11-07T11:11:01.000Z</time>
      </trkpt>
      <trkpt lat="47.268" lon="-2.32359">
        <ele>-33.200000762939</ele>
        <time>2021-11-07T11:11:02.000Z</time>
      </trkpt>
      <trkpt lat="47.26797" lon="-2.32361">
        <ele>-32.799999237061</ele>
        <time>2021-11-07T11:11:03.000Z</time>
      </trkpt>
      <trkpt lat="47.26794" lon="-2.32362">
        <ele>-32.400001525879</ele>
        <time>2021-11-07T11:11:04.000Z</time>
      </trkpt>
      <trkpt lat="47.26791" lon="-2.32362">
        <ele>-31.799999237061</ele>
        <time>2021-11-07T11:11:05.000Z</time>
      </trkpt>
      <trkpt lat="47.2678" lon="-2.3237">
        <ele>-31.799999237061</ele>
        <time>2021-11-07T11:11:09.000Z</time>
      </trkpt>
      <trkpt lat="47.2678" lon="-2.32375">
        <ele>-31.39999961853</ele>
        <time>2021-11-07T11:11:10.000Z</time>
      </trkpt>
      <trkpt lat="47.2678" lon="-2.32379">
        <ele>-31</ele>
        <time>2021-11-07T11:11:11.000Z</time>
      </trkpt>
      <trkpt lat="47.26781" lon="-2.32385">
        <ele>-30.60000038147</ele>
        <time>2021-11-07T11:11:12.000Z</time>
      </trkpt>
      <trkpt lat="47.26782" lon="-2.3239">
        <ele>-30.200000762939</ele>
        <time>2021-11-07T11:11:13.000Z</time>
      </trkpt>
      <trkpt lat="47.26782" lon="-2.32395">
        <ele>-29.799999237061</ele>
        <time>2021-11-07T11:11:14.000Z</time>
      </trkpt>
      <trkpt lat="47.26786" lon="-2.32426">
        <ele>-29.799999237061</ele>
        <time>2021-11-07T11:11:19.000Z</time>
      </trkpt>
      <trkpt lat="47.26792" lon="-2.32461">
        <ele>-29.799999237061</ele>
        <time>2021-11-07T11:11:24.000Z</time>
      </trkpt>
      <trkpt lat="47.26793" lon="-2.32476">
        <ele>-29.799999237061</ele>
        <time>2021-11-07T11:11:26.000Z</time>
      </trkpt>
      <trkpt lat="47.26798" lon="-2.32523">
        <ele>-29.799999237061</ele>
        <time>2021-11-07T11:11:32.000Z</time>
      </trkpt>
      <trkpt lat="47.268" lon="-2.32575">
        <ele>-29.799999237061</ele>
        <time>2021-11-07T11:11:38.000Z</time>
      </trkpt>
      <trkpt lat="47.26805" lon="-2.32617">
        <ele>-29.799999237061</ele>
        <time>2021-11-07T11:11:43.000Z</time>
      </trkpt>
      <trkpt lat="47.26807" lon="-2.32623">
        <ele>-29.799999237061</ele>
        <time>2021-11-07T11:11:44.000Z</time>
      </trkpt>
      <trkpt lat="47.26811" lon="-2.32652">
        <ele>-29.799999237061</ele>
        <time>2021-11-07T11:11:48.000Z</time>
      </trkpt>
      <trkpt lat="47.26811" lon="-2.32658">
        <ele>-29.799999237061</ele>
        <time>2021-11-07T11:11:49.000Z</time>
      </trkpt>
      <trkpt lat="47.26805" lon="-2.32674">
        <ele>-29.799999237061</ele>
        <time>2021-11-07T11:11:52.000Z</time>
      </trkpt>
      <trkpt lat="47.26802" lon="-2.3268">
        <ele>-29.799999237061</ele>
        <time>2021-11-07T11:11:53.000Z</time>
      </trkpt>
      <trkpt lat="47.26802" lon="-2.32687">
        <ele>-29.799999237061</ele>
        <time>2021-11-07T11:11:54.000Z</time>
      </trkpt>
      <trkpt lat="47.26803" lon="-2.32694">
        <ele>-29.799999237061</ele>
        <time>2021-11-07T11:11:55.000Z</time>
      </trkpt>
      <trkpt lat="47.26811" lon="-2.32714">
        <ele>-29.799999237061</ele>
        <time>2021-11-07T11:11:58.000Z</time>
      </trkpt>
      <trkpt lat="47.26817" lon="-2.32726">
        <ele>-29.799999237061</ele>
        <time>2021-11-07T11:12:00.000Z</time>
      </trkpt>
      <trkpt lat="47.26831" lon="-2.32756">
        <ele>-30.200000762939</ele>
        <time>2021-11-07T11:12:04.000Z</time>
      </trkpt>
      <trkpt lat="47.26835" lon="-2.32765">
        <ele>-30.60000038147</ele>
        <time>2021-11-07T11:12:05.000Z</time>
      </trkpt>
      <trkpt lat="47.26838" lon="-2.32775">
        <ele>-31</ele>
        <time>2021-11-07T11:12:06.000Z</time>
      </trkpt>
      <trkpt lat="47.26842" lon="-2.32785">
        <ele>-31.39999961853</ele>
        <time>2021-11-07T11:12:07.000Z</time>
      </trkpt>
      <trkpt lat="47.26846" lon="-2.32796">
        <ele>-31.799999237061</ele>
        <time>2021-11-07T11:12:08.000Z</time>
      </trkpt>
      <trkpt lat="47.2685" lon="-2.32807">
        <ele>-32.799999237061</ele>
        <time>2021-11-07T11:12:09.000Z</time>
      </trkpt>
      <trkpt lat="47.26853" lon="-2.32818">
        <ele>-33.200000762939</ele>
        <time>2021-11-07T11:12:10.000Z</time>
      </trkpt>
      <trkpt lat="47.26855" lon="-2.32829">
        <ele>-34</ele>
        <time>2021-11-07T11:12:11.000Z</time>
      </trkpt>
      <trkpt lat="47.26858" lon="-2.32839">
        <ele>-34.799999237061</ele>
        <time>2021-11-07T11:12:12.000Z</time>
      </trkpt>
      <trkpt lat="47.26861" lon="-2.32848">
        <ele>-35.799999237061</ele>
        <time>2021-11-07T11:12:13.000Z</time>
      </trkpt>
      <trkpt lat="47.26865" lon="-2.32857">
        <ele>-36.599998474121</ele>
        <time>2021-11-07T11:12:14.000Z</time>
      </trkpt>
      <trkpt lat="47.26867" lon="-2.32865">
        <ele>-37.599998474121</ele>
        <time>2021-11-07T11:12:15.000Z</time>
      </trkpt>
      <trkpt lat="47.26867" lon="-2.32872">
        <ele>-38.400001525879</ele>
        <time>2021-11-07T11:12:16.000Z</time>
      </trkpt>
      <trkpt lat="47.26865" lon="-2.32877">
        <ele>-39.400001525879</ele>
        <time>2021-11-07T11:12:17.000Z</time>
      </trkpt>
      <trkpt lat="47.26861" lon="-2.3288">
        <ele>-40.200000762939</ele>
        <time>2021-11-07T11:12:18.000Z</time>
      </trkpt>
      <trkpt lat="47.26855" lon="-2.32883">
        <ele>-41</ele>
        <time>2021-11-07T11:12:19.000Z</time>
      </trkpt>
      <trkpt lat="47.26849" lon="-2.32885">
        <ele>-42</ele>
        <time>2021-11-07T11:12:20.000Z</time>
      </trkpt>
      <trkpt lat="47.26844" lon="-2.32885">
        <ele>-42</ele>
        <time>2021-11-07T11:12:21.000Z</time>
      </trkpt>
      <trkpt lat="47.26833" lon="-2.3289">
        <ele>-42</ele>
        <time>2021-11-07T11:12:23.000Z</time>
      </trkpt>
      <trkpt lat="47.26827" lon="-2.32894">
        <ele>-42</ele>
        <time>2021-11-07T11:12:24.000Z</time>
      </trkpt>
      <trkpt lat="47.26816" lon="-2.32905">
        <ele>-42</ele>
        <time>2021-11-07T11:12:26.000Z</time>
      </trkpt>
      <trkpt lat="47.26807" lon="-2.32917">
        <ele>-42</ele>
        <time>2021-11-07T11:12:28.000Z</time>
      </trkpt>
      <trkpt lat="47.26789" lon="-2.3293">
        <ele>-42</ele>
        <time>2021-11-07T11:12:31.000Z</time>
      </trkpt>
      <trkpt lat="47.26783" lon="-2.32934">
        <ele>-42</ele>
        <time>2021-11-07T11:12:32.000Z</time>
      </trkpt>
      <trkpt lat="47.26778" lon="-2.3294">
        <ele>-42</ele>
        <time>2021-11-07T11:12:33.000Z</time>
      </trkpt>
      <trkpt lat="47.26763" lon="-2.32958">
        <ele>-42</ele>
        <time>2021-11-07T11:12:36.000Z</time>
      </trkpt>
      <trkpt lat="47.26758" lon="-2.32963">
        <ele>-42</ele>
        <time>2021-11-07T11:12:37.000Z</time>
      </trkpt>
      <trkpt lat="47.26739" lon="-2.32987">
        <ele>-42</ele>
        <time>2021-11-07T11:12:41.000Z</time>
      </trkpt>
      <trkpt lat="47.26735" lon="-2.32995">
        <ele>-42</ele>
        <time>2021-11-07T11:12:42.000Z</time>
      </trkpt>
      <trkpt lat="47.26733" lon="-2.33028">
        <ele>-42</ele>
        <time>2021-11-07T11:12:46.000Z</time>
      </trkpt>
      <trkpt lat="47.26732" lon="-2.33036">
        <ele>-42</ele>
        <time>2021-11-07T11:12:47.000Z</time>
      </trkpt>
      <trkpt lat="47.26725" lon="-2.3306">
        <ele>-42</ele>
        <time>2021-11-07T11:12:50.000Z</time>
      </trkpt>
      <trkpt lat="47.26705" lon="-2.33085">
        <ele>-42.400001525879</ele>
        <time>2021-11-07T11:12:54.000Z</time>
      </trkpt>
      <trkpt lat="47.26699" lon="-2.3309">
        <ele>-42.799999237061</ele>
        <time>2021-11-07T11:12:55.000Z</time>
      </trkpt>
      <trkpt lat="47.26694" lon="-2.33096">
        <ele>-43.200000762939</ele>
        <time>2021-11-07T11:12:56.000Z</time>
      </trkpt>
      <trkpt lat="47.26689" lon="-2.33101">
        <ele>-43.599998474121</ele>
        <time>2021-11-07T11:12:57.000Z</time>
      </trkpt>
      <trkpt lat="47.26684" lon="-2.33105">
        <ele>-44</ele>
        <time>2021-11-07T11:12:58.000Z</time>
      </trkpt>
      <trkpt lat="47.26679" lon="-2.33112">
        <ele>-44</ele>
        <time>2021-11-07T11:12:59.000Z</time>
      </trkpt>
      <trkpt lat="47.2667" lon="-2.33122">
        <ele>-44</ele>
        <time>2021-11-07T11:13:01.000Z</time>
      </trkpt>
      <trkpt lat="47.26654" lon="-2.33135">
        <ele>-44</ele>
        <time>2021-11-07T11:13:04.000Z</time>
      </trkpt>
      <trkpt lat="47.26649" lon="-2.33139">
        <ele>-44</ele>
        <time>2021-11-07T11:13:05.000Z</time>
      </trkpt>
      <trkpt lat="47.26645" lon="-2.33143">
        <ele>-44</ele>
        <time>2021-11-07T11:13:06.000Z</time>
      </trkpt>
      <trkpt lat="47.26629" lon="-2.33152">
        <ele>-44</ele>
        <time>2021-11-07T11:13:09.000Z</time>
      </trkpt>
      <trkpt lat="47.26607" lon="-2.33148">
        <ele>-44</ele>
        <time>2021-11-07T11:13:13.000Z</time>
      </trkpt>
      <trkpt lat="47.26601" lon="-2.33148">
        <ele>-44</ele>
        <time>2021-11-07T11:13:14.000Z</time>
      </trkpt>
      <trkpt lat="47.26592" lon="-2.33156">
        <ele>-44</ele>
        <time>2021-11-07T11:13:16.000Z</time>
      </trkpt>
      <trkpt lat="47.26581" lon="-2.33179">
        <ele>-44</ele>
        <time>2021-11-07T11:13:19.000Z</time>
      </trkpt>
      <trkpt lat="47.26573" lon="-2.33193">
        <ele>-44</ele>
        <time>2021-11-07T11:13:21.000Z</time>
      </trkpt>
      <trkpt lat="47.26562" lon="-2.33203">
        <ele>-44</ele>
        <time>2021-11-07T11:13:23.000Z</time>
      </trkpt>
      <trkpt lat="47.26544" lon="-2.33214">
        <ele>-44</ele>
        <time>2021-11-07T11:13:26.000Z</time>
      </trkpt>
      <trkpt lat="47.26527" lon="-2.33224">
        <ele>-44</ele>
        <time>2021-11-07T11:13:29.000Z</time>
      </trkpt>
      <trkpt lat="47.26504" lon="-2.33236">
        <ele>-44</ele>
        <time>2021-11-07T11:13:33.000Z</time>
      </trkpt>
      <trkpt lat="47.26499" lon="-2.33241">
        <ele>-44</ele>
        <time>2021-11-07T11:13:34.000Z</time>
      </trkpt>
      <trkpt lat="47.26489" lon="-2.33269">
        <ele>-44</ele>
        <time>2021-11-07T11:13:38.000Z</time>
      </trkpt>
      <trkpt lat="47.26481" lon="-2.33289">
        <ele>-44</ele>
        <time>2021-11-07T11:13:41.000Z</time>
      </trkpt>
      <trkpt lat="47.26479" lon="-2.33296">
        <ele>-44</ele>
        <time>2021-11-07T11:13:42.000Z</time>
      </trkpt>
      <trkpt lat="47.26476" lon="-2.33302">
        <ele>-44</ele>
        <time>2021-11-07T11:13:43.000Z</time>
      </trkpt>
      <trkpt lat="47.26466" lon="-2.33309">
        <ele>-44</ele>
        <time>2021-11-07T11:13:45.000Z</time>
      </trkpt>
      <trkpt lat="47.2643" lon="-2.33337">
        <ele>-44</ele>
        <time>2021-11-07T11:13:52.000Z</time>
      </trkpt>
      <trkpt lat="47.26393" lon="-2.33364">
        <ele>-44</ele>
        <time>2021-11-07T11:13:59.000Z</time>
      </trkpt>
      <trkpt lat="47.26348" lon="-2.33389">
        <ele>-44</ele>
        <time>2021-11-07T11:14:07.000Z</time>
      </trkpt>
      <trkpt lat="47.26316" lon="-2.33407">
        <ele>-44</ele>
        <time>2021-11-07T11:14:13.000Z</time>
      </trkpt>
      <trkpt lat="47.26301" lon="-2.33419">
        <ele>-44</ele>
        <time>2021-11-07T11:14:16.000Z</time>
      </trkpt>
      <trkpt lat="47.26296" lon="-2.3342">
        <ele>-44</ele>
        <time>2021-11-07T11:14:17.000Z</time>
      </trkpt>
      <trkpt lat="47.26255" lon="-2.33429">
        <ele>-44</ele>
        <time>2021-11-07T11:14:24.000Z</time>
      </trkpt>
      <trkpt lat="47.26217" lon="-2.33437">
        <ele>-44</ele>
        <time>2021-11-07T11:14:31.000Z</time>
      </trkpt>
      <trkpt lat="47.26185" lon="-2.33442">
        <ele>-44</ele>
        <time>2021-11-07T11:14:37.000Z</time>
      </trkpt>
      <trkpt lat="47.26175" lon="-2.33441">
        <ele>-44</ele>
        <time>2021-11-07T11:14:39.000Z</time>
      </trkpt>
      <trkpt lat="47.26164" lon="-2.33439">
        <ele>-44</ele>
        <time>2021-11-07T11:14:41.000Z</time>
      </trkpt>
      <trkpt lat="47.26154" lon="-2.33434">
        <ele>-44</ele>
        <time>2021-11-07T11:14:43.000Z</time>
      </trkpt>
      <trkpt lat="47.26138" lon="-2.33433">
        <ele>-44</ele>
        <time>2021-11-07T11:14:47.000Z</time>
      </trkpt>
      <trkpt lat="47.26134" lon="-2.33446">
        <ele>-44</ele>
        <time>2021-11-07T11:14:50.000Z</time>
      </trkpt>
      <trkpt lat="47.26122" lon="-2.33451">
        <ele>-44</ele>
        <time>2021-11-07T11:14:53.000Z</time>
      </trkpt>
      <trkpt lat="47.26117" lon="-2.33452">
        <ele>-44</ele>
        <time>2021-11-07T11:14:54.000Z</time>
      </trkpt>
      <trkpt lat="47.26112" lon="-2.33454">
        <ele>-44</ele>
        <time>2021-11-07T11:14:55.000Z</time>
      </trkpt>
      <trkpt lat="47.26102" lon="-2.33463">
        <ele>-44</ele>
        <time>2021-11-07T11:14:57.000Z</time>
      </trkpt>
      <trkpt lat="47.26079" lon="-2.33468">
        <ele>-44</ele>
        <time>2021-11-07T11:15:01.000Z</time>
      </trkpt>
      <trkpt lat="47.26063" lon="-2.33455">
        <ele>-44</ele>
        <time>2021-11-07T11:15:04.000Z</time>
      </trkpt>
      <trkpt lat="47.26056" lon="-2.33453">
        <ele>-44</ele>
        <time>2021-11-07T11:15:05.000Z</time>
      </trkpt>
      <trkpt lat="47.26044" lon="-2.33457">
        <ele>-44</ele>
        <time>2021-11-07T11:15:07.000Z</time>
      </trkpt>
      <trkpt lat="47.26032" lon="-2.33476">
        <ele>-44</ele>
        <time>2021-11-07T11:15:10.000Z</time>
      </trkpt>
      <trkpt lat="47.2601" lon="-2.3349">
        <ele>-44</ele>
        <time>2021-11-07T11:15:14.000Z</time>
      </trkpt>
      <trkpt lat="47.25998" lon="-2.33492">
        <ele>-44</ele>
        <time>2021-11-07T11:15:16.000Z</time>
      </trkpt>
      <trkpt lat="47.25985" lon="-2.33497">
        <ele>-44</ele>
        <time>2021-11-07T11:15:19.000Z</time>
      </trkpt>
      <trkpt lat="47.25985" lon="-2.33498">
        <ele>-44</ele>
        <time>2021-11-07T11:15:22.000Z</time>
      </trkpt>
      <trkpt lat="47.25984" lon="-2.33498">
        <ele>-44</ele>
        <time>2021-11-07T11:15:23.000Z</time>
      </trkpt>
      <trkpt lat="47.25977" lon="-2.33504">
        <ele>-44</ele>
        <time>2021-11-07T11:15:26.000Z</time>
      </trkpt>
      <trkpt lat="47.25962" lon="-2.33504">
        <ele>-44</ele>
        <time>2021-11-07T11:15:29.000Z</time>
      </trkpt>
      <trkpt lat="47.25953" lon="-2.33506">
        <ele>-44</ele>
        <time>2021-11-07T11:15:31.000Z</time>
      </trkpt>
      <trkpt lat="47.25945" lon="-2.33516">
        <ele>-44</ele>
        <time>2021-11-07T11:15:33.000Z</time>
      </trkpt>
      <trkpt lat="47.25936" lon="-2.33525">
        <ele>-44</ele>
        <time>2021-11-07T11:15:35.000Z</time>
      </trkpt>
      <trkpt lat="47.25913" lon="-2.33544">
        <ele>-44</ele>
        <time>2021-11-07T11:15:40.000Z</time>
      </trkpt>
      <trkpt lat="47.25882" lon="-2.3357">
        <ele>-43.599998474121</ele>
        <time>2021-11-07T11:15:47.000Z</time>
      </trkpt>
      <trkpt lat="47.25877" lon="-2.33572">
        <ele>-43.200000762939</ele>
        <time>2021-11-07T11:15:48.000Z</time>
      </trkpt>
      <trkpt lat="47.25872" lon="-2.33574">
        <ele>-42.799999237061</ele>
        <time>2021-11-07T11:15:49.000Z</time>
      </trkpt>
      <trkpt lat="47.25867" lon="-2.33575">
        <ele>-41.799999237061</ele>
        <time>2021-11-07T11:15:50.000Z</time>
      </trkpt>
      <trkpt lat="47.25857" lon="-2.33576">
        <ele>-41.799999237061</ele>
        <time>2021-11-07T11:15:52.000Z</time>
      </trkpt>
      <trkpt lat="47.25846" lon="-2.33577">
        <ele>-41.799999237061</ele>
        <time>2021-11-07T11:15:54.000Z</time>
      </trkpt>
      <trkpt lat="47.25813" lon="-2.33579">
        <ele>-41.799999237061</ele>
        <time>2021-11-07T11:16:00.000Z</time>
      </trkpt>
      <trkpt lat="47.25773" lon="-2.33582">
        <ele>-41.799999237061</ele>
        <time>2021-11-07T11:16:07.000Z</time>
      </trkpt>
      <trkpt lat="47.2575" lon="-2.33584">
        <ele>-41.799999237061</ele>
        <time>2021-11-07T11:16:11.000Z</time>
      </trkpt>
      <trkpt lat="47.2574" lon="-2.33587">
        <ele>-41.799999237061</ele>
        <time>2021-11-07T11:16:13.000Z</time>
      </trkpt>
      <trkpt lat="47.25729" lon="-2.33585">
        <ele>-41.799999237061</ele>
        <time>2021-11-07T11:16:15.000Z</time>
      </trkpt>
      <trkpt lat="47.25717" lon="-2.33584">
        <ele>-41.799999237061</ele>
        <time>2021-11-07T11:16:17.000Z</time>
      </trkpt>
      <trkpt lat="47.25683" lon="-2.33583">
        <ele>-41.799999237061</ele>
        <time>2021-11-07T11:16:23.000Z</time>
      </trkpt>
      <trkpt lat="47.25644" lon="-2.3357">
        <ele>-41.799999237061</ele>
        <time>2021-11-07T11:16:30.000Z</time>
      </trkpt>
      <trkpt lat="47.25607" lon="-2.33544">
        <ele>-41.799999237061</ele>
        <time>2021-11-07T11:16:37.000Z</time>
      </trkpt>
      <trkpt lat="47.25579" lon="-2.33513">
        <ele>-41.799999237061</ele>
        <time>2021-11-07T11:16:43.000Z</time>
      </trkpt>
      <trkpt lat="47.25562" lon="-2.33487">
        <ele>-41.400001525879</ele>
        <time>2021-11-07T11:16:47.000Z</time>
      </trkpt>
      <trkpt lat="47.25558" lon="-2.3348">
        <ele>-41</ele>
        <time>2021-11-07T11:16:48.000Z</time>
      </trkpt>
      <trkpt lat="47.25555" lon="-2.33473">
        <ele>-40.599998474121</ele>
        <time>2021-11-07T11:16:49.000Z</time>
      </trkpt>
      <trkpt lat="47.25552" lon="-2.33464">
        <ele>-40.200000762939</ele>
        <time>2021-11-07T11:16:50.000Z</time>
      </trkpt>
      <trkpt lat="47.25549" lon="-2.33457">
        <ele>-39.799999237061</ele>
        <time>2021-11-07T11:16:51.000Z</time>
      </trkpt>
      <trkpt lat="47.25536" lon="-2.33418">
        <ele>-39.799999237061</ele>
        <time>2021-11-07T11:16:56.000Z</time>
      </trkpt>
      <trkpt lat="47.25526" lon="-2.33361">
        <ele>-39.799999237061</ele>
        <time>2021-11-07T11:17:02.000Z</time>
      </trkpt>
      <trkpt lat="47.25516" lon="-2.33282">
        <ele>-39.799999237061</ele>
        <time>2021-11-07T11:17:10.000Z</time>
      </trkpt>
      <trkpt lat="47.25514" lon="-2.33272">
        <ele>-39.799999237061</ele>
        <time>2021-11-07T11:17:11.000Z</time>
      </trkpt>
      <trkpt lat="47.25506" lon="-2.33203">
        <ele>-39.799999237061</ele>
        <time>2021-11-07T11:17:18.000Z</time>
      </trkpt>
      <trkpt lat="47.25495" lon="-2.33125">
        <ele>-39.799999237061</ele>
        <time>2021-11-07T11:17:26.000Z</time>
      </trkpt>
      <trkpt lat="47.25491" lon="-2.33098">
        <ele>-39.799999237061</ele>
        <time>2021-11-07T11:17:29.000Z</time>
      </trkpt>
      <trkpt lat="47.25487" lon="-2.33093">
        <ele>-39.799999237061</ele>
        <time>2021-11-07T11:17:30.000Z</time>
      </trkpt>
      <trkpt lat="47.25471" lon="-2.33095">
        <ele>-39.799999237061</ele>
        <time>2021-11-07T11:17:33.000Z</time>
      </trkpt>
      <trkpt lat="47.2546" lon="-2.33101">
        <ele>-39.799999237061</ele>
        <time>2021-11-07T11:17:35.000Z</time>
      </trkpt>
      <trkpt lat="47.25444" lon="-2.33108">
        <ele>-39.799999237061</ele>
        <time>2021-11-07T11:17:38.000Z</time>
      </trkpt>
      <trkpt lat="47.25406" lon="-2.33127">
        <ele>-39.799999237061</ele>
        <time>2021-11-07T11:17:45.000Z</time>
      </trkpt>
      <trkpt lat="47.25382" lon="-2.33136">
        <ele>-39.799999237061</ele>
        <time>2021-11-07T11:17:50.000Z</time>
      </trkpt>
      <trkpt lat="47.25379" lon="-2.33132">
        <ele>-39.799999237061</ele>
        <time>2021-11-07T11:17:51.000Z</time>
      </trkpt>
      <trkpt lat="47.25371" lon="-2.33118">
        <ele>-39.799999237061</ele>
        <time>2021-11-07T11:17:54.000Z</time>
      </trkpt>
      <trkpt lat="47.25369" lon="-2.33114">
        <ele>-39.799999237061</ele>
        <time>2021-11-07T11:17:57.000Z</time>
      </trkpt>
      <trkpt lat="47.2537" lon="-2.33109">
        <ele>-42</ele>
        <time>2021-11-07T11:30:39.000Z</time>
      </trkpt>
      <trkpt lat="47.25369" lon="-2.33104">
        <ele>-42</ele>
        <time>2021-11-07T11:30:42.000Z</time>
      </trkpt>
      <trkpt lat="47.25362" lon="-2.33089">
        <ele>-42</ele>
        <time>2021-11-07T11:30:48.000Z</time>
      </trkpt>
      <trkpt lat="47.25352" lon="-2.33062">
        <ele>-42</ele>
        <time>2021-11-07T11:30:56.000Z</time>
      </trkpt>
      <trkpt lat="47.25344" lon="-2.33041">
        <ele>-42</ele>
        <time>2021-11-07T11:31:02.000Z</time>
      </trkpt>
      <trkpt lat="47.25334" lon="-2.33013">
        <ele>-42</ele>
        <time>2021-11-07T11:31:09.000Z</time>
      </trkpt>
      <trkpt lat="47.25323" lon="-2.32987">
        <ele>-42</ele>
        <time>2021-11-07T11:31:15.000Z</time>
      </trkpt>
      <trkpt lat="47.25309" lon="-2.32954">
        <ele>-42</ele>
        <time>2021-11-07T11:31:23.000Z</time>
      </trkpt>
      <trkpt lat="47.25309" lon="-2.32925">
        <ele>-42</ele>
        <time>2021-11-07T11:31:29.000Z</time>
      </trkpt>
      <trkpt lat="47.25318" lon="-2.32911">
        <ele>-42</ele>
        <time>2021-11-07T11:31:32.000Z</time>
      </trkpt>
      <trkpt lat="47.25322" lon="-2.32907">
        <ele>-42</ele>
        <time>2021-11-07T11:31:33.000Z</time>
      </trkpt>
      <trkpt lat="47.25338" lon="-2.32892">
        <ele>-41.599998474121</ele>
        <time>2021-11-07T11:31:37.000Z</time>
      </trkpt>
      <trkpt lat="47.25342" lon="-2.32888">
        <ele>-41.200000762939</ele>
        <time>2021-11-07T11:31:38.000Z</time>
      </trkpt>
      <trkpt lat="47.25347" lon="-2.32884">
        <ele>-40.799999237061</ele>
        <time>2021-11-07T11:31:39.000Z</time>
      </trkpt>
      <trkpt lat="47.2535" lon="-2.32881">
        <ele>-40.200000762939</ele>
        <time>2021-11-07T11:31:40.000Z</time>
      </trkpt>
      <trkpt lat="47.25354" lon="-2.32877">
        <ele>-39.799999237061</ele>
        <time>2021-11-07T11:31:41.000Z</time>
      </trkpt>
      <trkpt lat="47.25358" lon="-2.32873">
        <ele>-39.799999237061</ele>
        <time>2021-11-07T11:31:42.000Z</time>
      </trkpt>
      <trkpt lat="47.25391" lon="-2.32834">
        <ele>-39.799999237061</ele>
        <time>2021-11-07T11:31:51.000Z</time>
      </trkpt>
      <trkpt lat="47.25421" lon="-2.32792">
        <ele>-39.799999237061</ele>
        <time>2021-11-07T11:32:00.000Z</time>
      </trkpt>
      <trkpt lat="47.25435" lon="-2.32766">
        <ele>-39.799999237061</ele>
        <time>2021-11-07T11:32:06.000Z</time>
      </trkpt>
      <trkpt lat="47.25455" lon="-2.32737">
        <ele>-39.799999237061</ele>
        <time>2021-11-07T11:32:13.000Z</time>
      </trkpt>
      <trkpt lat="47.2547" lon="-2.32713">
        <ele>-39</ele>
        <time>2021-11-07T11:32:18.000Z</time>
      </trkpt>
      <trkpt lat="47.25473" lon="-2.32708">
        <ele>-38.599998474121</ele>
        <time>2021-11-07T11:32:19.000Z</time>
      </trkpt>
      <trkpt lat="47.25477" lon="-2.32704">
        <ele>-38.200000762939</ele>
        <time>2021-11-07T11:32:20.000Z</time>
      </trkpt>
      <trkpt lat="47.2548" lon="-2.327">
        <ele>-37.799999237061</ele>
        <time>2021-11-07T11:32:21.000Z</time>
      </trkpt>
      <trkpt lat="47.25487" lon="-2.32678">
        <ele>-37.799999237061</ele>
        <time>2021-11-07T11:32:25.000Z</time>
      </trkpt>
      <trkpt lat="47.25486" lon="-2.32653">
        <ele>-37.799999237061</ele>
        <time>2021-11-07T11:32:29.000Z</time>
      </trkpt>
      <trkpt lat="47.25478" lon="-2.32607">
        <ele>-37.799999237061</ele>
        <time>2021-11-07T11:32:36.000Z</time>
      </trkpt>
      <trkpt lat="47.25476" lon="-2.32589">
        <ele>-37.799999237061</ele>
        <time>2021-11-07T11:32:39.000Z</time>
      </trkpt>
      <trkpt lat="47.25477" lon="-2.32572">
        <ele>-37.799999237061</ele>
        <time>2021-11-07T11:32:42.000Z</time>
      </trkpt>
      <trkpt lat="47.25486" lon="-2.32558">
        <ele>-37.799999237061</ele>
        <time>2021-11-07T11:32:45.000Z</time>
      </trkpt>
      <trkpt lat="47.2549" lon="-2.32553">
        <ele>-37.799999237061</ele>
        <time>2021-11-07T11:32:46.000Z</time>
      </trkpt>
      <trkpt lat="47.25513" lon="-2.32532">
        <ele>-37.799999237061</ele>
        <time>2021-11-07T11:32:51.000Z</time>
      </trkpt>
      <trkpt lat="47.25518" lon="-2.32527">
        <ele>-37.799999237061</ele>
        <time>2021-11-07T11:32:52.000Z</time>
      </trkpt>
      <trkpt lat="47.25554" lon="-2.32492">
        <ele>-37.799999237061</ele>
        <time>2021-11-07T11:32:59.000Z</time>
      </trkpt>
      <trkpt lat="47.25577" lon="-2.32469">
        <ele>-38.200000762939</ele>
        <time>2021-11-07T11:33:03.000Z</time>
      </trkpt>
      <trkpt lat="47.25583" lon="-2.32463">
        <ele>-38.599998474121</ele>
        <time>2021-11-07T11:33:04.000Z</time>
      </trkpt>
      <trkpt lat="47.25589" lon="-2.32457">
        <ele>-39</ele>
        <time>2021-11-07T11:33:05.000Z</time>
      </trkpt>
      <trkpt lat="47.25595" lon="-2.32451">
        <ele>-39.599998474121</ele>
        <time>2021-11-07T11:33:06.000Z</time>
      </trkpt>
      <trkpt lat="47.256" lon="-2.32445">
        <ele>-40</ele>
        <time>2021-11-07T11:33:07.000Z</time>
      </trkpt>
      <trkpt lat="47.25612" lon="-2.32432">
        <ele>-40.400001525879</ele>
        <time>2021-11-07T11:33:09.000Z</time>
      </trkpt>
      <trkpt lat="47.25618" lon="-2.32425">
        <ele>-40.799999237061</ele>
        <time>2021-11-07T11:33:10.000Z</time>
      </trkpt>
      <trkpt lat="47.25624" lon="-2.32418">
        <ele>-41.200000762939</ele>
        <time>2021-11-07T11:33:11.000Z</time>
      </trkpt>
      <trkpt lat="47.25629" lon="-2.32412">
        <ele>-41.599998474121</ele>
        <time>2021-11-07T11:33:12.000Z</time>
      </trkpt>
      <trkpt lat="47.25635" lon="-2.32406">
        <ele>-42.200000762939</ele>
        <time>2021-11-07T11:33:13.000Z</time>
      </trkpt>
      <trkpt lat="47.25641" lon="-2.32402">
        <ele>-42.200000762939</ele>
        <time>2021-11-07T11:33:14.000Z</time>
      </trkpt>
      <trkpt lat="47.25653" lon="-2.32401">
        <ele>-42.200000762939</ele>
        <time>2021-11-07T11:33:16.000Z</time>
      </trkpt>
      <trkpt lat="47.25672" lon="-2.32412">
        <ele>-42.200000762939</ele>
        <time>2021-11-07T11:33:20.000Z</time>
      </trkpt>
      <trkpt lat="47.25677" lon="-2.32416">
        <ele>-42.200000762939</ele>
        <time>2021-11-07T11:33:21.000Z</time>
      </trkpt>
      <trkpt lat="47.25682" lon="-2.32418">
        <ele>-42.200000762939</ele>
        <time>2021-11-07T11:33:22.000Z</time>
      </trkpt>
      <trkpt lat="47.25694" lon="-2.32421">
        <ele>-42.200000762939</ele>
        <time>2021-11-07T11:33:24.000Z</time>
      </trkpt>
      <trkpt lat="47.25723" lon="-2.32423">
        <ele>-42.599998474121</ele>
        <time>2021-11-07T11:33:29.000Z</time>
      </trkpt>
      <trkpt lat="47.25729" lon="-2.32423">
        <ele>-43</ele>
        <time>2021-11-07T11:33:30.000Z</time>
      </trkpt>
      <trkpt lat="47.25734" lon="-2.32423">
        <ele>-43.400001525879</ele>
        <time>2021-11-07T11:33:31.000Z</time>
      </trkpt>
      <trkpt lat="47.2574" lon="-2.32423">
        <ele>-44.200000762939</ele>
        <time>2021-11-07T11:33:32.000Z</time>
      </trkpt>
      <trkpt lat="47.25759" lon="-2.32422">
        <ele>-44.200000762939</ele>
        <time>2021-11-07T11:33:36.000Z</time>
      </trkpt>
      <trkpt lat="47.25769" lon="-2.32417">
        <ele>-44.200000762939</ele>
        <time>2021-11-07T11:33:40.000Z</time>
      </trkpt>
      <trkpt lat="47.25778" lon="-2.32412">
        <ele>-44.200000762939</ele>
        <time>2021-11-07T11:33:43.000Z</time>
      </trkpt>
      <trkpt lat="47.25784" lon="-2.32418">
        <ele>-44.200000762939</ele>
        <time>2021-11-07T11:33:45.000Z</time>
      </trkpt>
      <trkpt lat="47.25791" lon="-2.32434">
        <ele>-44.200000762939</ele>
        <time>2021-11-07T11:33:48.000Z</time>
      </trkpt>
      <trkpt lat="47.25794" lon="-2.32439">
        <ele>-44.200000762939</ele>
        <time>2021-11-07T11:33:49.000Z</time>
      </trkpt>
      <trkpt lat="47.25802" lon="-2.32449">
        <ele>-44.200000762939</ele>
        <time>2021-11-07T11:33:51.000Z</time>
      </trkpt>
      <trkpt lat="47.25816" lon="-2.32459">
        <ele>-44.200000762939</ele>
        <time>2021-11-07T11:33:54.000Z</time>
      </trkpt>
      <trkpt lat="47.2585" lon="-2.32474">
        <ele>-44.200000762939</ele>
        <time>2021-11-07T11:34:01.000Z</time>
      </trkpt>
      <trkpt lat="47.25865" lon="-2.32474">
        <ele>-44.200000762939</ele>
        <time>2021-11-07T11:34:04.000Z</time>
      </trkpt>
      <trkpt lat="47.2588" lon="-2.32471">
        <ele>-44.200000762939</ele>
        <time>2021-11-07T11:34:07.000Z</time>
      </trkpt>
      <trkpt lat="47.25894" lon="-2.32466">
        <ele>-44.200000762939</ele>
        <time>2021-11-07T11:34:10.000Z</time>
      </trkpt>
      <trkpt lat="47.25903" lon="-2.32457">
        <ele>-44.200000762939</ele>
        <time>2021-11-07T11:34:12.000Z</time>
      </trkpt>
      <trkpt lat="47.25911" lon="-2.32447">
        <ele>-44.200000762939</ele>
        <time>2021-11-07T11:34:14.000Z</time>
      </trkpt>
      <trkpt lat="47.25927" lon="-2.32426">
        <ele>-44.200000762939</ele>
        <time>2021-11-07T11:34:18.000Z</time>
      </trkpt>
      <trkpt lat="47.25958" lon="-2.32385">
        <ele>-44.200000762939</ele>
        <time>2021-11-07T11:34:26.000Z</time>
      </trkpt>
      <trkpt lat="47.25981" lon="-2.32355">
        <ele>-44.200000762939</ele>
        <time>2021-11-07T11:34:32.000Z</time>
      </trkpt>
      <trkpt lat="47.26003" lon="-2.32324">
        <ele>-44.200000762939</ele>
        <time>2021-11-07T11:34:38.000Z</time>
      </trkpt>
      <trkpt lat="47.26026" lon="-2.32297">
        <ele>-44.200000762939</ele>
        <time>2021-11-07T11:34:44.000Z</time>
      </trkpt>
      <trkpt lat="47.26041" lon="-2.32279">
        <ele>-44.200000762939</ele>
        <time>2021-11-07T11:34:48.000Z</time>
      </trkpt>
      <trkpt lat="47.26045" lon="-2.32275">
        <ele>-44.200000762939</ele>
        <time>2021-11-07T11:34:49.000Z</time>
      </trkpt>
      <trkpt lat="47.26064" lon="-2.32256">
        <ele>-44.200000762939</ele>
        <time>2021-11-07T11:34:54.000Z</time>
      </trkpt>
      <trkpt lat="47.26068" lon="-2.32251">
        <ele>-44.200000762939</ele>
        <time>2021-11-07T11:34:55.000Z</time>
      </trkpt>
      <trkpt lat="47.2609" lon="-2.32217">
        <ele>-44.200000762939</ele>
        <time>2021-11-07T11:35:02.000Z</time>
      </trkpt>
      <trkpt lat="47.26096" lon="-2.32206">
        <ele>-44.200000762939</ele>
        <time>2021-11-07T11:35:05.000Z</time>
      </trkpt>
      <trkpt lat="47.2611" lon="-2.32176">
        <ele>-44.200000762939</ele>
        <time>2021-11-07T11:35:10.000Z</time>
      </trkpt>
      <trkpt lat="47.26112" lon="-2.3217">
        <ele>-44.200000762939</ele>
        <time>2021-11-07T11:35:11.000Z</time>
      </trkpt>
      <trkpt lat="47.2612" lon="-2.32146">
        <ele>-44.200000762939</ele>
        <time>2021-11-07T11:35:15.000Z</time>
      </trkpt>
      <trkpt lat="47.26133" lon="-2.32106">
        <ele>-44.200000762939</ele>
        <time>2021-11-07T11:35:21.000Z</time>
      </trkpt>
      <trkpt lat="47.26136" lon="-2.32094">
        <ele>-44.200000762939</ele>
        <time>2021-11-07T11:35:23.000Z</time>
      </trkpt>
      <trkpt lat="47.26141" lon="-2.32074">
        <ele>-44.200000762939</ele>
        <time>2021-11-07T11:35:26.000Z</time>
      </trkpt>
      <trkpt lat="47.26145" lon="-2.32062">
        <ele>-44.200000762939</ele>
        <time>2021-11-07T11:35:28.000Z</time>
      </trkpt>
      <trkpt lat="47.26154" lon="-2.32036">
        <ele>-44.200000762939</ele>
        <time>2021-11-07T11:35:32.000Z</time>
      </trkpt>
      <trkpt lat="47.26156" lon="-2.32029">
        <ele>-44.200000762939</ele>
        <time>2021-11-07T11:35:33.000Z</time>
      </trkpt>
      <trkpt lat="47.26157" lon="-2.32">
        <ele>-44.200000762939</ele>
        <time>2021-11-07T11:35:37.000Z</time>
      </trkpt>
      <trkpt lat="47.26156" lon="-2.31993">
        <ele>-44.200000762939</ele>
        <time>2021-11-07T11:35:38.000Z</time>
      </trkpt>
      <trkpt lat="47.26153" lon="-2.31958">
        <ele>-44.200000762939</ele>
        <time>2021-11-07T11:35:43.000Z</time>
      </trkpt>
      <trkpt lat="47.26148" lon="-2.31907">
        <ele>-44.200000762939</ele>
        <time>2021-11-07T11:35:50.000Z</time>
      </trkpt>
      <trkpt lat="47.26143" lon="-2.31868">
        <ele>-44.200000762939</ele>
        <time>2021-11-07T11:35:56.000Z</time>
      </trkpt>
      <trkpt lat="47.26138" lon="-2.3182">
        <ele>-44.200000762939</ele>
        <time>2021-11-07T11:36:03.000Z</time>
      </trkpt>
      <trkpt lat="47.26133" lon="-2.31768">
        <ele>-44.200000762939</ele>
        <time>2021-11-07T11:36:10.000Z</time>
      </trkpt>
      <trkpt lat="47.2613" lon="-2.31741">
        <ele>-44.200000762939</ele>
        <time>2021-11-07T11:36:14.000Z</time>
      </trkpt>
      <trkpt lat="47.26127" lon="-2.31719">
        <ele>-44.200000762939</ele>
        <time>2021-11-07T11:36:17.000Z</time>
      </trkpt>
      <trkpt lat="47.26122" lon="-2.31671">
        <ele>-44.200000762939</ele>
        <time>2021-11-07T11:36:24.000Z</time>
      </trkpt>
      <trkpt lat="47.26121" lon="-2.31664">
        <ele>-44.200000762939</ele>
        <time>2021-11-07T11:36:25.000Z</time>
      </trkpt>
      <trkpt lat="47.26117" lon="-2.31645">
        <ele>-44.200000762939</ele>
        <time>2021-11-07T11:36:28.000Z</time>
      </trkpt>
      <trkpt lat="47.26116" lon="-2.31638">
        <ele>-44.200000762939</ele>
        <time>2021-11-07T11:36:29.000Z</time>
      </trkpt>
      <trkpt lat="47.26121" lon="-2.31618">
        <ele>-44.200000762939</ele>
        <time>2021-11-07T11:36:33.000Z</time>
      </trkpt>
      <trkpt lat="47.26132" lon="-2.31617">
        <ele>-44.200000762939</ele>
        <time>2021-11-07T11:36:36.000Z</time>
      </trkpt>
      <trkpt lat="47.26139" lon="-2.31615">
        <ele>-44.200000762939</ele>
        <time>2021-11-07T11:36:38.000Z</time>
      </trkpt>
      <trkpt lat="47.26147" lon="-2.31612">
        <ele>-44.200000762939</ele>
        <time>2021-11-07T11:36:40.000Z</time>
      </trkpt>
      <trkpt lat="47.26151" lon="-2.3161">
        <ele>-44.200000762939</ele>
        <time>2021-11-07T11:36:41.000Z</time>
      </trkpt>
      <trkpt lat="47.26189" lon="-2.31594">
        <ele>-44.200000762939</ele>
        <time>2021-11-07T11:36:50.000Z</time>
      </trkpt>
      <trkpt lat="47.26218" lon="-2.31593">
        <ele>-44.200000762939</ele>
        <time>2021-11-07T11:36:57.000Z</time>
      </trkpt>
      <trkpt lat="47.26237" lon="-2.31603">
        <ele>-44.200000762939</ele>
        <time>2021-11-07T11:37:02.000Z</time>
      </trkpt>
      <trkpt lat="47.26253" lon="-2.31624">
        <ele>-44.200000762939</ele>
        <time>2021-11-07T11:37:07.000Z</time>
      </trkpt>
      <trkpt lat="47.26266" lon="-2.31655">
        <ele>-44.200000762939</ele>
        <time>2021-11-07T11:37:13.000Z</time>
      </trkpt>
      <trkpt lat="47.2628" lon="-2.31684">
        <ele>-44.200000762939</ele>
        <time>2021-11-07T11:37:19.000Z</time>
      </trkpt>
      <trkpt lat="47.26294" lon="-2.31706">
        <ele>-44.200000762939</ele>
        <time>2021-11-07T11:37:24.000Z</time>
      </trkpt>
      <trkpt lat="47.26298" lon="-2.31709">
        <ele>-44.200000762939</ele>
        <time>2021-11-07T11:37:25.000Z</time>
      </trkpt>
      <trkpt lat="47.26311" lon="-2.31708">
        <ele>-44.200000762939</ele>
        <time>2021-11-07T11:37:28.000Z</time>
      </trkpt>
      <trkpt lat="47.26319" lon="-2.31704">
        <ele>-44.200000762939</ele>
        <time>2021-11-07T11:37:31.000Z</time>
      </trkpt>
      <trkpt lat="47.26324" lon="-2.31701">
        <ele>-44.200000762939</ele>
        <time>2021-11-07T11:37:33.000Z</time>
      </trkpt>
      <trkpt lat="47.26327" lon="-2.31697">
        <ele>-44.200000762939</ele>
        <time>2021-11-07T11:37:35.000Z</time>
      </trkpt>
      <trkpt lat="47.26329" lon="-2.31691">
        <ele>-44.200000762939</ele>
        <time>2021-11-07T11:37:37.000Z</time>
      </trkpt>
      <trkpt lat="47.26337" lon="-2.31686">
        <ele>-44.200000762939</ele>
        <time>2021-11-07T11:37:40.000Z</time>
      </trkpt>
      <trkpt lat="47.2634" lon="-2.31684">
        <ele>-43.400001525879</ele>
        <time>2021-11-07T11:37:41.000Z</time>
      </trkpt>
      <trkpt lat="47.26343" lon="-2.31683">
        <ele>-43</ele>
        <time>2021-11-07T11:37:42.000Z</time>
      </trkpt>
      <trkpt lat="47.26346" lon="-2.31681">
        <ele>-42.599998474121</ele>
        <time>2021-11-07T11:37:43.000Z</time>
      </trkpt>
      <trkpt lat="47.2635" lon="-2.31679">
        <ele>-42.200000762939</ele>
        <time>2021-11-07T11:37:44.000Z</time>
      </trkpt>
      <trkpt lat="47.26357" lon="-2.31676">
        <ele>-42.200000762939</ele>
        <time>2021-11-07T11:37:46.000Z</time>
      </trkpt>
      <trkpt lat="47.26376" lon="-2.31668">
        <ele>-42.200000762939</ele>
        <time>2021-11-07T11:37:52.000Z</time>
      </trkpt>
      <trkpt lat="47.2639" lon="-2.3166">
        <ele>-41.799999237061</ele>
        <time>2021-11-07T11:37:56.000Z</time>
      </trkpt>
      <trkpt lat="47.26393" lon="-2.31659">
        <ele>-41.400001525879</ele>
        <time>2021-11-07T11:37:57.000Z</time>
      </trkpt>
      <trkpt lat="47.26396" lon="-2.31657">
        <ele>-40.799999237061</ele>
        <time>2021-11-07T11:37:58.000Z</time>
      </trkpt>
      <trkpt lat="47.26398" lon="-2.31656">
        <ele>-40.400001525879</ele>
        <time>2021-11-07T11:37:59.000Z</time>
      </trkpt>
      <trkpt lat="47.26401" lon="-2.31655">
        <ele>-40</ele>
        <time>2021-11-07T11:38:00.000Z</time>
      </trkpt>
      <trkpt lat="47.26409" lon="-2.31647">
        <ele>-40</ele>
        <time>2021-11-07T11:38:03.000Z</time>
      </trkpt>
      <trkpt lat="47.26409" lon="-2.31634">
        <ele>-40</ele>
        <time>2021-11-07T11:38:06.000Z</time>
      </trkpt>
      <trkpt lat="47.2641" lon="-2.31604">
        <ele>-40</ele>
        <time>2021-11-07T11:38:12.000Z</time>
      </trkpt>
      <trkpt lat="47.2641" lon="-2.31576">
        <ele>-40</ele>
        <time>2021-11-07T11:38:18.000Z</time>
      </trkpt>
      <trkpt lat="47.2641" lon="-2.3156">
        <ele>-40</ele>
        <time>2021-11-07T11:38:22.000Z</time>
      </trkpt>
      <trkpt lat="47.26413" lon="-2.31551">
        <ele>-40</ele>
        <time>2021-11-07T11:38:25.000Z</time>
      </trkpt>
      <trkpt lat="47.26414" lon="-2.31551">
        <ele>-40</ele>
        <time>2021-11-07T11:38:26.000Z</time>
      </trkpt>
      <trkpt lat="47.26417" lon="-2.31552">
        <ele>-40</ele>
        <time>2021-11-07T11:38:29.000Z</time>
      </trkpt>
    </trkseg>
  </trk>
</gpx>